<?xml version="1.0" encoding="UTF-8" standalone="no" ?>
<gpx xmlns="http://www.topografix.com/GPX/1/1" xmlns:xsi="http://www.w3.org/2001/XMLSchema-instance" xsi:schemaLocation="http://www.topografix.com/GPX/1/1 http://www.topografix.com/GPX/1/1/gpx.xsd" version="1.1" creator="VisuGPX - https://www.visugpx.com">
  <metadata>
    <name>Thurins - Py Froid - Jaricot</name>
    <desc><![CDATA[Des classiques revisitées aussi bien en montée qu\'en descente, avec une priorité au plaisir !!]]></desc>
  </metadata>
  <trk>
    <name><![CDATA[TracÃ© actuel: 20 OCT 2012 12:15]]></name>
    <trkseg>
      <trkpt lat="45.67876" lon="4.64978">
        <ele>339</ele>
        <time>2012-10-20T10:15:05Z</time>
      </trkpt>
      <trkpt lat="45.67877" lon="4.64974">
        <ele>339</ele>
        <time>2012-10-20T10:15:19Z</time>
      </trkpt>
      <trkpt lat="45.67877" lon="4.64973">
        <ele>339</ele>
        <time>2012-10-20T10:15:26Z</time>
      </trkpt>
      <trkpt lat="45.67877" lon="4.64983">
        <ele>339</ele>
        <time>2012-10-20T10:15:32Z</time>
      </trkpt>
      <trkpt lat="45.67883" lon="4.64985">
        <ele>339</ele>
        <time>2012-10-20T10:15:37Z</time>
      </trkpt>
      <trkpt lat="45.67893" lon="4.64983">
        <ele>339</ele>
        <time>2012-10-20T10:15:45Z</time>
      </trkpt>
      <trkpt lat="45.67897" lon="4.64974">
        <ele>339</ele>
        <time>2012-10-20T10:15:55Z</time>
      </trkpt>
      <trkpt lat="45.67894" lon="4.64973">
        <ele>339</ele>
        <time>2012-10-20T10:16:18Z</time>
      </trkpt>
      <trkpt lat="45.67893" lon="4.64972">
        <ele>339</ele>
        <time>2012-10-20T10:16:35Z</time>
      </trkpt>
      <trkpt lat="45.67896" lon="4.64969">
        <ele>339</ele>
        <time>2012-10-20T10:16:46Z</time>
      </trkpt>
      <trkpt lat="45.67895" lon="4.64966">
        <ele>339</ele>
        <time>2012-10-20T10:16:47Z</time>
      </trkpt>
      <trkpt lat="45.67885" lon="4.64937">
        <ele>339</ele>
        <time>2012-10-20T10:16:55Z</time>
      </trkpt>
      <trkpt lat="45.67872" lon="4.64912">
        <ele>339</ele>
        <time>2012-10-20T10:17:04Z</time>
      </trkpt>
      <trkpt lat="45.67857" lon="4.64887">
        <ele>339</ele>
        <time>2012-10-20T10:17:12Z</time>
      </trkpt>
      <trkpt lat="45.67831" lon="4.64865">
        <ele>340</ele>
        <time>2012-10-20T10:17:22Z</time>
      </trkpt>
      <trkpt lat="45.67812" lon="4.64849">
        <ele>341</ele>
        <time>2012-10-20T10:17:30Z</time>
      </trkpt>
      <trkpt lat="45.6781" lon="4.64845">
        <ele>340</ele>
        <time>2012-10-20T10:17:32Z</time>
      </trkpt>
      <trkpt lat="45.6781" lon="4.64842">
        <ele>341</ele>
        <time>2012-10-20T10:17:33Z</time>
      </trkpt>
      <trkpt lat="45.6781" lon="4.64839">
        <ele>341</ele>
        <time>2012-10-20T10:17:34Z</time>
      </trkpt>
      <trkpt lat="45.67809" lon="4.64837">
        <ele>342</ele>
        <time>2012-10-20T10:17:35Z</time>
      </trkpt>
      <trkpt lat="45.67807" lon="4.64828">
        <ele>343</ele>
        <time>2012-10-20T10:17:40Z</time>
      </trkpt>
      <trkpt lat="45.67799" lon="4.64808">
        <ele>344</ele>
        <time>2012-10-20T10:17:50Z</time>
      </trkpt>
      <trkpt lat="45.67792" lon="4.64793">
        <ele>347</ele>
        <time>2012-10-20T10:17:59Z</time>
      </trkpt>
      <trkpt lat="45.6779" lon="4.64781">
        <ele>349</ele>
        <time>2012-10-20T10:18:06Z</time>
      </trkpt>
      <trkpt lat="45.67788" lon="4.64766">
        <ele>350</ele>
        <time>2012-10-20T10:18:13Z</time>
      </trkpt>
      <trkpt lat="45.67788" lon="4.64759">
        <ele>350</ele>
        <time>2012-10-20T10:18:16Z</time>
      </trkpt>
      <trkpt lat="45.67788" lon="4.64757">
        <ele>350</ele>
        <time>2012-10-20T10:18:17Z</time>
      </trkpt>
      <trkpt lat="45.67788" lon="4.64755">
        <ele>351</ele>
        <time>2012-10-20T10:18:18Z</time>
      </trkpt>
      <trkpt lat="45.67788" lon="4.64753">
        <ele>350</ele>
        <time>2012-10-20T10:18:19Z</time>
      </trkpt>
      <trkpt lat="45.67787" lon="4.64751">
        <ele>351</ele>
        <time>2012-10-20T10:18:20Z</time>
      </trkpt>
      <trkpt lat="45.67787" lon="4.64749">
        <ele>350</ele>
        <time>2012-10-20T10:18:21Z</time>
      </trkpt>
      <trkpt lat="45.67786" lon="4.64746">
        <ele>351</ele>
        <time>2012-10-20T10:18:22Z</time>
      </trkpt>
      <trkpt lat="45.67781" lon="4.64729">
        <ele>351</ele>
        <time>2012-10-20T10:18:29Z</time>
      </trkpt>
      <trkpt lat="45.67775" lon="4.6471">
        <ele>352</ele>
        <time>2012-10-20T10:18:37Z</time>
      </trkpt>
      <trkpt lat="45.67768" lon="4.64689">
        <ele>353</ele>
        <time>2012-10-20T10:18:47Z</time>
      </trkpt>
      <trkpt lat="45.67765" lon="4.6467">
        <ele>354</ele>
        <time>2012-10-20T10:18:55Z</time>
      </trkpt>
      <trkpt lat="45.6776" lon="4.64646">
        <ele>355</ele>
        <time>2012-10-20T10:19:05Z</time>
      </trkpt>
      <trkpt lat="45.67755" lon="4.64621">
        <ele>357</ele>
        <time>2012-10-20T10:19:16Z</time>
      </trkpt>
      <trkpt lat="45.67749" lon="4.646">
        <ele>359</ele>
        <time>2012-10-20T10:19:26Z</time>
      </trkpt>
      <trkpt lat="45.67744" lon="4.64582">
        <ele>361</ele>
        <time>2012-10-20T10:19:35Z</time>
      </trkpt>
      <trkpt lat="45.67738" lon="4.64562">
        <ele>361</ele>
        <time>2012-10-20T10:19:44Z</time>
      </trkpt>
      <trkpt lat="45.67732" lon="4.64539">
        <ele>364</ele>
        <time>2012-10-20T10:19:54Z</time>
      </trkpt>
      <trkpt lat="45.67724" lon="4.6452">
        <ele>365</ele>
        <time>2012-10-20T10:20:03Z</time>
      </trkpt>
      <trkpt lat="45.67716" lon="4.64502">
        <ele>366</ele>
        <time>2012-10-20T10:20:11Z</time>
      </trkpt>
      <trkpt lat="45.67712" lon="4.64482">
        <ele>368</ele>
        <time>2012-10-20T10:20:20Z</time>
      </trkpt>
      <trkpt lat="45.67705" lon="4.64455">
        <ele>369</ele>
        <time>2012-10-20T10:20:30Z</time>
      </trkpt>
      <trkpt lat="45.67693" lon="4.64438">
        <ele>370</ele>
        <time>2012-10-20T10:20:38Z</time>
      </trkpt>
      <trkpt lat="45.67684" lon="4.64413">
        <ele>370</ele>
        <time>2012-10-20T10:20:47Z</time>
      </trkpt>
      <trkpt lat="45.67676" lon="4.64386">
        <ele>372</ele>
        <time>2012-10-20T10:20:55Z</time>
      </trkpt>
      <trkpt lat="45.67669" lon="4.64351">
        <ele>373</ele>
        <time>2012-10-20T10:21:04Z</time>
      </trkpt>
      <trkpt lat="45.67652" lon="4.64318">
        <ele>373</ele>
        <time>2012-10-20T10:21:15Z</time>
      </trkpt>
      <trkpt lat="45.67636" lon="4.64296">
        <ele>375</ele>
        <time>2012-10-20T10:21:24Z</time>
      </trkpt>
      <trkpt lat="45.67617" lon="4.64276">
        <ele>375</ele>
        <time>2012-10-20T10:21:33Z</time>
      </trkpt>
      <trkpt lat="45.67613" lon="4.64274">
        <ele>375</ele>
        <time>2012-10-20T10:21:34Z</time>
      </trkpt>
      <trkpt lat="45.67609" lon="4.64272">
        <ele>375</ele>
        <time>2012-10-20T10:21:35Z</time>
      </trkpt>
      <trkpt lat="45.67583" lon="4.64268">
        <ele>375</ele>
        <time>2012-10-20T10:21:42Z</time>
      </trkpt>
      <trkpt lat="45.67551" lon="4.64271">
        <ele>375</ele>
        <time>2012-10-20T10:21:52Z</time>
      </trkpt>
      <trkpt lat="45.67517" lon="4.6427">
        <ele>376</ele>
        <time>2012-10-20T10:22:02Z</time>
      </trkpt>
      <trkpt lat="45.67493" lon="4.64257">
        <ele>376</ele>
        <time>2012-10-20T10:22:10Z</time>
      </trkpt>
      <trkpt lat="45.67477" lon="4.64242">
        <ele>377</ele>
        <time>2012-10-20T10:22:17Z</time>
      </trkpt>
      <trkpt lat="45.67473" lon="4.64233">
        <ele>377</ele>
        <time>2012-10-20T10:22:22Z</time>
      </trkpt>
      <trkpt lat="45.67472" lon="4.64233">
        <ele>378</ele>
        <time>2012-10-20T10:22:26Z</time>
      </trkpt>
      <trkpt lat="45.67473" lon="4.64235">
        <ele>378</ele>
        <time>2012-10-20T10:22:27Z</time>
      </trkpt>
      <trkpt lat="45.67474" lon="4.64237">
        <ele>377</ele>
        <time>2012-10-20T10:22:28Z</time>
      </trkpt>
      <trkpt lat="45.67477" lon="4.64239">
        <ele>377</ele>
        <time>2012-10-20T10:22:29Z</time>
      </trkpt>
      <trkpt lat="45.6748" lon="4.64243">
        <ele>377</ele>
        <time>2012-10-20T10:22:30Z</time>
      </trkpt>
      <trkpt lat="45.67481" lon="4.64247">
        <ele>376</ele>
        <time>2012-10-20T10:22:31Z</time>
      </trkpt>
      <trkpt lat="45.6748" lon="4.64251">
        <ele>376</ele>
        <time>2012-10-20T10:22:32Z</time>
      </trkpt>
      <trkpt lat="45.67478" lon="4.64256">
        <ele>376</ele>
        <time>2012-10-20T10:22:33Z</time>
      </trkpt>
      <trkpt lat="45.67475" lon="4.6426">
        <ele>376</ele>
        <time>2012-10-20T10:22:34Z</time>
      </trkpt>
      <trkpt lat="45.67473" lon="4.64263">
        <ele>375</ele>
        <time>2012-10-20T10:22:35Z</time>
      </trkpt>
      <trkpt lat="45.67471" lon="4.64265">
        <ele>375</ele>
        <time>2012-10-20T10:22:36Z</time>
      </trkpt>
      <trkpt lat="45.6747" lon="4.64267">
        <ele>375</ele>
        <time>2012-10-20T10:22:37Z</time>
      </trkpt>
      <trkpt lat="45.67468" lon="4.64268">
        <ele>374</ele>
        <time>2012-10-20T10:22:38Z</time>
      </trkpt>
      <trkpt lat="45.67466" lon="4.64269">
        <ele>375</ele>
        <time>2012-10-20T10:22:39Z</time>
      </trkpt>
      <trkpt lat="45.67464" lon="4.64269">
        <ele>374</ele>
        <time>2012-10-20T10:22:40Z</time>
      </trkpt>
      <trkpt lat="45.67462" lon="4.64268">
        <ele>374</ele>
        <time>2012-10-20T10:22:41Z</time>
      </trkpt>
      <trkpt lat="45.67446" lon="4.6426">
        <ele>375</ele>
        <time>2012-10-20T10:22:47Z</time>
      </trkpt>
      <trkpt lat="45.67414" lon="4.64248">
        <ele>376</ele>
        <time>2012-10-20T10:22:57Z</time>
      </trkpt>
      <trkpt lat="45.67388" lon="4.64251">
        <ele>376</ele>
        <time>2012-10-20T10:23:05Z</time>
      </trkpt>
      <trkpt lat="45.67363" lon="4.64255">
        <ele>376</ele>
        <time>2012-10-20T10:23:12Z</time>
      </trkpt>
      <trkpt lat="45.67338" lon="4.64246">
        <ele>376</ele>
        <time>2012-10-20T10:23:20Z</time>
      </trkpt>
      <trkpt lat="45.67305" lon="4.64233">
        <ele>376</ele>
        <time>2012-10-20T10:23:30Z</time>
      </trkpt>
      <trkpt lat="45.67278" lon="4.64216">
        <ele>376</ele>
        <time>2012-10-20T10:23:39Z</time>
      </trkpt>
      <trkpt lat="45.67258" lon="4.64193">
        <ele>378</ele>
        <time>2012-10-20T10:23:48Z</time>
      </trkpt>
      <trkpt lat="45.6723" lon="4.64149">
        <ele>380</ele>
        <time>2012-10-20T10:24:02Z</time>
      </trkpt>
      <trkpt lat="45.6721" lon="4.64125">
        <ele>382</ele>
        <time>2012-10-20T10:24:11Z</time>
      </trkpt>
      <trkpt lat="45.6719" lon="4.64116">
        <ele>383</ele>
        <time>2012-10-20T10:24:19Z</time>
      </trkpt>
      <trkpt lat="45.67176" lon="4.64121">
        <ele>383</ele>
        <time>2012-10-20T10:24:24Z</time>
      </trkpt>
      <trkpt lat="45.67155" lon="4.64111">
        <ele>382</ele>
        <time>2012-10-20T10:24:30Z</time>
      </trkpt>
      <trkpt lat="45.67145" lon="4.64107">
        <ele>381</ele>
        <time>2012-10-20T10:24:32Z</time>
      </trkpt>
      <trkpt lat="45.67135" lon="4.64104">
        <ele>381</ele>
        <time>2012-10-20T10:24:34Z</time>
      </trkpt>
      <trkpt lat="45.67101" lon="4.64098">
        <ele>379</ele>
        <time>2012-10-20T10:24:41Z</time>
      </trkpt>
      <trkpt lat="45.67082" lon="4.641">
        <ele>380</ele>
        <time>2012-10-20T10:24:47Z</time>
      </trkpt>
      <trkpt lat="45.67074" lon="4.641">
        <ele>380</ele>
        <time>2012-10-20T10:24:53Z</time>
      </trkpt>
      <trkpt lat="45.67068" lon="4.64098">
        <ele>380</ele>
        <time>2012-10-20T10:25:01Z</time>
      </trkpt>
      <trkpt lat="45.67064" lon="4.64096">
        <ele>380</ele>
        <time>2012-10-20T10:25:08Z</time>
      </trkpt>
      <trkpt lat="45.6706" lon="4.64095">
        <ele>380</ele>
        <time>2012-10-20T10:25:11Z</time>
      </trkpt>
      <trkpt lat="45.67059" lon="4.64094">
        <ele>380</ele>
        <time>2012-10-20T10:25:12Z</time>
      </trkpt>
      <trkpt lat="45.67057" lon="4.64094">
        <ele>380</ele>
        <time>2012-10-20T10:25:13Z</time>
      </trkpt>
      <trkpt lat="45.67055" lon="4.64094">
        <ele>380</ele>
        <time>2012-10-20T10:25:14Z</time>
      </trkpt>
      <trkpt lat="45.67053" lon="4.64094">
        <ele>380</ele>
        <time>2012-10-20T10:25:15Z</time>
      </trkpt>
      <trkpt lat="45.67052" lon="4.64095">
        <ele>381</ele>
        <time>2012-10-20T10:25:16Z</time>
      </trkpt>
      <trkpt lat="45.67051" lon="4.64098">
        <ele>381</ele>
        <time>2012-10-20T10:25:17Z</time>
      </trkpt>
      <trkpt lat="45.67051" lon="4.641">
        <ele>382</ele>
        <time>2012-10-20T10:25:18Z</time>
      </trkpt>
      <trkpt lat="45.67051" lon="4.64103">
        <ele>382</ele>
        <time>2012-10-20T10:25:19Z</time>
      </trkpt>
      <trkpt lat="45.67052" lon="4.64106">
        <ele>383</ele>
        <time>2012-10-20T10:25:20Z</time>
      </trkpt>
      <trkpt lat="45.67056" lon="4.64126">
        <ele>385</ele>
        <time>2012-10-20T10:25:28Z</time>
      </trkpt>
      <trkpt lat="45.67056" lon="4.6413">
        <ele>385</ele>
        <time>2012-10-20T10:25:30Z</time>
      </trkpt>
      <trkpt lat="45.67055" lon="4.64132">
        <ele>386</ele>
        <time>2012-10-20T10:25:31Z</time>
      </trkpt>
      <trkpt lat="45.67054" lon="4.64134">
        <ele>386</ele>
        <time>2012-10-20T10:25:32Z</time>
      </trkpt>
      <trkpt lat="45.67052" lon="4.64135">
        <ele>387</ele>
        <time>2012-10-20T10:25:33Z</time>
      </trkpt>
      <trkpt lat="45.6705" lon="4.64135">
        <ele>387</ele>
        <time>2012-10-20T10:25:34Z</time>
      </trkpt>
      <trkpt lat="45.67049" lon="4.64134">
        <ele>387</ele>
        <time>2012-10-20T10:25:35Z</time>
      </trkpt>
      <trkpt lat="45.67048" lon="4.64133">
        <ele>387</ele>
        <time>2012-10-20T10:25:36Z</time>
      </trkpt>
      <trkpt lat="45.67042" lon="4.6413">
        <ele>388</ele>
        <time>2012-10-20T10:25:40Z</time>
      </trkpt>
      <trkpt lat="45.67035" lon="4.64129">
        <ele>389</ele>
        <time>2012-10-20T10:25:45Z</time>
      </trkpt>
      <trkpt lat="45.67033" lon="4.64129">
        <ele>389</ele>
        <time>2012-10-20T10:25:46Z</time>
      </trkpt>
      <trkpt lat="45.67032" lon="4.64129">
        <ele>389</ele>
        <time>2012-10-20T10:25:47Z</time>
      </trkpt>
      <trkpt lat="45.67024" lon="4.64125">
        <ele>391</ele>
        <time>2012-10-20T10:25:54Z</time>
      </trkpt>
      <trkpt lat="45.67013" lon="4.64121">
        <ele>393</ele>
        <time>2012-10-20T10:26:03Z</time>
      </trkpt>
      <trkpt lat="45.67002" lon="4.64118">
        <ele>395</ele>
        <time>2012-10-20T10:26:13Z</time>
      </trkpt>
      <trkpt lat="45.66992" lon="4.64123">
        <ele>397</ele>
        <time>2012-10-20T10:26:22Z</time>
      </trkpt>
      <trkpt lat="45.6699" lon="4.64123">
        <ele>398</ele>
        <time>2012-10-20T10:26:23Z</time>
      </trkpt>
      <trkpt lat="45.66989" lon="4.64124">
        <ele>398</ele>
        <time>2012-10-20T10:26:24Z</time>
      </trkpt>
      <trkpt lat="45.66988" lon="4.64125">
        <ele>398</ele>
        <time>2012-10-20T10:26:25Z</time>
      </trkpt>
      <trkpt lat="45.66987" lon="4.64125">
        <ele>399</ele>
        <time>2012-10-20T10:26:26Z</time>
      </trkpt>
      <trkpt lat="45.66979" lon="4.64127">
        <ele>400</ele>
        <time>2012-10-20T10:26:34Z</time>
      </trkpt>
      <trkpt lat="45.66964" lon="4.64127">
        <ele>402</ele>
        <time>2012-10-20T10:26:46Z</time>
      </trkpt>
      <trkpt lat="45.66956" lon="4.64126">
        <ele>404</ele>
        <time>2012-10-20T10:26:53Z</time>
      </trkpt>
      <trkpt lat="45.66944" lon="4.64123">
        <ele>406</ele>
        <time>2012-10-20T10:27:04Z</time>
      </trkpt>
      <trkpt lat="45.66933" lon="4.64118">
        <ele>409</ele>
        <time>2012-10-20T10:27:15Z</time>
      </trkpt>
      <trkpt lat="45.66922" lon="4.64113">
        <ele>411</ele>
        <time>2012-10-20T10:27:25Z</time>
      </trkpt>
      <trkpt lat="45.66911" lon="4.64112">
        <ele>413</ele>
        <time>2012-10-20T10:27:35Z</time>
      </trkpt>
      <trkpt lat="45.669" lon="4.64112">
        <ele>414</ele>
        <time>2012-10-20T10:27:44Z</time>
      </trkpt>
      <trkpt lat="45.66889" lon="4.64112">
        <ele>416</ele>
        <time>2012-10-20T10:27:54Z</time>
      </trkpt>
      <trkpt lat="45.6688" lon="4.64109">
        <ele>418</ele>
        <time>2012-10-20T10:28:03Z</time>
      </trkpt>
      <trkpt lat="45.66873" lon="4.64107">
        <ele>419</ele>
        <time>2012-10-20T10:28:09Z</time>
      </trkpt>
      <trkpt lat="45.66863" lon="4.64109">
        <ele>421</ele>
        <time>2012-10-20T10:28:18Z</time>
      </trkpt>
      <trkpt lat="45.66852" lon="4.64116">
        <ele>422</ele>
        <time>2012-10-20T10:28:27Z</time>
      </trkpt>
      <trkpt lat="45.66846" lon="4.64122">
        <ele>423</ele>
        <time>2012-10-20T10:28:34Z</time>
      </trkpt>
      <trkpt lat="45.66845" lon="4.64121">
        <ele>424</ele>
        <time>2012-10-20T10:28:35Z</time>
      </trkpt>
      <trkpt lat="45.66844" lon="4.6412">
        <ele>423</ele>
        <time>2012-10-20T10:28:36Z</time>
      </trkpt>
      <trkpt lat="45.66843" lon="4.64119">
        <ele>424</ele>
        <time>2012-10-20T10:28:37Z</time>
      </trkpt>
      <trkpt lat="45.66836" lon="4.64109">
        <ele>424</ele>
        <time>2012-10-20T10:28:44Z</time>
      </trkpt>
      <trkpt lat="45.66823" lon="4.64092">
        <ele>426</ele>
        <time>2012-10-20T10:28:55Z</time>
      </trkpt>
      <trkpt lat="45.66811" lon="4.64078">
        <ele>426</ele>
        <time>2012-10-20T10:29:04Z</time>
      </trkpt>
      <trkpt lat="45.66798" lon="4.64059">
        <ele>428</ele>
        <time>2012-10-20T10:29:15Z</time>
      </trkpt>
      <trkpt lat="45.66785" lon="4.6404">
        <ele>428</ele>
        <time>2012-10-20T10:29:25Z</time>
      </trkpt>
      <trkpt lat="45.66772" lon="4.64029">
        <ele>429</ele>
        <time>2012-10-20T10:29:34Z</time>
      </trkpt>
      <trkpt lat="45.66773" lon="4.64028">
        <ele>429</ele>
        <time>2012-10-20T10:29:41Z</time>
      </trkpt>
      <trkpt lat="45.66772" lon="4.64028">
        <ele>429</ele>
        <time>2012-10-20T10:29:53Z</time>
      </trkpt>
      <trkpt lat="45.66771" lon="4.64028">
        <ele>429</ele>
        <time>2012-10-20T10:30:20Z</time>
      </trkpt>
      <trkpt lat="45.66771" lon="4.64028">
        <ele>429</ele>
        <time>2012-10-20T10:30:48Z</time>
      </trkpt>
      <trkpt lat="45.66771" lon="4.6403">
        <ele>429</ele>
        <time>2012-10-20T10:31:14Z</time>
      </trkpt>
      <trkpt lat="45.66771" lon="4.64027">
        <ele>428</ele>
        <time>2012-10-20T10:31:41Z</time>
      </trkpt>
      <trkpt lat="45.6677" lon="4.64027">
        <ele>428</ele>
        <time>2012-10-20T10:31:52Z</time>
      </trkpt>
      <trkpt lat="45.66768" lon="4.64026">
        <ele>428</ele>
        <time>2012-10-20T10:31:54Z</time>
      </trkpt>
      <trkpt lat="45.66767" lon="4.64024">
        <ele>428</ele>
        <time>2012-10-20T10:31:55Z</time>
      </trkpt>
      <trkpt lat="45.66766" lon="4.64023">
        <ele>429</ele>
        <time>2012-10-20T10:31:56Z</time>
      </trkpt>
      <trkpt lat="45.66765" lon="4.64021">
        <ele>428</ele>
        <time>2012-10-20T10:31:57Z</time>
      </trkpt>
      <trkpt lat="45.66763" lon="4.6402">
        <ele>429</ele>
        <time>2012-10-20T10:31:58Z</time>
      </trkpt>
      <trkpt lat="45.66741" lon="4.64005">
        <ele>430</ele>
        <time>2012-10-20T10:32:06Z</time>
      </trkpt>
      <trkpt lat="45.66709" lon="4.63986">
        <ele>431</ele>
        <time>2012-10-20T10:32:17Z</time>
      </trkpt>
      <trkpt lat="45.66682" lon="4.63972">
        <ele>432</ele>
        <time>2012-10-20T10:32:26Z</time>
      </trkpt>
      <trkpt lat="45.66653" lon="4.63957">
        <ele>433</ele>
        <time>2012-10-20T10:32:36Z</time>
      </trkpt>
      <trkpt lat="45.66619" lon="4.63937">
        <ele>434</ele>
        <time>2012-10-20T10:32:48Z</time>
      </trkpt>
      <trkpt lat="45.66607" lon="4.63933">
        <ele>436</ele>
        <time>2012-10-20T10:32:54Z</time>
      </trkpt>
      <trkpt lat="45.66605" lon="4.63933">
        <ele>435</ele>
        <time>2012-10-20T10:33:02Z</time>
      </trkpt>
      <trkpt lat="45.66597" lon="4.63926">
        <ele>436</ele>
        <time>2012-10-20T10:33:06Z</time>
      </trkpt>
      <trkpt lat="45.66569" lon="4.6391">
        <ele>437</ele>
        <time>2012-10-20T10:33:16Z</time>
      </trkpt>
      <trkpt lat="45.66544" lon="4.63895">
        <ele>438</ele>
        <time>2012-10-20T10:33:26Z</time>
      </trkpt>
      <trkpt lat="45.66534" lon="4.6388">
        <ele>439</ele>
        <time>2012-10-20T10:33:32Z</time>
      </trkpt>
      <trkpt lat="45.66523" lon="4.63838">
        <ele>440</ele>
        <time>2012-10-20T10:33:43Z</time>
      </trkpt>
      <trkpt lat="45.66514" lon="4.63799">
        <ele>442</ele>
        <time>2012-10-20T10:33:54Z</time>
      </trkpt>
      <trkpt lat="45.66505" lon="4.63761">
        <ele>444</ele>
        <time>2012-10-20T10:34:05Z</time>
      </trkpt>
      <trkpt lat="45.66489" lon="4.63731">
        <ele>446</ele>
        <time>2012-10-20T10:34:15Z</time>
      </trkpt>
      <trkpt lat="45.66468" lon="4.63709">
        <ele>448</ele>
        <time>2012-10-20T10:34:25Z</time>
      </trkpt>
      <trkpt lat="45.66449" lon="4.63695">
        <ele>449</ele>
        <time>2012-10-20T10:34:33Z</time>
      </trkpt>
      <trkpt lat="45.66421" lon="4.63683">
        <ele>451</ele>
        <time>2012-10-20T10:34:44Z</time>
      </trkpt>
      <trkpt lat="45.66398" lon="4.63679">
        <ele>452</ele>
        <time>2012-10-20T10:34:53Z</time>
      </trkpt>
      <trkpt lat="45.66383" lon="4.63665">
        <ele>454</ele>
        <time>2012-10-20T10:35:00Z</time>
      </trkpt>
      <trkpt lat="45.66364" lon="4.63646">
        <ele>455</ele>
        <time>2012-10-20T10:35:09Z</time>
      </trkpt>
      <trkpt lat="45.66362" lon="4.63638">
        <ele>456</ele>
        <time>2012-10-20T10:35:12Z</time>
      </trkpt>
      <trkpt lat="45.66362" lon="4.63634">
        <ele>456</ele>
        <time>2012-10-20T10:35:13Z</time>
      </trkpt>
      <trkpt lat="45.66362" lon="4.63632">
        <ele>456</ele>
        <time>2012-10-20T10:35:14Z</time>
      </trkpt>
      <trkpt lat="45.66368" lon="4.636">
        <ele>456</ele>
        <time>2012-10-20T10:35:22Z</time>
      </trkpt>
      <trkpt lat="45.66369" lon="4.63594">
        <ele>455</ele>
        <time>2012-10-20T10:35:23Z</time>
      </trkpt>
      <trkpt lat="45.66368" lon="4.63587">
        <ele>455</ele>
        <time>2012-10-20T10:35:24Z</time>
      </trkpt>
      <trkpt lat="45.66367" lon="4.6358">
        <ele>455</ele>
        <time>2012-10-20T10:35:25Z</time>
      </trkpt>
      <trkpt lat="45.66365" lon="4.63572">
        <ele>454</ele>
        <time>2012-10-20T10:35:26Z</time>
      </trkpt>
      <trkpt lat="45.66363" lon="4.63563">
        <ele>454</ele>
        <time>2012-10-20T10:35:27Z</time>
      </trkpt>
      <trkpt lat="45.66354" lon="4.63523">
        <ele>452</ele>
        <time>2012-10-20T10:35:31Z</time>
      </trkpt>
      <trkpt lat="45.66343" lon="4.63464">
        <ele>449</ele>
        <time>2012-10-20T10:35:36Z</time>
      </trkpt>
      <trkpt lat="45.66334" lon="4.63419">
        <ele>447</ele>
        <time>2012-10-20T10:35:40Z</time>
      </trkpt>
      <trkpt lat="45.66335" lon="4.63408">
        <ele>448</ele>
        <time>2012-10-20T10:35:41Z</time>
      </trkpt>
      <trkpt lat="45.66346" lon="4.6334">
        <ele>447</ele>
        <time>2012-10-20T10:35:48Z</time>
      </trkpt>
      <trkpt lat="45.66352" lon="4.63299">
        <ele>446</ele>
        <time>2012-10-20T10:35:52Z</time>
      </trkpt>
      <trkpt lat="45.66357" lon="4.63253">
        <ele>444</ele>
        <time>2012-10-20T10:35:56Z</time>
      </trkpt>
      <trkpt lat="45.66362" lon="4.63203">
        <ele>440</ele>
        <time>2012-10-20T10:36:00Z</time>
      </trkpt>
      <trkpt lat="45.66366" lon="4.63192">
        <ele>439</ele>
        <time>2012-10-20T10:36:01Z</time>
      </trkpt>
      <trkpt lat="45.6637" lon="4.63184">
        <ele>440</ele>
        <time>2012-10-20T10:36:02Z</time>
      </trkpt>
      <trkpt lat="45.66388" lon="4.63165">
        <ele>442</ele>
        <time>2012-10-20T10:36:06Z</time>
      </trkpt>
      <trkpt lat="45.66391" lon="4.63162">
        <ele>442</ele>
        <time>2012-10-20T10:36:07Z</time>
      </trkpt>
      <trkpt lat="45.66401" lon="4.63156">
        <ele>443</ele>
        <time>2012-10-20T10:36:11Z</time>
      </trkpt>
      <trkpt lat="45.66403" lon="4.63158">
        <ele>443</ele>
        <time>2012-10-20T10:36:12Z</time>
      </trkpt>
      <trkpt lat="45.66405" lon="4.63161">
        <ele>444</ele>
        <time>2012-10-20T10:36:13Z</time>
      </trkpt>
      <trkpt lat="45.66408" lon="4.63165">
        <ele>444</ele>
        <time>2012-10-20T10:36:14Z</time>
      </trkpt>
      <trkpt lat="45.6641" lon="4.63169">
        <ele>444</ele>
        <time>2012-10-20T10:36:15Z</time>
      </trkpt>
      <trkpt lat="45.66412" lon="4.63173">
        <ele>445</ele>
        <time>2012-10-20T10:36:16Z</time>
      </trkpt>
      <trkpt lat="45.66414" lon="4.63176">
        <ele>446</ele>
        <time>2012-10-20T10:36:17Z</time>
      </trkpt>
      <trkpt lat="45.66416" lon="4.63178">
        <ele>446</ele>
        <time>2012-10-20T10:36:18Z</time>
      </trkpt>
      <trkpt lat="45.66419" lon="4.6318">
        <ele>447</ele>
        <time>2012-10-20T10:36:19Z</time>
      </trkpt>
      <trkpt lat="45.66421" lon="4.6318">
        <ele>448</ele>
        <time>2012-10-20T10:36:20Z</time>
      </trkpt>
      <trkpt lat="45.66424" lon="4.6318">
        <ele>448</ele>
        <time>2012-10-20T10:36:21Z</time>
      </trkpt>
      <trkpt lat="45.66426" lon="4.63178">
        <ele>448</ele>
        <time>2012-10-20T10:36:22Z</time>
      </trkpt>
      <trkpt lat="45.66428" lon="4.63175">
        <ele>448</ele>
        <time>2012-10-20T10:36:23Z</time>
      </trkpt>
      <trkpt lat="45.66429" lon="4.63173">
        <ele>449</ele>
        <time>2012-10-20T10:36:24Z</time>
      </trkpt>
      <trkpt lat="45.6643" lon="4.63171">
        <ele>449</ele>
        <time>2012-10-20T10:36:25Z</time>
      </trkpt>
      <trkpt lat="45.66431" lon="4.63169">
        <ele>449</ele>
        <time>2012-10-20T10:36:26Z</time>
      </trkpt>
      <trkpt lat="45.66432" lon="4.63167">
        <ele>449</ele>
        <time>2012-10-20T10:36:27Z</time>
      </trkpt>
      <trkpt lat="45.66432" lon="4.63165">
        <ele>449</ele>
        <time>2012-10-20T10:36:28Z</time>
      </trkpt>
      <trkpt lat="45.66434" lon="4.63159">
        <ele>449</ele>
        <time>2012-10-20T10:36:35Z</time>
      </trkpt>
      <trkpt lat="45.66435" lon="4.63158">
        <ele>449</ele>
        <time>2012-10-20T10:36:54Z</time>
      </trkpt>
      <trkpt lat="45.66434" lon="4.63158">
        <ele>449</ele>
        <time>2012-10-20T10:37:09Z</time>
      </trkpt>
      <trkpt lat="45.66433" lon="4.63157">
        <ele>449</ele>
        <time>2012-10-20T10:37:25Z</time>
      </trkpt>
      <trkpt lat="45.66435" lon="4.63156">
        <ele>449</ele>
        <time>2012-10-20T10:37:32Z</time>
      </trkpt>
      <trkpt lat="45.66436" lon="4.63156">
        <ele>450</ele>
        <time>2012-10-20T10:37:33Z</time>
      </trkpt>
      <trkpt lat="45.66437" lon="4.63156">
        <ele>450</ele>
        <time>2012-10-20T10:37:34Z</time>
      </trkpt>
      <trkpt lat="45.66444" lon="4.63153">
        <ele>451</ele>
        <time>2012-10-20T10:37:39Z</time>
      </trkpt>
      <trkpt lat="45.66453" lon="4.63153">
        <ele>453</ele>
        <time>2012-10-20T10:37:45Z</time>
      </trkpt>
      <trkpt lat="45.66455" lon="4.63152">
        <ele>452</ele>
        <time>2012-10-20T10:37:46Z</time>
      </trkpt>
      <trkpt lat="45.66456" lon="4.63152">
        <ele>453</ele>
        <time>2012-10-20T10:37:47Z</time>
      </trkpt>
      <trkpt lat="45.66458" lon="4.63153">
        <ele>453</ele>
        <time>2012-10-20T10:37:48Z</time>
      </trkpt>
      <trkpt lat="45.6646" lon="4.63153">
        <ele>453</ele>
        <time>2012-10-20T10:37:49Z</time>
      </trkpt>
      <trkpt lat="45.66462" lon="4.63154">
        <ele>454</ele>
        <time>2012-10-20T10:37:50Z</time>
      </trkpt>
      <trkpt lat="45.66476" lon="4.63153">
        <ele>454</ele>
        <time>2012-10-20T10:37:57Z</time>
      </trkpt>
      <trkpt lat="45.66494" lon="4.63155">
        <ele>455</ele>
        <time>2012-10-20T10:38:06Z</time>
      </trkpt>
      <trkpt lat="45.6651" lon="4.63158">
        <ele>456</ele>
        <time>2012-10-20T10:38:14Z</time>
      </trkpt>
      <trkpt lat="45.66529" lon="4.63161">
        <ele>457</ele>
        <time>2012-10-20T10:38:23Z</time>
      </trkpt>
      <trkpt lat="45.66548" lon="4.63154">
        <ele>459</ele>
        <time>2012-10-20T10:38:33Z</time>
      </trkpt>
      <trkpt lat="45.66565" lon="4.63147">
        <ele>460</ele>
        <time>2012-10-20T10:38:42Z</time>
      </trkpt>
      <trkpt lat="45.66578" lon="4.63141">
        <ele>461</ele>
        <time>2012-10-20T10:38:50Z</time>
      </trkpt>
      <trkpt lat="45.66589" lon="4.63138">
        <ele>462</ele>
        <time>2012-10-20T10:38:56Z</time>
      </trkpt>
      <trkpt lat="45.6659" lon="4.63137">
        <ele>462</ele>
        <time>2012-10-20T10:38:57Z</time>
      </trkpt>
      <trkpt lat="45.66592" lon="4.63136">
        <ele>462</ele>
        <time>2012-10-20T10:38:58Z</time>
      </trkpt>
      <trkpt lat="45.66593" lon="4.63135">
        <ele>462</ele>
        <time>2012-10-20T10:38:59Z</time>
      </trkpt>
      <trkpt lat="45.66595" lon="4.63135">
        <ele>463</ele>
        <time>2012-10-20T10:39:00Z</time>
      </trkpt>
      <trkpt lat="45.66596" lon="4.63135">
        <ele>463</ele>
        <time>2012-10-20T10:39:01Z</time>
      </trkpt>
      <trkpt lat="45.66608" lon="4.63129">
        <ele>464</ele>
        <time>2012-10-20T10:39:08Z</time>
      </trkpt>
      <trkpt lat="45.66609" lon="4.63129">
        <ele>464</ele>
        <time>2012-10-20T10:39:09Z</time>
      </trkpt>
      <trkpt lat="45.6661" lon="4.63128">
        <ele>465</ele>
        <time>2012-10-20T10:39:10Z</time>
      </trkpt>
      <trkpt lat="45.66611" lon="4.63128">
        <ele>465</ele>
        <time>2012-10-20T10:39:11Z</time>
      </trkpt>
      <trkpt lat="45.66612" lon="4.63127">
        <ele>465</ele>
        <time>2012-10-20T10:39:12Z</time>
      </trkpt>
      <trkpt lat="45.66613" lon="4.63127">
        <ele>465</ele>
        <time>2012-10-20T10:39:13Z</time>
      </trkpt>
      <trkpt lat="45.66615" lon="4.63127">
        <ele>465</ele>
        <time>2012-10-20T10:39:14Z</time>
      </trkpt>
      <trkpt lat="45.66625" lon="4.63123">
        <ele>466</ele>
        <time>2012-10-20T10:39:21Z</time>
      </trkpt>
      <trkpt lat="45.66639" lon="4.63113">
        <ele>467</ele>
        <time>2012-10-20T10:39:30Z</time>
      </trkpt>
      <trkpt lat="45.66643" lon="4.6311">
        <ele>468</ele>
        <time>2012-10-20T10:39:33Z</time>
      </trkpt>
      <trkpt lat="45.66659" lon="4.63101">
        <ele>469</ele>
        <time>2012-10-20T10:39:43Z</time>
      </trkpt>
      <trkpt lat="45.66673" lon="4.63097">
        <ele>471</ele>
        <time>2012-10-20T10:39:53Z</time>
      </trkpt>
      <trkpt lat="45.66684" lon="4.63099">
        <ele>473</ele>
        <time>2012-10-20T10:40:00Z</time>
      </trkpt>
      <trkpt lat="45.66697" lon="4.63099">
        <ele>475</ele>
        <time>2012-10-20T10:40:08Z</time>
      </trkpt>
      <trkpt lat="45.66709" lon="4.63104">
        <ele>476</ele>
        <time>2012-10-20T10:40:17Z</time>
      </trkpt>
      <trkpt lat="45.66719" lon="4.631">
        <ele>478</ele>
        <time>2012-10-20T10:40:24Z</time>
      </trkpt>
      <trkpt lat="45.66721" lon="4.63098">
        <ele>478</ele>
        <time>2012-10-20T10:40:25Z</time>
      </trkpt>
      <trkpt lat="45.66722" lon="4.63097">
        <ele>478</ele>
        <time>2012-10-20T10:40:26Z</time>
      </trkpt>
      <trkpt lat="45.66724" lon="4.63095">
        <ele>478</ele>
        <time>2012-10-20T10:40:27Z</time>
      </trkpt>
      <trkpt lat="45.66725" lon="4.63094">
        <ele>478</ele>
        <time>2012-10-20T10:40:28Z</time>
      </trkpt>
      <trkpt lat="45.66727" lon="4.63093">
        <ele>478</ele>
        <time>2012-10-20T10:40:29Z</time>
      </trkpt>
      <trkpt lat="45.66729" lon="4.63092">
        <ele>478</ele>
        <time>2012-10-20T10:40:30Z</time>
      </trkpt>
      <trkpt lat="45.6673" lon="4.63091">
        <ele>479</ele>
        <time>2012-10-20T10:40:31Z</time>
      </trkpt>
      <trkpt lat="45.66745" lon="4.6308">
        <ele>480</ele>
        <time>2012-10-20T10:40:41Z</time>
      </trkpt>
      <trkpt lat="45.66762" lon="4.63069">
        <ele>482</ele>
        <time>2012-10-20T10:40:51Z</time>
      </trkpt>
      <trkpt lat="45.66774" lon="4.63066">
        <ele>483</ele>
        <time>2012-10-20T10:41:00Z</time>
      </trkpt>
      <trkpt lat="45.66792" lon="4.63067">
        <ele>482</ele>
        <time>2012-10-20T10:41:06Z</time>
      </trkpt>
      <trkpt lat="45.66823" lon="4.63069">
        <ele>482</ele>
        <time>2012-10-20T10:41:14Z</time>
      </trkpt>
      <trkpt lat="45.6686" lon="4.63067">
        <ele>481</ele>
        <time>2012-10-20T10:41:23Z</time>
      </trkpt>
      <trkpt lat="45.66884" lon="4.63058">
        <ele>480</ele>
        <time>2012-10-20T10:41:28Z</time>
      </trkpt>
      <trkpt lat="45.66888" lon="4.63057">
        <ele>480</ele>
        <time>2012-10-20T10:41:29Z</time>
      </trkpt>
      <trkpt lat="45.66891" lon="4.63055">
        <ele>481</ele>
        <time>2012-10-20T10:41:30Z</time>
      </trkpt>
      <trkpt lat="45.66893" lon="4.63051">
        <ele>481</ele>
        <time>2012-10-20T10:41:31Z</time>
      </trkpt>
      <trkpt lat="45.66893" lon="4.63047">
        <ele>480</ele>
        <time>2012-10-20T10:41:32Z</time>
      </trkpt>
      <trkpt lat="45.66892" lon="4.63044">
        <ele>481</ele>
        <time>2012-10-20T10:41:33Z</time>
      </trkpt>
      <trkpt lat="45.66892" lon="4.63041">
        <ele>480</ele>
        <time>2012-10-20T10:41:34Z</time>
      </trkpt>
      <trkpt lat="45.66891" lon="4.63038">
        <ele>481</ele>
        <time>2012-10-20T10:41:35Z</time>
      </trkpt>
      <trkpt lat="45.6689" lon="4.63035">
        <ele>481</ele>
        <time>2012-10-20T10:41:36Z</time>
      </trkpt>
      <trkpt lat="45.66889" lon="4.63033">
        <ele>482</ele>
        <time>2012-10-20T10:41:37Z</time>
      </trkpt>
      <trkpt lat="45.66888" lon="4.6303">
        <ele>482</ele>
        <time>2012-10-20T10:41:38Z</time>
      </trkpt>
      <trkpt lat="45.66887" lon="4.63027">
        <ele>481</ele>
        <time>2012-10-20T10:41:39Z</time>
      </trkpt>
      <trkpt lat="45.66887" lon="4.63024">
        <ele>482</ele>
        <time>2012-10-20T10:41:40Z</time>
      </trkpt>
      <trkpt lat="45.66887" lon="4.63021">
        <ele>482</ele>
        <time>2012-10-20T10:41:41Z</time>
      </trkpt>
      <trkpt lat="45.66886" lon="4.63018">
        <ele>482</ele>
        <time>2012-10-20T10:41:42Z</time>
      </trkpt>
      <trkpt lat="45.66885" lon="4.63016">
        <ele>483</ele>
        <time>2012-10-20T10:41:43Z</time>
      </trkpt>
      <trkpt lat="45.66884" lon="4.63014">
        <ele>483</ele>
        <time>2012-10-20T10:41:44Z</time>
      </trkpt>
      <trkpt lat="45.66883" lon="4.63012">
        <ele>483</ele>
        <time>2012-10-20T10:41:45Z</time>
      </trkpt>
      <trkpt lat="45.66883" lon="4.63011">
        <ele>484</ele>
        <time>2012-10-20T10:41:46Z</time>
      </trkpt>
      <trkpt lat="45.66881" lon="4.63007">
        <ele>484</ele>
        <time>2012-10-20T10:41:48Z</time>
      </trkpt>
      <trkpt lat="45.66881" lon="4.63">
        <ele>484</ele>
        <time>2012-10-20T10:41:51Z</time>
      </trkpt>
      <trkpt lat="45.66881" lon="4.62997">
        <ele>484</ele>
        <time>2012-10-20T10:41:52Z</time>
      </trkpt>
      <trkpt lat="45.66886" lon="4.62966">
        <ele>483</ele>
        <time>2012-10-20T10:41:59Z</time>
      </trkpt>
      <trkpt lat="45.66887" lon="4.62928">
        <ele>482</ele>
        <time>2012-10-20T10:42:06Z</time>
      </trkpt>
      <trkpt lat="45.66883" lon="4.62903">
        <ele>481</ele>
        <time>2012-10-20T10:42:11Z</time>
      </trkpt>
      <trkpt lat="45.66878" lon="4.62875">
        <ele>480</ele>
        <time>2012-10-20T10:42:16Z</time>
      </trkpt>
      <trkpt lat="45.66878" lon="4.62842">
        <ele>480</ele>
        <time>2012-10-20T10:42:22Z</time>
      </trkpt>
      <trkpt lat="45.66889" lon="4.62805">
        <ele>478</ele>
        <time>2012-10-20T10:42:29Z</time>
      </trkpt>
      <trkpt lat="45.66906" lon="4.62776">
        <ele>477</ele>
        <time>2012-10-20T10:42:36Z</time>
      </trkpt>
      <trkpt lat="45.66927" lon="4.6275">
        <ele>476</ele>
        <time>2012-10-20T10:42:43Z</time>
      </trkpt>
      <trkpt lat="45.66939" lon="4.62718">
        <ele>475</ele>
        <time>2012-10-20T10:42:49Z</time>
      </trkpt>
      <trkpt lat="45.66941" lon="4.62711">
        <ele>475</ele>
        <time>2012-10-20T10:42:50Z</time>
      </trkpt>
      <trkpt lat="45.66942" lon="4.62703">
        <ele>475</ele>
        <time>2012-10-20T10:42:51Z</time>
      </trkpt>
      <trkpt lat="45.66946" lon="4.6267">
        <ele>474</ele>
        <time>2012-10-20T10:42:55Z</time>
      </trkpt>
      <trkpt lat="45.6695" lon="4.62644">
        <ele>474</ele>
        <time>2012-10-20T10:42:59Z</time>
      </trkpt>
      <trkpt lat="45.6695" lon="4.62637">
        <ele>474</ele>
        <time>2012-10-20T10:43:00Z</time>
      </trkpt>
      <trkpt lat="45.66951" lon="4.626">
        <ele>472</ele>
        <time>2012-10-20T10:43:06Z</time>
      </trkpt>
      <trkpt lat="45.6695" lon="4.62594">
        <ele>472</ele>
        <time>2012-10-20T10:43:07Z</time>
      </trkpt>
      <trkpt lat="45.66949" lon="4.62587">
        <ele>472</ele>
        <time>2012-10-20T10:43:08Z</time>
      </trkpt>
      <trkpt lat="45.66948" lon="4.6258">
        <ele>472</ele>
        <time>2012-10-20T10:43:09Z</time>
      </trkpt>
      <trkpt lat="45.66947" lon="4.62573">
        <ele>472</ele>
        <time>2012-10-20T10:43:10Z</time>
      </trkpt>
      <trkpt lat="45.66946" lon="4.62566">
        <ele>472</ele>
        <time>2012-10-20T10:43:11Z</time>
      </trkpt>
      <trkpt lat="45.66942" lon="4.62553">
        <ele>471</ele>
        <time>2012-10-20T10:43:13Z</time>
      </trkpt>
      <trkpt lat="45.66939" lon="4.62547">
        <ele>471</ele>
        <time>2012-10-20T10:43:14Z</time>
      </trkpt>
      <trkpt lat="45.66937" lon="4.62541">
        <ele>470</ele>
        <time>2012-10-20T10:43:15Z</time>
      </trkpt>
      <trkpt lat="45.66932" lon="4.6253">
        <ele>471</ele>
        <time>2012-10-20T10:43:17Z</time>
      </trkpt>
      <trkpt lat="45.66929" lon="4.62525">
        <ele>471</ele>
        <time>2012-10-20T10:43:18Z</time>
      </trkpt>
      <trkpt lat="45.66928" lon="4.62521">
        <ele>470</ele>
        <time>2012-10-20T10:43:19Z</time>
      </trkpt>
      <trkpt lat="45.66917" lon="4.62498">
        <ele>469</ele>
        <time>2012-10-20T10:43:25Z</time>
      </trkpt>
      <trkpt lat="45.66899" lon="4.62468">
        <ele>469</ele>
        <time>2012-10-20T10:43:32Z</time>
      </trkpt>
      <trkpt lat="45.66897" lon="4.62462">
        <ele>469</ele>
        <time>2012-10-20T10:43:33Z</time>
      </trkpt>
      <trkpt lat="45.66892" lon="4.62427">
        <ele>469</ele>
        <time>2012-10-20T10:43:39Z</time>
      </trkpt>
      <trkpt lat="45.66898" lon="4.62395">
        <ele>469</ele>
        <time>2012-10-20T10:43:45Z</time>
      </trkpt>
      <trkpt lat="45.66909" lon="4.62369">
        <ele>469</ele>
        <time>2012-10-20T10:43:51Z</time>
      </trkpt>
      <trkpt lat="45.66924" lon="4.6235">
        <ele>468</ele>
        <time>2012-10-20T10:43:56Z</time>
      </trkpt>
      <trkpt lat="45.66948" lon="4.62328">
        <ele>468</ele>
        <time>2012-10-20T10:44:03Z</time>
      </trkpt>
      <trkpt lat="45.66971" lon="4.62306">
        <ele>466</ele>
        <time>2012-10-20T10:44:09Z</time>
      </trkpt>
      <trkpt lat="45.66987" lon="4.62275">
        <ele>466</ele>
        <time>2012-10-20T10:44:15Z</time>
      </trkpt>
      <trkpt lat="45.6699" lon="4.62268">
        <ele>465</ele>
        <time>2012-10-20T10:44:16Z</time>
      </trkpt>
      <trkpt lat="45.66992" lon="4.62262">
        <ele>465</ele>
        <time>2012-10-20T10:44:17Z</time>
      </trkpt>
      <trkpt lat="45.66994" lon="4.62256">
        <ele>465</ele>
        <time>2012-10-20T10:44:18Z</time>
      </trkpt>
      <trkpt lat="45.67002" lon="4.62212">
        <ele>463</ele>
        <time>2012-10-20T10:44:25Z</time>
      </trkpt>
      <trkpt lat="45.67012" lon="4.6217">
        <ele>463</ele>
        <time>2012-10-20T10:44:32Z</time>
      </trkpt>
      <trkpt lat="45.67022" lon="4.62152">
        <ele>462</ele>
        <time>2012-10-20T10:44:36Z</time>
      </trkpt>
      <trkpt lat="45.67032" lon="4.62137">
        <ele>462</ele>
        <time>2012-10-20T10:44:39Z</time>
      </trkpt>
      <trkpt lat="45.67052" lon="4.62115">
        <ele>461</ele>
        <time>2012-10-20T10:44:44Z</time>
      </trkpt>
      <trkpt lat="45.67075" lon="4.62085">
        <ele>459</ele>
        <time>2012-10-20T10:44:51Z</time>
      </trkpt>
      <trkpt lat="45.67086" lon="4.62075">
        <ele>459</ele>
        <time>2012-10-20T10:44:54Z</time>
      </trkpt>
      <trkpt lat="45.6711" lon="4.62041">
        <ele>457</ele>
        <time>2012-10-20T10:45:01Z</time>
      </trkpt>
      <trkpt lat="45.67112" lon="4.62035">
        <ele>457</ele>
        <time>2012-10-20T10:45:02Z</time>
      </trkpt>
      <trkpt lat="45.67117" lon="4.62024">
        <ele>457</ele>
        <time>2012-10-20T10:45:04Z</time>
      </trkpt>
      <trkpt lat="45.67118" lon="4.62018">
        <ele>457</ele>
        <time>2012-10-20T10:45:05Z</time>
      </trkpt>
      <trkpt lat="45.67119" lon="4.62013">
        <ele>457</ele>
        <time>2012-10-20T10:45:06Z</time>
      </trkpt>
      <trkpt lat="45.6712" lon="4.62007">
        <ele>457</ele>
        <time>2012-10-20T10:45:07Z</time>
      </trkpt>
      <trkpt lat="45.67121" lon="4.62">
        <ele>456</ele>
        <time>2012-10-20T10:45:08Z</time>
      </trkpt>
      <trkpt lat="45.67122" lon="4.61981">
        <ele>456</ele>
        <time>2012-10-20T10:45:11Z</time>
      </trkpt>
      <trkpt lat="45.67115" lon="4.61932">
        <ele>455</ele>
        <time>2012-10-20T10:45:19Z</time>
      </trkpt>
      <trkpt lat="45.67108" lon="4.61915">
        <ele>454</ele>
        <time>2012-10-20T10:45:22Z</time>
      </trkpt>
      <trkpt lat="45.67105" lon="4.61911">
        <ele>454</ele>
        <time>2012-10-20T10:45:23Z</time>
      </trkpt>
      <trkpt lat="45.67102" lon="4.61906">
        <ele>454</ele>
        <time>2012-10-20T10:45:24Z</time>
      </trkpt>
      <trkpt lat="45.67077" lon="4.61859">
        <ele>453</ele>
        <time>2012-10-20T10:45:33Z</time>
      </trkpt>
      <trkpt lat="45.67076" lon="4.61853">
        <ele>453</ele>
        <time>2012-10-20T10:45:34Z</time>
      </trkpt>
      <trkpt lat="45.67075" lon="4.61847">
        <ele>452</ele>
        <time>2012-10-20T10:45:35Z</time>
      </trkpt>
      <trkpt lat="45.67075" lon="4.61834">
        <ele>452</ele>
        <time>2012-10-20T10:45:37Z</time>
      </trkpt>
      <trkpt lat="45.67074" lon="4.61828">
        <ele>451</ele>
        <time>2012-10-20T10:45:38Z</time>
      </trkpt>
      <trkpt lat="45.67074" lon="4.61822">
        <ele>451</ele>
        <time>2012-10-20T10:45:39Z</time>
      </trkpt>
      <trkpt lat="45.6708" lon="4.61782">
        <ele>451</ele>
        <time>2012-10-20T10:45:46Z</time>
      </trkpt>
      <trkpt lat="45.67096" lon="4.61752">
        <ele>451</ele>
        <time>2012-10-20T10:45:52Z</time>
      </trkpt>
      <trkpt lat="45.6711" lon="4.61737">
        <ele>450</ele>
        <time>2012-10-20T10:45:56Z</time>
      </trkpt>
      <trkpt lat="45.67114" lon="4.61734">
        <ele>450</ele>
        <time>2012-10-20T10:45:57Z</time>
      </trkpt>
      <trkpt lat="45.67137" lon="4.61718">
        <ele>449</ele>
        <time>2012-10-20T10:46:02Z</time>
      </trkpt>
      <trkpt lat="45.67171" lon="4.61699">
        <ele>447</ele>
        <time>2012-10-20T10:46:08Z</time>
      </trkpt>
      <trkpt lat="45.67207" lon="4.61684">
        <ele>446</ele>
        <time>2012-10-20T10:46:14Z</time>
      </trkpt>
      <trkpt lat="45.67213" lon="4.61683">
        <ele>446</ele>
        <time>2012-10-20T10:46:15Z</time>
      </trkpt>
      <trkpt lat="45.67219" lon="4.61683">
        <ele>445</ele>
        <time>2012-10-20T10:46:16Z</time>
      </trkpt>
      <trkpt lat="45.67225" lon="4.61683">
        <ele>445</ele>
        <time>2012-10-20T10:46:17Z</time>
      </trkpt>
      <trkpt lat="45.67231" lon="4.61684">
        <ele>445</ele>
        <time>2012-10-20T10:46:18Z</time>
      </trkpt>
      <trkpt lat="45.67236" lon="4.61686">
        <ele>445</ele>
        <time>2012-10-20T10:46:19Z</time>
      </trkpt>
      <trkpt lat="45.67242" lon="4.61687">
        <ele>445</ele>
        <time>2012-10-20T10:46:20Z</time>
      </trkpt>
      <trkpt lat="45.6727" lon="4.61698">
        <ele>443</ele>
        <time>2012-10-20T10:46:25Z</time>
      </trkpt>
      <trkpt lat="45.67297" lon="4.617">
        <ele>443</ele>
        <time>2012-10-20T10:46:30Z</time>
      </trkpt>
      <trkpt lat="45.67302" lon="4.61698">
        <ele>442</ele>
        <time>2012-10-20T10:46:31Z</time>
      </trkpt>
      <trkpt lat="45.67316" lon="4.61694">
        <ele>442</ele>
        <time>2012-10-20T10:46:34Z</time>
      </trkpt>
      <trkpt lat="45.67332" lon="4.61682">
        <ele>442</ele>
        <time>2012-10-20T10:46:38Z</time>
      </trkpt>
      <trkpt lat="45.67335" lon="4.61677">
        <ele>442</ele>
        <time>2012-10-20T10:46:39Z</time>
      </trkpt>
      <trkpt lat="45.67342" lon="4.61666">
        <ele>442</ele>
        <time>2012-10-20T10:46:41Z</time>
      </trkpt>
      <trkpt lat="45.67345" lon="4.6166">
        <ele>441</ele>
        <time>2012-10-20T10:46:42Z</time>
      </trkpt>
      <trkpt lat="45.67348" lon="4.61653">
        <ele>441</ele>
        <time>2012-10-20T10:46:43Z</time>
      </trkpt>
      <trkpt lat="45.6735" lon="4.61645">
        <ele>441</ele>
        <time>2012-10-20T10:46:44Z</time>
      </trkpt>
      <trkpt lat="45.67352" lon="4.61638">
        <ele>441</ele>
        <time>2012-10-20T10:46:45Z</time>
      </trkpt>
      <trkpt lat="45.67353" lon="4.6163">
        <ele>441</ele>
        <time>2012-10-20T10:46:46Z</time>
      </trkpt>
      <trkpt lat="45.67355" lon="4.61582">
        <ele>439</ele>
        <time>2012-10-20T10:46:52Z</time>
      </trkpt>
      <trkpt lat="45.67354" lon="4.61575">
        <ele>439</ele>
        <time>2012-10-20T10:46:53Z</time>
      </trkpt>
      <trkpt lat="45.67351" lon="4.6156">
        <ele>438</ele>
        <time>2012-10-20T10:46:55Z</time>
      </trkpt>
      <trkpt lat="45.6735" lon="4.61552">
        <ele>438</ele>
        <time>2012-10-20T10:46:56Z</time>
      </trkpt>
      <trkpt lat="45.6735" lon="4.61545">
        <ele>438</ele>
        <time>2012-10-20T10:46:57Z</time>
      </trkpt>
      <trkpt lat="45.67346" lon="4.61525">
        <ele>438</ele>
        <time>2012-10-20T10:47:00Z</time>
      </trkpt>
      <trkpt lat="45.67344" lon="4.61518">
        <ele>438</ele>
        <time>2012-10-20T10:47:01Z</time>
      </trkpt>
      <trkpt lat="45.67343" lon="4.61511">
        <ele>438</ele>
        <time>2012-10-20T10:47:02Z</time>
      </trkpt>
      <trkpt lat="45.67341" lon="4.61497">
        <ele>437</ele>
        <time>2012-10-20T10:47:04Z</time>
      </trkpt>
      <trkpt lat="45.67341" lon="4.61489">
        <ele>437</ele>
        <time>2012-10-20T10:47:05Z</time>
      </trkpt>
      <trkpt lat="45.6734" lon="4.61481">
        <ele>437</ele>
        <time>2012-10-20T10:47:06Z</time>
      </trkpt>
      <trkpt lat="45.67338" lon="4.61466">
        <ele>436</ele>
        <time>2012-10-20T10:47:08Z</time>
      </trkpt>
      <trkpt lat="45.67337" lon="4.61458">
        <ele>437</ele>
        <time>2012-10-20T10:47:09Z</time>
      </trkpt>
      <trkpt lat="45.67331" lon="4.61423">
        <ele>435</ele>
        <time>2012-10-20T10:47:14Z</time>
      </trkpt>
      <trkpt lat="45.67329" lon="4.61403">
        <ele>435</ele>
        <time>2012-10-20T10:47:17Z</time>
      </trkpt>
      <trkpt lat="45.67329" lon="4.61397">
        <ele>435</ele>
        <time>2012-10-20T10:47:18Z</time>
      </trkpt>
      <trkpt lat="45.6733" lon="4.61383">
        <ele>434</ele>
        <time>2012-10-20T10:47:20Z</time>
      </trkpt>
      <trkpt lat="45.67331" lon="4.61371">
        <ele>434</ele>
        <time>2012-10-20T10:47:22Z</time>
      </trkpt>
      <trkpt lat="45.67333" lon="4.61365">
        <ele>433</ele>
        <time>2012-10-20T10:47:23Z</time>
      </trkpt>
      <trkpt lat="45.67335" lon="4.61359">
        <ele>433</ele>
        <time>2012-10-20T10:47:24Z</time>
      </trkpt>
      <trkpt lat="45.67338" lon="4.61354">
        <ele>433</ele>
        <time>2012-10-20T10:47:25Z</time>
      </trkpt>
      <trkpt lat="45.67342" lon="4.61349">
        <ele>433</ele>
        <time>2012-10-20T10:47:26Z</time>
      </trkpt>
      <trkpt lat="45.67346" lon="4.61343">
        <ele>433</ele>
        <time>2012-10-20T10:47:27Z</time>
      </trkpt>
      <trkpt lat="45.67353" lon="4.61333">
        <ele>432</ele>
        <time>2012-10-20T10:47:29Z</time>
      </trkpt>
      <trkpt lat="45.67357" lon="4.61329">
        <ele>432</ele>
        <time>2012-10-20T10:47:30Z</time>
      </trkpt>
      <trkpt lat="45.67366" lon="4.61321">
        <ele>431</ele>
        <time>2012-10-20T10:47:32Z</time>
      </trkpt>
      <trkpt lat="45.67374" lon="4.61312">
        <ele>431</ele>
        <time>2012-10-20T10:47:34Z</time>
      </trkpt>
      <trkpt lat="45.67378" lon="4.61307">
        <ele>431</ele>
        <time>2012-10-20T10:47:35Z</time>
      </trkpt>
      <trkpt lat="45.67382" lon="4.61303">
        <ele>431</ele>
        <time>2012-10-20T10:47:36Z</time>
      </trkpt>
      <trkpt lat="45.67397" lon="4.61278">
        <ele>431</ele>
        <time>2012-10-20T10:47:41Z</time>
      </trkpt>
      <trkpt lat="45.67399" lon="4.61272">
        <ele>431</ele>
        <time>2012-10-20T10:47:42Z</time>
      </trkpt>
      <trkpt lat="45.67402" lon="4.61265">
        <ele>431</ele>
        <time>2012-10-20T10:47:43Z</time>
      </trkpt>
      <trkpt lat="45.67405" lon="4.61257">
        <ele>430</ele>
        <time>2012-10-20T10:47:44Z</time>
      </trkpt>
      <trkpt lat="45.67406" lon="4.61248">
        <ele>430</ele>
        <time>2012-10-20T10:47:45Z</time>
      </trkpt>
      <trkpt lat="45.67407" lon="4.61239">
        <ele>429</ele>
        <time>2012-10-20T10:47:46Z</time>
      </trkpt>
      <trkpt lat="45.67409" lon="4.61217">
        <ele>429</ele>
        <time>2012-10-20T10:47:49Z</time>
      </trkpt>
      <trkpt lat="45.67409" lon="4.61211">
        <ele>429</ele>
        <time>2012-10-20T10:47:50Z</time>
      </trkpt>
      <trkpt lat="45.67409" lon="4.61204">
        <ele>429</ele>
        <time>2012-10-20T10:47:51Z</time>
      </trkpt>
      <trkpt lat="45.67408" lon="4.61189">
        <ele>428</ele>
        <time>2012-10-20T10:47:53Z</time>
      </trkpt>
      <trkpt lat="45.67408" lon="4.61182">
        <ele>428</ele>
        <time>2012-10-20T10:47:54Z</time>
      </trkpt>
      <trkpt lat="45.67407" lon="4.61162">
        <ele>427</ele>
        <time>2012-10-20T10:47:57Z</time>
      </trkpt>
      <trkpt lat="45.67408" lon="4.61155">
        <ele>427</ele>
        <time>2012-10-20T10:47:58Z</time>
      </trkpt>
      <trkpt lat="45.67415" lon="4.61134">
        <ele>427</ele>
        <time>2012-10-20T10:48:01Z</time>
      </trkpt>
      <trkpt lat="45.67418" lon="4.61128">
        <ele>426</ele>
        <time>2012-10-20T10:48:02Z</time>
      </trkpt>
      <trkpt lat="45.67435" lon="4.61104">
        <ele>427</ele>
        <time>2012-10-20T10:48:08Z</time>
      </trkpt>
      <trkpt lat="45.67443" lon="4.61088">
        <ele>428</ele>
        <time>2012-10-20T10:48:13Z</time>
      </trkpt>
      <trkpt lat="45.6746" lon="4.61071">
        <ele>428</ele>
        <time>2012-10-20T10:48:19Z</time>
      </trkpt>
      <trkpt lat="45.67482" lon="4.61077">
        <ele>428</ele>
        <time>2012-10-20T10:48:25Z</time>
      </trkpt>
      <trkpt lat="45.67516" lon="4.61099">
        <ele>426</ele>
        <time>2012-10-20T10:48:33Z</time>
      </trkpt>
      <trkpt lat="45.6753" lon="4.61114">
        <ele>426</ele>
        <time>2012-10-20T10:48:36Z</time>
      </trkpt>
      <trkpt lat="45.67534" lon="4.6112">
        <ele>426</ele>
        <time>2012-10-20T10:48:37Z</time>
      </trkpt>
      <trkpt lat="45.67538" lon="4.61127">
        <ele>425</ele>
        <time>2012-10-20T10:48:38Z</time>
      </trkpt>
      <trkpt lat="45.67542" lon="4.61134">
        <ele>426</ele>
        <time>2012-10-20T10:48:39Z</time>
      </trkpt>
      <trkpt lat="45.67545" lon="4.61142">
        <ele>425</ele>
        <time>2012-10-20T10:48:40Z</time>
      </trkpt>
      <trkpt lat="45.67548" lon="4.61152">
        <ele>424</ele>
        <time>2012-10-20T10:48:41Z</time>
      </trkpt>
      <trkpt lat="45.67551" lon="4.61162">
        <ele>424</ele>
        <time>2012-10-20T10:48:42Z</time>
      </trkpt>
      <trkpt lat="45.67553" lon="4.61172">
        <ele>424</ele>
        <time>2012-10-20T10:48:43Z</time>
      </trkpt>
      <trkpt lat="45.67555" lon="4.61183">
        <ele>423</ele>
        <time>2012-10-20T10:48:44Z</time>
      </trkpt>
      <trkpt lat="45.67555" lon="4.61193">
        <ele>423</ele>
        <time>2012-10-20T10:48:45Z</time>
      </trkpt>
      <trkpt lat="45.67555" lon="4.61203">
        <ele>423</ele>
        <time>2012-10-20T10:48:46Z</time>
      </trkpt>
      <trkpt lat="45.67555" lon="4.61212">
        <ele>423</ele>
        <time>2012-10-20T10:48:47Z</time>
      </trkpt>
      <trkpt lat="45.67549" lon="4.61255">
        <ele>424</ele>
        <time>2012-10-20T10:48:53Z</time>
      </trkpt>
      <trkpt lat="45.6754" lon="4.61296">
        <ele>425</ele>
        <time>2012-10-20T10:49:02Z</time>
      </trkpt>
      <trkpt lat="45.67535" lon="4.6132">
        <ele>426</ele>
        <time>2012-10-20T10:49:08Z</time>
      </trkpt>
      <trkpt lat="45.67534" lon="4.61336">
        <ele>428</ele>
        <time>2012-10-20T10:49:14Z</time>
      </trkpt>
      <trkpt lat="45.67534" lon="4.61348">
        <ele>430</ele>
        <time>2012-10-20T10:49:19Z</time>
      </trkpt>
      <trkpt lat="45.67531" lon="4.61367">
        <ele>433</ele>
        <time>2012-10-20T10:49:27Z</time>
      </trkpt>
      <trkpt lat="45.67528" lon="4.61388">
        <ele>434</ele>
        <time>2012-10-20T10:49:35Z</time>
      </trkpt>
      <trkpt lat="45.67523" lon="4.61418">
        <ele>434</ele>
        <time>2012-10-20T10:49:45Z</time>
      </trkpt>
      <trkpt lat="45.67523" lon="4.61421">
        <ele>434</ele>
        <time>2012-10-20T10:49:46Z</time>
      </trkpt>
      <trkpt lat="45.67523" lon="4.61423">
        <ele>434</ele>
        <time>2012-10-20T10:49:47Z</time>
      </trkpt>
      <trkpt lat="45.67524" lon="4.61425">
        <ele>434</ele>
        <time>2012-10-20T10:49:48Z</time>
      </trkpt>
      <trkpt lat="45.67526" lon="4.61425">
        <ele>435</ele>
        <time>2012-10-20T10:49:49Z</time>
      </trkpt>
      <trkpt lat="45.67528" lon="4.61426">
        <ele>434</ele>
        <time>2012-10-20T10:49:50Z</time>
      </trkpt>
      <trkpt lat="45.67529" lon="4.61425">
        <ele>435</ele>
        <time>2012-10-20T10:49:51Z</time>
      </trkpt>
      <trkpt lat="45.67531" lon="4.61424">
        <ele>435</ele>
        <time>2012-10-20T10:49:52Z</time>
      </trkpt>
      <trkpt lat="45.67532" lon="4.61423">
        <ele>435</ele>
        <time>2012-10-20T10:49:53Z</time>
      </trkpt>
      <trkpt lat="45.67538" lon="4.61412">
        <ele>437</ele>
        <time>2012-10-20T10:49:59Z</time>
      </trkpt>
      <trkpt lat="45.67545" lon="4.61394">
        <ele>438</ele>
        <time>2012-10-20T10:50:08Z</time>
      </trkpt>
      <trkpt lat="45.6755" lon="4.6139">
        <ele>439</ele>
        <time>2012-10-20T10:50:12Z</time>
      </trkpt>
      <trkpt lat="45.67561" lon="4.61389">
        <ele>441</ele>
        <time>2012-10-20T10:50:21Z</time>
      </trkpt>
      <trkpt lat="45.67572" lon="4.61387">
        <ele>444</ele>
        <time>2012-10-20T10:50:28Z</time>
      </trkpt>
      <trkpt lat="45.67573" lon="4.61387">
        <ele>444</ele>
        <time>2012-10-20T10:50:29Z</time>
      </trkpt>
      <trkpt lat="45.67577" lon="4.61386">
        <ele>445</ele>
        <time>2012-10-20T10:50:31Z</time>
      </trkpt>
      <trkpt lat="45.67585" lon="4.61381">
        <ele>448</ele>
        <time>2012-10-20T10:50:38Z</time>
      </trkpt>
      <trkpt lat="45.67594" lon="4.61376">
        <ele>450</ele>
        <time>2012-10-20T10:50:44Z</time>
      </trkpt>
      <trkpt lat="45.676" lon="4.61382">
        <ele>452</ele>
        <time>2012-10-20T10:50:49Z</time>
      </trkpt>
      <trkpt lat="45.67604" lon="4.6139">
        <ele>453</ele>
        <time>2012-10-20T10:50:54Z</time>
      </trkpt>
      <trkpt lat="45.67611" lon="4.61392">
        <ele>454</ele>
        <time>2012-10-20T10:51:01Z</time>
      </trkpt>
      <trkpt lat="45.67614" lon="4.61379">
        <ele>455</ele>
        <time>2012-10-20T10:51:08Z</time>
      </trkpt>
      <trkpt lat="45.67614" lon="4.61373">
        <ele>455</ele>
        <time>2012-10-20T10:51:11Z</time>
      </trkpt>
      <trkpt lat="45.67619" lon="4.61361">
        <ele>456</ele>
        <time>2012-10-20T10:51:19Z</time>
      </trkpt>
      <trkpt lat="45.67623" lon="4.61344">
        <ele>457</ele>
        <time>2012-10-20T10:51:29Z</time>
      </trkpt>
      <trkpt lat="45.67623" lon="4.61342">
        <ele>457</ele>
        <time>2012-10-20T10:51:30Z</time>
      </trkpt>
      <trkpt lat="45.67631" lon="4.61345">
        <ele>459</ele>
        <time>2012-10-20T10:51:36Z</time>
      </trkpt>
      <trkpt lat="45.67632" lon="4.61347">
        <ele>459</ele>
        <time>2012-10-20T10:51:37Z</time>
      </trkpt>
      <trkpt lat="45.67633" lon="4.61349">
        <ele>459</ele>
        <time>2012-10-20T10:51:38Z</time>
      </trkpt>
      <trkpt lat="45.67635" lon="4.61352">
        <ele>460</ele>
        <time>2012-10-20T10:51:44Z</time>
      </trkpt>
      <trkpt lat="45.67638" lon="4.61354">
        <ele>460</ele>
        <time>2012-10-20T10:51:52Z</time>
      </trkpt>
      <trkpt lat="45.67648" lon="4.61363">
        <ele>462</ele>
        <time>2012-10-20T10:51:59Z</time>
      </trkpt>
      <trkpt lat="45.6766" lon="4.61371">
        <ele>463</ele>
        <time>2012-10-20T10:52:08Z</time>
      </trkpt>
      <trkpt lat="45.67676" lon="4.61378">
        <ele>463</ele>
        <time>2012-10-20T10:52:19Z</time>
      </trkpt>
      <trkpt lat="45.67688" lon="4.61379">
        <ele>464</ele>
        <time>2012-10-20T10:52:28Z</time>
      </trkpt>
      <trkpt lat="45.67699" lon="4.61376">
        <ele>465</ele>
        <time>2012-10-20T10:52:35Z</time>
      </trkpt>
      <trkpt lat="45.67711" lon="4.61369">
        <ele>466</ele>
        <time>2012-10-20T10:52:44Z</time>
      </trkpt>
      <trkpt lat="45.67721" lon="4.61354">
        <ele>468</ele>
        <time>2012-10-20T10:52:53Z</time>
      </trkpt>
      <trkpt lat="45.67731" lon="4.61342">
        <ele>470</ele>
        <time>2012-10-20T10:53:01Z</time>
      </trkpt>
      <trkpt lat="45.67739" lon="4.61332">
        <ele>471</ele>
        <time>2012-10-20T10:53:09Z</time>
      </trkpt>
      <trkpt lat="45.67744" lon="4.61327">
        <ele>472</ele>
        <time>2012-10-20T10:53:13Z</time>
      </trkpt>
      <trkpt lat="45.67757" lon="4.61317">
        <ele>473</ele>
        <time>2012-10-20T10:53:23Z</time>
      </trkpt>
      <trkpt lat="45.67769" lon="4.61306">
        <ele>475</ele>
        <time>2012-10-20T10:53:33Z</time>
      </trkpt>
      <trkpt lat="45.67779" lon="4.61295">
        <ele>476</ele>
        <time>2012-10-20T10:53:42Z</time>
      </trkpt>
      <trkpt lat="45.67781" lon="4.61293">
        <ele>476</ele>
        <time>2012-10-20T10:53:44Z</time>
      </trkpt>
      <trkpt lat="45.67792" lon="4.61281">
        <ele>478</ele>
        <time>2012-10-20T10:53:54Z</time>
      </trkpt>
      <trkpt lat="45.67803" lon="4.6127">
        <ele>480</ele>
        <time>2012-10-20T10:54:03Z</time>
      </trkpt>
      <trkpt lat="45.6781" lon="4.61262">
        <ele>481</ele>
        <time>2012-10-20T10:54:10Z</time>
      </trkpt>
      <trkpt lat="45.67821" lon="4.61255">
        <ele>484</ele>
        <time>2012-10-20T10:54:18Z</time>
      </trkpt>
      <trkpt lat="45.67831" lon="4.61245">
        <ele>486</ele>
        <time>2012-10-20T10:54:26Z</time>
      </trkpt>
      <trkpt lat="45.67839" lon="4.61235">
        <ele>488</ele>
        <time>2012-10-20T10:54:33Z</time>
      </trkpt>
      <trkpt lat="45.67842" lon="4.61233">
        <ele>488</ele>
        <time>2012-10-20T10:54:35Z</time>
      </trkpt>
      <trkpt lat="45.67853" lon="4.61231">
        <ele>490</ele>
        <time>2012-10-20T10:54:43Z</time>
      </trkpt>
      <trkpt lat="45.67858" lon="4.61232">
        <ele>490</ele>
        <time>2012-10-20T10:54:47Z</time>
      </trkpt>
      <trkpt lat="45.67859" lon="4.61232">
        <ele>490</ele>
        <time>2012-10-20T10:54:48Z</time>
      </trkpt>
      <trkpt lat="45.67861" lon="4.61232">
        <ele>490</ele>
        <time>2012-10-20T10:54:49Z</time>
      </trkpt>
      <trkpt lat="45.67873" lon="4.61239">
        <ele>491</ele>
        <time>2012-10-20T10:54:58Z</time>
      </trkpt>
      <trkpt lat="45.67891" lon="4.61246">
        <ele>490</ele>
        <time>2012-10-20T10:55:05Z</time>
      </trkpt>
      <trkpt lat="45.67908" lon="4.61244">
        <ele>490</ele>
        <time>2012-10-20T10:55:12Z</time>
      </trkpt>
      <trkpt lat="45.6791" lon="4.61244">
        <ele>490</ele>
        <time>2012-10-20T10:55:17Z</time>
      </trkpt>
      <trkpt lat="45.67908" lon="4.61246">
        <ele>490</ele>
        <time>2012-10-20T10:55:36Z</time>
      </trkpt>
      <trkpt lat="45.67905" lon="4.61245">
        <ele>490</ele>
        <time>2012-10-20T10:55:53Z</time>
      </trkpt>
      <trkpt lat="45.67911" lon="4.61245">
        <ele>490</ele>
        <time>2012-10-20T10:56:07Z</time>
      </trkpt>
      <trkpt lat="45.67929" lon="4.61247">
        <ele>490</ele>
        <time>2012-10-20T10:56:14Z</time>
      </trkpt>
      <trkpt lat="45.67948" lon="4.61247">
        <ele>488</ele>
        <time>2012-10-20T10:56:20Z</time>
      </trkpt>
      <trkpt lat="45.67964" lon="4.61255">
        <ele>485</ele>
        <time>2012-10-20T10:56:25Z</time>
      </trkpt>
      <trkpt lat="45.67969" lon="4.61257">
        <ele>485</ele>
        <time>2012-10-20T10:56:26Z</time>
      </trkpt>
      <trkpt lat="45.67974" lon="4.6126">
        <ele>484</ele>
        <time>2012-10-20T10:56:27Z</time>
      </trkpt>
      <trkpt lat="45.67985" lon="4.61267">
        <ele>483</ele>
        <time>2012-10-20T10:56:29Z</time>
      </trkpt>
      <trkpt lat="45.68006" lon="4.6128">
        <ele>481</ele>
        <time>2012-10-20T10:56:32Z</time>
      </trkpt>
      <trkpt lat="45.68047" lon="4.61301">
        <ele>482</ele>
        <time>2012-10-20T10:56:38Z</time>
      </trkpt>
      <trkpt lat="45.68065" lon="4.61312">
        <ele>482</ele>
        <time>2012-10-20T10:56:43Z</time>
      </trkpt>
      <trkpt lat="45.68075" lon="4.61325">
        <ele>484</ele>
        <time>2012-10-20T10:56:51Z</time>
      </trkpt>
      <trkpt lat="45.68085" lon="4.61342">
        <ele>486</ele>
        <time>2012-10-20T10:56:59Z</time>
      </trkpt>
      <trkpt lat="45.68094" lon="4.61358">
        <ele>487</ele>
        <time>2012-10-20T10:57:08Z</time>
      </trkpt>
      <trkpt lat="45.68104" lon="4.61369">
        <ele>489</ele>
        <time>2012-10-20T10:57:16Z</time>
      </trkpt>
      <trkpt lat="45.68114" lon="4.61384">
        <ele>491</ele>
        <time>2012-10-20T10:57:26Z</time>
      </trkpt>
      <trkpt lat="45.68124" lon="4.61398">
        <ele>493</ele>
        <time>2012-10-20T10:57:35Z</time>
      </trkpt>
      <trkpt lat="45.68134" lon="4.61411">
        <ele>494</ele>
        <time>2012-10-20T10:57:44Z</time>
      </trkpt>
      <trkpt lat="45.68149" lon="4.61432">
        <ele>495</ele>
        <time>2012-10-20T10:57:55Z</time>
      </trkpt>
      <trkpt lat="45.68163" lon="4.61452">
        <ele>495</ele>
        <time>2012-10-20T10:58:04Z</time>
      </trkpt>
      <trkpt lat="45.68168" lon="4.61458">
        <ele>496</ele>
        <time>2012-10-20T10:58:08Z</time>
      </trkpt>
      <trkpt lat="45.6817" lon="4.61458">
        <ele>495</ele>
        <time>2012-10-20T10:58:09Z</time>
      </trkpt>
      <trkpt lat="45.68171" lon="4.61458">
        <ele>496</ele>
        <time>2012-10-20T10:58:10Z</time>
      </trkpt>
      <trkpt lat="45.68172" lon="4.61456">
        <ele>496</ele>
        <time>2012-10-20T10:58:11Z</time>
      </trkpt>
      <trkpt lat="45.68173" lon="4.61454">
        <ele>496</ele>
        <time>2012-10-20T10:58:12Z</time>
      </trkpt>
      <trkpt lat="45.68173" lon="4.61451">
        <ele>496</ele>
        <time>2012-10-20T10:58:13Z</time>
      </trkpt>
      <trkpt lat="45.68174" lon="4.61448">
        <ele>495</ele>
        <time>2012-10-20T10:58:14Z</time>
      </trkpt>
      <trkpt lat="45.68175" lon="4.61446">
        <ele>496</ele>
        <time>2012-10-20T10:58:15Z</time>
      </trkpt>
      <trkpt lat="45.68175" lon="4.61443">
        <ele>496</ele>
        <time>2012-10-20T10:58:16Z</time>
      </trkpt>
      <trkpt lat="45.68176" lon="4.61441">
        <ele>495</ele>
        <time>2012-10-20T10:58:17Z</time>
      </trkpt>
      <trkpt lat="45.68177" lon="4.61438">
        <ele>496</ele>
        <time>2012-10-20T10:58:18Z</time>
      </trkpt>
      <trkpt lat="45.68178" lon="4.61435">
        <ele>496</ele>
        <time>2012-10-20T10:58:19Z</time>
      </trkpt>
      <trkpt lat="45.68179" lon="4.61432">
        <ele>496</ele>
        <time>2012-10-20T10:58:20Z</time>
      </trkpt>
      <trkpt lat="45.68179" lon="4.6143">
        <ele>496</ele>
        <time>2012-10-20T10:58:21Z</time>
      </trkpt>
      <trkpt lat="45.6818" lon="4.61427">
        <ele>496</ele>
        <time>2012-10-20T10:58:22Z</time>
      </trkpt>
      <trkpt lat="45.68184" lon="4.61409">
        <ele>497</ele>
        <time>2012-10-20T10:58:31Z</time>
      </trkpt>
      <trkpt lat="45.68184" lon="4.6141">
        <ele>497</ele>
        <time>2012-10-20T10:58:41Z</time>
      </trkpt>
      <trkpt lat="45.68183" lon="4.61415">
        <ele>497</ele>
        <time>2012-10-20T10:58:48Z</time>
      </trkpt>
      <trkpt lat="45.68183" lon="4.61416">
        <ele>497</ele>
        <time>2012-10-20T10:58:58Z</time>
      </trkpt>
      <trkpt lat="45.68183" lon="4.61416">
        <ele>497</ele>
        <time>2012-10-20T10:59:10Z</time>
      </trkpt>
      <trkpt lat="45.68181" lon="4.6142">
        <ele>497</ele>
        <time>2012-10-20T10:59:12Z</time>
      </trkpt>
      <trkpt lat="45.68181" lon="4.61423">
        <ele>497</ele>
        <time>2012-10-20T10:59:13Z</time>
      </trkpt>
      <trkpt lat="45.68174" lon="4.61451">
        <ele>496</ele>
        <time>2012-10-20T10:59:21Z</time>
      </trkpt>
      <trkpt lat="45.68172" lon="4.61466">
        <ele>496</ele>
        <time>2012-10-20T10:59:25Z</time>
      </trkpt>
      <trkpt lat="45.68174" lon="4.61467">
        <ele>495</ele>
        <time>2012-10-20T10:59:26Z</time>
      </trkpt>
      <trkpt lat="45.68177" lon="4.61467">
        <ele>495</ele>
        <time>2012-10-20T10:59:27Z</time>
      </trkpt>
      <trkpt lat="45.6818" lon="4.61465">
        <ele>495</ele>
        <time>2012-10-20T10:59:28Z</time>
      </trkpt>
      <trkpt lat="45.68184" lon="4.61462">
        <ele>494</ele>
        <time>2012-10-20T10:59:29Z</time>
      </trkpt>
      <trkpt lat="45.68203" lon="4.61449">
        <ele>493</ele>
        <time>2012-10-20T10:59:33Z</time>
      </trkpt>
      <trkpt lat="45.68209" lon="4.61444">
        <ele>492</ele>
        <time>2012-10-20T10:59:34Z</time>
      </trkpt>
      <trkpt lat="45.6823" lon="4.61422">
        <ele>493</ele>
        <time>2012-10-20T10:59:39Z</time>
      </trkpt>
      <trkpt lat="45.68246" lon="4.61404">
        <ele>494</ele>
        <time>2012-10-20T10:59:45Z</time>
      </trkpt>
      <trkpt lat="45.68272" lon="4.61371">
        <ele>494</ele>
        <time>2012-10-20T10:59:55Z</time>
      </trkpt>
      <trkpt lat="45.68291" lon="4.61349">
        <ele>495</ele>
        <time>2012-10-20T11:00:02Z</time>
      </trkpt>
      <trkpt lat="45.68317" lon="4.6131">
        <ele>496</ele>
        <time>2012-10-20T11:00:13Z</time>
      </trkpt>
      <trkpt lat="45.68329" lon="4.61279">
        <ele>497</ele>
        <time>2012-10-20T11:00:21Z</time>
      </trkpt>
      <trkpt lat="45.68336" lon="4.61255">
        <ele>499</ele>
        <time>2012-10-20T11:00:29Z</time>
      </trkpt>
      <trkpt lat="45.68337" lon="4.61232">
        <ele>501</ele>
        <time>2012-10-20T11:00:37Z</time>
      </trkpt>
      <trkpt lat="45.68338" lon="4.61226">
        <ele>501</ele>
        <time>2012-10-20T11:00:39Z</time>
      </trkpt>
      <trkpt lat="45.68338" lon="4.61223">
        <ele>501</ele>
        <time>2012-10-20T11:00:40Z</time>
      </trkpt>
      <trkpt lat="45.68339" lon="4.61219">
        <ele>502</ele>
        <time>2012-10-20T11:00:41Z</time>
      </trkpt>
      <trkpt lat="45.6834" lon="4.61216">
        <ele>502</ele>
        <time>2012-10-20T11:00:42Z</time>
      </trkpt>
      <trkpt lat="45.6834" lon="4.61213">
        <ele>502</ele>
        <time>2012-10-20T11:00:43Z</time>
      </trkpt>
      <trkpt lat="45.6834" lon="4.6121">
        <ele>502</ele>
        <time>2012-10-20T11:00:44Z</time>
      </trkpt>
      <trkpt lat="45.68341" lon="4.61207">
        <ele>502</ele>
        <time>2012-10-20T11:00:45Z</time>
      </trkpt>
      <trkpt lat="45.68342" lon="4.61205">
        <ele>503</ele>
        <time>2012-10-20T11:00:46Z</time>
      </trkpt>
      <trkpt lat="45.68343" lon="4.61202">
        <ele>503</ele>
        <time>2012-10-20T11:00:47Z</time>
      </trkpt>
      <trkpt lat="45.68343" lon="4.61199">
        <ele>504</ele>
        <time>2012-10-20T11:00:48Z</time>
      </trkpt>
      <trkpt lat="45.68345" lon="4.61197">
        <ele>504</ele>
        <time>2012-10-20T11:00:49Z</time>
      </trkpt>
      <trkpt lat="45.68346" lon="4.61195">
        <ele>504</ele>
        <time>2012-10-20T11:00:50Z</time>
      </trkpt>
      <trkpt lat="45.68358" lon="4.61173">
        <ele>505</ele>
        <time>2012-10-20T11:00:59Z</time>
      </trkpt>
      <trkpt lat="45.68366" lon="4.61157">
        <ele>505</ele>
        <time>2012-10-20T11:01:05Z</time>
      </trkpt>
      <trkpt lat="45.68374" lon="4.61143">
        <ele>506</ele>
        <time>2012-10-20T11:01:12Z</time>
      </trkpt>
      <trkpt lat="45.68374" lon="4.61135">
        <ele>508</ele>
        <time>2012-10-20T11:01:16Z</time>
      </trkpt>
      <trkpt lat="45.6838" lon="4.61125">
        <ele>509</ele>
        <time>2012-10-20T11:01:21Z</time>
      </trkpt>
      <trkpt lat="45.68381" lon="4.61122">
        <ele>509</ele>
        <time>2012-10-20T11:01:22Z</time>
      </trkpt>
      <trkpt lat="45.68382" lon="4.6112">
        <ele>509</ele>
        <time>2012-10-20T11:01:23Z</time>
      </trkpt>
      <trkpt lat="45.68386" lon="4.61114">
        <ele>510</ele>
        <time>2012-10-20T11:01:26Z</time>
      </trkpt>
      <trkpt lat="45.68387" lon="4.61111">
        <ele>510</ele>
        <time>2012-10-20T11:01:27Z</time>
      </trkpt>
      <trkpt lat="45.68388" lon="4.61109">
        <ele>510</ele>
        <time>2012-10-20T11:01:28Z</time>
      </trkpt>
      <trkpt lat="45.68389" lon="4.61106">
        <ele>510</ele>
        <time>2012-10-20T11:01:29Z</time>
      </trkpt>
      <trkpt lat="45.6839" lon="4.61104">
        <ele>510</ele>
        <time>2012-10-20T11:01:30Z</time>
      </trkpt>
      <trkpt lat="45.6839" lon="4.611">
        <ele>511</ele>
        <time>2012-10-20T11:01:31Z</time>
      </trkpt>
      <trkpt lat="45.68394" lon="4.61081">
        <ele>512</ele>
        <time>2012-10-20T11:01:38Z</time>
      </trkpt>
      <trkpt lat="45.68394" lon="4.6107">
        <ele>513</ele>
        <time>2012-10-20T11:01:43Z</time>
      </trkpt>
      <trkpt lat="45.68394" lon="4.61067">
        <ele>512</ele>
        <time>2012-10-20T11:01:44Z</time>
      </trkpt>
      <trkpt lat="45.68395" lon="4.61064">
        <ele>512</ele>
        <time>2012-10-20T11:01:45Z</time>
      </trkpt>
      <trkpt lat="45.68395" lon="4.61062">
        <ele>512</ele>
        <time>2012-10-20T11:01:46Z</time>
      </trkpt>
      <trkpt lat="45.68395" lon="4.61059">
        <ele>513</ele>
        <time>2012-10-20T11:01:47Z</time>
      </trkpt>
      <trkpt lat="45.68396" lon="4.61056">
        <ele>512</ele>
        <time>2012-10-20T11:01:48Z</time>
      </trkpt>
      <trkpt lat="45.68398" lon="4.61043">
        <ele>512</ele>
        <time>2012-10-20T11:01:53Z</time>
      </trkpt>
      <trkpt lat="45.68398" lon="4.6104">
        <ele>512</ele>
        <time>2012-10-20T11:01:54Z</time>
      </trkpt>
      <trkpt lat="45.68397" lon="4.61036">
        <ele>512</ele>
        <time>2012-10-20T11:01:55Z</time>
      </trkpt>
      <trkpt lat="45.68393" lon="4.61007">
        <ele>511</ele>
        <time>2012-10-20T11:02:02Z</time>
      </trkpt>
      <trkpt lat="45.68394" lon="4.60978">
        <ele>510</ele>
        <time>2012-10-20T11:02:08Z</time>
      </trkpt>
      <trkpt lat="45.68393" lon="4.60945">
        <ele>509</ele>
        <time>2012-10-20T11:02:14Z</time>
      </trkpt>
      <trkpt lat="45.68398" lon="4.6092">
        <ele>509</ele>
        <time>2012-10-20T11:02:18Z</time>
      </trkpt>
      <trkpt lat="45.68401" lon="4.60916">
        <ele>508</ele>
        <time>2012-10-20T11:02:19Z</time>
      </trkpt>
      <trkpt lat="45.68404" lon="4.60912">
        <ele>508</ele>
        <time>2012-10-20T11:02:20Z</time>
      </trkpt>
      <trkpt lat="45.68406" lon="4.60909">
        <ele>508</ele>
        <time>2012-10-20T11:02:21Z</time>
      </trkpt>
      <trkpt lat="45.68409" lon="4.60906">
        <ele>508</ele>
        <time>2012-10-20T11:02:22Z</time>
      </trkpt>
      <trkpt lat="45.68411" lon="4.60903">
        <ele>508</ele>
        <time>2012-10-20T11:02:23Z</time>
      </trkpt>
      <trkpt lat="45.68414" lon="4.60901">
        <ele>509</ele>
        <time>2012-10-20T11:02:24Z</time>
      </trkpt>
      <trkpt lat="45.68416" lon="4.60899">
        <ele>509</ele>
        <time>2012-10-20T11:02:25Z</time>
      </trkpt>
      <trkpt lat="45.68418" lon="4.60896">
        <ele>508</ele>
        <time>2012-10-20T11:02:26Z</time>
      </trkpt>
      <trkpt lat="45.6842" lon="4.60895">
        <ele>509</ele>
        <time>2012-10-20T11:02:27Z</time>
      </trkpt>
      <trkpt lat="45.68421" lon="4.60891">
        <ele>509</ele>
        <time>2012-10-20T11:02:30Z</time>
      </trkpt>
      <trkpt lat="45.68423" lon="4.60889">
        <ele>510</ele>
        <time>2012-10-20T11:02:31Z</time>
      </trkpt>
      <trkpt lat="45.68425" lon="4.60887">
        <ele>510</ele>
        <time>2012-10-20T11:02:32Z</time>
      </trkpt>
      <trkpt lat="45.68436" lon="4.60875">
        <ele>511</ele>
        <time>2012-10-20T11:02:39Z</time>
      </trkpt>
      <trkpt lat="45.68447" lon="4.60866">
        <ele>513</ele>
        <time>2012-10-20T11:02:47Z</time>
      </trkpt>
      <trkpt lat="45.68455" lon="4.60856">
        <ele>515</ele>
        <time>2012-10-20T11:02:54Z</time>
      </trkpt>
      <trkpt lat="45.68466" lon="4.6084">
        <ele>517</ele>
        <time>2012-10-20T11:03:01Z</time>
      </trkpt>
      <trkpt lat="45.68471" lon="4.60831">
        <ele>518</ele>
        <time>2012-10-20T11:03:05Z</time>
      </trkpt>
      <trkpt lat="45.68474" lon="4.60825">
        <ele>519</ele>
        <time>2012-10-20T11:03:09Z</time>
      </trkpt>
      <trkpt lat="45.68477" lon="4.60817">
        <ele>520</ele>
        <time>2012-10-20T11:03:14Z</time>
      </trkpt>
      <trkpt lat="45.68478" lon="4.60815">
        <ele>520</ele>
        <time>2012-10-20T11:03:15Z</time>
      </trkpt>
      <trkpt lat="45.68478" lon="4.60813">
        <ele>520</ele>
        <time>2012-10-20T11:03:16Z</time>
      </trkpt>
      <trkpt lat="45.68479" lon="4.60811">
        <ele>520</ele>
        <time>2012-10-20T11:03:17Z</time>
      </trkpt>
      <trkpt lat="45.68483" lon="4.60798">
        <ele>521</ele>
        <time>2012-10-20T11:03:23Z</time>
      </trkpt>
      <trkpt lat="45.68483" lon="4.60794">
        <ele>522</ele>
        <time>2012-10-20T11:03:25Z</time>
      </trkpt>
      <trkpt lat="45.68483" lon="4.60791">
        <ele>522</ele>
        <time>2012-10-20T11:03:26Z</time>
      </trkpt>
      <trkpt lat="45.68482" lon="4.6077">
        <ele>524</ele>
        <time>2012-10-20T11:03:35Z</time>
      </trkpt>
      <trkpt lat="45.6848" lon="4.60754">
        <ele>525</ele>
        <time>2012-10-20T11:03:42Z</time>
      </trkpt>
      <trkpt lat="45.68477" lon="4.60737">
        <ele>525</ele>
        <time>2012-10-20T11:03:50Z</time>
      </trkpt>
      <trkpt lat="45.68472" lon="4.60724">
        <ele>526</ele>
        <time>2012-10-20T11:03:58Z</time>
      </trkpt>
      <trkpt lat="45.6847" lon="4.60723">
        <ele>526</ele>
        <time>2012-10-20T11:03:59Z</time>
      </trkpt>
      <trkpt lat="45.68469" lon="4.60721">
        <ele>526</ele>
        <time>2012-10-20T11:04:00Z</time>
      </trkpt>
      <trkpt lat="45.68467" lon="4.6072">
        <ele>527</ele>
        <time>2012-10-20T11:04:01Z</time>
      </trkpt>
      <trkpt lat="45.68466" lon="4.60718">
        <ele>526</ele>
        <time>2012-10-20T11:04:02Z</time>
      </trkpt>
      <trkpt lat="45.68465" lon="4.60716">
        <ele>527</ele>
        <time>2012-10-20T11:04:03Z</time>
      </trkpt>
      <trkpt lat="45.68457" lon="4.60708">
        <ele>528</ele>
        <time>2012-10-20T11:04:10Z</time>
      </trkpt>
      <trkpt lat="45.68448" lon="4.60695">
        <ele>531</ele>
        <time>2012-10-20T11:04:18Z</time>
      </trkpt>
      <trkpt lat="45.68447" lon="4.60694">
        <ele>531</ele>
        <time>2012-10-20T11:04:19Z</time>
      </trkpt>
      <trkpt lat="45.68444" lon="4.60682">
        <ele>532</ele>
        <time>2012-10-20T11:04:25Z</time>
      </trkpt>
      <trkpt lat="45.68442" lon="4.60672">
        <ele>533</ele>
        <time>2012-10-20T11:04:29Z</time>
      </trkpt>
      <trkpt lat="45.68442" lon="4.6067">
        <ele>533</ele>
        <time>2012-10-20T11:04:30Z</time>
      </trkpt>
      <trkpt lat="45.68441" lon="4.60668">
        <ele>533</ele>
        <time>2012-10-20T11:04:31Z</time>
      </trkpt>
      <trkpt lat="45.6844" lon="4.60666">
        <ele>533</ele>
        <time>2012-10-20T11:04:32Z</time>
      </trkpt>
      <trkpt lat="45.68439" lon="4.6065">
        <ele>534</ele>
        <time>2012-10-20T11:04:39Z</time>
      </trkpt>
      <trkpt lat="45.68439" lon="4.60648">
        <ele>534</ele>
        <time>2012-10-20T11:04:40Z</time>
      </trkpt>
      <trkpt lat="45.68439" lon="4.60627">
        <ele>534</ele>
        <time>2012-10-20T11:04:48Z</time>
      </trkpt>
      <trkpt lat="45.68442" lon="4.60609">
        <ele>535</ele>
        <time>2012-10-20T11:04:55Z</time>
      </trkpt>
      <trkpt lat="45.68443" lon="4.60605">
        <ele>534</ele>
        <time>2012-10-20T11:04:56Z</time>
      </trkpt>
      <trkpt lat="45.68443" lon="4.60602">
        <ele>534</ele>
        <time>2012-10-20T11:04:57Z</time>
      </trkpt>
      <trkpt lat="45.68445" lon="4.60582">
        <ele>535</ele>
        <time>2012-10-20T11:05:04Z</time>
      </trkpt>
      <trkpt lat="45.68444" lon="4.60578">
        <ele>534</ele>
        <time>2012-10-20T11:05:05Z</time>
      </trkpt>
      <trkpt lat="45.68443" lon="4.60575">
        <ele>535</ele>
        <time>2012-10-20T11:05:06Z</time>
      </trkpt>
      <trkpt lat="45.68442" lon="4.60573">
        <ele>534</ele>
        <time>2012-10-20T11:05:07Z</time>
      </trkpt>
      <trkpt lat="45.68443" lon="4.60566">
        <ele>535</ele>
        <time>2012-10-20T11:05:09Z</time>
      </trkpt>
      <trkpt lat="45.68442" lon="4.60564">
        <ele>535</ele>
        <time>2012-10-20T11:05:10Z</time>
      </trkpt>
      <trkpt lat="45.68442" lon="4.60561">
        <ele>534</ele>
        <time>2012-10-20T11:05:11Z</time>
      </trkpt>
      <trkpt lat="45.68447" lon="4.60535">
        <ele>535</ele>
        <time>2012-10-20T11:05:19Z</time>
      </trkpt>
      <trkpt lat="45.68448" lon="4.6053">
        <ele>535</ele>
        <time>2012-10-20T11:05:21Z</time>
      </trkpt>
      <trkpt lat="45.68449" lon="4.60516">
        <ele>537</ele>
        <time>2012-10-20T11:05:27Z</time>
      </trkpt>
      <trkpt lat="45.68448" lon="4.60513">
        <ele>537</ele>
        <time>2012-10-20T11:05:28Z</time>
      </trkpt>
      <trkpt lat="45.68447" lon="4.60511">
        <ele>537</ele>
        <time>2012-10-20T11:05:29Z</time>
      </trkpt>
      <trkpt lat="45.68446" lon="4.60509">
        <ele>537</ele>
        <time>2012-10-20T11:05:30Z</time>
      </trkpt>
      <trkpt lat="45.68445" lon="4.60507">
        <ele>537</ele>
        <time>2012-10-20T11:05:31Z</time>
      </trkpt>
      <trkpt lat="45.68444" lon="4.60504">
        <ele>537</ele>
        <time>2012-10-20T11:05:32Z</time>
      </trkpt>
      <trkpt lat="45.68442" lon="4.605">
        <ele>537</ele>
        <time>2012-10-20T11:05:34Z</time>
      </trkpt>
      <trkpt lat="45.68442" lon="4.60497">
        <ele>537</ele>
        <time>2012-10-20T11:05:35Z</time>
      </trkpt>
      <trkpt lat="45.6844" lon="4.60478">
        <ele>538</ele>
        <time>2012-10-20T11:05:43Z</time>
      </trkpt>
      <trkpt lat="45.68439" lon="4.60469">
        <ele>538</ele>
        <time>2012-10-20T11:05:46Z</time>
      </trkpt>
      <trkpt lat="45.68438" lon="4.60466">
        <ele>538</ele>
        <time>2012-10-20T11:05:47Z</time>
      </trkpt>
      <trkpt lat="45.68438" lon="4.60464">
        <ele>539</ele>
        <time>2012-10-20T11:05:48Z</time>
      </trkpt>
      <trkpt lat="45.68436" lon="4.60461">
        <ele>539</ele>
        <time>2012-10-20T11:05:49Z</time>
      </trkpt>
      <trkpt lat="45.68436" lon="4.60459">
        <ele>538</ele>
        <time>2012-10-20T11:05:50Z</time>
      </trkpt>
      <trkpt lat="45.68435" lon="4.60457">
        <ele>539</ele>
        <time>2012-10-20T11:05:51Z</time>
      </trkpt>
      <trkpt lat="45.68434" lon="4.60454">
        <ele>539</ele>
        <time>2012-10-20T11:05:52Z</time>
      </trkpt>
      <trkpt lat="45.68434" lon="4.60451">
        <ele>539</ele>
        <time>2012-10-20T11:05:53Z</time>
      </trkpt>
      <trkpt lat="45.68433" lon="4.60448">
        <ele>539</ele>
        <time>2012-10-20T11:05:54Z</time>
      </trkpt>
      <trkpt lat="45.68433" lon="4.60445">
        <ele>539</ele>
        <time>2012-10-20T11:05:55Z</time>
      </trkpt>
      <trkpt lat="45.68433" lon="4.60443">
        <ele>539</ele>
        <time>2012-10-20T11:05:56Z</time>
      </trkpt>
      <trkpt lat="45.68433" lon="4.6044">
        <ele>539</ele>
        <time>2012-10-20T11:05:57Z</time>
      </trkpt>
      <trkpt lat="45.68428" lon="4.60425">
        <ele>539</ele>
        <time>2012-10-20T11:06:02Z</time>
      </trkpt>
      <trkpt lat="45.68425" lon="4.60398">
        <ele>539</ele>
        <time>2012-10-20T11:06:11Z</time>
      </trkpt>
      <trkpt lat="45.6843" lon="4.60378">
        <ele>538</ele>
        <time>2012-10-20T11:06:16Z</time>
      </trkpt>
      <trkpt lat="45.68431" lon="4.60372">
        <ele>538</ele>
        <time>2012-10-20T11:06:17Z</time>
      </trkpt>
      <trkpt lat="45.68431" lon="4.60367">
        <ele>538</ele>
        <time>2012-10-20T11:06:18Z</time>
      </trkpt>
      <trkpt lat="45.68431" lon="4.60361">
        <ele>537</ele>
        <time>2012-10-20T11:06:19Z</time>
      </trkpt>
      <trkpt lat="45.68432" lon="4.60355">
        <ele>538</ele>
        <time>2012-10-20T11:06:20Z</time>
      </trkpt>
      <trkpt lat="45.68437" lon="4.60339">
        <ele>537</ele>
        <time>2012-10-20T11:06:23Z</time>
      </trkpt>
      <trkpt lat="45.6844" lon="4.60337">
        <ele>537</ele>
        <time>2012-10-20T11:06:24Z</time>
      </trkpt>
      <trkpt lat="45.68443" lon="4.60336">
        <ele>537</ele>
        <time>2012-10-20T11:06:25Z</time>
      </trkpt>
      <trkpt lat="45.68451" lon="4.60333">
        <ele>538</ele>
        <time>2012-10-20T11:06:31Z</time>
      </trkpt>
      <trkpt lat="45.68461" lon="4.60329">
        <ele>539</ele>
        <time>2012-10-20T11:06:37Z</time>
      </trkpt>
      <trkpt lat="45.68476" lon="4.6032">
        <ele>541</ele>
        <time>2012-10-20T11:06:46Z</time>
      </trkpt>
      <trkpt lat="45.68485" lon="4.60317">
        <ele>542</ele>
        <time>2012-10-20T11:06:52Z</time>
      </trkpt>
      <trkpt lat="45.68494" lon="4.60315">
        <ele>543</ele>
        <time>2012-10-20T11:06:58Z</time>
      </trkpt>
      <trkpt lat="45.68506" lon="4.60312">
        <ele>545</ele>
        <time>2012-10-20T11:07:05Z</time>
      </trkpt>
      <trkpt lat="45.68514" lon="4.60309">
        <ele>546</ele>
        <time>2012-10-20T11:07:11Z</time>
      </trkpt>
      <trkpt lat="45.6852" lon="4.60303">
        <ele>547</ele>
        <time>2012-10-20T11:07:16Z</time>
      </trkpt>
      <trkpt lat="45.68527" lon="4.60295">
        <ele>547</ele>
        <time>2012-10-20T11:07:22Z</time>
      </trkpt>
      <trkpt lat="45.68538" lon="4.60281">
        <ele>547</ele>
        <time>2012-10-20T11:07:29Z</time>
      </trkpt>
      <trkpt lat="45.68546" lon="4.60269">
        <ele>549</ele>
        <time>2012-10-20T11:07:35Z</time>
      </trkpt>
      <trkpt lat="45.68556" lon="4.60252">
        <ele>549</ele>
        <time>2012-10-20T11:07:41Z</time>
      </trkpt>
      <trkpt lat="45.68564" lon="4.60238">
        <ele>548</ele>
        <time>2012-10-20T11:07:47Z</time>
      </trkpt>
      <trkpt lat="45.68574" lon="4.60219">
        <ele>548</ele>
        <time>2012-10-20T11:07:54Z</time>
      </trkpt>
      <trkpt lat="45.68583" lon="4.60204">
        <ele>549</ele>
        <time>2012-10-20T11:08:01Z</time>
      </trkpt>
      <trkpt lat="45.6859" lon="4.60187">
        <ele>550</ele>
        <time>2012-10-20T11:08:07Z</time>
      </trkpt>
      <trkpt lat="45.68597" lon="4.60172">
        <ele>550</ele>
        <time>2012-10-20T11:08:11Z</time>
      </trkpt>
      <trkpt lat="45.68606" lon="4.60155">
        <ele>550</ele>
        <time>2012-10-20T11:08:17Z</time>
      </trkpt>
      <trkpt lat="45.68616" lon="4.60131">
        <ele>550</ele>
        <time>2012-10-20T11:08:25Z</time>
      </trkpt>
      <trkpt lat="45.68623" lon="4.60103">
        <ele>550</ele>
        <time>2012-10-20T11:08:31Z</time>
      </trkpt>
      <trkpt lat="45.68627" lon="4.60085">
        <ele>551</ele>
        <time>2012-10-20T11:08:36Z</time>
      </trkpt>
      <trkpt lat="45.68628" lon="4.60083">
        <ele>551</ele>
        <time>2012-10-20T11:08:37Z</time>
      </trkpt>
      <trkpt lat="45.68629" lon="4.6008">
        <ele>552</ele>
        <time>2012-10-20T11:08:38Z</time>
      </trkpt>
      <trkpt lat="45.6863" lon="4.60077">
        <ele>552</ele>
        <time>2012-10-20T11:08:39Z</time>
      </trkpt>
      <trkpt lat="45.68631" lon="4.60075">
        <ele>552</ele>
        <time>2012-10-20T11:08:40Z</time>
      </trkpt>
      <trkpt lat="45.68631" lon="4.60072">
        <ele>552</ele>
        <time>2012-10-20T11:08:41Z</time>
      </trkpt>
      <trkpt lat="45.68632" lon="4.6007">
        <ele>553</ele>
        <time>2012-10-20T11:08:42Z</time>
      </trkpt>
      <trkpt lat="45.68633" lon="4.60067">
        <ele>552</ele>
        <time>2012-10-20T11:08:43Z</time>
      </trkpt>
      <trkpt lat="45.68634" lon="4.60064">
        <ele>553</ele>
        <time>2012-10-20T11:08:44Z</time>
      </trkpt>
      <trkpt lat="45.68635" lon="4.60062">
        <ele>553</ele>
        <time>2012-10-20T11:08:45Z</time>
      </trkpt>
      <trkpt lat="45.68636" lon="4.60059">
        <ele>553</ele>
        <time>2012-10-20T11:08:46Z</time>
      </trkpt>
      <trkpt lat="45.68636" lon="4.60055">
        <ele>553</ele>
        <time>2012-10-20T11:08:47Z</time>
      </trkpt>
      <trkpt lat="45.68643" lon="4.60031">
        <ele>554</ele>
        <time>2012-10-20T11:08:55Z</time>
      </trkpt>
      <trkpt lat="45.68646" lon="4.60019">
        <ele>554</ele>
        <time>2012-10-20T11:08:59Z</time>
      </trkpt>
      <trkpt lat="45.68647" lon="4.60017">
        <ele>554</ele>
        <time>2012-10-20T11:09:00Z</time>
      </trkpt>
      <trkpt lat="45.68653" lon="4.6">
        <ele>555</ele>
        <time>2012-10-20T11:09:07Z</time>
      </trkpt>
      <trkpt lat="45.68657" lon="4.59981">
        <ele>556</ele>
        <time>2012-10-20T11:09:14Z</time>
      </trkpt>
      <trkpt lat="45.68658" lon="4.59975">
        <ele>557</ele>
        <time>2012-10-20T11:09:16Z</time>
      </trkpt>
      <trkpt lat="45.68659" lon="4.59973">
        <ele>557</ele>
        <time>2012-10-20T11:09:17Z</time>
      </trkpt>
      <trkpt lat="45.68666" lon="4.59952">
        <ele>558</ele>
        <time>2012-10-20T11:09:25Z</time>
      </trkpt>
      <trkpt lat="45.68672" lon="4.5994">
        <ele>559</ele>
        <time>2012-10-20T11:09:30Z</time>
      </trkpt>
      <trkpt lat="45.68675" lon="4.59928">
        <ele>558</ele>
        <time>2012-10-20T11:09:35Z</time>
      </trkpt>
      <trkpt lat="45.68676" lon="4.59925">
        <ele>559</ele>
        <time>2012-10-20T11:09:36Z</time>
      </trkpt>
      <trkpt lat="45.68676" lon="4.59916">
        <ele>559</ele>
        <time>2012-10-20T11:09:39Z</time>
      </trkpt>
      <trkpt lat="45.68677" lon="4.59914">
        <ele>559</ele>
        <time>2012-10-20T11:09:40Z</time>
      </trkpt>
      <trkpt lat="45.68678" lon="4.59911">
        <ele>559</ele>
        <time>2012-10-20T11:09:41Z</time>
      </trkpt>
      <trkpt lat="45.68678" lon="4.59908">
        <ele>559</ele>
        <time>2012-10-20T11:09:42Z</time>
      </trkpt>
      <trkpt lat="45.68679" lon="4.59906">
        <ele>560</ele>
        <time>2012-10-20T11:09:43Z</time>
      </trkpt>
      <trkpt lat="45.68679" lon="4.59903">
        <ele>560</ele>
        <time>2012-10-20T11:09:44Z</time>
      </trkpt>
      <trkpt lat="45.6868" lon="4.59901">
        <ele>560</ele>
        <time>2012-10-20T11:09:45Z</time>
      </trkpt>
      <trkpt lat="45.6868" lon="4.599">
        <ele>560</ele>
        <time>2012-10-20T11:09:46Z</time>
      </trkpt>
      <trkpt lat="45.68681" lon="4.59898">
        <ele>561</ele>
        <time>2012-10-20T11:09:47Z</time>
      </trkpt>
      <trkpt lat="45.68686" lon="4.59882">
        <ele>561</ele>
        <time>2012-10-20T11:09:54Z</time>
      </trkpt>
      <trkpt lat="45.68692" lon="4.59865">
        <ele>563</ele>
        <time>2012-10-20T11:10:03Z</time>
      </trkpt>
      <trkpt lat="45.68695" lon="4.59853">
        <ele>564</ele>
        <time>2012-10-20T11:10:09Z</time>
      </trkpt>
      <trkpt lat="45.68698" lon="4.59846">
        <ele>566</ele>
        <time>2012-10-20T11:10:13Z</time>
      </trkpt>
      <trkpt lat="45.68699" lon="4.59844">
        <ele>566</ele>
        <time>2012-10-20T11:10:14Z</time>
      </trkpt>
      <trkpt lat="45.68701" lon="4.59831">
        <ele>567</ele>
        <time>2012-10-20T11:10:20Z</time>
      </trkpt>
      <trkpt lat="45.68702" lon="4.59828">
        <ele>567</ele>
        <time>2012-10-20T11:10:21Z</time>
      </trkpt>
      <trkpt lat="45.68706" lon="4.5982">
        <ele>569</ele>
        <time>2012-10-20T11:10:25Z</time>
      </trkpt>
      <trkpt lat="45.68712" lon="4.59813">
        <ele>569</ele>
        <time>2012-10-20T11:10:30Z</time>
      </trkpt>
      <trkpt lat="45.68717" lon="4.59805">
        <ele>571</ele>
        <time>2012-10-20T11:10:35Z</time>
      </trkpt>
      <trkpt lat="45.6872" lon="4.59801">
        <ele>571</ele>
        <time>2012-10-20T11:10:38Z</time>
      </trkpt>
      <trkpt lat="45.68721" lon="4.59799">
        <ele>571</ele>
        <time>2012-10-20T11:10:39Z</time>
      </trkpt>
      <trkpt lat="45.68733" lon="4.59788">
        <ele>571</ele>
        <time>2012-10-20T11:10:46Z</time>
      </trkpt>
      <trkpt lat="45.68746" lon="4.59782">
        <ele>571</ele>
        <time>2012-10-20T11:10:52Z</time>
      </trkpt>
      <trkpt lat="45.68761" lon="4.59783">
        <ele>571</ele>
        <time>2012-10-20T11:10:58Z</time>
      </trkpt>
      <trkpt lat="45.68773" lon="4.59793">
        <ele>571</ele>
        <time>2012-10-20T11:11:05Z</time>
      </trkpt>
      <trkpt lat="45.68786" lon="4.59811">
        <ele>571</ele>
        <time>2012-10-20T11:11:12Z</time>
      </trkpt>
      <trkpt lat="45.68798" lon="4.59825">
        <ele>571</ele>
        <time>2012-10-20T11:11:20Z</time>
      </trkpt>
      <trkpt lat="45.68807" lon="4.59846">
        <ele>572</ele>
        <time>2012-10-20T11:11:29Z</time>
      </trkpt>
      <trkpt lat="45.68807" lon="4.59847">
        <ele>571</ele>
        <time>2012-10-20T11:11:30Z</time>
      </trkpt>
      <trkpt lat="45.68808" lon="4.59848">
        <ele>572</ele>
        <time>2012-10-20T11:11:36Z</time>
      </trkpt>
      <trkpt lat="45.68807" lon="4.59849">
        <ele>571</ele>
        <time>2012-10-20T11:11:48Z</time>
      </trkpt>
      <trkpt lat="45.68808" lon="4.5985">
        <ele>573</ele>
        <time>2012-10-20T11:12:00Z</time>
      </trkpt>
      <trkpt lat="45.68809" lon="4.59848">
        <ele>572</ele>
        <time>2012-10-20T11:12:12Z</time>
      </trkpt>
      <trkpt lat="45.68811" lon="4.59847">
        <ele>572</ele>
        <time>2012-10-20T11:12:13Z</time>
      </trkpt>
      <trkpt lat="45.68813" lon="4.59847">
        <ele>573</ele>
        <time>2012-10-20T11:12:14Z</time>
      </trkpt>
      <trkpt lat="45.68814" lon="4.59848">
        <ele>572</ele>
        <time>2012-10-20T11:12:15Z</time>
      </trkpt>
      <trkpt lat="45.68815" lon="4.59848">
        <ele>573</ele>
        <time>2012-10-20T11:12:16Z</time>
      </trkpt>
      <trkpt lat="45.68817" lon="4.59849">
        <ele>573</ele>
        <time>2012-10-20T11:12:18Z</time>
      </trkpt>
      <trkpt lat="45.68819" lon="4.5985">
        <ele>574</ele>
        <time>2012-10-20T11:12:19Z</time>
      </trkpt>
      <trkpt lat="45.6882" lon="4.5985">
        <ele>573</ele>
        <time>2012-10-20T11:12:20Z</time>
      </trkpt>
      <trkpt lat="45.68821" lon="4.5985">
        <ele>574</ele>
        <time>2012-10-20T11:12:21Z</time>
      </trkpt>
      <trkpt lat="45.68823" lon="4.5985">
        <ele>575</ele>
        <time>2012-10-20T11:12:22Z</time>
      </trkpt>
      <trkpt lat="45.68824" lon="4.59851">
        <ele>575</ele>
        <time>2012-10-20T11:12:23Z</time>
      </trkpt>
      <trkpt lat="45.68825" lon="4.59851">
        <ele>575</ele>
        <time>2012-10-20T11:12:24Z</time>
      </trkpt>
      <trkpt lat="45.68827" lon="4.59852">
        <ele>575</ele>
        <time>2012-10-20T11:12:25Z</time>
      </trkpt>
      <trkpt lat="45.68828" lon="4.59853">
        <ele>575</ele>
        <time>2012-10-20T11:12:26Z</time>
      </trkpt>
      <trkpt lat="45.68839" lon="4.59858">
        <ele>577</ele>
        <time>2012-10-20T11:12:34Z</time>
      </trkpt>
      <trkpt lat="45.68851" lon="4.59855">
        <ele>578</ele>
        <time>2012-10-20T11:12:41Z</time>
      </trkpt>
      <trkpt lat="45.68857" lon="4.59854">
        <ele>579</ele>
        <time>2012-10-20T11:12:45Z</time>
      </trkpt>
      <trkpt lat="45.68858" lon="4.59853">
        <ele>579</ele>
        <time>2012-10-20T11:12:46Z</time>
      </trkpt>
      <trkpt lat="45.68865" lon="4.59848">
        <ele>579</ele>
        <time>2012-10-20T11:12:52Z</time>
      </trkpt>
      <trkpt lat="45.68866" lon="4.59848">
        <ele>580</ele>
        <time>2012-10-20T11:12:53Z</time>
      </trkpt>
      <trkpt lat="45.68867" lon="4.59847">
        <ele>580</ele>
        <time>2012-10-20T11:12:54Z</time>
      </trkpt>
      <trkpt lat="45.68874" lon="4.5984">
        <ele>580</ele>
        <time>2012-10-20T11:13:00Z</time>
      </trkpt>
      <trkpt lat="45.68878" lon="4.59837">
        <ele>581</ele>
        <time>2012-10-20T11:13:03Z</time>
      </trkpt>
      <trkpt lat="45.68885" lon="4.59828">
        <ele>582</ele>
        <time>2012-10-20T11:13:08Z</time>
      </trkpt>
      <trkpt lat="45.68886" lon="4.59827">
        <ele>582</ele>
        <time>2012-10-20T11:13:09Z</time>
      </trkpt>
      <trkpt lat="45.68887" lon="4.59825">
        <ele>582</ele>
        <time>2012-10-20T11:13:10Z</time>
      </trkpt>
      <trkpt lat="45.68888" lon="4.59823">
        <ele>582</ele>
        <time>2012-10-20T11:13:11Z</time>
      </trkpt>
      <trkpt lat="45.6889" lon="4.59821">
        <ele>583</ele>
        <time>2012-10-20T11:13:12Z</time>
      </trkpt>
      <trkpt lat="45.68891" lon="4.59819">
        <ele>582</ele>
        <time>2012-10-20T11:13:13Z</time>
      </trkpt>
      <trkpt lat="45.68893" lon="4.59815">
        <ele>582</ele>
        <time>2012-10-20T11:13:15Z</time>
      </trkpt>
      <trkpt lat="45.68893" lon="4.59813">
        <ele>583</ele>
        <time>2012-10-20T11:13:16Z</time>
      </trkpt>
      <trkpt lat="45.68894" lon="4.5981">
        <ele>583</ele>
        <time>2012-10-20T11:13:17Z</time>
      </trkpt>
      <trkpt lat="45.68896" lon="4.59809">
        <ele>583</ele>
        <time>2012-10-20T11:13:18Z</time>
      </trkpt>
      <trkpt lat="45.68897" lon="4.59806">
        <ele>583</ele>
        <time>2012-10-20T11:13:19Z</time>
      </trkpt>
      <trkpt lat="45.68897" lon="4.59804">
        <ele>584</ele>
        <time>2012-10-20T11:13:20Z</time>
      </trkpt>
      <trkpt lat="45.68898" lon="4.59801">
        <ele>583</ele>
        <time>2012-10-20T11:13:21Z</time>
      </trkpt>
      <trkpt lat="45.68898" lon="4.59798">
        <ele>583</ele>
        <time>2012-10-20T11:13:22Z</time>
      </trkpt>
      <trkpt lat="45.68898" lon="4.59795">
        <ele>584</ele>
        <time>2012-10-20T11:13:24Z</time>
      </trkpt>
      <trkpt lat="45.68897" lon="4.59778">
        <ele>585</ele>
        <time>2012-10-20T11:13:32Z</time>
      </trkpt>
      <trkpt lat="45.68897" lon="4.59776">
        <ele>586</ele>
        <time>2012-10-20T11:13:33Z</time>
      </trkpt>
      <trkpt lat="45.68896" lon="4.59774">
        <ele>586</ele>
        <time>2012-10-20T11:13:34Z</time>
      </trkpt>
      <trkpt lat="45.68895" lon="4.59765">
        <ele>586</ele>
        <time>2012-10-20T11:13:38Z</time>
      </trkpt>
      <trkpt lat="45.68895" lon="4.59763">
        <ele>586</ele>
        <time>2012-10-20T11:13:39Z</time>
      </trkpt>
      <trkpt lat="45.68895" lon="4.59761">
        <ele>587</ele>
        <time>2012-10-20T11:13:40Z</time>
      </trkpt>
      <trkpt lat="45.68895" lon="4.59759">
        <ele>587</ele>
        <time>2012-10-20T11:13:41Z</time>
      </trkpt>
      <trkpt lat="45.68896" lon="4.59758">
        <ele>587</ele>
        <time>2012-10-20T11:13:42Z</time>
      </trkpt>
      <trkpt lat="45.68898" lon="4.59743">
        <ele>588</ele>
        <time>2012-10-20T11:13:50Z</time>
      </trkpt>
      <trkpt lat="45.689" lon="4.59737">
        <ele>588</ele>
        <time>2012-10-20T11:13:54Z</time>
      </trkpt>
      <trkpt lat="45.68901" lon="4.59734">
        <ele>589</ele>
        <time>2012-10-20T11:13:55Z</time>
      </trkpt>
      <trkpt lat="45.68901" lon="4.59731">
        <ele>589</ele>
        <time>2012-10-20T11:13:56Z</time>
      </trkpt>
      <trkpt lat="45.68901" lon="4.59729">
        <ele>589</ele>
        <time>2012-10-20T11:13:57Z</time>
      </trkpt>
      <trkpt lat="45.68901" lon="4.59713">
        <ele>590</ele>
        <time>2012-10-20T11:14:04Z</time>
      </trkpt>
      <trkpt lat="45.68901" lon="4.5971">
        <ele>590</ele>
        <time>2012-10-20T11:14:05Z</time>
      </trkpt>
      <trkpt lat="45.68901" lon="4.59707">
        <ele>590</ele>
        <time>2012-10-20T11:14:07Z</time>
      </trkpt>
      <trkpt lat="45.689" lon="4.59705">
        <ele>590</ele>
        <time>2012-10-20T11:14:08Z</time>
      </trkpt>
      <trkpt lat="45.689" lon="4.59692">
        <ele>591</ele>
        <time>2012-10-20T11:14:14Z</time>
      </trkpt>
      <trkpt lat="45.689" lon="4.59686">
        <ele>592</ele>
        <time>2012-10-20T11:14:17Z</time>
      </trkpt>
      <trkpt lat="45.689" lon="4.59684">
        <ele>592</ele>
        <time>2012-10-20T11:14:18Z</time>
      </trkpt>
      <trkpt lat="45.689" lon="4.59681">
        <ele>592</ele>
        <time>2012-10-20T11:14:19Z</time>
      </trkpt>
      <trkpt lat="45.68899" lon="4.59677">
        <ele>592</ele>
        <time>2012-10-20T11:14:21Z</time>
      </trkpt>
      <trkpt lat="45.689" lon="4.59675">
        <ele>592</ele>
        <time>2012-10-20T11:14:22Z</time>
      </trkpt>
      <trkpt lat="45.689" lon="4.59668">
        <ele>593</ele>
        <time>2012-10-20T11:14:26Z</time>
      </trkpt>
      <trkpt lat="45.68903" lon="4.59656">
        <ele>594</ele>
        <time>2012-10-20T11:14:32Z</time>
      </trkpt>
      <trkpt lat="45.68905" lon="4.59651">
        <ele>594</ele>
        <time>2012-10-20T11:14:34Z</time>
      </trkpt>
      <trkpt lat="45.68906" lon="4.59649">
        <ele>594</ele>
        <time>2012-10-20T11:14:35Z</time>
      </trkpt>
      <trkpt lat="45.68909" lon="4.5964">
        <ele>594</ele>
        <time>2012-10-20T11:14:38Z</time>
      </trkpt>
      <trkpt lat="45.6891" lon="4.59635">
        <ele>594</ele>
        <time>2012-10-20T11:14:39Z</time>
      </trkpt>
      <trkpt lat="45.68911" lon="4.59631">
        <ele>594</ele>
        <time>2012-10-20T11:14:40Z</time>
      </trkpt>
      <trkpt lat="45.68914" lon="4.5962">
        <ele>594</ele>
        <time>2012-10-20T11:14:44Z</time>
      </trkpt>
      <trkpt lat="45.68915" lon="4.59617">
        <ele>595</ele>
        <time>2012-10-20T11:14:45Z</time>
      </trkpt>
      <trkpt lat="45.68916" lon="4.59614">
        <ele>594</ele>
        <time>2012-10-20T11:14:46Z</time>
      </trkpt>
      <trkpt lat="45.68917" lon="4.5961">
        <ele>595</ele>
        <time>2012-10-20T11:14:47Z</time>
      </trkpt>
      <trkpt lat="45.68917" lon="4.59607">
        <ele>594</ele>
        <time>2012-10-20T11:14:48Z</time>
      </trkpt>
      <trkpt lat="45.68918" lon="4.59605">
        <ele>594</ele>
        <time>2012-10-20T11:14:49Z</time>
      </trkpt>
      <trkpt lat="45.68918" lon="4.59602">
        <ele>595</ele>
        <time>2012-10-20T11:14:50Z</time>
      </trkpt>
      <trkpt lat="45.68919" lon="4.59599">
        <ele>595</ele>
        <time>2012-10-20T11:14:51Z</time>
      </trkpt>
      <trkpt lat="45.68921" lon="4.59594">
        <ele>595</ele>
        <time>2012-10-20T11:14:53Z</time>
      </trkpt>
      <trkpt lat="45.68922" lon="4.59592">
        <ele>595</ele>
        <time>2012-10-20T11:14:54Z</time>
      </trkpt>
      <trkpt lat="45.68922" lon="4.5959">
        <ele>595</ele>
        <time>2012-10-20T11:14:55Z</time>
      </trkpt>
      <trkpt lat="45.68926" lon="4.59568">
        <ele>595</ele>
        <time>2012-10-20T11:15:04Z</time>
      </trkpt>
      <trkpt lat="45.68928" lon="4.59564">
        <ele>595</ele>
        <time>2012-10-20T11:15:06Z</time>
      </trkpt>
      <trkpt lat="45.68928" lon="4.59559">
        <ele>596</ele>
        <time>2012-10-20T11:15:08Z</time>
      </trkpt>
      <trkpt lat="45.68929" lon="4.59556">
        <ele>596</ele>
        <time>2012-10-20T11:15:09Z</time>
      </trkpt>
      <trkpt lat="45.68929" lon="4.59553">
        <ele>596</ele>
        <time>2012-10-20T11:15:10Z</time>
      </trkpt>
      <trkpt lat="45.6893" lon="4.5955">
        <ele>596</ele>
        <time>2012-10-20T11:15:11Z</time>
      </trkpt>
      <trkpt lat="45.68931" lon="4.59547">
        <ele>596</ele>
        <time>2012-10-20T11:15:12Z</time>
      </trkpt>
      <trkpt lat="45.68932" lon="4.59545">
        <ele>596</ele>
        <time>2012-10-20T11:15:13Z</time>
      </trkpt>
      <trkpt lat="45.68934" lon="4.59534">
        <ele>597</ele>
        <time>2012-10-20T11:15:19Z</time>
      </trkpt>
      <trkpt lat="45.68934" lon="4.59531">
        <ele>597</ele>
        <time>2012-10-20T11:15:20Z</time>
      </trkpt>
      <trkpt lat="45.68936" lon="4.59514">
        <ele>599</ele>
        <time>2012-10-20T11:15:28Z</time>
      </trkpt>
      <trkpt lat="45.68938" lon="4.59497">
        <ele>601</ele>
        <time>2012-10-20T11:15:35Z</time>
      </trkpt>
      <trkpt lat="45.6894" lon="4.5949">
        <ele>602</ele>
        <time>2012-10-20T11:15:38Z</time>
      </trkpt>
      <trkpt lat="45.6894" lon="4.59471">
        <ele>604</ele>
        <time>2012-10-20T11:15:46Z</time>
      </trkpt>
      <trkpt lat="45.6894" lon="4.59465">
        <ele>605</ele>
        <time>2012-10-20T11:15:49Z</time>
      </trkpt>
      <trkpt lat="45.6894" lon="4.59459">
        <ele>605</ele>
        <time>2012-10-20T11:15:52Z</time>
      </trkpt>
      <trkpt lat="45.6894" lon="4.59457">
        <ele>606</ele>
        <time>2012-10-20T11:15:53Z</time>
      </trkpt>
      <trkpt lat="45.68941" lon="4.59445">
        <ele>607</ele>
        <time>2012-10-20T11:15:59Z</time>
      </trkpt>
      <trkpt lat="45.6894" lon="4.59432">
        <ele>609</ele>
        <time>2012-10-20T11:16:06Z</time>
      </trkpt>
      <trkpt lat="45.68941" lon="4.5943">
        <ele>609</ele>
        <time>2012-10-20T11:16:07Z</time>
      </trkpt>
      <trkpt lat="45.68942" lon="4.5942">
        <ele>609</ele>
        <time>2012-10-20T11:16:14Z</time>
      </trkpt>
      <trkpt lat="45.68943" lon="4.59414">
        <ele>610</ele>
        <time>2012-10-20T11:16:20Z</time>
      </trkpt>
      <trkpt lat="45.68945" lon="4.59405">
        <ele>610</ele>
        <time>2012-10-20T11:16:26Z</time>
      </trkpt>
      <trkpt lat="45.68945" lon="4.59392">
        <ele>610</ele>
        <time>2012-10-20T11:16:33Z</time>
      </trkpt>
      <trkpt lat="45.68945" lon="4.59378">
        <ele>610</ele>
        <time>2012-10-20T11:16:41Z</time>
      </trkpt>
      <trkpt lat="45.68942" lon="4.59373">
        <ele>610</ele>
        <time>2012-10-20T11:16:51Z</time>
      </trkpt>
      <trkpt lat="45.68944" lon="4.59369">
        <ele>610</ele>
        <time>2012-10-20T11:16:54Z</time>
      </trkpt>
      <trkpt lat="45.68945" lon="4.59368">
        <ele>610</ele>
        <time>2012-10-20T11:16:55Z</time>
      </trkpt>
      <trkpt lat="45.68945" lon="4.59366">
        <ele>610</ele>
        <time>2012-10-20T11:16:56Z</time>
      </trkpt>
      <trkpt lat="45.68945" lon="4.59364">
        <ele>610</ele>
        <time>2012-10-20T11:16:57Z</time>
      </trkpt>
      <trkpt lat="45.68945" lon="4.59346">
        <ele>610</ele>
        <time>2012-10-20T11:17:06Z</time>
      </trkpt>
      <trkpt lat="45.68944" lon="4.59341">
        <ele>610</ele>
        <time>2012-10-20T11:17:08Z</time>
      </trkpt>
      <trkpt lat="45.68942" lon="4.59338">
        <ele>610</ele>
        <time>2012-10-20T11:17:09Z</time>
      </trkpt>
      <trkpt lat="45.68928" lon="4.59316">
        <ele>609</ele>
        <time>2012-10-20T11:17:15Z</time>
      </trkpt>
      <trkpt lat="45.68906" lon="4.59295">
        <ele>608</ele>
        <time>2012-10-20T11:17:22Z</time>
      </trkpt>
      <trkpt lat="45.68889" lon="4.59286">
        <ele>607</ele>
        <time>2012-10-20T11:17:28Z</time>
      </trkpt>
      <trkpt lat="45.68865" lon="4.59277">
        <ele>608</ele>
        <time>2012-10-20T11:17:37Z</time>
      </trkpt>
      <trkpt lat="45.68854" lon="4.59274">
        <ele>609</ele>
        <time>2012-10-20T11:17:44Z</time>
      </trkpt>
      <trkpt lat="45.6885" lon="4.59273">
        <ele>610</ele>
        <time>2012-10-20T11:17:47Z</time>
      </trkpt>
      <trkpt lat="45.68848" lon="4.59274">
        <ele>610</ele>
        <time>2012-10-20T11:17:48Z</time>
      </trkpt>
      <trkpt lat="45.68846" lon="4.59274">
        <ele>610</ele>
        <time>2012-10-20T11:17:49Z</time>
      </trkpt>
      <trkpt lat="45.68845" lon="4.59274">
        <ele>610</ele>
        <time>2012-10-20T11:17:50Z</time>
      </trkpt>
      <trkpt lat="45.68843" lon="4.59274">
        <ele>611</ele>
        <time>2012-10-20T11:17:51Z</time>
      </trkpt>
      <trkpt lat="45.68841" lon="4.59273">
        <ele>611</ele>
        <time>2012-10-20T11:17:52Z</time>
      </trkpt>
      <trkpt lat="45.68839" lon="4.59273">
        <ele>611</ele>
        <time>2012-10-20T11:17:53Z</time>
      </trkpt>
      <trkpt lat="45.68826" lon="4.59268">
        <ele>612</ele>
        <time>2012-10-20T11:18:00Z</time>
      </trkpt>
      <trkpt lat="45.68821" lon="4.59268">
        <ele>613</ele>
        <time>2012-10-20T11:18:04Z</time>
      </trkpt>
      <trkpt lat="45.68819" lon="4.59267">
        <ele>614</ele>
        <time>2012-10-20T11:18:05Z</time>
      </trkpt>
      <trkpt lat="45.68818" lon="4.59267">
        <ele>614</ele>
        <time>2012-10-20T11:18:06Z</time>
      </trkpt>
      <trkpt lat="45.68817" lon="4.59267">
        <ele>614</ele>
        <time>2012-10-20T11:18:07Z</time>
      </trkpt>
      <trkpt lat="45.6881" lon="4.59263">
        <ele>615</ele>
        <time>2012-10-20T11:18:14Z</time>
      </trkpt>
      <trkpt lat="45.68804" lon="4.59259">
        <ele>617</ele>
        <time>2012-10-20T11:18:19Z</time>
      </trkpt>
      <trkpt lat="45.68796" lon="4.59254">
        <ele>618</ele>
        <time>2012-10-20T11:18:26Z</time>
      </trkpt>
      <trkpt lat="45.68792" lon="4.59253">
        <ele>618</ele>
        <time>2012-10-20T11:18:29Z</time>
      </trkpt>
      <trkpt lat="45.68791" lon="4.59252">
        <ele>618</ele>
        <time>2012-10-20T11:18:30Z</time>
      </trkpt>
      <trkpt lat="45.68782" lon="4.59246">
        <ele>620</ele>
        <time>2012-10-20T11:18:37Z</time>
      </trkpt>
      <trkpt lat="45.68777" lon="4.59242">
        <ele>621</ele>
        <time>2012-10-20T11:18:41Z</time>
      </trkpt>
      <trkpt lat="45.68773" lon="4.59239">
        <ele>622</ele>
        <time>2012-10-20T11:18:44Z</time>
      </trkpt>
      <trkpt lat="45.68772" lon="4.59238">
        <ele>622</ele>
        <time>2012-10-20T11:18:45Z</time>
      </trkpt>
      <trkpt lat="45.6877" lon="4.59236">
        <ele>623</ele>
        <time>2012-10-20T11:18:46Z</time>
      </trkpt>
      <trkpt lat="45.68769" lon="4.59234">
        <ele>623</ele>
        <time>2012-10-20T11:18:47Z</time>
      </trkpt>
      <trkpt lat="45.68767" lon="4.59233">
        <ele>623</ele>
        <time>2012-10-20T11:18:48Z</time>
      </trkpt>
      <trkpt lat="45.68762" lon="4.59222">
        <ele>625</ele>
        <time>2012-10-20T11:18:55Z</time>
      </trkpt>
      <trkpt lat="45.68763" lon="4.59215">
        <ele>627</ele>
        <time>2012-10-20T11:19:01Z</time>
      </trkpt>
      <trkpt lat="45.68767" lon="4.59208">
        <ele>628</ele>
        <time>2012-10-20T11:19:06Z</time>
      </trkpt>
      <trkpt lat="45.68768" lon="4.59207">
        <ele>629</ele>
        <time>2012-10-20T11:19:07Z</time>
      </trkpt>
      <trkpt lat="45.68777" lon="4.59201">
        <ele>631</ele>
        <time>2012-10-20T11:19:14Z</time>
      </trkpt>
      <trkpt lat="45.68783" lon="4.5919">
        <ele>632</ele>
        <time>2012-10-20T11:19:23Z</time>
      </trkpt>
      <trkpt lat="45.68794" lon="4.59184">
        <ele>634</ele>
        <time>2012-10-20T11:19:32Z</time>
      </trkpt>
      <trkpt lat="45.68798" lon="4.59177">
        <ele>636</ele>
        <time>2012-10-20T11:19:37Z</time>
      </trkpt>
      <trkpt lat="45.68799" lon="4.59176">
        <ele>636</ele>
        <time>2012-10-20T11:19:38Z</time>
      </trkpt>
      <trkpt lat="45.68804" lon="4.5917">
        <ele>637</ele>
        <time>2012-10-20T11:19:43Z</time>
      </trkpt>
      <trkpt lat="45.68811" lon="4.59163">
        <ele>639</ele>
        <time>2012-10-20T11:19:51Z</time>
      </trkpt>
      <trkpt lat="45.68817" lon="4.59157">
        <ele>639</ele>
        <time>2012-10-20T11:19:57Z</time>
      </trkpt>
      <trkpt lat="45.68822" lon="4.59156">
        <ele>639</ele>
        <time>2012-10-20T11:20:05Z</time>
      </trkpt>
      <trkpt lat="45.68821" lon="4.59156">
        <ele>639</ele>
        <time>2012-10-20T11:20:23Z</time>
      </trkpt>
      <trkpt lat="45.68821" lon="4.59155">
        <ele>639</ele>
        <time>2012-10-20T11:20:37Z</time>
      </trkpt>
      <trkpt lat="45.68822" lon="4.5915">
        <ele>639</ele>
        <time>2012-10-20T11:20:52Z</time>
      </trkpt>
      <trkpt lat="45.68825" lon="4.59146">
        <ele>640</ele>
        <time>2012-10-20T11:20:57Z</time>
      </trkpt>
      <trkpt lat="45.68827" lon="4.59145">
        <ele>640</ele>
        <time>2012-10-20T11:20:58Z</time>
      </trkpt>
      <trkpt lat="45.68832" lon="4.5914">
        <ele>641</ele>
        <time>2012-10-20T11:21:04Z</time>
      </trkpt>
      <trkpt lat="45.68835" lon="4.59131">
        <ele>642</ele>
        <time>2012-10-20T11:21:11Z</time>
      </trkpt>
      <trkpt lat="45.68835" lon="4.59128">
        <ele>642</ele>
        <time>2012-10-20T11:21:13Z</time>
      </trkpt>
      <trkpt lat="45.68835" lon="4.59114">
        <ele>644</ele>
        <time>2012-10-20T11:21:21Z</time>
      </trkpt>
      <trkpt lat="45.68835" lon="4.59104">
        <ele>645</ele>
        <time>2012-10-20T11:21:28Z</time>
      </trkpt>
      <trkpt lat="45.68832" lon="4.59095">
        <ele>646</ele>
        <time>2012-10-20T11:21:35Z</time>
      </trkpt>
      <trkpt lat="45.68832" lon="4.5909">
        <ele>647</ele>
        <time>2012-10-20T11:21:38Z</time>
      </trkpt>
      <trkpt lat="45.6883" lon="4.5908">
        <ele>649</ele>
        <time>2012-10-20T11:21:45Z</time>
      </trkpt>
      <trkpt lat="45.68832" lon="4.59063">
        <ele>649</ele>
        <time>2012-10-20T11:21:54Z</time>
      </trkpt>
      <trkpt lat="45.68833" lon="4.59054">
        <ele>650</ele>
        <time>2012-10-20T11:21:59Z</time>
      </trkpt>
      <trkpt lat="45.68834" lon="4.59043">
        <ele>651</ele>
        <time>2012-10-20T11:22:06Z</time>
      </trkpt>
      <trkpt lat="45.68834" lon="4.59031">
        <ele>653</ele>
        <time>2012-10-20T11:22:13Z</time>
      </trkpt>
      <trkpt lat="45.68834" lon="4.59018">
        <ele>655</ele>
        <time>2012-10-20T11:22:20Z</time>
      </trkpt>
      <trkpt lat="45.68836" lon="4.59003">
        <ele>656</ele>
        <time>2012-10-20T11:22:28Z</time>
      </trkpt>
      <trkpt lat="45.68837" lon="4.5899">
        <ele>658</ele>
        <time>2012-10-20T11:22:36Z</time>
      </trkpt>
      <trkpt lat="45.68838" lon="4.58974">
        <ele>661</ele>
        <time>2012-10-20T11:22:45Z</time>
      </trkpt>
      <trkpt lat="45.68836" lon="4.58966">
        <ele>662</ele>
        <time>2012-10-20T11:22:50Z</time>
      </trkpt>
      <trkpt lat="45.68836" lon="4.58957">
        <ele>663</ele>
        <time>2012-10-20T11:22:56Z</time>
      </trkpt>
      <trkpt lat="45.68832" lon="4.58943">
        <ele>665</ele>
        <time>2012-10-20T11:23:04Z</time>
      </trkpt>
      <trkpt lat="45.68829" lon="4.5893">
        <ele>666</ele>
        <time>2012-10-20T11:23:13Z</time>
      </trkpt>
      <trkpt lat="45.68825" lon="4.58919">
        <ele>667</ele>
        <time>2012-10-20T11:23:20Z</time>
      </trkpt>
      <trkpt lat="45.68824" lon="4.5891">
        <ele>668</ele>
        <time>2012-10-20T11:23:27Z</time>
      </trkpt>
      <trkpt lat="45.68821" lon="4.589">
        <ele>669</ele>
        <time>2012-10-20T11:23:34Z</time>
      </trkpt>
      <trkpt lat="45.6882" lon="4.58899">
        <ele>669</ele>
        <time>2012-10-20T11:23:35Z</time>
      </trkpt>
      <trkpt lat="45.68814" lon="4.5889">
        <ele>670</ele>
        <time>2012-10-20T11:23:42Z</time>
      </trkpt>
      <trkpt lat="45.68813" lon="4.58889">
        <ele>671</ele>
        <time>2012-10-20T11:23:43Z</time>
      </trkpt>
      <trkpt lat="45.68811" lon="4.58887">
        <ele>671</ele>
        <time>2012-10-20T11:23:44Z</time>
      </trkpt>
      <trkpt lat="45.68806" lon="4.58881">
        <ele>672</ele>
        <time>2012-10-20T11:23:50Z</time>
      </trkpt>
      <trkpt lat="45.68805" lon="4.5888">
        <ele>672</ele>
        <time>2012-10-20T11:23:51Z</time>
      </trkpt>
      <trkpt lat="45.68802" lon="4.58872">
        <ele>673</ele>
        <time>2012-10-20T11:23:56Z</time>
      </trkpt>
      <trkpt lat="45.68801" lon="4.5887">
        <ele>673</ele>
        <time>2012-10-20T11:23:57Z</time>
      </trkpt>
      <trkpt lat="45.68794" lon="4.58861">
        <ele>674</ele>
        <time>2012-10-20T11:24:05Z</time>
      </trkpt>
      <trkpt lat="45.68791" lon="4.58854">
        <ele>675</ele>
        <time>2012-10-20T11:24:12Z</time>
      </trkpt>
      <trkpt lat="45.6879" lon="4.5885">
        <ele>675</ele>
        <time>2012-10-20T11:24:23Z</time>
      </trkpt>
      <trkpt lat="45.68787" lon="4.58844">
        <ele>676</ele>
        <time>2012-10-20T11:24:34Z</time>
      </trkpt>
      <trkpt lat="45.68786" lon="4.58843">
        <ele>675</ele>
        <time>2012-10-20T11:24:49Z</time>
      </trkpt>
      <trkpt lat="45.68787" lon="4.58848">
        <ele>676</ele>
        <time>2012-10-20T11:24:57Z</time>
      </trkpt>
      <trkpt lat="45.68786" lon="4.58847">
        <ele>677</ele>
        <time>2012-10-20T11:25:07Z</time>
      </trkpt>
      <trkpt lat="45.68785" lon="4.58846">
        <ele>678</ele>
        <time>2012-10-20T11:25:15Z</time>
      </trkpt>
      <trkpt lat="45.68782" lon="4.5884">
        <ele>680</ele>
        <time>2012-10-20T11:25:22Z</time>
      </trkpt>
      <trkpt lat="45.68779" lon="4.58835">
        <ele>681</ele>
        <time>2012-10-20T11:25:29Z</time>
      </trkpt>
      <trkpt lat="45.68777" lon="4.58832">
        <ele>683</ele>
        <time>2012-10-20T11:25:36Z</time>
      </trkpt>
      <trkpt lat="45.68776" lon="4.5883">
        <ele>683</ele>
        <time>2012-10-20T11:25:43Z</time>
      </trkpt>
      <trkpt lat="45.68771" lon="4.58833">
        <ele>683</ele>
        <time>2012-10-20T11:25:57Z</time>
      </trkpt>
      <trkpt lat="45.68767" lon="4.58832">
        <ele>683</ele>
        <time>2012-10-20T11:26:09Z</time>
      </trkpt>
      <trkpt lat="45.68766" lon="4.58836">
        <ele>684</ele>
        <time>2012-10-20T11:26:15Z</time>
      </trkpt>
      <trkpt lat="45.68768" lon="4.58842">
        <ele>687</ele>
        <time>2012-10-20T11:26:24Z</time>
      </trkpt>
      <trkpt lat="45.6877" lon="4.58847">
        <ele>687</ele>
        <time>2012-10-20T11:26:28Z</time>
      </trkpt>
      <trkpt lat="45.68772" lon="4.58859">
        <ele>688</ele>
        <time>2012-10-20T11:26:35Z</time>
      </trkpt>
      <trkpt lat="45.68773" lon="4.58861">
        <ele>690</ele>
        <time>2012-10-20T11:26:36Z</time>
      </trkpt>
      <trkpt lat="45.68769" lon="4.58875">
        <ele>691</ele>
        <time>2012-10-20T11:26:43Z</time>
      </trkpt>
      <trkpt lat="45.68768" lon="4.58877">
        <ele>692</ele>
        <time>2012-10-20T11:26:44Z</time>
      </trkpt>
      <trkpt lat="45.68768" lon="4.58884">
        <ele>693</ele>
        <time>2012-10-20T11:26:48Z</time>
      </trkpt>
      <trkpt lat="45.68766" lon="4.58897">
        <ele>695</ele>
        <time>2012-10-20T11:26:56Z</time>
      </trkpt>
      <trkpt lat="45.68767" lon="4.58895">
        <ele>696</ele>
        <time>2012-10-20T11:27:02Z</time>
      </trkpt>
      <trkpt lat="45.68766" lon="4.58894">
        <ele>695</ele>
        <time>2012-10-20T11:27:03Z</time>
      </trkpt>
      <trkpt lat="45.68765" lon="4.58893">
        <ele>696</ele>
        <time>2012-10-20T11:27:04Z</time>
      </trkpt>
      <trkpt lat="45.68764" lon="4.58891">
        <ele>696</ele>
        <time>2012-10-20T11:27:05Z</time>
      </trkpt>
      <trkpt lat="45.68763" lon="4.58889">
        <ele>696</ele>
        <time>2012-10-20T11:27:06Z</time>
      </trkpt>
      <trkpt lat="45.68758" lon="4.58882">
        <ele>696</ele>
        <time>2012-10-20T11:27:12Z</time>
      </trkpt>
      <trkpt lat="45.68748" lon="4.58869">
        <ele>696</ele>
        <time>2012-10-20T11:27:22Z</time>
      </trkpt>
      <trkpt lat="45.68743" lon="4.58865">
        <ele>697</ele>
        <time>2012-10-20T11:27:28Z</time>
      </trkpt>
      <trkpt lat="45.6874" lon="4.5886">
        <ele>697</ele>
        <time>2012-10-20T11:27:31Z</time>
      </trkpt>
      <trkpt lat="45.68734" lon="4.58849">
        <ele>697</ele>
        <time>2012-10-20T11:27:37Z</time>
      </trkpt>
      <trkpt lat="45.68726" lon="4.58838">
        <ele>699</ele>
        <time>2012-10-20T11:27:44Z</time>
      </trkpt>
      <trkpt lat="45.68718" lon="4.58828">
        <ele>699</ele>
        <time>2012-10-20T11:27:51Z</time>
      </trkpt>
      <trkpt lat="45.68717" lon="4.58826">
        <ele>699</ele>
        <time>2012-10-20T11:27:52Z</time>
      </trkpt>
      <trkpt lat="45.68714" lon="4.58819">
        <ele>700</ele>
        <time>2012-10-20T11:27:56Z</time>
      </trkpt>
      <trkpt lat="45.68708" lon="4.58811">
        <ele>701</ele>
        <time>2012-10-20T11:28:02Z</time>
      </trkpt>
      <trkpt lat="45.68705" lon="4.58807">
        <ele>702</ele>
        <time>2012-10-20T11:28:05Z</time>
      </trkpt>
      <trkpt lat="45.68704" lon="4.58804">
        <ele>702</ele>
        <time>2012-10-20T11:28:06Z</time>
      </trkpt>
      <trkpt lat="45.687" lon="4.58788">
        <ele>702</ele>
        <time>2012-10-20T11:28:13Z</time>
      </trkpt>
      <trkpt lat="45.68692" lon="4.5877">
        <ele>704</ele>
        <time>2012-10-20T11:28:21Z</time>
      </trkpt>
      <trkpt lat="45.68686" lon="4.58754">
        <ele>704</ele>
        <time>2012-10-20T11:28:29Z</time>
      </trkpt>
      <trkpt lat="45.68678" lon="4.58736">
        <ele>704</ele>
        <time>2012-10-20T11:28:35Z</time>
      </trkpt>
      <trkpt lat="45.68672" lon="4.58719">
        <ele>704</ele>
        <time>2012-10-20T11:28:41Z</time>
      </trkpt>
      <trkpt lat="45.68673" lon="4.58702">
        <ele>705</ele>
        <time>2012-10-20T11:28:47Z</time>
      </trkpt>
      <trkpt lat="45.68674" lon="4.58691">
        <ele>705</ele>
        <time>2012-10-20T11:28:51Z</time>
      </trkpt>
      <trkpt lat="45.68678" lon="4.58672">
        <ele>708</ele>
        <time>2012-10-20T11:29:00Z</time>
      </trkpt>
      <trkpt lat="45.68685" lon="4.58657">
        <ele>708</ele>
        <time>2012-10-20T11:29:10Z</time>
      </trkpt>
      <trkpt lat="45.68681" lon="4.58654">
        <ele>709</ele>
        <time>2012-10-20T11:29:22Z</time>
      </trkpt>
      <trkpt lat="45.6868" lon="4.5865">
        <ele>709</ele>
        <time>2012-10-20T11:29:37Z</time>
      </trkpt>
      <trkpt lat="45.68683" lon="4.5865">
        <ele>710</ele>
        <time>2012-10-20T11:29:53Z</time>
      </trkpt>
      <trkpt lat="45.68686" lon="4.58649">
        <ele>710</ele>
        <time>2012-10-20T11:30:01Z</time>
      </trkpt>
      <trkpt lat="45.68688" lon="4.58647">
        <ele>710</ele>
        <time>2012-10-20T11:30:11Z</time>
      </trkpt>
      <trkpt lat="45.68686" lon="4.58643">
        <ele>711</ele>
        <time>2012-10-20T11:30:20Z</time>
      </trkpt>
      <trkpt lat="45.68687" lon="4.58642">
        <ele>711</ele>
        <time>2012-10-20T11:30:21Z</time>
      </trkpt>
      <trkpt lat="45.68688" lon="4.58641">
        <ele>710</ele>
        <time>2012-10-20T11:30:22Z</time>
      </trkpt>
      <trkpt lat="45.68689" lon="4.58638">
        <ele>711</ele>
        <time>2012-10-20T11:30:24Z</time>
      </trkpt>
      <trkpt lat="45.68689" lon="4.58627">
        <ele>712</ele>
        <time>2012-10-20T11:30:32Z</time>
      </trkpt>
      <trkpt lat="45.68688" lon="4.58616">
        <ele>712</ele>
        <time>2012-10-20T11:30:38Z</time>
      </trkpt>
      <trkpt lat="45.68687" lon="4.5861">
        <ele>713</ele>
        <time>2012-10-20T11:30:41Z</time>
      </trkpt>
      <trkpt lat="45.68686" lon="4.586">
        <ele>715</ele>
        <time>2012-10-20T11:30:46Z</time>
      </trkpt>
      <trkpt lat="45.68686" lon="4.58599">
        <ele>715</ele>
        <time>2012-10-20T11:30:47Z</time>
      </trkpt>
      <trkpt lat="45.68685" lon="4.58596">
        <ele>715</ele>
        <time>2012-10-20T11:30:48Z</time>
      </trkpt>
      <trkpt lat="45.68683" lon="4.58585">
        <ele>716</ele>
        <time>2012-10-20T11:30:54Z</time>
      </trkpt>
      <trkpt lat="45.68679" lon="4.58579">
        <ele>716</ele>
        <time>2012-10-20T11:30:58Z</time>
      </trkpt>
      <trkpt lat="45.68677" lon="4.58574">
        <ele>717</ele>
        <time>2012-10-20T11:31:01Z</time>
      </trkpt>
      <trkpt lat="45.68676" lon="4.58572">
        <ele>717</ele>
        <time>2012-10-20T11:31:02Z</time>
      </trkpt>
      <trkpt lat="45.68672" lon="4.58561">
        <ele>719</ele>
        <time>2012-10-20T11:31:09Z</time>
      </trkpt>
      <trkpt lat="45.6867" lon="4.58552">
        <ele>720</ele>
        <time>2012-10-20T11:31:15Z</time>
      </trkpt>
      <trkpt lat="45.68665" lon="4.58544">
        <ele>721</ele>
        <time>2012-10-20T11:31:21Z</time>
      </trkpt>
      <trkpt lat="45.68662" lon="4.58534">
        <ele>723</ele>
        <time>2012-10-20T11:31:29Z</time>
      </trkpt>
      <trkpt lat="45.68657" lon="4.58525">
        <ele>724</ele>
        <time>2012-10-20T11:31:36Z</time>
      </trkpt>
      <trkpt lat="45.68652" lon="4.58519">
        <ele>726</ele>
        <time>2012-10-20T11:31:42Z</time>
      </trkpt>
      <trkpt lat="45.68645" lon="4.58512">
        <ele>727</ele>
        <time>2012-10-20T11:31:49Z</time>
      </trkpt>
      <trkpt lat="45.68635" lon="4.58502">
        <ele>729</ele>
        <time>2012-10-20T11:31:56Z</time>
      </trkpt>
      <trkpt lat="45.68628" lon="4.58497">
        <ele>730</ele>
        <time>2012-10-20T11:32:03Z</time>
      </trkpt>
      <trkpt lat="45.68623" lon="4.58492">
        <ele>732</ele>
        <time>2012-10-20T11:32:09Z</time>
      </trkpt>
      <trkpt lat="45.68617" lon="4.58488">
        <ele>732</ele>
        <time>2012-10-20T11:32:14Z</time>
      </trkpt>
      <trkpt lat="45.68616" lon="4.58487">
        <ele>731</ele>
        <time>2012-10-20T11:32:15Z</time>
      </trkpt>
      <trkpt lat="45.68612" lon="4.5848">
        <ele>732</ele>
        <time>2012-10-20T11:32:20Z</time>
      </trkpt>
      <trkpt lat="45.68606" lon="4.58472">
        <ele>731</ele>
        <time>2012-10-20T11:32:26Z</time>
      </trkpt>
      <trkpt lat="45.68597" lon="4.58463">
        <ele>732</ele>
        <time>2012-10-20T11:32:32Z</time>
      </trkpt>
      <trkpt lat="45.68592" lon="4.58456">
        <ele>732</ele>
        <time>2012-10-20T11:32:36Z</time>
      </trkpt>
      <trkpt lat="45.68591" lon="4.58455">
        <ele>732</ele>
        <time>2012-10-20T11:32:37Z</time>
      </trkpt>
      <trkpt lat="45.68585" lon="4.58448">
        <ele>733</ele>
        <time>2012-10-20T11:32:43Z</time>
      </trkpt>
      <trkpt lat="45.68584" lon="4.58447">
        <ele>733</ele>
        <time>2012-10-20T11:32:44Z</time>
      </trkpt>
      <trkpt lat="45.68578" lon="4.58437">
        <ele>735</ele>
        <time>2012-10-20T11:32:50Z</time>
      </trkpt>
      <trkpt lat="45.68576" lon="4.58428">
        <ele>735</ele>
        <time>2012-10-20T11:32:55Z</time>
      </trkpt>
      <trkpt lat="45.68575" lon="4.58426">
        <ele>736</ele>
        <time>2012-10-20T11:32:56Z</time>
      </trkpt>
      <trkpt lat="45.68574" lon="4.58425">
        <ele>736</ele>
        <time>2012-10-20T11:32:57Z</time>
      </trkpt>
      <trkpt lat="45.68574" lon="4.58423">
        <ele>736</ele>
        <time>2012-10-20T11:32:58Z</time>
      </trkpt>
      <trkpt lat="45.68574" lon="4.58417">
        <ele>737</ele>
        <time>2012-10-20T11:33:02Z</time>
      </trkpt>
      <trkpt lat="45.68581" lon="4.58406">
        <ele>737</ele>
        <time>2012-10-20T11:33:10Z</time>
      </trkpt>
      <trkpt lat="45.68583" lon="4.58405">
        <ele>737</ele>
        <time>2012-10-20T11:33:11Z</time>
      </trkpt>
      <trkpt lat="45.68585" lon="4.58404">
        <ele>737</ele>
        <time>2012-10-20T11:33:12Z</time>
      </trkpt>
      <trkpt lat="45.68586" lon="4.58403">
        <ele>737</ele>
        <time>2012-10-20T11:33:13Z</time>
      </trkpt>
      <trkpt lat="45.68588" lon="4.58401">
        <ele>737</ele>
        <time>2012-10-20T11:33:14Z</time>
      </trkpt>
      <trkpt lat="45.68598" lon="4.58395">
        <ele>738</ele>
        <time>2012-10-20T11:33:21Z</time>
      </trkpt>
      <trkpt lat="45.68613" lon="4.58386">
        <ele>739</ele>
        <time>2012-10-20T11:33:30Z</time>
      </trkpt>
      <trkpt lat="45.68628" lon="4.58374">
        <ele>740</ele>
        <time>2012-10-20T11:33:37Z</time>
      </trkpt>
      <trkpt lat="45.68636" lon="4.58367">
        <ele>741</ele>
        <time>2012-10-20T11:33:43Z</time>
      </trkpt>
      <trkpt lat="45.68649" lon="4.58361">
        <ele>741</ele>
        <time>2012-10-20T11:33:51Z</time>
      </trkpt>
      <trkpt lat="45.68658" lon="4.58349">
        <ele>743</ele>
        <time>2012-10-20T11:33:58Z</time>
      </trkpt>
      <trkpt lat="45.68659" lon="4.58342">
        <ele>743</ele>
        <time>2012-10-20T11:34:06Z</time>
      </trkpt>
      <trkpt lat="45.68664" lon="4.58337">
        <ele>743</ele>
        <time>2012-10-20T11:34:11Z</time>
      </trkpt>
      <trkpt lat="45.68669" lon="4.58329">
        <ele>742</ele>
        <time>2012-10-20T11:34:15Z</time>
      </trkpt>
      <trkpt lat="45.68671" lon="4.58327">
        <ele>743</ele>
        <time>2012-10-20T11:34:16Z</time>
      </trkpt>
      <trkpt lat="45.68672" lon="4.58325">
        <ele>743</ele>
        <time>2012-10-20T11:34:17Z</time>
      </trkpt>
      <trkpt lat="45.68673" lon="4.58323">
        <ele>743</ele>
        <time>2012-10-20T11:34:18Z</time>
      </trkpt>
      <trkpt lat="45.68674" lon="4.58321">
        <ele>743</ele>
        <time>2012-10-20T11:34:19Z</time>
      </trkpt>
      <trkpt lat="45.68675" lon="4.5832">
        <ele>743</ele>
        <time>2012-10-20T11:34:20Z</time>
      </trkpt>
      <trkpt lat="45.68676" lon="4.58318">
        <ele>742</ele>
        <time>2012-10-20T11:34:21Z</time>
      </trkpt>
      <trkpt lat="45.68677" lon="4.58316">
        <ele>743</ele>
        <time>2012-10-20T11:34:22Z</time>
      </trkpt>
      <trkpt lat="45.68689" lon="4.58301">
        <ele>742</ele>
        <time>2012-10-20T11:34:29Z</time>
      </trkpt>
      <trkpt lat="45.68695" lon="4.58288">
        <ele>742</ele>
        <time>2012-10-20T11:34:34Z</time>
      </trkpt>
      <trkpt lat="45.68709" lon="4.58266">
        <ele>740</ele>
        <time>2012-10-20T11:34:41Z</time>
      </trkpt>
      <trkpt lat="45.68712" lon="4.5826">
        <ele>739</ele>
        <time>2012-10-20T11:34:42Z</time>
      </trkpt>
      <trkpt lat="45.68717" lon="4.5825">
        <ele>739</ele>
        <time>2012-10-20T11:34:44Z</time>
      </trkpt>
      <trkpt lat="45.68723" lon="4.58235">
        <ele>738</ele>
        <time>2012-10-20T11:34:46Z</time>
      </trkpt>
      <trkpt lat="45.68726" lon="4.58226">
        <ele>737</ele>
        <time>2012-10-20T11:34:47Z</time>
      </trkpt>
      <trkpt lat="45.6873" lon="4.58217">
        <ele>737</ele>
        <time>2012-10-20T11:34:48Z</time>
      </trkpt>
      <trkpt lat="45.68743" lon="4.5818">
        <ele>736</ele>
        <time>2012-10-20T11:34:52Z</time>
      </trkpt>
      <trkpt lat="45.68745" lon="4.58169">
        <ele>735</ele>
        <time>2012-10-20T11:34:53Z</time>
      </trkpt>
      <trkpt lat="45.68747" lon="4.58158">
        <ele>735</ele>
        <time>2012-10-20T11:34:54Z</time>
      </trkpt>
      <trkpt lat="45.68746" lon="4.58148">
        <ele>735</ele>
        <time>2012-10-20T11:34:55Z</time>
      </trkpt>
      <trkpt lat="45.68745" lon="4.58138">
        <ele>734</ele>
        <time>2012-10-20T11:34:56Z</time>
      </trkpt>
      <trkpt lat="45.68744" lon="4.58128">
        <ele>734</ele>
        <time>2012-10-20T11:34:57Z</time>
      </trkpt>
      <trkpt lat="45.68741" lon="4.581">
        <ele>732</ele>
        <time>2012-10-20T11:35:00Z</time>
      </trkpt>
      <trkpt lat="45.68742" lon="4.58091">
        <ele>733</ele>
        <time>2012-10-20T11:35:01Z</time>
      </trkpt>
      <trkpt lat="45.68745" lon="4.58083">
        <ele>732</ele>
        <time>2012-10-20T11:35:02Z</time>
      </trkpt>
      <trkpt lat="45.68748" lon="4.58077">
        <ele>732</ele>
        <time>2012-10-20T11:35:03Z</time>
      </trkpt>
      <trkpt lat="45.68751" lon="4.58072">
        <ele>732</ele>
        <time>2012-10-20T11:35:04Z</time>
      </trkpt>
      <trkpt lat="45.68761" lon="4.58049">
        <ele>733</ele>
        <time>2012-10-20T11:35:09Z</time>
      </trkpt>
      <trkpt lat="45.68768" lon="4.58026">
        <ele>733</ele>
        <time>2012-10-20T11:35:15Z</time>
      </trkpt>
      <trkpt lat="45.68771" lon="4.58014">
        <ele>733</ele>
        <time>2012-10-20T11:35:20Z</time>
      </trkpt>
      <trkpt lat="45.68772" lon="4.58013">
        <ele>734</ele>
        <time>2012-10-20T11:35:21Z</time>
      </trkpt>
      <trkpt lat="45.68773" lon="4.58011">
        <ele>734</ele>
        <time>2012-10-20T11:35:22Z</time>
      </trkpt>
      <trkpt lat="45.68774" lon="4.58009">
        <ele>733</ele>
        <time>2012-10-20T11:35:23Z</time>
      </trkpt>
      <trkpt lat="45.68775" lon="4.58008">
        <ele>734</ele>
        <time>2012-10-20T11:35:24Z</time>
      </trkpt>
      <trkpt lat="45.68775" lon="4.58006">
        <ele>734</ele>
        <time>2012-10-20T11:35:25Z</time>
      </trkpt>
      <trkpt lat="45.6878" lon="4.58001">
        <ele>733</ele>
        <time>2012-10-20T11:35:31Z</time>
      </trkpt>
      <trkpt lat="45.68785" lon="4.57997">
        <ele>733</ele>
        <time>2012-10-20T11:35:35Z</time>
      </trkpt>
      <trkpt lat="45.68795" lon="4.57976">
        <ele>732</ele>
        <time>2012-10-20T11:35:44Z</time>
      </trkpt>
      <trkpt lat="45.68806" lon="4.57958">
        <ele>732</ele>
        <time>2012-10-20T11:35:51Z</time>
      </trkpt>
      <trkpt lat="45.68818" lon="4.57943">
        <ele>731</ele>
        <time>2012-10-20T11:35:58Z</time>
      </trkpt>
      <trkpt lat="45.68819" lon="4.57941">
        <ele>731</ele>
        <time>2012-10-20T11:35:59Z</time>
      </trkpt>
      <trkpt lat="45.68821" lon="4.57937">
        <ele>731</ele>
        <time>2012-10-20T11:36:01Z</time>
      </trkpt>
      <trkpt lat="45.68825" lon="4.5793">
        <ele>730</ele>
        <time>2012-10-20T11:36:06Z</time>
      </trkpt>
      <trkpt lat="45.68827" lon="4.57929">
        <ele>729</ele>
        <time>2012-10-20T11:36:07Z</time>
      </trkpt>
      <trkpt lat="45.6883" lon="4.57929">
        <ele>728</ele>
        <time>2012-10-20T11:36:08Z</time>
      </trkpt>
      <trkpt lat="45.68832" lon="4.57929">
        <ele>728</ele>
        <time>2012-10-20T11:36:09Z</time>
      </trkpt>
      <trkpt lat="45.68854" lon="4.57938">
        <ele>726</ele>
        <time>2012-10-20T11:36:15Z</time>
      </trkpt>
      <trkpt lat="45.68858" lon="4.57943">
        <ele>726</ele>
        <time>2012-10-20T11:36:20Z</time>
      </trkpt>
      <trkpt lat="45.6886" lon="4.57943">
        <ele>726</ele>
        <time>2012-10-20T11:36:26Z</time>
      </trkpt>
      <trkpt lat="45.68866" lon="4.57938">
        <ele>727</ele>
        <time>2012-10-20T11:36:32Z</time>
      </trkpt>
      <trkpt lat="45.68867" lon="4.57939">
        <ele>727</ele>
        <time>2012-10-20T11:36:41Z</time>
      </trkpt>
      <trkpt lat="45.68867" lon="4.57942">
        <ele>727</ele>
        <time>2012-10-20T11:36:45Z</time>
      </trkpt>
      <trkpt lat="45.68867" lon="4.57944">
        <ele>727</ele>
        <time>2012-10-20T11:36:46Z</time>
      </trkpt>
      <trkpt lat="45.68867" lon="4.57947">
        <ele>726</ele>
        <time>2012-10-20T11:36:47Z</time>
      </trkpt>
      <trkpt lat="45.6887" lon="4.57963">
        <ele>728</ele>
        <time>2012-10-20T11:36:55Z</time>
      </trkpt>
      <trkpt lat="45.68871" lon="4.57976">
        <ele>730</ele>
        <time>2012-10-20T11:37:02Z</time>
      </trkpt>
      <trkpt lat="45.68873" lon="4.57991">
        <ele>732</ele>
        <time>2012-10-20T11:37:11Z</time>
      </trkpt>
      <trkpt lat="45.68874" lon="4.57995">
        <ele>732</ele>
        <time>2012-10-20T11:37:13Z</time>
      </trkpt>
      <trkpt lat="45.68874" lon="4.57997">
        <ele>732</ele>
        <time>2012-10-20T11:37:14Z</time>
      </trkpt>
      <trkpt lat="45.68874" lon="4.57999">
        <ele>732</ele>
        <time>2012-10-20T11:37:15Z</time>
      </trkpt>
      <trkpt lat="45.68875" lon="4.58002">
        <ele>733</ele>
        <time>2012-10-20T11:37:16Z</time>
      </trkpt>
      <trkpt lat="45.68875" lon="4.58004">
        <ele>732</ele>
        <time>2012-10-20T11:37:17Z</time>
      </trkpt>
      <trkpt lat="45.68876" lon="4.58006">
        <ele>733</ele>
        <time>2012-10-20T11:37:18Z</time>
      </trkpt>
      <trkpt lat="45.68876" lon="4.58008">
        <ele>734</ele>
        <time>2012-10-20T11:37:19Z</time>
      </trkpt>
      <trkpt lat="45.68876" lon="4.5801">
        <ele>733</ele>
        <time>2012-10-20T11:37:20Z</time>
      </trkpt>
      <trkpt lat="45.68876" lon="4.58012">
        <ele>734</ele>
        <time>2012-10-20T11:37:21Z</time>
      </trkpt>
      <trkpt lat="45.68881" lon="4.58025">
        <ele>736</ele>
        <time>2012-10-20T11:37:28Z</time>
      </trkpt>
      <trkpt lat="45.68881" lon="4.58029">
        <ele>735</ele>
        <time>2012-10-20T11:37:31Z</time>
      </trkpt>
      <trkpt lat="45.6888" lon="4.58031">
        <ele>735</ele>
        <time>2012-10-20T11:37:32Z</time>
      </trkpt>
      <trkpt lat="45.6888" lon="4.58033">
        <ele>736</ele>
        <time>2012-10-20T11:37:33Z</time>
      </trkpt>
      <trkpt lat="45.6888" lon="4.58035">
        <ele>736</ele>
        <time>2012-10-20T11:37:34Z</time>
      </trkpt>
      <trkpt lat="45.6888" lon="4.58037">
        <ele>736</ele>
        <time>2012-10-20T11:37:35Z</time>
      </trkpt>
      <trkpt lat="45.68881" lon="4.5804">
        <ele>736</ele>
        <time>2012-10-20T11:37:36Z</time>
      </trkpt>
      <trkpt lat="45.68881" lon="4.58042">
        <ele>736</ele>
        <time>2012-10-20T11:37:37Z</time>
      </trkpt>
      <trkpt lat="45.68883" lon="4.58049">
        <ele>738</ele>
        <time>2012-10-20T11:37:40Z</time>
      </trkpt>
      <trkpt lat="45.68885" lon="4.58056">
        <ele>738</ele>
        <time>2012-10-20T11:37:44Z</time>
      </trkpt>
      <trkpt lat="45.68885" lon="4.58057">
        <ele>738</ele>
        <time>2012-10-20T11:37:45Z</time>
      </trkpt>
      <trkpt lat="45.68886" lon="4.58059">
        <ele>738</ele>
        <time>2012-10-20T11:37:46Z</time>
      </trkpt>
      <trkpt lat="45.68886" lon="4.58069">
        <ele>739</ele>
        <time>2012-10-20T11:37:53Z</time>
      </trkpt>
      <trkpt lat="45.6889" lon="4.58083">
        <ele>740</ele>
        <time>2012-10-20T11:38:02Z</time>
      </trkpt>
      <trkpt lat="45.68895" lon="4.58098">
        <ele>742</ele>
        <time>2012-10-20T11:38:10Z</time>
      </trkpt>
      <trkpt lat="45.68898" lon="4.58104">
        <ele>743</ele>
        <time>2012-10-20T11:38:17Z</time>
      </trkpt>
      <trkpt lat="45.68898" lon="4.58102">
        <ele>742</ele>
        <time>2012-10-20T11:38:34Z</time>
      </trkpt>
      <trkpt lat="45.68898" lon="4.58103">
        <ele>742</ele>
        <time>2012-10-20T11:38:42Z</time>
      </trkpt>
      <trkpt lat="45.68899" lon="4.58107">
        <ele>742</ele>
        <time>2012-10-20T11:38:49Z</time>
      </trkpt>
      <trkpt lat="45.68909" lon="4.5812">
        <ele>743</ele>
        <time>2012-10-20T11:38:57Z</time>
      </trkpt>
      <trkpt lat="45.68915" lon="4.58125">
        <ele>744</ele>
        <time>2012-10-20T11:39:03Z</time>
      </trkpt>
      <trkpt lat="45.68916" lon="4.58125">
        <ele>744</ele>
        <time>2012-10-20T11:39:04Z</time>
      </trkpt>
      <trkpt lat="45.68918" lon="4.58125">
        <ele>744</ele>
        <time>2012-10-20T11:39:05Z</time>
      </trkpt>
      <trkpt lat="45.68924" lon="4.5812">
        <ele>744</ele>
        <time>2012-10-20T11:39:10Z</time>
      </trkpt>
      <trkpt lat="45.68925" lon="4.58119">
        <ele>745</ele>
        <time>2012-10-20T11:39:11Z</time>
      </trkpt>
      <trkpt lat="45.68926" lon="4.58118">
        <ele>745</ele>
        <time>2012-10-20T11:39:12Z</time>
      </trkpt>
      <trkpt lat="45.68927" lon="4.58117">
        <ele>745</ele>
        <time>2012-10-20T11:39:13Z</time>
      </trkpt>
      <trkpt lat="45.68929" lon="4.58116">
        <ele>746</ele>
        <time>2012-10-20T11:39:14Z</time>
      </trkpt>
      <trkpt lat="45.68929" lon="4.58115">
        <ele>746</ele>
        <time>2012-10-20T11:39:15Z</time>
      </trkpt>
      <trkpt lat="45.6893" lon="4.58114">
        <ele>746</ele>
        <time>2012-10-20T11:39:16Z</time>
      </trkpt>
      <trkpt lat="45.68931" lon="4.58112">
        <ele>747</ele>
        <time>2012-10-20T11:39:17Z</time>
      </trkpt>
      <trkpt lat="45.6894" lon="4.581">
        <ele>748</ele>
        <time>2012-10-20T11:39:26Z</time>
      </trkpt>
      <trkpt lat="45.68942" lon="4.58099">
        <ele>747</ele>
        <time>2012-10-20T11:39:27Z</time>
      </trkpt>
      <trkpt lat="45.68943" lon="4.58098">
        <ele>748</ele>
        <time>2012-10-20T11:39:28Z</time>
      </trkpt>
      <trkpt lat="45.68944" lon="4.58096">
        <ele>748</ele>
        <time>2012-10-20T11:39:29Z</time>
      </trkpt>
      <trkpt lat="45.68945" lon="4.58094">
        <ele>748</ele>
        <time>2012-10-20T11:39:30Z</time>
      </trkpt>
      <trkpt lat="45.68952" lon="4.58079">
        <ele>750</ele>
        <time>2012-10-20T11:39:40Z</time>
      </trkpt>
      <trkpt lat="45.6896" lon="4.58061">
        <ele>753</ele>
        <time>2012-10-20T11:39:51Z</time>
      </trkpt>
      <trkpt lat="45.68969" lon="4.5804">
        <ele>755</ele>
        <time>2012-10-20T11:40:03Z</time>
      </trkpt>
      <trkpt lat="45.68971" lon="4.58035">
        <ele>756</ele>
        <time>2012-10-20T11:40:06Z</time>
      </trkpt>
      <trkpt lat="45.68981" lon="4.58015">
        <ele>759</ele>
        <time>2012-10-20T11:40:19Z</time>
      </trkpt>
      <trkpt lat="45.6899" lon="4.58003">
        <ele>761</ele>
        <time>2012-10-20T11:40:28Z</time>
      </trkpt>
      <trkpt lat="45.68997" lon="4.57998">
        <ele>763</ele>
        <time>2012-10-20T11:40:33Z</time>
      </trkpt>
      <trkpt lat="45.69004" lon="4.57995">
        <ele>764</ele>
        <time>2012-10-20T11:40:39Z</time>
      </trkpt>
      <trkpt lat="45.69006" lon="4.57995">
        <ele>764</ele>
        <time>2012-10-20T11:40:40Z</time>
      </trkpt>
      <trkpt lat="45.69008" lon="4.57995">
        <ele>764</ele>
        <time>2012-10-20T11:40:41Z</time>
      </trkpt>
      <trkpt lat="45.69009" lon="4.57995">
        <ele>764</ele>
        <time>2012-10-20T11:40:42Z</time>
      </trkpt>
      <trkpt lat="45.69011" lon="4.57995">
        <ele>765</ele>
        <time>2012-10-20T11:40:43Z</time>
      </trkpt>
      <trkpt lat="45.69027" lon="4.57993">
        <ele>768</ele>
        <time>2012-10-20T11:40:55Z</time>
      </trkpt>
      <trkpt lat="45.6904" lon="4.5799">
        <ele>771</ele>
        <time>2012-10-20T11:41:05Z</time>
      </trkpt>
      <trkpt lat="45.69055" lon="4.57989">
        <ele>773</ele>
        <time>2012-10-20T11:41:16Z</time>
      </trkpt>
      <trkpt lat="45.6907" lon="4.57987">
        <ele>773</ele>
        <time>2012-10-20T11:41:27Z</time>
      </trkpt>
      <trkpt lat="45.69083" lon="4.57985">
        <ele>775</ele>
        <time>2012-10-20T11:41:36Z</time>
      </trkpt>
      <trkpt lat="45.69095" lon="4.57978">
        <ele>776</ele>
        <time>2012-10-20T11:41:45Z</time>
      </trkpt>
      <trkpt lat="45.69103" lon="4.57962">
        <ele>777</ele>
        <time>2012-10-20T11:41:53Z</time>
      </trkpt>
      <trkpt lat="45.6911" lon="4.57937">
        <ele>778</ele>
        <time>2012-10-20T11:42:04Z</time>
      </trkpt>
      <trkpt lat="45.69112" lon="4.57913">
        <ele>781</ele>
        <time>2012-10-20T11:42:14Z</time>
      </trkpt>
      <trkpt lat="45.69115" lon="4.57889">
        <ele>783</ele>
        <time>2012-10-20T11:42:24Z</time>
      </trkpt>
      <trkpt lat="45.69122" lon="4.57877">
        <ele>784</ele>
        <time>2012-10-20T11:42:31Z</time>
      </trkpt>
      <trkpt lat="45.69133" lon="4.57866">
        <ele>786</ele>
        <time>2012-10-20T11:42:39Z</time>
      </trkpt>
      <trkpt lat="45.69146" lon="4.57859">
        <ele>787</ele>
        <time>2012-10-20T11:42:47Z</time>
      </trkpt>
      <trkpt lat="45.69161" lon="4.57857">
        <ele>789</ele>
        <time>2012-10-20T11:42:56Z</time>
      </trkpt>
      <trkpt lat="45.6918" lon="4.57856">
        <ele>790</ele>
        <time>2012-10-20T11:43:06Z</time>
      </trkpt>
      <trkpt lat="45.692" lon="4.57854">
        <ele>790</ele>
        <time>2012-10-20T11:43:17Z</time>
      </trkpt>
      <trkpt lat="45.69217" lon="4.57849">
        <ele>791</ele>
        <time>2012-10-20T11:43:25Z</time>
      </trkpt>
      <trkpt lat="45.69238" lon="4.57837">
        <ele>789</ele>
        <time>2012-10-20T11:43:31Z</time>
      </trkpt>
      <trkpt lat="45.69251" lon="4.57828">
        <ele>790</ele>
        <time>2012-10-20T11:43:37Z</time>
      </trkpt>
      <trkpt lat="45.69261" lon="4.57818">
        <ele>791</ele>
        <time>2012-10-20T11:43:43Z</time>
      </trkpt>
      <trkpt lat="45.69282" lon="4.57791">
        <ele>792</ele>
        <time>2012-10-20T11:43:53Z</time>
      </trkpt>
      <trkpt lat="45.693" lon="4.57771">
        <ele>793</ele>
        <time>2012-10-20T11:44:02Z</time>
      </trkpt>
      <trkpt lat="45.69316" lon="4.57752">
        <ele>795</ele>
        <time>2012-10-20T11:44:10Z</time>
      </trkpt>
      <trkpt lat="45.69324" lon="4.57744">
        <ele>795</ele>
        <time>2012-10-20T11:44:14Z</time>
      </trkpt>
      <trkpt lat="45.69326" lon="4.57741">
        <ele>796</ele>
        <time>2012-10-20T11:44:15Z</time>
      </trkpt>
      <trkpt lat="45.69345" lon="4.5772">
        <ele>798</ele>
        <time>2012-10-20T11:44:24Z</time>
      </trkpt>
      <trkpt lat="45.69368" lon="4.577">
        <ele>798</ele>
        <time>2012-10-20T11:44:34Z</time>
      </trkpt>
      <trkpt lat="45.69386" lon="4.57682">
        <ele>799</ele>
        <time>2012-10-20T11:44:42Z</time>
      </trkpt>
      <trkpt lat="45.694" lon="4.57662">
        <ele>799</ele>
        <time>2012-10-20T11:44:50Z</time>
      </trkpt>
      <trkpt lat="45.69416" lon="4.57633">
        <ele>799</ele>
        <time>2012-10-20T11:44:59Z</time>
      </trkpt>
      <trkpt lat="45.69433" lon="4.57608">
        <ele>800</ele>
        <time>2012-10-20T11:45:08Z</time>
      </trkpt>
      <trkpt lat="45.6945" lon="4.57598">
        <ele>798</ele>
        <time>2012-10-20T11:45:13Z</time>
      </trkpt>
      <trkpt lat="45.69477" lon="4.57589">
        <ele>798</ele>
        <time>2012-10-20T11:45:19Z</time>
      </trkpt>
      <trkpt lat="45.69482" lon="4.57585">
        <ele>797</ele>
        <time>2012-10-20T11:45:20Z</time>
      </trkpt>
      <trkpt lat="45.69486" lon="4.57582">
        <ele>796</ele>
        <time>2012-10-20T11:45:21Z</time>
      </trkpt>
      <trkpt lat="45.69489" lon="4.57577">
        <ele>796</ele>
        <time>2012-10-20T11:45:22Z</time>
      </trkpt>
      <trkpt lat="45.6949" lon="4.57573">
        <ele>796</ele>
        <time>2012-10-20T11:45:23Z</time>
      </trkpt>
      <trkpt lat="45.69492" lon="4.57569">
        <ele>796</ele>
        <time>2012-10-20T11:45:24Z</time>
      </trkpt>
      <trkpt lat="45.69493" lon="4.57565">
        <ele>796</ele>
        <time>2012-10-20T11:45:25Z</time>
      </trkpt>
      <trkpt lat="45.69495" lon="4.57563">
        <ele>796</ele>
        <time>2012-10-20T11:45:26Z</time>
      </trkpt>
      <trkpt lat="45.69496" lon="4.57562">
        <ele>796</ele>
        <time>2012-10-20T11:45:27Z</time>
      </trkpt>
      <trkpt lat="45.69499" lon="4.57559">
        <ele>795</ele>
        <time>2012-10-20T11:45:30Z</time>
      </trkpt>
      <trkpt lat="45.69499" lon="4.57558">
        <ele>795</ele>
        <time>2012-10-20T11:45:36Z</time>
      </trkpt>
      <trkpt lat="45.69499" lon="4.57557">
        <ele>796</ele>
        <time>2012-10-20T11:45:46Z</time>
      </trkpt>
      <trkpt lat="45.69499" lon="4.57558">
        <ele>795</ele>
        <time>2012-10-20T11:46:03Z</time>
      </trkpt>
      <trkpt lat="45.69499" lon="4.5756">
        <ele>796</ele>
        <time>2012-10-20T11:46:14Z</time>
      </trkpt>
      <trkpt lat="45.69499" lon="4.57558">
        <ele>795</ele>
        <time>2012-10-20T11:46:25Z</time>
      </trkpt>
      <trkpt lat="45.69499" lon="4.57556">
        <ele>796</ele>
        <time>2012-10-20T11:46:38Z</time>
      </trkpt>
      <trkpt lat="45.69499" lon="4.57557">
        <ele>795</ele>
        <time>2012-10-20T11:46:50Z</time>
      </trkpt>
      <trkpt lat="45.695" lon="4.57557">
        <ele>796</ele>
        <time>2012-10-20T11:46:59Z</time>
      </trkpt>
      <trkpt lat="45.69501" lon="4.57556">
        <ele>796</ele>
        <time>2012-10-20T11:47:02Z</time>
      </trkpt>
      <trkpt lat="45.69502" lon="4.57556">
        <ele>795</ele>
        <time>2012-10-20T11:47:03Z</time>
      </trkpt>
      <trkpt lat="45.69514" lon="4.57558">
        <ele>794</ele>
        <time>2012-10-20T11:47:07Z</time>
      </trkpt>
      <trkpt lat="45.6954" lon="4.57563">
        <ele>790</ele>
        <time>2012-10-20T11:47:12Z</time>
      </trkpt>
      <trkpt lat="45.69545" lon="4.57563">
        <ele>789</ele>
        <time>2012-10-20T11:47:13Z</time>
      </trkpt>
      <trkpt lat="45.6955" lon="4.57563">
        <ele>789</ele>
        <time>2012-10-20T11:47:14Z</time>
      </trkpt>
      <trkpt lat="45.6956" lon="4.57562">
        <ele>787</ele>
        <time>2012-10-20T11:47:16Z</time>
      </trkpt>
      <trkpt lat="45.69583" lon="4.57558">
        <ele>784</ele>
        <time>2012-10-20T11:47:21Z</time>
      </trkpt>
      <trkpt lat="45.69587" lon="4.57556">
        <ele>784</ele>
        <time>2012-10-20T11:47:22Z</time>
      </trkpt>
      <trkpt lat="45.69591" lon="4.57554">
        <ele>784</ele>
        <time>2012-10-20T11:47:23Z</time>
      </trkpt>
      <trkpt lat="45.69599" lon="4.5755">
        <ele>782</ele>
        <time>2012-10-20T11:47:25Z</time>
      </trkpt>
      <trkpt lat="45.69617" lon="4.57537">
        <ele>780</ele>
        <time>2012-10-20T11:47:30Z</time>
      </trkpt>
      <trkpt lat="45.69636" lon="4.5752">
        <ele>779</ele>
        <time>2012-10-20T11:47:37Z</time>
      </trkpt>
      <trkpt lat="45.69656" lon="4.57497">
        <ele>777</ele>
        <time>2012-10-20T11:47:44Z</time>
      </trkpt>
      <trkpt lat="45.69672" lon="4.57478">
        <ele>777</ele>
        <time>2012-10-20T11:47:50Z</time>
      </trkpt>
      <trkpt lat="45.69682" lon="4.5746">
        <ele>777</ele>
        <time>2012-10-20T11:47:55Z</time>
      </trkpt>
      <trkpt lat="45.69693" lon="4.57441">
        <ele>777</ele>
        <time>2012-10-20T11:48:00Z</time>
      </trkpt>
      <trkpt lat="45.6971" lon="4.57415">
        <ele>778</ele>
        <time>2012-10-20T11:48:07Z</time>
      </trkpt>
      <trkpt lat="45.69724" lon="4.57393">
        <ele>775</ele>
        <time>2012-10-20T11:48:12Z</time>
      </trkpt>
      <trkpt lat="45.69727" lon="4.57387">
        <ele>775</ele>
        <time>2012-10-20T11:48:13Z</time>
      </trkpt>
      <trkpt lat="45.69731" lon="4.57382">
        <ele>774</ele>
        <time>2012-10-20T11:48:14Z</time>
      </trkpt>
      <trkpt lat="45.69749" lon="4.57357">
        <ele>771</ele>
        <time>2012-10-20T11:48:18Z</time>
      </trkpt>
      <trkpt lat="45.69754" lon="4.57351">
        <ele>771</ele>
        <time>2012-10-20T11:48:19Z</time>
      </trkpt>
      <trkpt lat="45.6976" lon="4.57346">
        <ele>771</ele>
        <time>2012-10-20T11:48:20Z</time>
      </trkpt>
      <trkpt lat="45.69767" lon="4.57343">
        <ele>771</ele>
        <time>2012-10-20T11:48:21Z</time>
      </trkpt>
      <trkpt lat="45.69791" lon="4.5733">
        <ele>772</ele>
        <time>2012-10-20T11:48:26Z</time>
      </trkpt>
      <trkpt lat="45.69812" lon="4.57316">
        <ele>772</ele>
        <time>2012-10-20T11:48:33Z</time>
      </trkpt>
      <trkpt lat="45.69822" lon="4.57303">
        <ele>774</ele>
        <time>2012-10-20T11:48:39Z</time>
      </trkpt>
      <trkpt lat="45.69824" lon="4.573">
        <ele>774</ele>
        <time>2012-10-20T11:48:40Z</time>
      </trkpt>
      <trkpt lat="45.6983" lon="4.57292">
        <ele>774</ele>
        <time>2012-10-20T11:48:47Z</time>
      </trkpt>
      <trkpt lat="45.69833" lon="4.5729">
        <ele>774</ele>
        <time>2012-10-20T11:48:57Z</time>
      </trkpt>
      <trkpt lat="45.69837" lon="4.57284">
        <ele>775</ele>
        <time>2012-10-20T11:49:03Z</time>
      </trkpt>
      <trkpt lat="45.6984" lon="4.57276">
        <ele>776</ele>
        <time>2012-10-20T11:49:07Z</time>
      </trkpt>
      <trkpt lat="45.69841" lon="4.57274">
        <ele>777</ele>
        <time>2012-10-20T11:49:08Z</time>
      </trkpt>
      <trkpt lat="45.69841" lon="4.57272">
        <ele>777</ele>
        <time>2012-10-20T11:49:09Z</time>
      </trkpt>
      <trkpt lat="45.69842" lon="4.5727">
        <ele>778</ele>
        <time>2012-10-20T11:49:10Z</time>
      </trkpt>
      <trkpt lat="45.69844" lon="4.57266">
        <ele>779</ele>
        <time>2012-10-20T11:49:13Z</time>
      </trkpt>
      <trkpt lat="45.69849" lon="4.57258">
        <ele>780</ele>
        <time>2012-10-20T11:49:20Z</time>
      </trkpt>
      <trkpt lat="45.69849" lon="4.57255">
        <ele>780</ele>
        <time>2012-10-20T11:49:22Z</time>
      </trkpt>
      <trkpt lat="45.69848" lon="4.57248">
        <ele>780</ele>
        <time>2012-10-20T11:49:26Z</time>
      </trkpt>
      <trkpt lat="45.69851" lon="4.57239">
        <ele>781</ele>
        <time>2012-10-20T11:49:32Z</time>
      </trkpt>
      <trkpt lat="45.69853" lon="4.57234">
        <ele>783</ele>
        <time>2012-10-20T11:49:35Z</time>
      </trkpt>
      <trkpt lat="45.69857" lon="4.57223">
        <ele>785</ele>
        <time>2012-10-20T11:49:43Z</time>
      </trkpt>
      <trkpt lat="45.69858" lon="4.57214">
        <ele>786</ele>
        <time>2012-10-20T11:49:50Z</time>
      </trkpt>
      <trkpt lat="45.69861" lon="4.57207">
        <ele>787</ele>
        <time>2012-10-20T11:49:56Z</time>
      </trkpt>
      <trkpt lat="45.69865" lon="4.57196">
        <ele>787</ele>
        <time>2012-10-20T11:50:03Z</time>
      </trkpt>
      <trkpt lat="45.69869" lon="4.57182">
        <ele>788</ele>
        <time>2012-10-20T11:50:10Z</time>
      </trkpt>
      <trkpt lat="45.69873" lon="4.57168">
        <ele>790</ele>
        <time>2012-10-20T11:50:18Z</time>
      </trkpt>
      <trkpt lat="45.69877" lon="4.57158">
        <ele>791</ele>
        <time>2012-10-20T11:50:25Z</time>
      </trkpt>
      <trkpt lat="45.69881" lon="4.57149">
        <ele>792</ele>
        <time>2012-10-20T11:50:31Z</time>
      </trkpt>
      <trkpt lat="45.69884" lon="4.57145">
        <ele>793</ele>
        <time>2012-10-20T11:50:35Z</time>
      </trkpt>
      <trkpt lat="45.6989" lon="4.57133">
        <ele>793</ele>
        <time>2012-10-20T11:50:42Z</time>
      </trkpt>
      <trkpt lat="45.69891" lon="4.57131">
        <ele>793</ele>
        <time>2012-10-20T11:50:43Z</time>
      </trkpt>
      <trkpt lat="45.69896" lon="4.57117">
        <ele>794</ele>
        <time>2012-10-20T11:50:49Z</time>
      </trkpt>
      <trkpt lat="45.69897" lon="4.57115">
        <ele>794</ele>
        <time>2012-10-20T11:50:50Z</time>
      </trkpt>
      <trkpt lat="45.69901" lon="4.57105">
        <ele>795</ele>
        <time>2012-10-20T11:50:56Z</time>
      </trkpt>
      <trkpt lat="45.69902" lon="4.57101">
        <ele>795</ele>
        <time>2012-10-20T11:50:58Z</time>
      </trkpt>
      <trkpt lat="45.69903" lon="4.571">
        <ele>795</ele>
        <time>2012-10-20T11:50:59Z</time>
      </trkpt>
      <trkpt lat="45.69904" lon="4.57098">
        <ele>795</ele>
        <time>2012-10-20T11:51:00Z</time>
      </trkpt>
      <trkpt lat="45.69905" lon="4.57095">
        <ele>795</ele>
        <time>2012-10-20T11:51:01Z</time>
      </trkpt>
      <trkpt lat="45.69905" lon="4.57092">
        <ele>796</ele>
        <time>2012-10-20T11:51:02Z</time>
      </trkpt>
      <trkpt lat="45.69906" lon="4.5709">
        <ele>796</ele>
        <time>2012-10-20T11:51:03Z</time>
      </trkpt>
      <trkpt lat="45.69907" lon="4.57088">
        <ele>796</ele>
        <time>2012-10-20T11:51:04Z</time>
      </trkpt>
      <trkpt lat="45.69907" lon="4.57086">
        <ele>796</ele>
        <time>2012-10-20T11:51:05Z</time>
      </trkpt>
      <trkpt lat="45.69908" lon="4.57084">
        <ele>796</ele>
        <time>2012-10-20T11:51:06Z</time>
      </trkpt>
      <trkpt lat="45.69909" lon="4.57082">
        <ele>796</ele>
        <time>2012-10-20T11:51:07Z</time>
      </trkpt>
      <trkpt lat="45.69913" lon="4.57071">
        <ele>797</ele>
        <time>2012-10-20T11:51:12Z</time>
      </trkpt>
      <trkpt lat="45.69917" lon="4.57059">
        <ele>797</ele>
        <time>2012-10-20T11:51:19Z</time>
      </trkpt>
      <trkpt lat="45.69919" lon="4.57056">
        <ele>797</ele>
        <time>2012-10-20T11:51:21Z</time>
      </trkpt>
      <trkpt lat="45.69921" lon="4.57052">
        <ele>797</ele>
        <time>2012-10-20T11:51:22Z</time>
      </trkpt>
      <trkpt lat="45.69921" lon="4.57051">
        <ele>797</ele>
        <time>2012-10-20T11:51:23Z</time>
      </trkpt>
      <trkpt lat="45.69923" lon="4.57047">
        <ele>797</ele>
        <time>2012-10-20T11:51:24Z</time>
      </trkpt>
      <trkpt lat="45.69925" lon="4.57042">
        <ele>798</ele>
        <time>2012-10-20T11:51:25Z</time>
      </trkpt>
      <trkpt lat="45.69927" lon="4.57038">
        <ele>797</ele>
        <time>2012-10-20T11:51:26Z</time>
      </trkpt>
      <trkpt lat="45.69928" lon="4.57034">
        <ele>798</ele>
        <time>2012-10-20T11:51:27Z</time>
      </trkpt>
      <trkpt lat="45.69929" lon="4.5703">
        <ele>797</ele>
        <time>2012-10-20T11:51:28Z</time>
      </trkpt>
      <trkpt lat="45.6993" lon="4.57026">
        <ele>797</ele>
        <time>2012-10-20T11:51:29Z</time>
      </trkpt>
      <trkpt lat="45.69932" lon="4.57023">
        <ele>797</ele>
        <time>2012-10-20T11:51:30Z</time>
      </trkpt>
      <trkpt lat="45.69932" lon="4.57021">
        <ele>797</ele>
        <time>2012-10-20T11:51:31Z</time>
      </trkpt>
      <trkpt lat="45.69933" lon="4.57019">
        <ele>797</ele>
        <time>2012-10-20T11:51:32Z</time>
      </trkpt>
      <trkpt lat="45.69936" lon="4.57013">
        <ele>798</ele>
        <time>2012-10-20T11:51:35Z</time>
      </trkpt>
      <trkpt lat="45.69938" lon="4.57012">
        <ele>797</ele>
        <time>2012-10-20T11:51:36Z</time>
      </trkpt>
      <trkpt lat="45.69939" lon="4.57011">
        <ele>797</ele>
        <time>2012-10-20T11:51:37Z</time>
      </trkpt>
      <trkpt lat="45.69941" lon="4.5701">
        <ele>797</ele>
        <time>2012-10-20T11:51:38Z</time>
      </trkpt>
      <trkpt lat="45.69942" lon="4.57009">
        <ele>797</ele>
        <time>2012-10-20T11:51:39Z</time>
      </trkpt>
      <trkpt lat="45.69944" lon="4.57008">
        <ele>797</ele>
        <time>2012-10-20T11:51:40Z</time>
      </trkpt>
      <trkpt lat="45.69946" lon="4.57007">
        <ele>797</ele>
        <time>2012-10-20T11:51:41Z</time>
      </trkpt>
      <trkpt lat="45.69949" lon="4.57007">
        <ele>797</ele>
        <time>2012-10-20T11:51:42Z</time>
      </trkpt>
      <trkpt lat="45.6996" lon="4.57003">
        <ele>798</ele>
        <time>2012-10-20T11:51:47Z</time>
      </trkpt>
      <trkpt lat="45.69963" lon="4.57003">
        <ele>798</ele>
        <time>2012-10-20T11:51:48Z</time>
      </trkpt>
      <trkpt lat="45.69965" lon="4.57003">
        <ele>798</ele>
        <time>2012-10-20T11:51:49Z</time>
      </trkpt>
      <trkpt lat="45.69967" lon="4.57003">
        <ele>798</ele>
        <time>2012-10-20T11:51:50Z</time>
      </trkpt>
      <trkpt lat="45.69969" lon="4.57003">
        <ele>798</ele>
        <time>2012-10-20T11:51:51Z</time>
      </trkpt>
      <trkpt lat="45.6997" lon="4.57002">
        <ele>798</ele>
        <time>2012-10-20T11:51:52Z</time>
      </trkpt>
      <trkpt lat="45.69972" lon="4.57">
        <ele>798</ele>
        <time>2012-10-20T11:51:53Z</time>
      </trkpt>
      <trkpt lat="45.69974" lon="4.56999">
        <ele>798</ele>
        <time>2012-10-20T11:51:54Z</time>
      </trkpt>
      <trkpt lat="45.69981" lon="4.56991">
        <ele>798</ele>
        <time>2012-10-20T11:52:00Z</time>
      </trkpt>
      <trkpt lat="45.69981" lon="4.56993">
        <ele>798</ele>
        <time>2012-10-20T11:52:07Z</time>
      </trkpt>
      <trkpt lat="45.69981" lon="4.56992">
        <ele>798</ele>
        <time>2012-10-20T11:52:14Z</time>
      </trkpt>
      <trkpt lat="45.69983" lon="4.56993">
        <ele>798</ele>
        <time>2012-10-20T11:52:21Z</time>
      </trkpt>
      <trkpt lat="45.69985" lon="4.56994">
        <ele>798</ele>
        <time>2012-10-20T11:52:31Z</time>
      </trkpt>
      <trkpt lat="45.69986" lon="4.56994">
        <ele>797</ele>
        <time>2012-10-20T11:52:33Z</time>
      </trkpt>
      <trkpt lat="45.69994" lon="4.56992">
        <ele>796</ele>
        <time>2012-10-20T11:52:40Z</time>
      </trkpt>
      <trkpt lat="45.70007" lon="4.56987">
        <ele>794</ele>
        <time>2012-10-20T11:52:46Z</time>
      </trkpt>
      <trkpt lat="45.70018" lon="4.56982">
        <ele>791</ele>
        <time>2012-10-20T11:52:49Z</time>
      </trkpt>
      <trkpt lat="45.70022" lon="4.56979">
        <ele>791</ele>
        <time>2012-10-20T11:52:50Z</time>
      </trkpt>
      <trkpt lat="45.70026" lon="4.56975">
        <ele>791</ele>
        <time>2012-10-20T11:52:51Z</time>
      </trkpt>
      <trkpt lat="45.70051" lon="4.56939">
        <ele>790</ele>
        <time>2012-10-20T11:52:58Z</time>
      </trkpt>
      <trkpt lat="45.70066" lon="4.56917">
        <ele>791</ele>
        <time>2012-10-20T11:53:03Z</time>
      </trkpt>
      <trkpt lat="45.70081" lon="4.56894">
        <ele>791</ele>
        <time>2012-10-20T11:53:09Z</time>
      </trkpt>
      <trkpt lat="45.70097" lon="4.56866">
        <ele>794</ele>
        <time>2012-10-20T11:53:16Z</time>
      </trkpt>
      <trkpt lat="45.70105" lon="4.56848">
        <ele>795</ele>
        <time>2012-10-20T11:53:21Z</time>
      </trkpt>
      <trkpt lat="45.7012" lon="4.56816">
        <ele>794</ele>
        <time>2012-10-20T11:53:27Z</time>
      </trkpt>
      <trkpt lat="45.70124" lon="4.56816">
        <ele>794</ele>
        <time>2012-10-20T11:53:28Z</time>
      </trkpt>
      <trkpt lat="45.70139" lon="4.56822">
        <ele>793</ele>
        <time>2012-10-20T11:53:32Z</time>
      </trkpt>
      <trkpt lat="45.70143" lon="4.56825">
        <ele>791</ele>
        <time>2012-10-20T11:53:33Z</time>
      </trkpt>
      <trkpt lat="45.70162" lon="4.56837">
        <ele>791</ele>
        <time>2012-10-20T11:53:39Z</time>
      </trkpt>
      <trkpt lat="45.70168" lon="4.56843">
        <ele>792</ele>
        <time>2012-10-20T11:53:42Z</time>
      </trkpt>
      <trkpt lat="45.70169" lon="4.56845">
        <ele>792</ele>
        <time>2012-10-20T11:53:43Z</time>
      </trkpt>
      <trkpt lat="45.70171" lon="4.56848">
        <ele>792</ele>
        <time>2012-10-20T11:53:44Z</time>
      </trkpt>
      <trkpt lat="45.70183" lon="4.56862">
        <ele>793</ele>
        <time>2012-10-20T11:53:50Z</time>
      </trkpt>
      <trkpt lat="45.70195" lon="4.56888">
        <ele>792</ele>
        <time>2012-10-20T11:53:56Z</time>
      </trkpt>
      <trkpt lat="45.70202" lon="4.56919">
        <ele>791</ele>
        <time>2012-10-20T11:54:03Z</time>
      </trkpt>
      <trkpt lat="45.70209" lon="4.56944">
        <ele>790</ele>
        <time>2012-10-20T11:54:08Z</time>
      </trkpt>
      <trkpt lat="45.70216" lon="4.56971">
        <ele>790</ele>
        <time>2012-10-20T11:54:14Z</time>
      </trkpt>
      <trkpt lat="45.70226" lon="4.57">
        <ele>789</ele>
        <time>2012-10-20T11:54:21Z</time>
      </trkpt>
      <trkpt lat="45.70234" lon="4.5703">
        <ele>787</ele>
        <time>2012-10-20T11:54:26Z</time>
      </trkpt>
      <trkpt lat="45.70237" lon="4.57047">
        <ele>786</ele>
        <time>2012-10-20T11:54:28Z</time>
      </trkpt>
      <trkpt lat="45.70238" lon="4.57057">
        <ele>786</ele>
        <time>2012-10-20T11:54:29Z</time>
      </trkpt>
      <trkpt lat="45.70238" lon="4.57068">
        <ele>786</ele>
        <time>2012-10-20T11:54:30Z</time>
      </trkpt>
      <trkpt lat="45.70239" lon="4.57079">
        <ele>784</ele>
        <time>2012-10-20T11:54:31Z</time>
      </trkpt>
      <trkpt lat="45.7024" lon="4.5709">
        <ele>784</ele>
        <time>2012-10-20T11:54:32Z</time>
      </trkpt>
      <trkpt lat="45.70243" lon="4.57132">
        <ele>780</ele>
        <time>2012-10-20T11:54:36Z</time>
      </trkpt>
      <trkpt lat="45.70244" lon="4.57153">
        <ele>780</ele>
        <time>2012-10-20T11:54:38Z</time>
      </trkpt>
      <trkpt lat="45.70244" lon="4.57164">
        <ele>779</ele>
        <time>2012-10-20T11:54:39Z</time>
      </trkpt>
      <trkpt lat="45.70245" lon="4.57183">
        <ele>778</ele>
        <time>2012-10-20T11:54:41Z</time>
      </trkpt>
      <trkpt lat="45.70244" lon="4.57192">
        <ele>777</ele>
        <time>2012-10-20T11:54:42Z</time>
      </trkpt>
      <trkpt lat="45.70242" lon="4.57218">
        <ele>775</ele>
        <time>2012-10-20T11:54:45Z</time>
      </trkpt>
      <trkpt lat="45.70242" lon="4.57227">
        <ele>775</ele>
        <time>2012-10-20T11:54:46Z</time>
      </trkpt>
      <trkpt lat="45.70242" lon="4.57245">
        <ele>774</ele>
        <time>2012-10-20T11:54:48Z</time>
      </trkpt>
      <trkpt lat="45.70242" lon="4.57262">
        <ele>773</ele>
        <time>2012-10-20T11:54:50Z</time>
      </trkpt>
      <trkpt lat="45.70243" lon="4.5727">
        <ele>773</ele>
        <time>2012-10-20T11:54:51Z</time>
      </trkpt>
      <trkpt lat="45.70245" lon="4.57278">
        <ele>773</ele>
        <time>2012-10-20T11:54:52Z</time>
      </trkpt>
      <trkpt lat="45.70248" lon="4.57293">
        <ele>773</ele>
        <time>2012-10-20T11:54:54Z</time>
      </trkpt>
      <trkpt lat="45.7025" lon="4.5731">
        <ele>773</ele>
        <time>2012-10-20T11:54:58Z</time>
      </trkpt>
      <trkpt lat="45.7025" lon="4.5732">
        <ele>775</ele>
        <time>2012-10-20T11:55:02Z</time>
      </trkpt>
      <trkpt lat="45.70252" lon="4.57334">
        <ele>776</ele>
        <time>2012-10-20T11:55:06Z</time>
      </trkpt>
      <trkpt lat="45.70253" lon="4.57337">
        <ele>775</ele>
        <time>2012-10-20T11:55:07Z</time>
      </trkpt>
      <trkpt lat="45.70253" lon="4.5734">
        <ele>775</ele>
        <time>2012-10-20T11:55:08Z</time>
      </trkpt>
      <trkpt lat="45.70253" lon="4.57342">
        <ele>776</ele>
        <time>2012-10-20T11:55:09Z</time>
      </trkpt>
      <trkpt lat="45.70254" lon="4.57346">
        <ele>776</ele>
        <time>2012-10-20T11:55:10Z</time>
      </trkpt>
      <trkpt lat="45.70254" lon="4.5735">
        <ele>775</ele>
        <time>2012-10-20T11:55:11Z</time>
      </trkpt>
      <trkpt lat="45.70255" lon="4.57354">
        <ele>775</ele>
        <time>2012-10-20T11:55:12Z</time>
      </trkpt>
      <trkpt lat="45.70258" lon="4.57386">
        <ele>775</ele>
        <time>2012-10-20T11:55:19Z</time>
      </trkpt>
      <trkpt lat="45.70261" lon="4.57416">
        <ele>776</ele>
        <time>2012-10-20T11:55:26Z</time>
      </trkpt>
      <trkpt lat="45.70264" lon="4.57436">
        <ele>779</ele>
        <time>2012-10-20T11:55:32Z</time>
      </trkpt>
      <trkpt lat="45.70266" lon="4.57457">
        <ele>780</ele>
        <time>2012-10-20T11:55:39Z</time>
      </trkpt>
      <trkpt lat="45.70269" lon="4.57481">
        <ele>781</ele>
        <time>2012-10-20T11:55:47Z</time>
      </trkpt>
      <trkpt lat="45.70271" lon="4.57502">
        <ele>783</ele>
        <time>2012-10-20T11:55:53Z</time>
      </trkpt>
      <trkpt lat="45.70273" lon="4.57511">
        <ele>783</ele>
        <time>2012-10-20T11:56:00Z</time>
      </trkpt>
      <trkpt lat="45.70273" lon="4.57514">
        <ele>783</ele>
        <time>2012-10-20T11:56:11Z</time>
      </trkpt>
      <trkpt lat="45.70274" lon="4.57512">
        <ele>782</ele>
        <time>2012-10-20T11:56:22Z</time>
      </trkpt>
      <trkpt lat="45.70275" lon="4.57515">
        <ele>782</ele>
        <time>2012-10-20T11:56:35Z</time>
      </trkpt>
      <trkpt lat="45.70275" lon="4.57516">
        <ele>782</ele>
        <time>2012-10-20T11:56:51Z</time>
      </trkpt>
      <trkpt lat="45.70275" lon="4.57514">
        <ele>783</ele>
        <time>2012-10-20T11:57:03Z</time>
      </trkpt>
      <trkpt lat="45.70275" lon="4.57515">
        <ele>782</ele>
        <time>2012-10-20T11:57:17Z</time>
      </trkpt>
      <trkpt lat="45.70276" lon="4.57515">
        <ele>782</ele>
        <time>2012-10-20T11:57:29Z</time>
      </trkpt>
      <trkpt lat="45.70275" lon="4.57517">
        <ele>783</ele>
        <time>2012-10-20T11:57:49Z</time>
      </trkpt>
      <trkpt lat="45.70272" lon="4.57517">
        <ele>782</ele>
        <time>2012-10-20T11:58:07Z</time>
      </trkpt>
      <trkpt lat="45.70272" lon="4.57517">
        <ele>783</ele>
        <time>2012-10-20T11:58:24Z</time>
      </trkpt>
      <trkpt lat="45.70274" lon="4.57519">
        <ele>783</ele>
        <time>2012-10-20T11:58:41Z</time>
      </trkpt>
      <trkpt lat="45.70274" lon="4.57519">
        <ele>783</ele>
        <time>2012-10-20T11:59:04Z</time>
      </trkpt>
      <trkpt lat="45.70276" lon="4.57517">
        <ele>783</ele>
        <time>2012-10-20T11:59:24Z</time>
      </trkpt>
      <trkpt lat="45.70276" lon="4.57516">
        <ele>782</ele>
        <time>2012-10-20T11:59:41Z</time>
      </trkpt>
      <trkpt lat="45.70274" lon="4.57513">
        <ele>782</ele>
        <time>2012-10-20T12:00:00Z</time>
      </trkpt>
      <trkpt lat="45.70275" lon="4.57515">
        <ele>782</ele>
        <time>2012-10-20T12:00:17Z</time>
      </trkpt>
      <trkpt lat="45.70275" lon="4.57516">
        <ele>782</ele>
        <time>2012-10-20T12:00:36Z</time>
      </trkpt>
      <trkpt lat="45.70276" lon="4.57515">
        <ele>783</ele>
        <time>2012-10-20T12:00:55Z</time>
      </trkpt>
      <trkpt lat="45.70276" lon="4.57516">
        <ele>781</ele>
        <time>2012-10-20T12:01:14Z</time>
      </trkpt>
      <trkpt lat="45.70278" lon="4.57515">
        <ele>782</ele>
        <time>2012-10-20T12:01:39Z</time>
      </trkpt>
      <trkpt lat="45.70277" lon="4.57516">
        <ele>782</ele>
        <time>2012-10-20T12:01:58Z</time>
      </trkpt>
      <trkpt lat="45.70276" lon="4.5752">
        <ele>781</ele>
        <time>2012-10-20T12:02:24Z</time>
      </trkpt>
      <trkpt lat="45.70275" lon="4.5752">
        <ele>781</ele>
        <time>2012-10-20T12:02:52Z</time>
      </trkpt>
      <trkpt lat="45.70275" lon="4.57517">
        <ele>781</ele>
        <time>2012-10-20T12:03:15Z</time>
      </trkpt>
      <trkpt lat="45.70275" lon="4.57516">
        <ele>781</ele>
        <time>2012-10-20T12:03:37Z</time>
      </trkpt>
      <trkpt lat="45.70275" lon="4.5752">
        <ele>781</ele>
        <time>2012-10-20T12:03:58Z</time>
      </trkpt>
      <trkpt lat="45.70275" lon="4.57525">
        <ele>781</ele>
        <time>2012-10-20T12:04:23Z</time>
      </trkpt>
      <trkpt lat="45.70276" lon="4.57523">
        <ele>781</ele>
        <time>2012-10-20T12:04:47Z</time>
      </trkpt>
      <trkpt lat="45.70276" lon="4.5752">
        <ele>781</ele>
        <time>2012-10-20T12:05:07Z</time>
      </trkpt>
      <trkpt lat="45.70273" lon="4.57516">
        <ele>780</ele>
        <time>2012-10-20T12:05:25Z</time>
      </trkpt>
      <trkpt lat="45.70272" lon="4.57515">
        <ele>780</ele>
        <time>2012-10-20T12:05:46Z</time>
      </trkpt>
      <trkpt lat="45.70271" lon="4.5752">
        <ele>780</ele>
        <time>2012-10-20T12:06:06Z</time>
      </trkpt>
      <trkpt lat="45.70272" lon="4.57523">
        <ele>780</ele>
        <time>2012-10-20T12:06:26Z</time>
      </trkpt>
      <trkpt lat="45.70273" lon="4.57523">
        <ele>781</ele>
        <time>2012-10-20T12:06:43Z</time>
      </trkpt>
      <trkpt lat="45.70273" lon="4.57523">
        <ele>780</ele>
        <time>2012-10-20T12:07:06Z</time>
      </trkpt>
      <trkpt lat="45.70271" lon="4.57521">
        <ele>780</ele>
        <time>2012-10-20T12:07:27Z</time>
      </trkpt>
      <trkpt lat="45.70271" lon="4.57515">
        <ele>780</ele>
        <time>2012-10-20T12:07:48Z</time>
      </trkpt>
      <trkpt lat="45.70273" lon="4.57513">
        <ele>780</ele>
        <time>2012-10-20T12:08:17Z</time>
      </trkpt>
      <trkpt lat="45.70273" lon="4.57512">
        <ele>780</ele>
        <time>2012-10-20T12:08:40Z</time>
      </trkpt>
      <trkpt lat="45.70273" lon="4.5751">
        <ele>779</ele>
        <time>2012-10-20T12:09:03Z</time>
      </trkpt>
      <trkpt lat="45.70271" lon="4.57509">
        <ele>780</ele>
        <time>2012-10-20T12:09:21Z</time>
      </trkpt>
      <trkpt lat="45.7027" lon="4.57506">
        <ele>780</ele>
        <time>2012-10-20T12:09:40Z</time>
      </trkpt>
      <trkpt lat="45.70271" lon="4.57509">
        <ele>780</ele>
        <time>2012-10-20T12:09:56Z</time>
      </trkpt>
      <trkpt lat="45.70272" lon="4.57514">
        <ele>779</ele>
        <time>2012-10-20T12:10:21Z</time>
      </trkpt>
      <trkpt lat="45.70274" lon="4.57518">
        <ele>778</ele>
        <time>2012-10-20T12:10:47Z</time>
      </trkpt>
      <trkpt lat="45.70274" lon="4.57518">
        <ele>780</ele>
        <time>2012-10-20T12:10:50Z</time>
      </trkpt>
      <trkpt lat="45.70274" lon="4.57518">
        <ele>780</ele>
        <time>2012-10-20T12:11:08Z</time>
      </trkpt>
      <trkpt lat="45.70275" lon="4.57516">
        <ele>779</ele>
        <time>2012-10-20T12:11:28Z</time>
      </trkpt>
      <trkpt lat="45.70276" lon="4.57516">
        <ele>779</ele>
        <time>2012-10-20T12:11:46Z</time>
      </trkpt>
      <trkpt lat="45.70276" lon="4.57513">
        <ele>779</ele>
        <time>2012-10-20T12:12:05Z</time>
      </trkpt>
      <trkpt lat="45.70276" lon="4.57514">
        <ele>780</ele>
        <time>2012-10-20T12:12:26Z</time>
      </trkpt>
      <trkpt lat="45.70275" lon="4.57512">
        <ele>779</ele>
        <time>2012-10-20T12:12:47Z</time>
      </trkpt>
      <trkpt lat="45.70275" lon="4.57511">
        <ele>780</ele>
        <time>2012-10-20T12:13:08Z</time>
      </trkpt>
      <trkpt lat="45.70272" lon="4.57511">
        <ele>779</ele>
        <time>2012-10-20T12:13:30Z</time>
      </trkpt>
      <trkpt lat="45.70271" lon="4.57513">
        <ele>779</ele>
        <time>2012-10-20T12:13:50Z</time>
      </trkpt>
      <trkpt lat="45.70272" lon="4.57514">
        <ele>779</ele>
        <time>2012-10-20T12:14:06Z</time>
      </trkpt>
      <trkpt lat="45.70275" lon="4.57512">
        <ele>779</ele>
        <time>2012-10-20T12:14:30Z</time>
      </trkpt>
      <trkpt lat="45.70275" lon="4.57511">
        <ele>779</ele>
        <time>2012-10-20T12:14:45Z</time>
      </trkpt>
      <trkpt lat="45.70272" lon="4.57509">
        <ele>779</ele>
        <time>2012-10-20T12:15:04Z</time>
      </trkpt>
      <trkpt lat="45.70272" lon="4.57512">
        <ele>779</ele>
        <time>2012-10-20T12:15:22Z</time>
      </trkpt>
      <trkpt lat="45.70272" lon="4.57521">
        <ele>779</ele>
        <time>2012-10-20T12:15:43Z</time>
      </trkpt>
      <trkpt lat="45.70271" lon="4.57521">
        <ele>779</ele>
        <time>2012-10-20T12:16:00Z</time>
      </trkpt>
      <trkpt lat="45.70268" lon="4.57513">
        <ele>779</ele>
        <time>2012-10-20T12:16:18Z</time>
      </trkpt>
      <trkpt lat="45.70267" lon="4.57512">
        <ele>778</ele>
        <time>2012-10-20T12:16:39Z</time>
      </trkpt>
      <trkpt lat="45.70269" lon="4.5751">
        <ele>779</ele>
        <time>2012-10-20T12:16:57Z</time>
      </trkpt>
      <trkpt lat="45.70272" lon="4.57515">
        <ele>778</ele>
        <time>2012-10-20T12:17:18Z</time>
      </trkpt>
      <trkpt lat="45.70274" lon="4.57517">
        <ele>779</ele>
        <time>2012-10-20T12:17:40Z</time>
      </trkpt>
      <trkpt lat="45.70273" lon="4.57516">
        <ele>778</ele>
        <time>2012-10-20T12:18:00Z</time>
      </trkpt>
      <trkpt lat="45.7027" lon="4.57513">
        <ele>778</ele>
        <time>2012-10-20T12:18:16Z</time>
      </trkpt>
      <trkpt lat="45.70271" lon="4.57515">
        <ele>779</ele>
        <time>2012-10-20T12:18:35Z</time>
      </trkpt>
      <trkpt lat="45.70269" lon="4.57513">
        <ele>779</ele>
        <time>2012-10-20T12:18:52Z</time>
      </trkpt>
      <trkpt lat="45.7027" lon="4.57511">
        <ele>779</ele>
        <time>2012-10-20T12:19:13Z</time>
      </trkpt>
      <trkpt lat="45.70271" lon="4.57511">
        <ele>779</ele>
        <time>2012-10-20T12:19:32Z</time>
      </trkpt>
      <trkpt lat="45.70272" lon="4.57518">
        <ele>779</ele>
        <time>2012-10-20T12:19:40Z</time>
      </trkpt>
      <trkpt lat="45.70274" lon="4.57524">
        <ele>779</ele>
        <time>2012-10-20T12:19:50Z</time>
      </trkpt>
      <trkpt lat="45.70281" lon="4.57539">
        <ele>781</ele>
        <time>2012-10-20T12:19:59Z</time>
      </trkpt>
      <trkpt lat="45.70288" lon="4.57557">
        <ele>781</ele>
        <time>2012-10-20T12:20:07Z</time>
      </trkpt>
      <trkpt lat="45.70301" lon="4.57575">
        <ele>781</ele>
        <time>2012-10-20T12:20:15Z</time>
      </trkpt>
      <trkpt lat="45.70312" lon="4.57591">
        <ele>782</ele>
        <time>2012-10-20T12:20:22Z</time>
      </trkpt>
      <trkpt lat="45.70315" lon="4.57596">
        <ele>781</ele>
        <time>2012-10-20T12:20:24Z</time>
      </trkpt>
      <trkpt lat="45.70316" lon="4.57597">
        <ele>782</ele>
        <time>2012-10-20T12:20:25Z</time>
      </trkpt>
      <trkpt lat="45.70318" lon="4.57599">
        <ele>783</ele>
        <time>2012-10-20T12:20:26Z</time>
      </trkpt>
      <trkpt lat="45.70333" lon="4.57619">
        <ele>783</ele>
        <time>2012-10-20T12:20:35Z</time>
      </trkpt>
      <trkpt lat="45.70348" lon="4.57642">
        <ele>783</ele>
        <time>2012-10-20T12:20:45Z</time>
      </trkpt>
      <trkpt lat="45.70364" lon="4.57665">
        <ele>785</ele>
        <time>2012-10-20T12:20:55Z</time>
      </trkpt>
      <trkpt lat="45.70376" lon="4.57679">
        <ele>786</ele>
        <time>2012-10-20T12:21:02Z</time>
      </trkpt>
      <trkpt lat="45.70388" lon="4.57695">
        <ele>788</ele>
        <time>2012-10-20T12:21:11Z</time>
      </trkpt>
      <trkpt lat="45.70401" lon="4.57699">
        <ele>790</ele>
        <time>2012-10-20T12:21:19Z</time>
      </trkpt>
      <trkpt lat="45.70416" lon="4.57703">
        <ele>791</ele>
        <time>2012-10-20T12:21:27Z</time>
      </trkpt>
      <trkpt lat="45.70434" lon="4.57705">
        <ele>789</ele>
        <time>2012-10-20T12:21:34Z</time>
      </trkpt>
      <trkpt lat="45.70457" lon="4.57708">
        <ele>787</ele>
        <time>2012-10-20T12:21:40Z</time>
      </trkpt>
      <trkpt lat="45.70461" lon="4.57709">
        <ele>786</ele>
        <time>2012-10-20T12:21:41Z</time>
      </trkpt>
      <trkpt lat="45.70472" lon="4.57714">
        <ele>785</ele>
        <time>2012-10-20T12:21:44Z</time>
      </trkpt>
      <trkpt lat="45.70475" lon="4.57718">
        <ele>784</ele>
        <time>2012-10-20T12:21:45Z</time>
      </trkpt>
      <trkpt lat="45.7048" lon="4.57724">
        <ele>784</ele>
        <time>2012-10-20T12:21:46Z</time>
      </trkpt>
      <trkpt lat="45.70484" lon="4.57731">
        <ele>783</ele>
        <time>2012-10-20T12:21:47Z</time>
      </trkpt>
      <trkpt lat="45.70488" lon="4.57739">
        <ele>783</ele>
        <time>2012-10-20T12:21:48Z</time>
      </trkpt>
      <trkpt lat="45.70512" lon="4.57788">
        <ele>779</ele>
        <time>2012-10-20T12:21:53Z</time>
      </trkpt>
      <trkpt lat="45.70517" lon="4.57798">
        <ele>779</ele>
        <time>2012-10-20T12:21:54Z</time>
      </trkpt>
      <trkpt lat="45.70534" lon="4.57828">
        <ele>777</ele>
        <time>2012-10-20T12:21:57Z</time>
      </trkpt>
      <trkpt lat="45.7056" lon="4.57871">
        <ele>774</ele>
        <time>2012-10-20T12:22:01Z</time>
      </trkpt>
      <trkpt lat="45.70581" lon="4.57908">
        <ele>771</ele>
        <time>2012-10-20T12:22:04Z</time>
      </trkpt>
      <trkpt lat="45.70603" lon="4.57949">
        <ele>767</ele>
        <time>2012-10-20T12:22:07Z</time>
      </trkpt>
      <trkpt lat="45.70625" lon="4.57992">
        <ele>764</ele>
        <time>2012-10-20T12:22:10Z</time>
      </trkpt>
      <trkpt lat="45.70638" lon="4.58022">
        <ele>761</ele>
        <time>2012-10-20T12:22:12Z</time>
      </trkpt>
      <trkpt lat="45.70657" lon="4.58072">
        <ele>757</ele>
        <time>2012-10-20T12:22:15Z</time>
      </trkpt>
      <trkpt lat="45.70671" lon="4.58122">
        <ele>754</ele>
        <time>2012-10-20T12:22:18Z</time>
      </trkpt>
      <trkpt lat="45.70683" lon="4.58173">
        <ele>751</ele>
        <time>2012-10-20T12:22:21Z</time>
      </trkpt>
      <trkpt lat="45.70693" lon="4.58222">
        <ele>747</ele>
        <time>2012-10-20T12:22:24Z</time>
      </trkpt>
      <trkpt lat="45.70697" lon="4.58265">
        <ele>744</ele>
        <time>2012-10-20T12:22:27Z</time>
      </trkpt>
      <trkpt lat="45.70697" lon="4.58279">
        <ele>742</ele>
        <time>2012-10-20T12:22:28Z</time>
      </trkpt>
      <trkpt lat="45.70689" lon="4.5835">
        <ele>739</ele>
        <time>2012-10-20T12:22:33Z</time>
      </trkpt>
      <trkpt lat="45.70677" lon="4.58437">
        <ele>737</ele>
        <time>2012-10-20T12:22:40Z</time>
      </trkpt>
      <trkpt lat="45.70674" lon="4.58457">
        <ele>737</ele>
        <time>2012-10-20T12:22:42Z</time>
      </trkpt>
      <trkpt lat="45.70671" lon="4.58476">
        <ele>737</ele>
        <time>2012-10-20T12:22:44Z</time>
      </trkpt>
      <trkpt lat="45.70671" lon="4.58485">
        <ele>737</ele>
        <time>2012-10-20T12:22:45Z</time>
      </trkpt>
      <trkpt lat="45.70672" lon="4.58494">
        <ele>736</ele>
        <time>2012-10-20T12:22:46Z</time>
      </trkpt>
      <trkpt lat="45.70683" lon="4.58557">
        <ele>735</ele>
        <time>2012-10-20T12:22:54Z</time>
      </trkpt>
      <trkpt lat="45.70689" lon="4.58629">
        <ele>734</ele>
        <time>2012-10-20T12:23:03Z</time>
      </trkpt>
      <trkpt lat="45.7069" lon="4.58643">
        <ele>733</ele>
        <time>2012-10-20T12:23:05Z</time>
      </trkpt>
      <trkpt lat="45.70688" lon="4.58649">
        <ele>732</ele>
        <time>2012-10-20T12:23:06Z</time>
      </trkpt>
      <trkpt lat="45.70686" lon="4.58653">
        <ele>732</ele>
        <time>2012-10-20T12:23:07Z</time>
      </trkpt>
      <trkpt lat="45.70683" lon="4.58653">
        <ele>733</ele>
        <time>2012-10-20T12:23:08Z</time>
      </trkpt>
      <trkpt lat="45.70679" lon="4.58653">
        <ele>733</ele>
        <time>2012-10-20T12:23:09Z</time>
      </trkpt>
      <trkpt lat="45.70676" lon="4.58653">
        <ele>734</ele>
        <time>2012-10-20T12:23:10Z</time>
      </trkpt>
      <trkpt lat="45.70673" lon="4.58654">
        <ele>734</ele>
        <time>2012-10-20T12:23:11Z</time>
      </trkpt>
      <trkpt lat="45.70671" lon="4.58655">
        <ele>734</ele>
        <time>2012-10-20T12:23:12Z</time>
      </trkpt>
      <trkpt lat="45.70668" lon="4.58655">
        <ele>735</ele>
        <time>2012-10-20T12:23:13Z</time>
      </trkpt>
      <trkpt lat="45.70665" lon="4.58657">
        <ele>735</ele>
        <time>2012-10-20T12:23:14Z</time>
      </trkpt>
      <trkpt lat="45.70664" lon="4.5866">
        <ele>735</ele>
        <time>2012-10-20T12:23:15Z</time>
      </trkpt>
      <trkpt lat="45.70663" lon="4.58663">
        <ele>735</ele>
        <time>2012-10-20T12:23:16Z</time>
      </trkpt>
      <trkpt lat="45.70663" lon="4.58666">
        <ele>736</ele>
        <time>2012-10-20T12:23:17Z</time>
      </trkpt>
      <trkpt lat="45.70662" lon="4.58668">
        <ele>736</ele>
        <time>2012-10-20T12:23:18Z</time>
      </trkpt>
      <trkpt lat="45.70663" lon="4.5867">
        <ele>736</ele>
        <time>2012-10-20T12:23:19Z</time>
      </trkpt>
      <trkpt lat="45.70663" lon="4.58672">
        <ele>736</ele>
        <time>2012-10-20T12:23:20Z</time>
      </trkpt>
      <trkpt lat="45.7066" lon="4.58676">
        <ele>736</ele>
        <time>2012-10-20T12:23:26Z</time>
      </trkpt>
      <trkpt lat="45.70662" lon="4.58677">
        <ele>736</ele>
        <time>2012-10-20T12:23:38Z</time>
      </trkpt>
      <trkpt lat="45.70664" lon="4.58678">
        <ele>736</ele>
        <time>2012-10-20T12:23:39Z</time>
      </trkpt>
      <trkpt lat="45.70665" lon="4.5868">
        <ele>736</ele>
        <time>2012-10-20T12:23:40Z</time>
      </trkpt>
      <trkpt lat="45.70666" lon="4.58682">
        <ele>736</ele>
        <time>2012-10-20T12:23:41Z</time>
      </trkpt>
      <trkpt lat="45.70666" lon="4.58685">
        <ele>737</ele>
        <time>2012-10-20T12:23:42Z</time>
      </trkpt>
      <trkpt lat="45.70666" lon="4.58689">
        <ele>737</ele>
        <time>2012-10-20T12:23:43Z</time>
      </trkpt>
      <trkpt lat="45.70666" lon="4.58692">
        <ele>737</ele>
        <time>2012-10-20T12:23:44Z</time>
      </trkpt>
      <trkpt lat="45.70666" lon="4.58696">
        <ele>737</ele>
        <time>2012-10-20T12:23:45Z</time>
      </trkpt>
      <trkpt lat="45.70666" lon="4.587">
        <ele>738</ele>
        <time>2012-10-20T12:23:46Z</time>
      </trkpt>
      <trkpt lat="45.70666" lon="4.58739">
        <ele>740</ele>
        <time>2012-10-20T12:23:56Z</time>
      </trkpt>
      <trkpt lat="45.70663" lon="4.58777">
        <ele>740</ele>
        <time>2012-10-20T12:24:05Z</time>
      </trkpt>
      <trkpt lat="45.70649" lon="4.58813">
        <ele>742</ele>
        <time>2012-10-20T12:24:15Z</time>
      </trkpt>
      <trkpt lat="45.70648" lon="4.58817">
        <ele>743</ele>
        <time>2012-10-20T12:24:16Z</time>
      </trkpt>
      <trkpt lat="45.70648" lon="4.5882">
        <ele>743</ele>
        <time>2012-10-20T12:24:17Z</time>
      </trkpt>
      <trkpt lat="45.70647" lon="4.58822">
        <ele>742</ele>
        <time>2012-10-20T12:24:18Z</time>
      </trkpt>
      <trkpt lat="45.70646" lon="4.58823">
        <ele>741</ele>
        <time>2012-10-20T12:24:23Z</time>
      </trkpt>
      <trkpt lat="45.70645" lon="4.58822">
        <ele>742</ele>
        <time>2012-10-20T12:24:33Z</time>
      </trkpt>
      <trkpt lat="45.7064" lon="4.58825">
        <ele>742</ele>
        <time>2012-10-20T12:24:45Z</time>
      </trkpt>
      <trkpt lat="45.70638" lon="4.58825">
        <ele>743</ele>
        <time>2012-10-20T12:24:46Z</time>
      </trkpt>
      <trkpt lat="45.7063" lon="4.58848">
        <ele>741</ele>
        <time>2012-10-20T12:24:51Z</time>
      </trkpt>
      <trkpt lat="45.70624" lon="4.58891">
        <ele>739</ele>
        <time>2012-10-20T12:24:56Z</time>
      </trkpt>
      <trkpt lat="45.70624" lon="4.589">
        <ele>738</ele>
        <time>2012-10-20T12:24:57Z</time>
      </trkpt>
      <trkpt lat="45.70624" lon="4.58909">
        <ele>739</ele>
        <time>2012-10-20T12:24:58Z</time>
      </trkpt>
      <trkpt lat="45.7063" lon="4.5894">
        <ele>738</ele>
        <time>2012-10-20T12:25:02Z</time>
      </trkpt>
      <trkpt lat="45.70638" lon="4.58983">
        <ele>737</ele>
        <time>2012-10-20T12:25:09Z</time>
      </trkpt>
      <trkpt lat="45.7064" lon="4.59023">
        <ele>738</ele>
        <time>2012-10-20T12:25:17Z</time>
      </trkpt>
      <trkpt lat="45.70634" lon="4.59067">
        <ele>738</ele>
        <time>2012-10-20T12:25:26Z</time>
      </trkpt>
      <trkpt lat="45.70629" lon="4.59107">
        <ele>739</ele>
        <time>2012-10-20T12:25:34Z</time>
      </trkpt>
      <trkpt lat="45.7062" lon="4.59142">
        <ele>741</ele>
        <time>2012-10-20T12:25:42Z</time>
      </trkpt>
      <trkpt lat="45.706" lon="4.59176">
        <ele>741</ele>
        <time>2012-10-20T12:25:51Z</time>
      </trkpt>
      <trkpt lat="45.70575" lon="4.59216">
        <ele>741</ele>
        <time>2012-10-20T12:26:02Z</time>
      </trkpt>
      <trkpt lat="45.70556" lon="4.59248">
        <ele>741</ele>
        <time>2012-10-20T12:26:11Z</time>
      </trkpt>
      <trkpt lat="45.70532" lon="4.59273">
        <ele>741</ele>
        <time>2012-10-20T12:26:19Z</time>
      </trkpt>
      <trkpt lat="45.70507" lon="4.59289">
        <ele>742</ele>
        <time>2012-10-20T12:26:27Z</time>
      </trkpt>
      <trkpt lat="45.70485" lon="4.59302">
        <ele>741</ele>
        <time>2012-10-20T12:26:35Z</time>
      </trkpt>
      <trkpt lat="45.70471" lon="4.59314">
        <ele>741</ele>
        <time>2012-10-20T12:26:41Z</time>
      </trkpt>
      <trkpt lat="45.70459" lon="4.59319">
        <ele>741</ele>
        <time>2012-10-20T12:26:46Z</time>
      </trkpt>
      <trkpt lat="45.70458" lon="4.59322">
        <ele>741</ele>
        <time>2012-10-20T12:26:47Z</time>
      </trkpt>
      <trkpt lat="45.70457" lon="4.59325">
        <ele>741</ele>
        <time>2012-10-20T12:26:48Z</time>
      </trkpt>
      <trkpt lat="45.70456" lon="4.59328">
        <ele>741</ele>
        <time>2012-10-20T12:26:49Z</time>
      </trkpt>
      <trkpt lat="45.70456" lon="4.59331">
        <ele>741</ele>
        <time>2012-10-20T12:26:50Z</time>
      </trkpt>
      <trkpt lat="45.70455" lon="4.59333">
        <ele>741</ele>
        <time>2012-10-20T12:26:51Z</time>
      </trkpt>
      <trkpt lat="45.70454" lon="4.59336">
        <ele>742</ele>
        <time>2012-10-20T12:26:52Z</time>
      </trkpt>
      <trkpt lat="45.70453" lon="4.59339">
        <ele>742</ele>
        <time>2012-10-20T12:26:53Z</time>
      </trkpt>
      <trkpt lat="45.70452" lon="4.59342">
        <ele>743</ele>
        <time>2012-10-20T12:26:54Z</time>
      </trkpt>
      <trkpt lat="45.70443" lon="4.59369">
        <ele>743</ele>
        <time>2012-10-20T12:27:02Z</time>
      </trkpt>
      <trkpt lat="45.70432" lon="4.59402">
        <ele>745</ele>
        <time>2012-10-20T12:27:12Z</time>
      </trkpt>
      <trkpt lat="45.70425" lon="4.59417">
        <ele>746</ele>
        <time>2012-10-20T12:27:19Z</time>
      </trkpt>
      <trkpt lat="45.70418" lon="4.59436">
        <ele>748</ele>
        <time>2012-10-20T12:27:29Z</time>
      </trkpt>
      <trkpt lat="45.70413" lon="4.5945">
        <ele>750</ele>
        <time>2012-10-20T12:27:36Z</time>
      </trkpt>
      <trkpt lat="45.70407" lon="4.59465">
        <ele>752</ele>
        <time>2012-10-20T12:27:45Z</time>
      </trkpt>
      <trkpt lat="45.70403" lon="4.59482">
        <ele>754</ele>
        <time>2012-10-20T12:27:53Z</time>
      </trkpt>
      <trkpt lat="45.70398" lon="4.59512">
        <ele>755</ele>
        <time>2012-10-20T12:28:04Z</time>
      </trkpt>
      <trkpt lat="45.70394" lon="4.59537">
        <ele>755</ele>
        <time>2012-10-20T12:28:14Z</time>
      </trkpt>
      <trkpt lat="45.70389" lon="4.59557">
        <ele>757</ele>
        <time>2012-10-20T12:28:23Z</time>
      </trkpt>
      <trkpt lat="45.70386" lon="4.59577">
        <ele>760</ele>
        <time>2012-10-20T12:28:33Z</time>
      </trkpt>
      <trkpt lat="45.70392" lon="4.59585">
        <ele>761</ele>
        <time>2012-10-20T12:28:39Z</time>
      </trkpt>
      <trkpt lat="45.70393" lon="4.59586">
        <ele>761</ele>
        <time>2012-10-20T12:28:40Z</time>
      </trkpt>
      <trkpt lat="45.70395" lon="4.59587">
        <ele>761</ele>
        <time>2012-10-20T12:28:41Z</time>
      </trkpt>
      <trkpt lat="45.70397" lon="4.59588">
        <ele>761</ele>
        <time>2012-10-20T12:28:42Z</time>
      </trkpt>
      <trkpt lat="45.70398" lon="4.59589">
        <ele>761</ele>
        <time>2012-10-20T12:28:43Z</time>
      </trkpt>
      <trkpt lat="45.704" lon="4.5959">
        <ele>761</ele>
        <time>2012-10-20T12:28:44Z</time>
      </trkpt>
      <trkpt lat="45.70401" lon="4.5959">
        <ele>762</ele>
        <time>2012-10-20T12:28:45Z</time>
      </trkpt>
      <trkpt lat="45.70402" lon="4.59591">
        <ele>762</ele>
        <time>2012-10-20T12:28:46Z</time>
      </trkpt>
      <trkpt lat="45.70416" lon="4.59598">
        <ele>764</ele>
        <time>2012-10-20T12:28:55Z</time>
      </trkpt>
      <trkpt lat="45.70429" lon="4.59607">
        <ele>763</ele>
        <time>2012-10-20T12:29:02Z</time>
      </trkpt>
      <trkpt lat="45.70443" lon="4.5963">
        <ele>762</ele>
        <time>2012-10-20T12:29:08Z</time>
      </trkpt>
      <trkpt lat="45.70453" lon="4.59661">
        <ele>761</ele>
        <time>2012-10-20T12:29:13Z</time>
      </trkpt>
      <trkpt lat="45.70455" lon="4.59668">
        <ele>761</ele>
        <time>2012-10-20T12:29:14Z</time>
      </trkpt>
      <trkpt lat="45.70461" lon="4.59687">
        <ele>760</ele>
        <time>2012-10-20T12:29:17Z</time>
      </trkpt>
      <trkpt lat="45.7047" lon="4.59728">
        <ele>760</ele>
        <time>2012-10-20T12:29:24Z</time>
      </trkpt>
      <trkpt lat="45.70475" lon="4.59749">
        <ele>761</ele>
        <time>2012-10-20T12:29:29Z</time>
      </trkpt>
      <trkpt lat="45.70483" lon="4.59784">
        <ele>761</ele>
        <time>2012-10-20T12:29:37Z</time>
      </trkpt>
      <trkpt lat="45.70488" lon="4.59815">
        <ele>763</ele>
        <time>2012-10-20T12:29:45Z</time>
      </trkpt>
      <trkpt lat="45.70489" lon="4.59836">
        <ele>764</ele>
        <time>2012-10-20T12:29:51Z</time>
      </trkpt>
      <trkpt lat="45.7049" lon="4.59865">
        <ele>765</ele>
        <time>2012-10-20T12:29:57Z</time>
      </trkpt>
      <trkpt lat="45.70489" lon="4.59897">
        <ele>764</ele>
        <time>2012-10-20T12:30:03Z</time>
      </trkpt>
      <trkpt lat="45.70489" lon="4.59923">
        <ele>764</ele>
        <time>2012-10-20T12:30:09Z</time>
      </trkpt>
      <trkpt lat="45.70485" lon="4.59953">
        <ele>764</ele>
        <time>2012-10-20T12:30:15Z</time>
      </trkpt>
      <trkpt lat="45.70478" lon="4.59976">
        <ele>765</ele>
        <time>2012-10-20T12:30:21Z</time>
      </trkpt>
      <trkpt lat="45.7047" lon="4.60003">
        <ele>764</ele>
        <time>2012-10-20T12:30:27Z</time>
      </trkpt>
      <trkpt lat="45.70464" lon="4.60031">
        <ele>765</ele>
        <time>2012-10-20T12:30:34Z</time>
      </trkpt>
      <trkpt lat="45.70461" lon="4.60061">
        <ele>765</ele>
        <time>2012-10-20T12:30:40Z</time>
      </trkpt>
      <trkpt lat="45.70458" lon="4.60101">
        <ele>765</ele>
        <time>2012-10-20T12:30:46Z</time>
      </trkpt>
      <trkpt lat="45.7046" lon="4.60142">
        <ele>766</ele>
        <time>2012-10-20T12:30:53Z</time>
      </trkpt>
      <trkpt lat="45.70465" lon="4.60179">
        <ele>765</ele>
        <time>2012-10-20T12:31:00Z</time>
      </trkpt>
      <trkpt lat="45.70468" lon="4.60204">
        <ele>766</ele>
        <time>2012-10-20T12:31:06Z</time>
      </trkpt>
      <trkpt lat="45.70467" lon="4.60234">
        <ele>767</ele>
        <time>2012-10-20T12:31:12Z</time>
      </trkpt>
      <trkpt lat="45.70469" lon="4.60254">
        <ele>768</ele>
        <time>2012-10-20T12:31:17Z</time>
      </trkpt>
      <trkpt lat="45.70469" lon="4.60277">
        <ele>769</ele>
        <time>2012-10-20T12:31:23Z</time>
      </trkpt>
      <trkpt lat="45.70473" lon="4.60309">
        <ele>771</ele>
        <time>2012-10-20T12:31:30Z</time>
      </trkpt>
      <trkpt lat="45.70477" lon="4.60337">
        <ele>772</ele>
        <time>2012-10-20T12:31:38Z</time>
      </trkpt>
      <trkpt lat="45.70476" lon="4.6034">
        <ele>773</ele>
        <time>2012-10-20T12:31:39Z</time>
      </trkpt>
      <trkpt lat="45.70476" lon="4.60342">
        <ele>773</ele>
        <time>2012-10-20T12:31:40Z</time>
      </trkpt>
      <trkpt lat="45.70476" lon="4.60345">
        <ele>773</ele>
        <time>2012-10-20T12:31:41Z</time>
      </trkpt>
      <trkpt lat="45.70477" lon="4.60349">
        <ele>773</ele>
        <time>2012-10-20T12:31:42Z</time>
      </trkpt>
      <trkpt lat="45.70477" lon="4.60352">
        <ele>773</ele>
        <time>2012-10-20T12:31:43Z</time>
      </trkpt>
      <trkpt lat="45.70477" lon="4.60354">
        <ele>773</ele>
        <time>2012-10-20T12:31:44Z</time>
      </trkpt>
      <trkpt lat="45.70478" lon="4.60358">
        <ele>774</ele>
        <time>2012-10-20T12:31:45Z</time>
      </trkpt>
      <trkpt lat="45.70479" lon="4.60362">
        <ele>774</ele>
        <time>2012-10-20T12:31:46Z</time>
      </trkpt>
      <trkpt lat="45.70484" lon="4.60384">
        <ele>774</ele>
        <time>2012-10-20T12:31:52Z</time>
      </trkpt>
      <trkpt lat="45.70491" lon="4.60418">
        <ele>774</ele>
        <time>2012-10-20T12:32:00Z</time>
      </trkpt>
      <trkpt lat="45.70494" lon="4.6045">
        <ele>774</ele>
        <time>2012-10-20T12:32:06Z</time>
      </trkpt>
      <trkpt lat="45.70497" lon="4.60484">
        <ele>774</ele>
        <time>2012-10-20T12:32:14Z</time>
      </trkpt>
      <trkpt lat="45.70496" lon="4.60512">
        <ele>775</ele>
        <time>2012-10-20T12:32:21Z</time>
      </trkpt>
      <trkpt lat="45.70492" lon="4.60546">
        <ele>776</ele>
        <time>2012-10-20T12:32:29Z</time>
      </trkpt>
      <trkpt lat="45.70486" lon="4.60576">
        <ele>775</ele>
        <time>2012-10-20T12:32:35Z</time>
      </trkpt>
      <trkpt lat="45.70482" lon="4.60593">
        <ele>775</ele>
        <time>2012-10-20T12:32:39Z</time>
      </trkpt>
      <trkpt lat="45.70481" lon="4.60599">
        <ele>775</ele>
        <time>2012-10-20T12:32:40Z</time>
      </trkpt>
      <trkpt lat="45.7048" lon="4.60605">
        <ele>774</ele>
        <time>2012-10-20T12:32:41Z</time>
      </trkpt>
      <trkpt lat="45.70479" lon="4.6061">
        <ele>774</ele>
        <time>2012-10-20T12:32:42Z</time>
      </trkpt>
      <trkpt lat="45.7047" lon="4.60639">
        <ele>772</ele>
        <time>2012-10-20T12:32:48Z</time>
      </trkpt>
      <trkpt lat="45.70451" lon="4.60661">
        <ele>771</ele>
        <time>2012-10-20T12:32:54Z</time>
      </trkpt>
      <trkpt lat="45.70433" lon="4.60682">
        <ele>772</ele>
        <time>2012-10-20T12:33:00Z</time>
      </trkpt>
      <trkpt lat="45.70416" lon="4.60699">
        <ele>770</ele>
        <time>2012-10-20T12:33:05Z</time>
      </trkpt>
      <trkpt lat="45.70397" lon="4.60713">
        <ele>771</ele>
        <time>2012-10-20T12:33:10Z</time>
      </trkpt>
      <trkpt lat="45.70375" lon="4.60721">
        <ele>772</ele>
        <time>2012-10-20T12:33:17Z</time>
      </trkpt>
      <trkpt lat="45.70354" lon="4.60726">
        <ele>773</ele>
        <time>2012-10-20T12:33:24Z</time>
      </trkpt>
      <trkpt lat="45.70344" lon="4.60728">
        <ele>773</ele>
        <time>2012-10-20T12:33:29Z</time>
      </trkpt>
      <trkpt lat="45.70324" lon="4.60733">
        <ele>774</ele>
        <time>2012-10-20T12:33:35Z</time>
      </trkpt>
      <trkpt lat="45.703" lon="4.60738">
        <ele>774</ele>
        <time>2012-10-20T12:33:42Z</time>
      </trkpt>
      <trkpt lat="45.70286" lon="4.60741">
        <ele>774</ele>
        <time>2012-10-20T12:33:47Z</time>
      </trkpt>
      <trkpt lat="45.70256" lon="4.60744">
        <ele>776</ele>
        <time>2012-10-20T12:33:55Z</time>
      </trkpt>
      <trkpt lat="45.70241" lon="4.60743">
        <ele>777</ele>
        <time>2012-10-20T12:34:01Z</time>
      </trkpt>
      <trkpt lat="45.70224" lon="4.60746">
        <ele>778</ele>
        <time>2012-10-20T12:34:08Z</time>
      </trkpt>
      <trkpt lat="45.70203" lon="4.60747">
        <ele>780</ele>
        <time>2012-10-20T12:34:16Z</time>
      </trkpt>
      <trkpt lat="45.70183" lon="4.60747">
        <ele>781</ele>
        <time>2012-10-20T12:34:24Z</time>
      </trkpt>
      <trkpt lat="45.70174" lon="4.60747">
        <ele>782</ele>
        <time>2012-10-20T12:34:28Z</time>
      </trkpt>
      <trkpt lat="45.70172" lon="4.60745">
        <ele>782</ele>
        <time>2012-10-20T12:34:29Z</time>
      </trkpt>
      <trkpt lat="45.70171" lon="4.60742">
        <ele>782</ele>
        <time>2012-10-20T12:34:30Z</time>
      </trkpt>
      <trkpt lat="45.70165" lon="4.60713">
        <ele>782</ele>
        <time>2012-10-20T12:34:38Z</time>
      </trkpt>
      <trkpt lat="45.70158" lon="4.60684">
        <ele>781</ele>
        <time>2012-10-20T12:34:44Z</time>
      </trkpt>
      <trkpt lat="45.70152" lon="4.6065">
        <ele>780</ele>
        <time>2012-10-20T12:34:53Z</time>
      </trkpt>
      <trkpt lat="45.70148" lon="4.60624">
        <ele>781</ele>
        <time>2012-10-20T12:35:00Z</time>
      </trkpt>
      <trkpt lat="45.70144" lon="4.60602">
        <ele>782</ele>
        <time>2012-10-20T12:35:06Z</time>
      </trkpt>
      <trkpt lat="45.70138" lon="4.60583">
        <ele>782</ele>
        <time>2012-10-20T12:35:12Z</time>
      </trkpt>
      <trkpt lat="45.70128" lon="4.6057">
        <ele>783</ele>
        <time>2012-10-20T12:35:17Z</time>
      </trkpt>
      <trkpt lat="45.70113" lon="4.60556">
        <ele>784</ele>
        <time>2012-10-20T12:35:24Z</time>
      </trkpt>
      <trkpt lat="45.70105" lon="4.60548">
        <ele>785</ele>
        <time>2012-10-20T12:35:30Z</time>
      </trkpt>
      <trkpt lat="45.70099" lon="4.60536">
        <ele>787</ele>
        <time>2012-10-20T12:35:38Z</time>
      </trkpt>
      <trkpt lat="45.70098" lon="4.60535">
        <ele>787</ele>
        <time>2012-10-20T12:35:39Z</time>
      </trkpt>
      <trkpt lat="45.70095" lon="4.6053">
        <ele>788</ele>
        <time>2012-10-20T12:35:42Z</time>
      </trkpt>
      <trkpt lat="45.70093" lon="4.60528">
        <ele>788</ele>
        <time>2012-10-20T12:35:43Z</time>
      </trkpt>
      <trkpt lat="45.70092" lon="4.60526">
        <ele>788</ele>
        <time>2012-10-20T12:35:44Z</time>
      </trkpt>
      <trkpt lat="45.70089" lon="4.60524">
        <ele>787</ele>
        <time>2012-10-20T12:35:45Z</time>
      </trkpt>
      <trkpt lat="45.70085" lon="4.60521">
        <ele>787</ele>
        <time>2012-10-20T12:35:46Z</time>
      </trkpt>
      <trkpt lat="45.70082" lon="4.60515">
        <ele>786</ele>
        <time>2012-10-20T12:35:47Z</time>
      </trkpt>
      <trkpt lat="45.7008" lon="4.6051">
        <ele>786</ele>
        <time>2012-10-20T12:35:48Z</time>
      </trkpt>
      <trkpt lat="45.70078" lon="4.60506">
        <ele>786</ele>
        <time>2012-10-20T12:35:49Z</time>
      </trkpt>
      <trkpt lat="45.70077" lon="4.60504">
        <ele>787</ele>
        <time>2012-10-20T12:35:50Z</time>
      </trkpt>
      <trkpt lat="45.70074" lon="4.60501">
        <ele>786</ele>
        <time>2012-10-20T12:35:52Z</time>
      </trkpt>
      <trkpt lat="45.70073" lon="4.60499">
        <ele>787</ele>
        <time>2012-10-20T12:35:53Z</time>
      </trkpt>
      <trkpt lat="45.70059" lon="4.60478">
        <ele>786</ele>
        <time>2012-10-20T12:35:59Z</time>
      </trkpt>
      <trkpt lat="45.7005" lon="4.60454">
        <ele>786</ele>
        <time>2012-10-20T12:36:05Z</time>
      </trkpt>
      <trkpt lat="45.70048" lon="4.60446">
        <ele>786</ele>
        <time>2012-10-20T12:36:08Z</time>
      </trkpt>
      <trkpt lat="45.70046" lon="4.60443">
        <ele>786</ele>
        <time>2012-10-20T12:36:09Z</time>
      </trkpt>
      <trkpt lat="45.70045" lon="4.60439">
        <ele>786</ele>
        <time>2012-10-20T12:36:10Z</time>
      </trkpt>
      <trkpt lat="45.70044" lon="4.60436">
        <ele>786</ele>
        <time>2012-10-20T12:36:11Z</time>
      </trkpt>
      <trkpt lat="45.70044" lon="4.60433">
        <ele>787</ele>
        <time>2012-10-20T12:36:12Z</time>
      </trkpt>
      <trkpt lat="45.70043" lon="4.6043">
        <ele>786</ele>
        <time>2012-10-20T12:36:13Z</time>
      </trkpt>
      <trkpt lat="45.70043" lon="4.60427">
        <ele>787</ele>
        <time>2012-10-20T12:36:14Z</time>
      </trkpt>
      <trkpt lat="45.70042" lon="4.60423">
        <ele>787</ele>
        <time>2012-10-20T12:36:15Z</time>
      </trkpt>
      <trkpt lat="45.70039" lon="4.6039">
        <ele>787</ele>
        <time>2012-10-20T12:36:22Z</time>
      </trkpt>
      <trkpt lat="45.70047" lon="4.60365">
        <ele>788</ele>
        <time>2012-10-20T12:36:28Z</time>
      </trkpt>
      <trkpt lat="45.70047" lon="4.60352">
        <ele>788</ele>
        <time>2012-10-20T12:36:35Z</time>
      </trkpt>
      <trkpt lat="45.70047" lon="4.60355">
        <ele>788</ele>
        <time>2012-10-20T12:36:42Z</time>
      </trkpt>
      <trkpt lat="45.70046" lon="4.60356">
        <ele>788</ele>
        <time>2012-10-20T12:36:43Z</time>
      </trkpt>
      <trkpt lat="45.70046" lon="4.60358">
        <ele>788</ele>
        <time>2012-10-20T12:36:44Z</time>
      </trkpt>
      <trkpt lat="45.70045" lon="4.6036">
        <ele>788</ele>
        <time>2012-10-20T12:36:45Z</time>
      </trkpt>
      <trkpt lat="45.70044" lon="4.60361">
        <ele>788</ele>
        <time>2012-10-20T12:36:46Z</time>
      </trkpt>
      <trkpt lat="45.70042" lon="4.60362">
        <ele>788</ele>
        <time>2012-10-20T12:36:47Z</time>
      </trkpt>
      <trkpt lat="45.70033" lon="4.60362">
        <ele>785</ele>
        <time>2012-10-20T12:36:51Z</time>
      </trkpt>
      <trkpt lat="45.70022" lon="4.60366">
        <ele>782</ele>
        <time>2012-10-20T12:36:55Z</time>
      </trkpt>
      <trkpt lat="45.70008" lon="4.60384">
        <ele>776</ele>
        <time>2012-10-20T12:37:01Z</time>
      </trkpt>
      <trkpt lat="45.70001" lon="4.60385">
        <ele>773</ele>
        <time>2012-10-20T12:37:05Z</time>
      </trkpt>
      <trkpt lat="45.69998" lon="4.60384">
        <ele>773</ele>
        <time>2012-10-20T12:37:06Z</time>
      </trkpt>
      <trkpt lat="45.69991" lon="4.60384">
        <ele>769</ele>
        <time>2012-10-20T12:37:09Z</time>
      </trkpt>
      <trkpt lat="45.69984" lon="4.60378">
        <ele>767</ele>
        <time>2012-10-20T12:37:12Z</time>
      </trkpt>
      <trkpt lat="45.69978" lon="4.6037">
        <ele>764</ele>
        <time>2012-10-20T12:37:15Z</time>
      </trkpt>
      <trkpt lat="45.69968" lon="4.60368">
        <ele>760</ele>
        <time>2012-10-20T12:37:20Z</time>
      </trkpt>
      <trkpt lat="45.69966" lon="4.60369">
        <ele>759</ele>
        <time>2012-10-20T12:37:21Z</time>
      </trkpt>
      <trkpt lat="45.69962" lon="4.60371">
        <ele>757</ele>
        <time>2012-10-20T12:37:23Z</time>
      </trkpt>
      <trkpt lat="45.69959" lon="4.60372">
        <ele>756</ele>
        <time>2012-10-20T12:37:24Z</time>
      </trkpt>
      <trkpt lat="45.69957" lon="4.60375">
        <ele>755</ele>
        <time>2012-10-20T12:37:25Z</time>
      </trkpt>
      <trkpt lat="45.69956" lon="4.60377">
        <ele>754</ele>
        <time>2012-10-20T12:37:26Z</time>
      </trkpt>
      <trkpt lat="45.69954" lon="4.60379">
        <ele>754</ele>
        <time>2012-10-20T12:37:27Z</time>
      </trkpt>
      <trkpt lat="45.69952" lon="4.60382">
        <ele>753</ele>
        <time>2012-10-20T12:37:28Z</time>
      </trkpt>
      <trkpt lat="45.6995" lon="4.60384">
        <ele>752</ele>
        <time>2012-10-20T12:37:29Z</time>
      </trkpt>
      <trkpt lat="45.69948" lon="4.60387">
        <ele>752</ele>
        <time>2012-10-20T12:37:30Z</time>
      </trkpt>
      <trkpt lat="45.69945" lon="4.60391">
        <ele>750</ele>
        <time>2012-10-20T12:37:31Z</time>
      </trkpt>
      <trkpt lat="45.69942" lon="4.60394">
        <ele>750</ele>
        <time>2012-10-20T12:37:32Z</time>
      </trkpt>
      <trkpt lat="45.69938" lon="4.60396">
        <ele>748</ele>
        <time>2012-10-20T12:37:33Z</time>
      </trkpt>
      <trkpt lat="45.69936" lon="4.60395">
        <ele>747</ele>
        <time>2012-10-20T12:37:34Z</time>
      </trkpt>
      <trkpt lat="45.69935" lon="4.60392">
        <ele>747</ele>
        <time>2012-10-20T12:37:35Z</time>
      </trkpt>
      <trkpt lat="45.69934" lon="4.60389">
        <ele>747</ele>
        <time>2012-10-20T12:37:36Z</time>
      </trkpt>
      <trkpt lat="45.69929" lon="4.60378">
        <ele>745</ele>
        <time>2012-10-20T12:37:40Z</time>
      </trkpt>
      <trkpt lat="45.69927" lon="4.60375">
        <ele>745</ele>
        <time>2012-10-20T12:37:41Z</time>
      </trkpt>
      <trkpt lat="45.69926" lon="4.60372">
        <ele>744</ele>
        <time>2012-10-20T12:37:42Z</time>
      </trkpt>
      <trkpt lat="45.69924" lon="4.60369">
        <ele>744</ele>
        <time>2012-10-20T12:37:43Z</time>
      </trkpt>
      <trkpt lat="45.69924" lon="4.60365">
        <ele>743</ele>
        <time>2012-10-20T12:37:44Z</time>
      </trkpt>
      <trkpt lat="45.69924" lon="4.6036">
        <ele>743</ele>
        <time>2012-10-20T12:37:45Z</time>
      </trkpt>
      <trkpt lat="45.69924" lon="4.60354">
        <ele>742</ele>
        <time>2012-10-20T12:37:46Z</time>
      </trkpt>
      <trkpt lat="45.69925" lon="4.60348">
        <ele>742</ele>
        <time>2012-10-20T12:37:47Z</time>
      </trkpt>
      <trkpt lat="45.69925" lon="4.60342">
        <ele>742</ele>
        <time>2012-10-20T12:37:48Z</time>
      </trkpt>
      <trkpt lat="45.69934" lon="4.60285">
        <ele>740</ele>
        <time>2012-10-20T12:37:57Z</time>
      </trkpt>
      <trkpt lat="45.69937" lon="4.60274">
        <ele>739</ele>
        <time>2012-10-20T12:37:59Z</time>
      </trkpt>
      <trkpt lat="45.6994" lon="4.60267">
        <ele>738</ele>
        <time>2012-10-20T12:38:00Z</time>
      </trkpt>
      <trkpt lat="45.69943" lon="4.6026">
        <ele>738</ele>
        <time>2012-10-20T12:38:01Z</time>
      </trkpt>
      <trkpt lat="45.69956" lon="4.60231">
        <ele>736</ele>
        <time>2012-10-20T12:38:05Z</time>
      </trkpt>
      <trkpt lat="45.69963" lon="4.60216">
        <ele>735</ele>
        <time>2012-10-20T12:38:07Z</time>
      </trkpt>
      <trkpt lat="45.69967" lon="4.60203">
        <ele>733</ele>
        <time>2012-10-20T12:38:09Z</time>
      </trkpt>
      <trkpt lat="45.69969" lon="4.60195">
        <ele>733</ele>
        <time>2012-10-20T12:38:10Z</time>
      </trkpt>
      <trkpt lat="45.69972" lon="4.60187">
        <ele>732</ele>
        <time>2012-10-20T12:38:11Z</time>
      </trkpt>
      <trkpt lat="45.69978" lon="4.60169">
        <ele>731</ele>
        <time>2012-10-20T12:38:13Z</time>
      </trkpt>
      <trkpt lat="45.69991" lon="4.60134">
        <ele>727</ele>
        <time>2012-10-20T12:38:17Z</time>
      </trkpt>
      <trkpt lat="45.69998" lon="4.60113">
        <ele>725</ele>
        <time>2012-10-20T12:38:20Z</time>
      </trkpt>
      <trkpt lat="45.7" lon="4.60105">
        <ele>724</ele>
        <time>2012-10-20T12:38:21Z</time>
      </trkpt>
      <trkpt lat="45.70001" lon="4.60097">
        <ele>723</ele>
        <time>2012-10-20T12:38:22Z</time>
      </trkpt>
      <trkpt lat="45.70002" lon="4.60089">
        <ele>722</ele>
        <time>2012-10-20T12:38:23Z</time>
      </trkpt>
      <trkpt lat="45.70003" lon="4.60081">
        <ele>721</ele>
        <time>2012-10-20T12:38:24Z</time>
      </trkpt>
      <trkpt lat="45.70005" lon="4.60072">
        <ele>720</ele>
        <time>2012-10-20T12:38:25Z</time>
      </trkpt>
      <trkpt lat="45.70008" lon="4.60064">
        <ele>719</ele>
        <time>2012-10-20T12:38:26Z</time>
      </trkpt>
      <trkpt lat="45.70011" lon="4.60056">
        <ele>718</ele>
        <time>2012-10-20T12:38:27Z</time>
      </trkpt>
      <trkpt lat="45.70021" lon="4.60032">
        <ele>715</ele>
        <time>2012-10-20T12:38:30Z</time>
      </trkpt>
      <trkpt lat="45.70026" lon="4.60017">
        <ele>712</ele>
        <time>2012-10-20T12:38:33Z</time>
      </trkpt>
      <trkpt lat="45.70026" lon="4.60015">
        <ele>711</ele>
        <time>2012-10-20T12:38:34Z</time>
      </trkpt>
      <trkpt lat="45.70024" lon="4.60014">
        <ele>711</ele>
        <time>2012-10-20T12:38:35Z</time>
      </trkpt>
      <trkpt lat="45.70023" lon="4.60014">
        <ele>711</ele>
        <time>2012-10-20T12:38:36Z</time>
      </trkpt>
      <trkpt lat="45.70022" lon="4.60015">
        <ele>711</ele>
        <time>2012-10-20T12:38:37Z</time>
      </trkpt>
      <trkpt lat="45.7002" lon="4.60016">
        <ele>711</ele>
        <time>2012-10-20T12:38:38Z</time>
      </trkpt>
      <trkpt lat="45.70019" lon="4.60019">
        <ele>711</ele>
        <time>2012-10-20T12:38:39Z</time>
      </trkpt>
      <trkpt lat="45.70017" lon="4.60022">
        <ele>711</ele>
        <time>2012-10-20T12:38:40Z</time>
      </trkpt>
      <trkpt lat="45.70001" lon="4.60044">
        <ele>710</ele>
        <time>2012-10-20T12:38:48Z</time>
      </trkpt>
      <trkpt lat="45.69995" lon="4.60052">
        <ele>710</ele>
        <time>2012-10-20T12:38:54Z</time>
      </trkpt>
      <trkpt lat="45.69995" lon="4.60051">
        <ele>710</ele>
        <time>2012-10-20T12:39:02Z</time>
      </trkpt>
      <trkpt lat="45.69997" lon="4.60051">
        <ele>710</ele>
        <time>2012-10-20T12:39:05Z</time>
      </trkpt>
      <trkpt lat="45.70002" lon="4.60039">
        <ele>710</ele>
        <time>2012-10-20T12:39:11Z</time>
      </trkpt>
      <trkpt lat="45.70019" lon="4.60012">
        <ele>711</ele>
        <time>2012-10-20T12:39:19Z</time>
      </trkpt>
      <trkpt lat="45.70029" lon="4.59996">
        <ele>712</ele>
        <time>2012-10-20T12:39:25Z</time>
      </trkpt>
      <trkpt lat="45.70043" lon="4.59975">
        <ele>712</ele>
        <time>2012-10-20T12:39:32Z</time>
      </trkpt>
      <trkpt lat="45.70056" lon="4.59947">
        <ele>712</ele>
        <time>2012-10-20T12:39:40Z</time>
      </trkpt>
      <trkpt lat="45.7007" lon="4.59916">
        <ele>713</ele>
        <time>2012-10-20T12:39:49Z</time>
      </trkpt>
      <trkpt lat="45.70079" lon="4.59894">
        <ele>712</ele>
        <time>2012-10-20T12:39:55Z</time>
      </trkpt>
      <trkpt lat="45.70088" lon="4.59869">
        <ele>713</ele>
        <time>2012-10-20T12:40:01Z</time>
      </trkpt>
      <trkpt lat="45.70096" lon="4.5985">
        <ele>712</ele>
        <time>2012-10-20T12:40:06Z</time>
      </trkpt>
      <trkpt lat="45.70111" lon="4.59816">
        <ele>711</ele>
        <time>2012-10-20T12:40:13Z</time>
      </trkpt>
      <trkpt lat="45.70111" lon="4.59813">
        <ele>711</ele>
        <time>2012-10-20T12:40:14Z</time>
      </trkpt>
      <trkpt lat="45.70109" lon="4.59811">
        <ele>711</ele>
        <time>2012-10-20T12:40:15Z</time>
      </trkpt>
      <trkpt lat="45.70107" lon="4.59813">
        <ele>711</ele>
        <time>2012-10-20T12:40:16Z</time>
      </trkpt>
      <trkpt lat="45.70106" lon="4.59816">
        <ele>711</ele>
        <time>2012-10-20T12:40:17Z</time>
      </trkpt>
      <trkpt lat="45.70104" lon="4.59819">
        <ele>710</ele>
        <time>2012-10-20T12:40:18Z</time>
      </trkpt>
      <trkpt lat="45.70102" lon="4.59823">
        <ele>711</ele>
        <time>2012-10-20T12:40:19Z</time>
      </trkpt>
      <trkpt lat="45.701" lon="4.59826">
        <ele>711</ele>
        <time>2012-10-20T12:40:20Z</time>
      </trkpt>
      <trkpt lat="45.70089" lon="4.59843">
        <ele>710</ele>
        <time>2012-10-20T12:40:25Z</time>
      </trkpt>
      <trkpt lat="45.70086" lon="4.59843">
        <ele>709</ele>
        <time>2012-10-20T12:40:26Z</time>
      </trkpt>
      <trkpt lat="45.70082" lon="4.59841">
        <ele>708</ele>
        <time>2012-10-20T12:40:27Z</time>
      </trkpt>
      <trkpt lat="45.70081" lon="4.59837">
        <ele>706</ele>
        <time>2012-10-20T12:40:28Z</time>
      </trkpt>
      <trkpt lat="45.70081" lon="4.59831">
        <ele>706</ele>
        <time>2012-10-20T12:40:29Z</time>
      </trkpt>
      <trkpt lat="45.70081" lon="4.59823">
        <ele>705</ele>
        <time>2012-10-20T12:40:30Z</time>
      </trkpt>
      <trkpt lat="45.70082" lon="4.59815">
        <ele>704</ele>
        <time>2012-10-20T12:40:31Z</time>
      </trkpt>
      <trkpt lat="45.70084" lon="4.59806">
        <ele>703</ele>
        <time>2012-10-20T12:40:32Z</time>
      </trkpt>
      <trkpt lat="45.70086" lon="4.59797">
        <ele>702</ele>
        <time>2012-10-20T12:40:33Z</time>
      </trkpt>
      <trkpt lat="45.70089" lon="4.59785">
        <ele>700</ele>
        <time>2012-10-20T12:40:34Z</time>
      </trkpt>
      <trkpt lat="45.70093" lon="4.59771">
        <ele>699</ele>
        <time>2012-10-20T12:40:35Z</time>
      </trkpt>
      <trkpt lat="45.70098" lon="4.59757">
        <ele>697</ele>
        <time>2012-10-20T12:40:36Z</time>
      </trkpt>
      <trkpt lat="45.70104" lon="4.59743">
        <ele>695</ele>
        <time>2012-10-20T12:40:37Z</time>
      </trkpt>
      <trkpt lat="45.7013" lon="4.5968">
        <ele>692</ele>
        <time>2012-10-20T12:40:42Z</time>
      </trkpt>
      <trkpt lat="45.70143" lon="4.59625">
        <ele>688</ele>
        <time>2012-10-20T12:40:46Z</time>
      </trkpt>
      <trkpt lat="45.70154" lon="4.59584">
        <ele>687</ele>
        <time>2012-10-20T12:40:50Z</time>
      </trkpt>
      <trkpt lat="45.70159" lon="4.5957">
        <ele>687</ele>
        <time>2012-10-20T12:40:54Z</time>
      </trkpt>
      <trkpt lat="45.70161" lon="4.59557">
        <ele>687</ele>
        <time>2012-10-20T12:41:00Z</time>
      </trkpt>
      <trkpt lat="45.70162" lon="4.59541">
        <ele>686</ele>
        <time>2012-10-20T12:41:03Z</time>
      </trkpt>
      <trkpt lat="45.70166" lon="4.59517">
        <ele>683</ele>
        <time>2012-10-20T12:41:08Z</time>
      </trkpt>
      <trkpt lat="45.70172" lon="4.59486">
        <ele>681</ele>
        <time>2012-10-20T12:41:14Z</time>
      </trkpt>
      <trkpt lat="45.70173" lon="4.59481">
        <ele>680</ele>
        <time>2012-10-20T12:41:16Z</time>
      </trkpt>
      <trkpt lat="45.70173" lon="4.59479">
        <ele>679</ele>
        <time>2012-10-20T12:41:17Z</time>
      </trkpt>
      <trkpt lat="45.70169" lon="4.59482">
        <ele>679</ele>
        <time>2012-10-20T12:41:21Z</time>
      </trkpt>
      <trkpt lat="45.70164" lon="4.59491">
        <ele>679</ele>
        <time>2012-10-20T12:41:26Z</time>
      </trkpt>
      <trkpt lat="45.70152" lon="4.59519">
        <ele>677</ele>
        <time>2012-10-20T12:41:32Z</time>
      </trkpt>
      <trkpt lat="45.70148" lon="4.59523">
        <ele>675</ele>
        <time>2012-10-20T12:41:33Z</time>
      </trkpt>
      <trkpt lat="45.70145" lon="4.59527">
        <ele>675</ele>
        <time>2012-10-20T12:41:34Z</time>
      </trkpt>
      <trkpt lat="45.70143" lon="4.59531">
        <ele>674</ele>
        <time>2012-10-20T12:41:35Z</time>
      </trkpt>
      <trkpt lat="45.70141" lon="4.59533">
        <ele>673</ele>
        <time>2012-10-20T12:41:36Z</time>
      </trkpt>
      <trkpt lat="45.7014" lon="4.59534">
        <ele>672</ele>
        <time>2012-10-20T12:41:37Z</time>
      </trkpt>
      <trkpt lat="45.70138" lon="4.59533">
        <ele>672</ele>
        <time>2012-10-20T12:41:38Z</time>
      </trkpt>
      <trkpt lat="45.70137" lon="4.59532">
        <ele>672</ele>
        <time>2012-10-20T12:41:39Z</time>
      </trkpt>
      <trkpt lat="45.70137" lon="4.59529">
        <ele>671</ele>
        <time>2012-10-20T12:41:40Z</time>
      </trkpt>
      <trkpt lat="45.70137" lon="4.59525">
        <ele>671</ele>
        <time>2012-10-20T12:41:41Z</time>
      </trkpt>
      <trkpt lat="45.70137" lon="4.5952">
        <ele>670</ele>
        <time>2012-10-20T12:41:42Z</time>
      </trkpt>
      <trkpt lat="45.70137" lon="4.59514">
        <ele>669</ele>
        <time>2012-10-20T12:41:43Z</time>
      </trkpt>
      <trkpt lat="45.70138" lon="4.59507">
        <ele>669</ele>
        <time>2012-10-20T12:41:44Z</time>
      </trkpt>
      <trkpt lat="45.7014" lon="4.59501">
        <ele>668</ele>
        <time>2012-10-20T12:41:45Z</time>
      </trkpt>
      <trkpt lat="45.70141" lon="4.59493">
        <ele>667</ele>
        <time>2012-10-20T12:41:46Z</time>
      </trkpt>
      <trkpt lat="45.70146" lon="4.59463">
        <ele>664</ele>
        <time>2012-10-20T12:41:50Z</time>
      </trkpt>
      <trkpt lat="45.70149" lon="4.59448">
        <ele>662</ele>
        <time>2012-10-20T12:41:52Z</time>
      </trkpt>
      <trkpt lat="45.70149" lon="4.5944">
        <ele>662</ele>
        <time>2012-10-20T12:41:53Z</time>
      </trkpt>
      <trkpt lat="45.70148" lon="4.59432">
        <ele>661</ele>
        <time>2012-10-20T12:41:54Z</time>
      </trkpt>
      <trkpt lat="45.70144" lon="4.59418">
        <ele>658</ele>
        <time>2012-10-20T12:41:56Z</time>
      </trkpt>
      <trkpt lat="45.70142" lon="4.59412">
        <ele>657</ele>
        <time>2012-10-20T12:41:57Z</time>
      </trkpt>
      <trkpt lat="45.70132" lon="4.59394">
        <ele>654</ele>
        <time>2012-10-20T12:42:01Z</time>
      </trkpt>
      <trkpt lat="45.70127" lon="4.59386">
        <ele>652</ele>
        <time>2012-10-20T12:42:04Z</time>
      </trkpt>
      <trkpt lat="45.70125" lon="4.59384">
        <ele>652</ele>
        <time>2012-10-20T12:42:05Z</time>
      </trkpt>
      <trkpt lat="45.70124" lon="4.59385">
        <ele>651</ele>
        <time>2012-10-20T12:42:06Z</time>
      </trkpt>
      <trkpt lat="45.70124" lon="4.59388">
        <ele>651</ele>
        <time>2012-10-20T12:42:07Z</time>
      </trkpt>
      <trkpt lat="45.70122" lon="4.59411">
        <ele>650</ele>
        <time>2012-10-20T12:42:12Z</time>
      </trkpt>
      <trkpt lat="45.7012" lon="4.59418">
        <ele>650</ele>
        <time>2012-10-20T12:42:13Z</time>
      </trkpt>
      <trkpt lat="45.70102" lon="4.59461">
        <ele>647</ele>
        <time>2012-10-20T12:42:19Z</time>
      </trkpt>
      <trkpt lat="45.70084" lon="4.59512">
        <ele>644</ele>
        <time>2012-10-20T12:42:25Z</time>
      </trkpt>
      <trkpt lat="45.70077" lon="4.59537">
        <ele>642</ele>
        <time>2012-10-20T12:42:28Z</time>
      </trkpt>
      <trkpt lat="45.70075" lon="4.59545">
        <ele>640</ele>
        <time>2012-10-20T12:42:29Z</time>
      </trkpt>
      <trkpt lat="45.70072" lon="4.59553">
        <ele>640</ele>
        <time>2012-10-20T12:42:30Z</time>
      </trkpt>
      <trkpt lat="45.70068" lon="4.59561">
        <ele>639</ele>
        <time>2012-10-20T12:42:31Z</time>
      </trkpt>
      <trkpt lat="45.70064" lon="4.59567">
        <ele>639</ele>
        <time>2012-10-20T12:42:32Z</time>
      </trkpt>
      <trkpt lat="45.70059" lon="4.59573">
        <ele>638</ele>
        <time>2012-10-20T12:42:33Z</time>
      </trkpt>
      <trkpt lat="45.70043" lon="4.5959">
        <ele>637</ele>
        <time>2012-10-20T12:42:36Z</time>
      </trkpt>
      <trkpt lat="45.70026" lon="4.59604">
        <ele>635</ele>
        <time>2012-10-20T12:42:39Z</time>
      </trkpt>
      <trkpt lat="45.70014" lon="4.59613">
        <ele>634</ele>
        <time>2012-10-20T12:42:41Z</time>
      </trkpt>
      <trkpt lat="45.69988" lon="4.5964">
        <ele>635</ele>
        <time>2012-10-20T12:42:47Z</time>
      </trkpt>
      <trkpt lat="45.69976" lon="4.59653">
        <ele>635</ele>
        <time>2012-10-20T12:42:52Z</time>
      </trkpt>
      <trkpt lat="45.69974" lon="4.59656">
        <ele>636</ele>
        <time>2012-10-20T12:42:57Z</time>
      </trkpt>
      <trkpt lat="45.69966" lon="4.59662">
        <ele>635</ele>
        <time>2012-10-20T12:43:07Z</time>
      </trkpt>
      <trkpt lat="45.69955" lon="4.59672">
        <ele>635</ele>
        <time>2012-10-20T12:43:11Z</time>
      </trkpt>
      <trkpt lat="45.69942" lon="4.59687">
        <ele>633</ele>
        <time>2012-10-20T12:43:15Z</time>
      </trkpt>
      <trkpt lat="45.69939" lon="4.59693">
        <ele>633</ele>
        <time>2012-10-20T12:43:16Z</time>
      </trkpt>
      <trkpt lat="45.69937" lon="4.59699">
        <ele>632</ele>
        <time>2012-10-20T12:43:17Z</time>
      </trkpt>
      <trkpt lat="45.69932" lon="4.59712">
        <ele>632</ele>
        <time>2012-10-20T12:43:19Z</time>
      </trkpt>
      <trkpt lat="45.69918" lon="4.59762">
        <ele>629</ele>
        <time>2012-10-20T12:43:26Z</time>
      </trkpt>
      <trkpt lat="45.69916" lon="4.5977">
        <ele>628</ele>
        <time>2012-10-20T12:43:27Z</time>
      </trkpt>
      <trkpt lat="45.69903" lon="4.59814">
        <ele>625</ele>
        <time>2012-10-20T12:43:32Z</time>
      </trkpt>
      <trkpt lat="45.69898" lon="4.59827">
        <ele>624</ele>
        <time>2012-10-20T12:43:34Z</time>
      </trkpt>
      <trkpt lat="45.69895" lon="4.59833">
        <ele>624</ele>
        <time>2012-10-20T12:43:35Z</time>
      </trkpt>
      <trkpt lat="45.69892" lon="4.59837">
        <ele>624</ele>
        <time>2012-10-20T12:43:36Z</time>
      </trkpt>
      <trkpt lat="45.69888" lon="4.5984">
        <ele>623</ele>
        <time>2012-10-20T12:43:37Z</time>
      </trkpt>
      <trkpt lat="45.69884" lon="4.59841">
        <ele>623</ele>
        <time>2012-10-20T12:43:38Z</time>
      </trkpt>
      <trkpt lat="45.6988" lon="4.59841">
        <ele>622</ele>
        <time>2012-10-20T12:43:39Z</time>
      </trkpt>
      <trkpt lat="45.69875" lon="4.59841">
        <ele>622</ele>
        <time>2012-10-20T12:43:40Z</time>
      </trkpt>
      <trkpt lat="45.6987" lon="4.59839">
        <ele>621</ele>
        <time>2012-10-20T12:43:41Z</time>
      </trkpt>
      <trkpt lat="45.69866" lon="4.59836">
        <ele>621</ele>
        <time>2012-10-20T12:43:42Z</time>
      </trkpt>
      <trkpt lat="45.69861" lon="4.59833">
        <ele>620</ele>
        <time>2012-10-20T12:43:43Z</time>
      </trkpt>
      <trkpt lat="45.69852" lon="4.59827">
        <ele>619</ele>
        <time>2012-10-20T12:43:45Z</time>
      </trkpt>
      <trkpt lat="45.69843" lon="4.59821">
        <ele>617</ele>
        <time>2012-10-20T12:43:47Z</time>
      </trkpt>
      <trkpt lat="45.69837" lon="4.5982">
        <ele>616</ele>
        <time>2012-10-20T12:43:48Z</time>
      </trkpt>
      <trkpt lat="45.69826" lon="4.59819">
        <ele>615</ele>
        <time>2012-10-20T12:43:50Z</time>
      </trkpt>
      <trkpt lat="45.69819" lon="4.59819">
        <ele>615</ele>
        <time>2012-10-20T12:43:51Z</time>
      </trkpt>
      <trkpt lat="45.69813" lon="4.5982">
        <ele>615</ele>
        <time>2012-10-20T12:43:52Z</time>
      </trkpt>
      <trkpt lat="45.69795" lon="4.59825">
        <ele>614</ele>
        <time>2012-10-20T12:43:55Z</time>
      </trkpt>
      <trkpt lat="45.69783" lon="4.59829">
        <ele>613</ele>
        <time>2012-10-20T12:43:57Z</time>
      </trkpt>
      <trkpt lat="45.69766" lon="4.59839">
        <ele>612</ele>
        <time>2012-10-20T12:44:00Z</time>
      </trkpt>
      <trkpt lat="45.69747" lon="4.59855">
        <ele>612</ele>
        <time>2012-10-20T12:44:05Z</time>
      </trkpt>
      <trkpt lat="45.69727" lon="4.59882">
        <ele>610</ele>
        <time>2012-10-20T12:44:12Z</time>
      </trkpt>
      <trkpt lat="45.69723" lon="4.59888">
        <ele>610</ele>
        <time>2012-10-20T12:44:13Z</time>
      </trkpt>
      <trkpt lat="45.69719" lon="4.59896">
        <ele>609</ele>
        <time>2012-10-20T12:44:14Z</time>
      </trkpt>
      <trkpt lat="45.69715" lon="4.59904">
        <ele>609</ele>
        <time>2012-10-20T12:44:15Z</time>
      </trkpt>
      <trkpt lat="45.69709" lon="4.59922">
        <ele>608</ele>
        <time>2012-10-20T12:44:17Z</time>
      </trkpt>
      <trkpt lat="45.697" lon="4.5996">
        <ele>605</ele>
        <time>2012-10-20T12:44:21Z</time>
      </trkpt>
      <trkpt lat="45.69697" lon="4.59968">
        <ele>605</ele>
        <time>2012-10-20T12:44:22Z</time>
      </trkpt>
      <trkpt lat="45.69693" lon="4.59976">
        <ele>604</ele>
        <time>2012-10-20T12:44:23Z</time>
      </trkpt>
      <trkpt lat="45.69685" lon="4.59995">
        <ele>602</ele>
        <time>2012-10-20T12:44:25Z</time>
      </trkpt>
      <trkpt lat="45.69682" lon="4.60005">
        <ele>601</ele>
        <time>2012-10-20T12:44:26Z</time>
      </trkpt>
      <trkpt lat="45.69671" lon="4.60031">
        <ele>600</ele>
        <time>2012-10-20T12:44:29Z</time>
      </trkpt>
      <trkpt lat="45.69648" lon="4.60083">
        <ele>598</ele>
        <time>2012-10-20T12:44:36Z</time>
      </trkpt>
      <trkpt lat="45.69637" lon="4.60129">
        <ele>596</ele>
        <time>2012-10-20T12:44:42Z</time>
      </trkpt>
      <trkpt lat="45.69632" lon="4.60157">
        <ele>595</ele>
        <time>2012-10-20T12:44:47Z</time>
      </trkpt>
      <trkpt lat="45.69628" lon="4.60178">
        <ele>594</ele>
        <time>2012-10-20T12:44:53Z</time>
      </trkpt>
      <trkpt lat="45.69626" lon="4.60192">
        <ele>594</ele>
        <time>2012-10-20T12:44:59Z</time>
      </trkpt>
      <trkpt lat="45.69623" lon="4.60214">
        <ele>592</ele>
        <time>2012-10-20T12:45:05Z</time>
      </trkpt>
      <trkpt lat="45.69621" lon="4.6022">
        <ele>592</ele>
        <time>2012-10-20T12:45:06Z</time>
      </trkpt>
      <trkpt lat="45.6962" lon="4.60226">
        <ele>592</ele>
        <time>2012-10-20T12:45:07Z</time>
      </trkpt>
      <trkpt lat="45.69615" lon="4.60248">
        <ele>589</ele>
        <time>2012-10-20T12:45:11Z</time>
      </trkpt>
      <trkpt lat="45.69612" lon="4.60266">
        <ele>588</ele>
        <time>2012-10-20T12:45:14Z</time>
      </trkpt>
      <trkpt lat="45.69611" lon="4.60273">
        <ele>588</ele>
        <time>2012-10-20T12:45:15Z</time>
      </trkpt>
      <trkpt lat="45.69609" lon="4.60296">
        <ele>587</ele>
        <time>2012-10-20T12:45:18Z</time>
      </trkpt>
      <trkpt lat="45.69605" lon="4.60325">
        <ele>585</ele>
        <time>2012-10-20T12:45:21Z</time>
      </trkpt>
      <trkpt lat="45.696" lon="4.60347">
        <ele>583</ele>
        <time>2012-10-20T12:45:23Z</time>
      </trkpt>
      <trkpt lat="45.69594" lon="4.6038">
        <ele>582</ele>
        <time>2012-10-20T12:45:26Z</time>
      </trkpt>
      <trkpt lat="45.69591" lon="4.60389">
        <ele>581</ele>
        <time>2012-10-20T12:45:27Z</time>
      </trkpt>
      <trkpt lat="45.69581" lon="4.60429">
        <ele>580</ele>
        <time>2012-10-20T12:45:32Z</time>
      </trkpt>
      <trkpt lat="45.69575" lon="4.60447">
        <ele>578</ele>
        <time>2012-10-20T12:45:35Z</time>
      </trkpt>
      <trkpt lat="45.69565" lon="4.60465">
        <ele>575</ele>
        <time>2012-10-20T12:45:38Z</time>
      </trkpt>
      <trkpt lat="45.69559" lon="4.60477">
        <ele>573</ele>
        <time>2012-10-20T12:45:41Z</time>
      </trkpt>
      <trkpt lat="45.69549" lon="4.60495">
        <ele>571</ele>
        <time>2012-10-20T12:45:46Z</time>
      </trkpt>
      <trkpt lat="45.69538" lon="4.60516">
        <ele>568</ele>
        <time>2012-10-20T12:45:49Z</time>
      </trkpt>
      <trkpt lat="45.69527" lon="4.60536">
        <ele>566</ele>
        <time>2012-10-20T12:45:52Z</time>
      </trkpt>
      <trkpt lat="45.69522" lon="4.60542">
        <ele>565</ele>
        <time>2012-10-20T12:45:53Z</time>
      </trkpt>
      <trkpt lat="45.69517" lon="4.60546">
        <ele>563</ele>
        <time>2012-10-20T12:45:54Z</time>
      </trkpt>
      <trkpt lat="45.69513" lon="4.6055">
        <ele>562</ele>
        <time>2012-10-20T12:45:55Z</time>
      </trkpt>
      <trkpt lat="45.69509" lon="4.60554">
        <ele>562</ele>
        <time>2012-10-20T12:45:56Z</time>
      </trkpt>
      <trkpt lat="45.69504" lon="4.60557">
        <ele>561</ele>
        <time>2012-10-20T12:45:57Z</time>
      </trkpt>
      <trkpt lat="45.69499" lon="4.60559">
        <ele>560</ele>
        <time>2012-10-20T12:45:58Z</time>
      </trkpt>
      <trkpt lat="45.69494" lon="4.6056">
        <ele>559</ele>
        <time>2012-10-20T12:45:59Z</time>
      </trkpt>
      <trkpt lat="45.69491" lon="4.60561">
        <ele>559</ele>
        <time>2012-10-20T12:46:00Z</time>
      </trkpt>
      <trkpt lat="45.69489" lon="4.60561">
        <ele>558</ele>
        <time>2012-10-20T12:46:01Z</time>
      </trkpt>
      <trkpt lat="45.69486" lon="4.60561">
        <ele>558</ele>
        <time>2012-10-20T12:46:02Z</time>
      </trkpt>
      <trkpt lat="45.69483" lon="4.6056">
        <ele>558</ele>
        <time>2012-10-20T12:46:03Z</time>
      </trkpt>
      <trkpt lat="45.69481" lon="4.60559">
        <ele>557</ele>
        <time>2012-10-20T12:46:04Z</time>
      </trkpt>
      <trkpt lat="45.6948" lon="4.60557">
        <ele>557</ele>
        <time>2012-10-20T12:46:05Z</time>
      </trkpt>
      <trkpt lat="45.69478" lon="4.60556">
        <ele>556</ele>
        <time>2012-10-20T12:46:06Z</time>
      </trkpt>
      <trkpt lat="45.69476" lon="4.60557">
        <ele>556</ele>
        <time>2012-10-20T12:46:07Z</time>
      </trkpt>
      <trkpt lat="45.69475" lon="4.60559">
        <ele>556</ele>
        <time>2012-10-20T12:46:08Z</time>
      </trkpt>
      <trkpt lat="45.69473" lon="4.60562">
        <ele>556</ele>
        <time>2012-10-20T12:46:09Z</time>
      </trkpt>
      <trkpt lat="45.69472" lon="4.60565">
        <ele>556</ele>
        <time>2012-10-20T12:46:10Z</time>
      </trkpt>
      <trkpt lat="45.69472" lon="4.60569">
        <ele>555</ele>
        <time>2012-10-20T12:46:11Z</time>
      </trkpt>
      <trkpt lat="45.69471" lon="4.60573">
        <ele>555</ele>
        <time>2012-10-20T12:46:12Z</time>
      </trkpt>
      <trkpt lat="45.69471" lon="4.60577">
        <ele>555</ele>
        <time>2012-10-20T12:46:13Z</time>
      </trkpt>
      <trkpt lat="45.69471" lon="4.60585">
        <ele>554</ele>
        <time>2012-10-20T12:46:15Z</time>
      </trkpt>
      <trkpt lat="45.69473" lon="4.60588">
        <ele>553</ele>
        <time>2012-10-20T12:46:16Z</time>
      </trkpt>
      <trkpt lat="45.69475" lon="4.6059">
        <ele>553</ele>
        <time>2012-10-20T12:46:17Z</time>
      </trkpt>
      <trkpt lat="45.69477" lon="4.60595">
        <ele>552</ele>
        <time>2012-10-20T12:46:18Z</time>
      </trkpt>
      <trkpt lat="45.69479" lon="4.606">
        <ele>551</ele>
        <time>2012-10-20T12:46:19Z</time>
      </trkpt>
      <trkpt lat="45.69482" lon="4.60603">
        <ele>550</ele>
        <time>2012-10-20T12:46:20Z</time>
      </trkpt>
      <trkpt lat="45.69489" lon="4.6061">
        <ele>549</ele>
        <time>2012-10-20T12:46:22Z</time>
      </trkpt>
      <trkpt lat="45.69492" lon="4.60612">
        <ele>549</ele>
        <time>2012-10-20T12:46:23Z</time>
      </trkpt>
      <trkpt lat="45.69494" lon="4.60613">
        <ele>548</ele>
        <time>2012-10-20T12:46:24Z</time>
      </trkpt>
      <trkpt lat="45.69497" lon="4.60616">
        <ele>547</ele>
        <time>2012-10-20T12:46:25Z</time>
      </trkpt>
      <trkpt lat="45.69501" lon="4.60621">
        <ele>546</ele>
        <time>2012-10-20T12:46:26Z</time>
      </trkpt>
      <trkpt lat="45.69504" lon="4.60626">
        <ele>545</ele>
        <time>2012-10-20T12:46:27Z</time>
      </trkpt>
      <trkpt lat="45.69508" lon="4.60633">
        <ele>545</ele>
        <time>2012-10-20T12:46:28Z</time>
      </trkpt>
      <trkpt lat="45.6951" lon="4.6064">
        <ele>545</ele>
        <time>2012-10-20T12:46:29Z</time>
      </trkpt>
      <trkpt lat="45.69512" lon="4.60648">
        <ele>543</ele>
        <time>2012-10-20T12:46:30Z</time>
      </trkpt>
      <trkpt lat="45.69513" lon="4.60656">
        <ele>543</ele>
        <time>2012-10-20T12:46:31Z</time>
      </trkpt>
      <trkpt lat="45.69513" lon="4.60671">
        <ele>542</ele>
        <time>2012-10-20T12:46:33Z</time>
      </trkpt>
      <trkpt lat="45.69513" lon="4.60686">
        <ele>539</ele>
        <time>2012-10-20T12:46:35Z</time>
      </trkpt>
      <trkpt lat="45.69512" lon="4.60693">
        <ele>539</ele>
        <time>2012-10-20T12:46:36Z</time>
      </trkpt>
      <trkpt lat="45.69511" lon="4.607">
        <ele>539</ele>
        <time>2012-10-20T12:46:37Z</time>
      </trkpt>
      <trkpt lat="45.69508" lon="4.60705">
        <ele>539</ele>
        <time>2012-10-20T12:46:38Z</time>
      </trkpt>
      <trkpt lat="45.69506" lon="4.60707">
        <ele>539</ele>
        <time>2012-10-20T12:46:39Z</time>
      </trkpt>
      <trkpt lat="45.69504" lon="4.60709">
        <ele>539</ele>
        <time>2012-10-20T12:46:40Z</time>
      </trkpt>
      <trkpt lat="45.69503" lon="4.60711">
        <ele>539</ele>
        <time>2012-10-20T12:46:41Z</time>
      </trkpt>
      <trkpt lat="45.69492" lon="4.60718">
        <ele>539</ele>
        <time>2012-10-20T12:46:47Z</time>
      </trkpt>
      <trkpt lat="45.69475" lon="4.60726">
        <ele>538</ele>
        <time>2012-10-20T12:46:52Z</time>
      </trkpt>
      <trkpt lat="45.69463" lon="4.60736">
        <ele>537</ele>
        <time>2012-10-20T12:46:55Z</time>
      </trkpt>
      <trkpt lat="45.69459" lon="4.6074">
        <ele>537</ele>
        <time>2012-10-20T12:46:56Z</time>
      </trkpt>
      <trkpt lat="45.69452" lon="4.60747">
        <ele>536</ele>
        <time>2012-10-20T12:46:58Z</time>
      </trkpt>
      <trkpt lat="45.69442" lon="4.60757">
        <ele>534</ele>
        <time>2012-10-20T12:47:03Z</time>
      </trkpt>
      <trkpt lat="45.69425" lon="4.60776">
        <ele>531</ele>
        <time>2012-10-20T12:47:09Z</time>
      </trkpt>
      <trkpt lat="45.69417" lon="4.60794">
        <ele>527</ele>
        <time>2012-10-20T12:47:13Z</time>
      </trkpt>
      <trkpt lat="45.69408" lon="4.60812">
        <ele>525</ele>
        <time>2012-10-20T12:47:17Z</time>
      </trkpt>
      <trkpt lat="45.69406" lon="4.60817">
        <ele>524</ele>
        <time>2012-10-20T12:47:18Z</time>
      </trkpt>
      <trkpt lat="45.69402" lon="4.60821">
        <ele>524</ele>
        <time>2012-10-20T12:47:19Z</time>
      </trkpt>
      <trkpt lat="45.69399" lon="4.60825">
        <ele>523</ele>
        <time>2012-10-20T12:47:20Z</time>
      </trkpt>
      <trkpt lat="45.69396" lon="4.60829">
        <ele>523</ele>
        <time>2012-10-20T12:47:21Z</time>
      </trkpt>
      <trkpt lat="45.69395" lon="4.60832">
        <ele>522</ele>
        <time>2012-10-20T12:47:22Z</time>
      </trkpt>
      <trkpt lat="45.69393" lon="4.60834">
        <ele>522</ele>
        <time>2012-10-20T12:47:28Z</time>
      </trkpt>
      <trkpt lat="45.69393" lon="4.60834">
        <ele>522</ele>
        <time>2012-10-20T12:47:30Z</time>
      </trkpt>
      <trkpt lat="45.69393" lon="4.60837">
        <ele>522</ele>
        <time>2012-10-20T12:47:36Z</time>
      </trkpt>
      <trkpt lat="45.6939" lon="4.60837">
        <ele>522</ele>
        <time>2012-10-20T12:47:47Z</time>
      </trkpt>
      <trkpt lat="45.69391" lon="4.60836">
        <ele>522</ele>
        <time>2012-10-20T12:47:50Z</time>
      </trkpt>
      <trkpt lat="45.69391" lon="4.60835">
        <ele>522</ele>
        <time>2012-10-20T12:47:51Z</time>
      </trkpt>
      <trkpt lat="45.69392" lon="4.60834">
        <ele>522</ele>
        <time>2012-10-20T12:47:52Z</time>
      </trkpt>
      <trkpt lat="45.69393" lon="4.60832">
        <ele>522</ele>
        <time>2012-10-20T12:47:53Z</time>
      </trkpt>
      <trkpt lat="45.69394" lon="4.60831">
        <ele>523</ele>
        <time>2012-10-20T12:47:54Z</time>
      </trkpt>
      <trkpt lat="45.69397" lon="4.60824">
        <ele>523</ele>
        <time>2012-10-20T12:47:59Z</time>
      </trkpt>
      <trkpt lat="45.69398" lon="4.60823">
        <ele>523</ele>
        <time>2012-10-20T12:48:00Z</time>
      </trkpt>
      <trkpt lat="45.69399" lon="4.60822">
        <ele>524</ele>
        <time>2012-10-20T12:48:01Z</time>
      </trkpt>
      <trkpt lat="45.694" lon="4.6082">
        <ele>524</ele>
        <time>2012-10-20T12:48:02Z</time>
      </trkpt>
      <trkpt lat="45.69401" lon="4.60818">
        <ele>525</ele>
        <time>2012-10-20T12:48:03Z</time>
      </trkpt>
      <trkpt lat="45.69404" lon="4.60813">
        <ele>526</ele>
        <time>2012-10-20T12:48:06Z</time>
      </trkpt>
      <trkpt lat="45.69409" lon="4.60801">
        <ele>528</ele>
        <time>2012-10-20T12:48:13Z</time>
      </trkpt>
      <trkpt lat="45.69409" lon="4.60799">
        <ele>529</ele>
        <time>2012-10-20T12:48:14Z</time>
      </trkpt>
      <trkpt lat="45.6941" lon="4.60795">
        <ele>529</ele>
        <time>2012-10-20T12:48:16Z</time>
      </trkpt>
      <trkpt lat="45.69411" lon="4.60793">
        <ele>529</ele>
        <time>2012-10-20T12:48:17Z</time>
      </trkpt>
      <trkpt lat="45.69412" lon="4.60791">
        <ele>529</ele>
        <time>2012-10-20T12:48:18Z</time>
      </trkpt>
      <trkpt lat="45.69414" lon="4.6079">
        <ele>529</ele>
        <time>2012-10-20T12:48:19Z</time>
      </trkpt>
      <trkpt lat="45.69415" lon="4.60789">
        <ele>529</ele>
        <time>2012-10-20T12:48:20Z</time>
      </trkpt>
      <trkpt lat="45.69416" lon="4.60788">
        <ele>530</ele>
        <time>2012-10-20T12:48:21Z</time>
      </trkpt>
      <trkpt lat="45.69417" lon="4.60786">
        <ele>530</ele>
        <time>2012-10-20T12:48:22Z</time>
      </trkpt>
      <trkpt lat="45.69419" lon="4.60785">
        <ele>531</ele>
        <time>2012-10-20T12:48:23Z</time>
      </trkpt>
      <trkpt lat="45.6942" lon="4.60782">
        <ele>532</ele>
        <time>2012-10-20T12:48:25Z</time>
      </trkpt>
      <trkpt lat="45.69428" lon="4.60774">
        <ele>532</ele>
        <time>2012-10-20T12:48:32Z</time>
      </trkpt>
      <trkpt lat="45.69438" lon="4.60768">
        <ele>535</ele>
        <time>2012-10-20T12:48:40Z</time>
      </trkpt>
      <trkpt lat="45.69439" lon="4.6077">
        <ele>535</ele>
        <time>2012-10-20T12:48:42Z</time>
      </trkpt>
      <trkpt lat="45.69439" lon="4.60771">
        <ele>535</ele>
        <time>2012-10-20T12:48:43Z</time>
      </trkpt>
      <trkpt lat="45.69438" lon="4.60783">
        <ele>537</ele>
        <time>2012-10-20T12:48:51Z</time>
      </trkpt>
      <trkpt lat="45.69438" lon="4.60795">
        <ele>537</ele>
        <time>2012-10-20T12:48:59Z</time>
      </trkpt>
      <trkpt lat="45.69438" lon="4.60805">
        <ele>538</ele>
        <time>2012-10-20T12:49:07Z</time>
      </trkpt>
      <trkpt lat="45.69438" lon="4.60815">
        <ele>539</ele>
        <time>2012-10-20T12:49:14Z</time>
      </trkpt>
      <trkpt lat="45.69437" lon="4.60826">
        <ele>540</ele>
        <time>2012-10-20T12:49:21Z</time>
      </trkpt>
      <trkpt lat="45.69436" lon="4.60847">
        <ele>541</ele>
        <time>2012-10-20T12:49:31Z</time>
      </trkpt>
      <trkpt lat="45.69435" lon="4.60858">
        <ele>542</ele>
        <time>2012-10-20T12:49:38Z</time>
      </trkpt>
      <trkpt lat="45.69437" lon="4.60872">
        <ele>542</ele>
        <time>2012-10-20T12:49:47Z</time>
      </trkpt>
      <trkpt lat="45.69439" lon="4.60882">
        <ele>543</ele>
        <time>2012-10-20T12:49:54Z</time>
      </trkpt>
      <trkpt lat="45.69441" lon="4.60885">
        <ele>543</ele>
        <time>2012-10-20T12:49:56Z</time>
      </trkpt>
      <trkpt lat="45.69444" lon="4.60885">
        <ele>544</ele>
        <time>2012-10-20T12:50:02Z</time>
      </trkpt>
      <trkpt lat="45.69443" lon="4.60884">
        <ele>545</ele>
        <time>2012-10-20T12:50:09Z</time>
      </trkpt>
      <trkpt lat="45.69445" lon="4.60878">
        <ele>546</ele>
        <time>2012-10-20T12:50:17Z</time>
      </trkpt>
      <trkpt lat="45.6945" lon="4.60866">
        <ele>548</ele>
        <time>2012-10-20T12:50:27Z</time>
      </trkpt>
      <trkpt lat="45.69454" lon="4.60858">
        <ele>549</ele>
        <time>2012-10-20T12:50:36Z</time>
      </trkpt>
      <trkpt lat="45.69455" lon="4.60859">
        <ele>549</ele>
        <time>2012-10-20T12:50:43Z</time>
      </trkpt>
      <trkpt lat="45.69456" lon="4.60852">
        <ele>550</ele>
        <time>2012-10-20T12:50:50Z</time>
      </trkpt>
      <trkpt lat="45.69456" lon="4.60849">
        <ele>550</ele>
        <time>2012-10-20T12:50:55Z</time>
      </trkpt>
      <trkpt lat="45.69461" lon="4.60838">
        <ele>550</ele>
        <time>2012-10-20T12:51:03Z</time>
      </trkpt>
      <trkpt lat="45.69469" lon="4.60825">
        <ele>552</ele>
        <time>2012-10-20T12:51:12Z</time>
      </trkpt>
      <trkpt lat="45.69479" lon="4.60811">
        <ele>553</ele>
        <time>2012-10-20T12:51:23Z</time>
      </trkpt>
      <trkpt lat="45.69485" lon="4.60805">
        <ele>554</ele>
        <time>2012-10-20T12:51:28Z</time>
      </trkpt>
      <trkpt lat="45.69488" lon="4.60801">
        <ele>555</ele>
        <time>2012-10-20T12:51:31Z</time>
      </trkpt>
      <trkpt lat="45.69492" lon="4.60795">
        <ele>555</ele>
        <time>2012-10-20T12:51:35Z</time>
      </trkpt>
      <trkpt lat="45.69496" lon="4.60795">
        <ele>556</ele>
        <time>2012-10-20T12:51:38Z</time>
      </trkpt>
      <trkpt lat="45.69496" lon="4.60798">
        <ele>556</ele>
        <time>2012-10-20T12:51:40Z</time>
      </trkpt>
      <trkpt lat="45.69493" lon="4.60811">
        <ele>558</ele>
        <time>2012-10-20T12:51:48Z</time>
      </trkpt>
      <trkpt lat="45.69493" lon="4.60815">
        <ele>558</ele>
        <time>2012-10-20T12:51:50Z</time>
      </trkpt>
      <trkpt lat="45.69492" lon="4.60829">
        <ele>560</ele>
        <time>2012-10-20T12:51:58Z</time>
      </trkpt>
      <trkpt lat="45.69495" lon="4.60846">
        <ele>562</ele>
        <time>2012-10-20T12:52:08Z</time>
      </trkpt>
      <trkpt lat="45.69495" lon="4.6086">
        <ele>563</ele>
        <time>2012-10-20T12:52:16Z</time>
      </trkpt>
      <trkpt lat="45.69502" lon="4.60877">
        <ele>564</ele>
        <time>2012-10-20T12:52:25Z</time>
      </trkpt>
      <trkpt lat="45.69504" lon="4.6088">
        <ele>565</ele>
        <time>2012-10-20T12:52:30Z</time>
      </trkpt>
      <trkpt lat="45.69507" lon="4.60881">
        <ele>565</ele>
        <time>2012-10-20T12:52:38Z</time>
      </trkpt>
      <trkpt lat="45.69511" lon="4.60883">
        <ele>567</ele>
        <time>2012-10-20T12:52:47Z</time>
      </trkpt>
      <trkpt lat="45.69512" lon="4.60883">
        <ele>567</ele>
        <time>2012-10-20T12:52:58Z</time>
      </trkpt>
      <trkpt lat="45.69514" lon="4.60888">
        <ele>567</ele>
        <time>2012-10-20T12:53:11Z</time>
      </trkpt>
      <trkpt lat="45.6952" lon="4.6089">
        <ele>569</ele>
        <time>2012-10-20T12:53:17Z</time>
      </trkpt>
      <trkpt lat="45.69526" lon="4.60891">
        <ele>570</ele>
        <time>2012-10-20T12:53:23Z</time>
      </trkpt>
      <trkpt lat="45.69531" lon="4.60895">
        <ele>571</ele>
        <time>2012-10-20T12:53:30Z</time>
      </trkpt>
      <trkpt lat="45.69534" lon="4.60898">
        <ele>571</ele>
        <time>2012-10-20T12:53:41Z</time>
      </trkpt>
      <trkpt lat="45.69532" lon="4.60899">
        <ele>571</ele>
        <time>2012-10-20T12:53:44Z</time>
      </trkpt>
      <trkpt lat="45.69533" lon="4.60905">
        <ele>571</ele>
        <time>2012-10-20T12:53:47Z</time>
      </trkpt>
      <trkpt lat="45.69536" lon="4.60929">
        <ele>569</ele>
        <time>2012-10-20T12:53:51Z</time>
      </trkpt>
      <trkpt lat="45.69537" lon="4.6094">
        <ele>569</ele>
        <time>2012-10-20T12:53:53Z</time>
      </trkpt>
      <trkpt lat="45.69536" lon="4.60946">
        <ele>569</ele>
        <time>2012-10-20T12:53:54Z</time>
      </trkpt>
      <trkpt lat="45.69534" lon="4.60949">
        <ele>568</ele>
        <time>2012-10-20T12:53:55Z</time>
      </trkpt>
      <trkpt lat="45.69533" lon="4.60952">
        <ele>569</ele>
        <time>2012-10-20T12:53:56Z</time>
      </trkpt>
      <trkpt lat="45.69533" lon="4.60954">
        <ele>569</ele>
        <time>2012-10-20T12:53:57Z</time>
      </trkpt>
      <trkpt lat="45.69532" lon="4.60956">
        <ele>569</ele>
        <time>2012-10-20T12:53:58Z</time>
      </trkpt>
      <trkpt lat="45.69531" lon="4.60957">
        <ele>570</ele>
        <time>2012-10-20T12:53:59Z</time>
      </trkpt>
      <trkpt lat="45.69527" lon="4.60961">
        <ele>571</ele>
        <time>2012-10-20T12:54:03Z</time>
      </trkpt>
      <trkpt lat="45.6952" lon="4.60972">
        <ele>574</ele>
        <time>2012-10-20T12:54:09Z</time>
      </trkpt>
      <trkpt lat="45.69511" lon="4.60987">
        <ele>576</ele>
        <time>2012-10-20T12:54:16Z</time>
      </trkpt>
      <trkpt lat="45.69509" lon="4.60991">
        <ele>577</ele>
        <time>2012-10-20T12:54:18Z</time>
      </trkpt>
      <trkpt lat="45.69508" lon="4.60993">
        <ele>577</ele>
        <time>2012-10-20T12:54:19Z</time>
      </trkpt>
      <trkpt lat="45.69507" lon="4.60994">
        <ele>578</ele>
        <time>2012-10-20T12:54:20Z</time>
      </trkpt>
      <trkpt lat="45.69506" lon="4.60995">
        <ele>578</ele>
        <time>2012-10-20T12:54:21Z</time>
      </trkpt>
      <trkpt lat="45.69502" lon="4.61">
        <ele>577</ele>
        <time>2012-10-20T12:54:25Z</time>
      </trkpt>
      <trkpt lat="45.69497" lon="4.61005">
        <ele>579</ele>
        <time>2012-10-20T12:54:32Z</time>
      </trkpt>
      <trkpt lat="45.69496" lon="4.61007">
        <ele>579</ele>
        <time>2012-10-20T12:54:33Z</time>
      </trkpt>
      <trkpt lat="45.69492" lon="4.61017">
        <ele>581</ele>
        <time>2012-10-20T12:54:40Z</time>
      </trkpt>
      <trkpt lat="45.69488" lon="4.61029">
        <ele>583</ele>
        <time>2012-10-20T12:54:48Z</time>
      </trkpt>
      <trkpt lat="45.69488" lon="4.61032">
        <ele>584</ele>
        <time>2012-10-20T12:54:50Z</time>
      </trkpt>
      <trkpt lat="45.69488" lon="4.61035">
        <ele>584</ele>
        <time>2012-10-20T12:54:51Z</time>
      </trkpt>
      <trkpt lat="45.69485" lon="4.61048">
        <ele>586</ele>
        <time>2012-10-20T12:54:59Z</time>
      </trkpt>
      <trkpt lat="45.69481" lon="4.61057">
        <ele>587</ele>
        <time>2012-10-20T12:55:06Z</time>
      </trkpt>
      <trkpt lat="45.69481" lon="4.61057">
        <ele>587</ele>
        <time>2012-10-20T12:55:17Z</time>
      </trkpt>
      <trkpt lat="45.69482" lon="4.61055">
        <ele>587</ele>
        <time>2012-10-20T12:55:35Z</time>
      </trkpt>
      <trkpt lat="45.69482" lon="4.61055">
        <ele>587</ele>
        <time>2012-10-20T12:55:45Z</time>
      </trkpt>
      <trkpt lat="45.69479" lon="4.6106">
        <ele>587</ele>
        <time>2012-10-20T12:55:54Z</time>
      </trkpt>
      <trkpt lat="45.69478" lon="4.61062">
        <ele>588</ele>
        <time>2012-10-20T12:55:55Z</time>
      </trkpt>
      <trkpt lat="45.69478" lon="4.61065">
        <ele>588</ele>
        <time>2012-10-20T12:55:56Z</time>
      </trkpt>
      <trkpt lat="45.69479" lon="4.61067">
        <ele>588</ele>
        <time>2012-10-20T12:55:57Z</time>
      </trkpt>
      <trkpt lat="45.69479" lon="4.61069">
        <ele>588</ele>
        <time>2012-10-20T12:55:58Z</time>
      </trkpt>
      <trkpt lat="45.69478" lon="4.61072">
        <ele>589</ele>
        <time>2012-10-20T12:56:00Z</time>
      </trkpt>
      <trkpt lat="45.69477" lon="4.61074">
        <ele>589</ele>
        <time>2012-10-20T12:56:01Z</time>
      </trkpt>
      <trkpt lat="45.69476" lon="4.61075">
        <ele>589</ele>
        <time>2012-10-20T12:56:02Z</time>
      </trkpt>
      <trkpt lat="45.69473" lon="4.61089">
        <ele>590</ele>
        <time>2012-10-20T12:56:09Z</time>
      </trkpt>
      <trkpt lat="45.69473" lon="4.61091">
        <ele>590</ele>
        <time>2012-10-20T12:56:10Z</time>
      </trkpt>
      <trkpt lat="45.69472" lon="4.61093">
        <ele>590</ele>
        <time>2012-10-20T12:56:11Z</time>
      </trkpt>
      <trkpt lat="45.69471" lon="4.61095">
        <ele>590</ele>
        <time>2012-10-20T12:56:12Z</time>
      </trkpt>
      <trkpt lat="45.69471" lon="4.61097">
        <ele>591</ele>
        <time>2012-10-20T12:56:13Z</time>
      </trkpt>
      <trkpt lat="45.6947" lon="4.61099">
        <ele>591</ele>
        <time>2012-10-20T12:56:14Z</time>
      </trkpt>
      <trkpt lat="45.6947" lon="4.61101">
        <ele>591</ele>
        <time>2012-10-20T12:56:15Z</time>
      </trkpt>
      <trkpt lat="45.6947" lon="4.61103">
        <ele>591</ele>
        <time>2012-10-20T12:56:16Z</time>
      </trkpt>
      <trkpt lat="45.6947" lon="4.61105">
        <ele>592</ele>
        <time>2012-10-20T12:56:17Z</time>
      </trkpt>
      <trkpt lat="45.69474" lon="4.6112">
        <ele>593</ele>
        <time>2012-10-20T12:56:25Z</time>
      </trkpt>
      <trkpt lat="45.69477" lon="4.61133">
        <ele>595</ele>
        <time>2012-10-20T12:56:33Z</time>
      </trkpt>
      <trkpt lat="45.69479" lon="4.61148">
        <ele>598</ele>
        <time>2012-10-20T12:56:41Z</time>
      </trkpt>
      <trkpt lat="45.69481" lon="4.61155">
        <ele>598</ele>
        <time>2012-10-20T12:56:46Z</time>
      </trkpt>
      <trkpt lat="45.69482" lon="4.61157">
        <ele>598</ele>
        <time>2012-10-20T12:56:47Z</time>
      </trkpt>
      <trkpt lat="45.69485" lon="4.61166">
        <ele>600</ele>
        <time>2012-10-20T12:56:54Z</time>
      </trkpt>
      <trkpt lat="45.6949" lon="4.61178">
        <ele>600</ele>
        <time>2012-10-20T12:57:02Z</time>
      </trkpt>
      <trkpt lat="45.69493" lon="4.61187">
        <ele>601</ele>
        <time>2012-10-20T12:57:09Z</time>
      </trkpt>
      <trkpt lat="45.69496" lon="4.61198">
        <ele>602</ele>
        <time>2012-10-20T12:57:17Z</time>
      </trkpt>
      <trkpt lat="45.69501" lon="4.61207">
        <ele>603</ele>
        <time>2012-10-20T12:57:24Z</time>
      </trkpt>
      <trkpt lat="45.69506" lon="4.61217">
        <ele>605</ele>
        <time>2012-10-20T12:57:31Z</time>
      </trkpt>
      <trkpt lat="45.69509" lon="4.61225">
        <ele>606</ele>
        <time>2012-10-20T12:57:36Z</time>
      </trkpt>
      <trkpt lat="45.6951" lon="4.61226">
        <ele>606</ele>
        <time>2012-10-20T12:57:37Z</time>
      </trkpt>
      <trkpt lat="45.69512" lon="4.61228">
        <ele>607</ele>
        <time>2012-10-20T12:57:38Z</time>
      </trkpt>
      <trkpt lat="45.69513" lon="4.61231">
        <ele>608</ele>
        <time>2012-10-20T12:57:39Z</time>
      </trkpt>
      <trkpt lat="45.69513" lon="4.61233">
        <ele>608</ele>
        <time>2012-10-20T12:57:40Z</time>
      </trkpt>
      <trkpt lat="45.69514" lon="4.61235">
        <ele>608</ele>
        <time>2012-10-20T12:57:41Z</time>
      </trkpt>
      <trkpt lat="45.69517" lon="4.61244">
        <ele>610</ele>
        <time>2012-10-20T12:57:46Z</time>
      </trkpt>
      <trkpt lat="45.69518" lon="4.61246">
        <ele>610</ele>
        <time>2012-10-20T12:57:48Z</time>
      </trkpt>
      <trkpt lat="45.6952" lon="4.61246">
        <ele>610</ele>
        <time>2012-10-20T12:57:50Z</time>
      </trkpt>
      <trkpt lat="45.69521" lon="4.61245">
        <ele>610</ele>
        <time>2012-10-20T12:57:51Z</time>
      </trkpt>
      <trkpt lat="45.6952" lon="4.61242">
        <ele>610</ele>
        <time>2012-10-20T12:57:53Z</time>
      </trkpt>
      <trkpt lat="45.6952" lon="4.61227">
        <ele>611</ele>
        <time>2012-10-20T12:58:02Z</time>
      </trkpt>
      <trkpt lat="45.69521" lon="4.61211">
        <ele>612</ele>
        <time>2012-10-20T12:58:12Z</time>
      </trkpt>
      <trkpt lat="45.69522" lon="4.61198">
        <ele>612</ele>
        <time>2012-10-20T12:58:19Z</time>
      </trkpt>
      <trkpt lat="45.69524" lon="4.61182">
        <ele>613</ele>
        <time>2012-10-20T12:58:27Z</time>
      </trkpt>
      <trkpt lat="45.69527" lon="4.61162">
        <ele>614</ele>
        <time>2012-10-20T12:58:36Z</time>
      </trkpt>
      <trkpt lat="45.69532" lon="4.61143">
        <ele>615</ele>
        <time>2012-10-20T12:58:45Z</time>
      </trkpt>
      <trkpt lat="45.69539" lon="4.61128">
        <ele>617</ele>
        <time>2012-10-20T12:58:53Z</time>
      </trkpt>
      <trkpt lat="45.69553" lon="4.61115">
        <ele>617</ele>
        <time>2012-10-20T12:59:03Z</time>
      </trkpt>
      <trkpt lat="45.69565" lon="4.61113">
        <ele>618</ele>
        <time>2012-10-20T12:59:11Z</time>
      </trkpt>
      <trkpt lat="45.69578" lon="4.61116">
        <ele>619</ele>
        <time>2012-10-20T12:59:20Z</time>
      </trkpt>
      <trkpt lat="45.69592" lon="4.61122">
        <ele>620</ele>
        <time>2012-10-20T12:59:29Z</time>
      </trkpt>
      <trkpt lat="45.69603" lon="4.61123">
        <ele>621</ele>
        <time>2012-10-20T12:59:36Z</time>
      </trkpt>
      <trkpt lat="45.69615" lon="4.6112">
        <ele>623</ele>
        <time>2012-10-20T12:59:44Z</time>
      </trkpt>
      <trkpt lat="45.69625" lon="4.61115">
        <ele>623</ele>
        <time>2012-10-20T12:59:51Z</time>
      </trkpt>
      <trkpt lat="45.69633" lon="4.61103">
        <ele>624</ele>
        <time>2012-10-20T12:59:59Z</time>
      </trkpt>
      <trkpt lat="45.69634" lon="4.61101">
        <ele>624</ele>
        <time>2012-10-20T13:00:00Z</time>
      </trkpt>
      <trkpt lat="45.69635" lon="4.611">
        <ele>624</ele>
        <time>2012-10-20T13:00:01Z</time>
      </trkpt>
      <trkpt lat="45.69637" lon="4.61099">
        <ele>625</ele>
        <time>2012-10-20T13:00:02Z</time>
      </trkpt>
      <trkpt lat="45.69638" lon="4.61099">
        <ele>625</ele>
        <time>2012-10-20T13:00:03Z</time>
      </trkpt>
      <trkpt lat="45.6964" lon="4.611">
        <ele>625</ele>
        <time>2012-10-20T13:00:04Z</time>
      </trkpt>
      <trkpt lat="45.69641" lon="4.61102">
        <ele>625</ele>
        <time>2012-10-20T13:00:05Z</time>
      </trkpt>
      <trkpt lat="45.69641" lon="4.61104">
        <ele>625</ele>
        <time>2012-10-20T13:00:06Z</time>
      </trkpt>
      <trkpt lat="45.69641" lon="4.61106">
        <ele>625</ele>
        <time>2012-10-20T13:00:07Z</time>
      </trkpt>
      <trkpt lat="45.69641" lon="4.61112">
        <ele>626</ele>
        <time>2012-10-20T13:00:10Z</time>
      </trkpt>
      <trkpt lat="45.6964" lon="4.61113">
        <ele>626</ele>
        <time>2012-10-20T13:00:11Z</time>
      </trkpt>
      <trkpt lat="45.69639" lon="4.61114">
        <ele>626</ele>
        <time>2012-10-20T13:00:12Z</time>
      </trkpt>
      <trkpt lat="45.69639" lon="4.61116">
        <ele>626</ele>
        <time>2012-10-20T13:00:13Z</time>
      </trkpt>
      <trkpt lat="45.69638" lon="4.61118">
        <ele>626</ele>
        <time>2012-10-20T13:00:14Z</time>
      </trkpt>
      <trkpt lat="45.69637" lon="4.61119">
        <ele>626</ele>
        <time>2012-10-20T13:00:15Z</time>
      </trkpt>
      <trkpt lat="45.69636" lon="4.61121">
        <ele>627</ele>
        <time>2012-10-20T13:00:16Z</time>
      </trkpt>
      <trkpt lat="45.69635" lon="4.61123">
        <ele>627</ele>
        <time>2012-10-20T13:00:17Z</time>
      </trkpt>
      <trkpt lat="45.69634" lon="4.61125">
        <ele>627</ele>
        <time>2012-10-20T13:00:18Z</time>
      </trkpt>
      <trkpt lat="45.69627" lon="4.61137">
        <ele>629</ele>
        <time>2012-10-20T13:00:26Z</time>
      </trkpt>
      <trkpt lat="45.69625" lon="4.61139">
        <ele>629</ele>
        <time>2012-10-20T13:00:28Z</time>
      </trkpt>
      <trkpt lat="45.69624" lon="4.6114">
        <ele>629</ele>
        <time>2012-10-20T13:00:29Z</time>
      </trkpt>
      <trkpt lat="45.69618" lon="4.61151">
        <ele>632</ele>
        <time>2012-10-20T13:00:37Z</time>
      </trkpt>
      <trkpt lat="45.69612" lon="4.61162">
        <ele>633</ele>
        <time>2012-10-20T13:00:45Z</time>
      </trkpt>
      <trkpt lat="45.69611" lon="4.61163">
        <ele>633</ele>
        <time>2012-10-20T13:00:46Z</time>
      </trkpt>
      <trkpt lat="45.69608" lon="4.61168">
        <ele>633</ele>
        <time>2012-10-20T13:00:50Z</time>
      </trkpt>
      <trkpt lat="45.69597" lon="4.61181">
        <ele>634</ele>
        <time>2012-10-20T13:00:59Z</time>
      </trkpt>
      <trkpt lat="45.69591" lon="4.61194">
        <ele>635</ele>
        <time>2012-10-20T13:01:08Z</time>
      </trkpt>
      <trkpt lat="45.69591" lon="4.61197">
        <ele>635</ele>
        <time>2012-10-20T13:01:23Z</time>
      </trkpt>
      <trkpt lat="45.6959" lon="4.61199">
        <ele>635</ele>
        <time>2012-10-20T13:01:34Z</time>
      </trkpt>
      <trkpt lat="45.69588" lon="4.61202">
        <ele>635</ele>
        <time>2012-10-20T13:01:45Z</time>
      </trkpt>
      <trkpt lat="45.69585" lon="4.61214">
        <ele>635</ele>
        <time>2012-10-20T13:01:52Z</time>
      </trkpt>
      <trkpt lat="45.69584" lon="4.61224">
        <ele>634</ele>
        <time>2012-10-20T13:01:57Z</time>
      </trkpt>
      <trkpt lat="45.69583" lon="4.61247">
        <ele>634</ele>
        <time>2012-10-20T13:02:04Z</time>
      </trkpt>
      <trkpt lat="45.69585" lon="4.61281">
        <ele>634</ele>
        <time>2012-10-20T13:02:12Z</time>
      </trkpt>
      <trkpt lat="45.69588" lon="4.61304">
        <ele>634</ele>
        <time>2012-10-20T13:02:19Z</time>
      </trkpt>
      <trkpt lat="45.69596" lon="4.61326">
        <ele>635</ele>
        <time>2012-10-20T13:02:27Z</time>
      </trkpt>
      <trkpt lat="45.69598" lon="4.61333">
        <ele>636</ele>
        <time>2012-10-20T13:02:30Z</time>
      </trkpt>
      <trkpt lat="45.69599" lon="4.61335">
        <ele>636</ele>
        <time>2012-10-20T13:02:31Z</time>
      </trkpt>
      <trkpt lat="45.696" lon="4.61337">
        <ele>636</ele>
        <time>2012-10-20T13:02:32Z</time>
      </trkpt>
      <trkpt lat="45.69601" lon="4.6134">
        <ele>637</ele>
        <time>2012-10-20T13:02:33Z</time>
      </trkpt>
      <trkpt lat="45.69601" lon="4.61342">
        <ele>636</ele>
        <time>2012-10-20T13:02:34Z</time>
      </trkpt>
      <trkpt lat="45.69602" lon="4.61346">
        <ele>637</ele>
        <time>2012-10-20T13:02:35Z</time>
      </trkpt>
      <trkpt lat="45.69603" lon="4.61349">
        <ele>637</ele>
        <time>2012-10-20T13:02:36Z</time>
      </trkpt>
      <trkpt lat="45.69604" lon="4.61352">
        <ele>637</ele>
        <time>2012-10-20T13:02:37Z</time>
      </trkpt>
      <trkpt lat="45.69604" lon="4.61355">
        <ele>637</ele>
        <time>2012-10-20T13:02:38Z</time>
      </trkpt>
      <trkpt lat="45.69605" lon="4.61358">
        <ele>637</ele>
        <time>2012-10-20T13:02:39Z</time>
      </trkpt>
      <trkpt lat="45.69608" lon="4.61372">
        <ele>637</ele>
        <time>2012-10-20T13:02:44Z</time>
      </trkpt>
      <trkpt lat="45.69609" lon="4.61374">
        <ele>637</ele>
        <time>2012-10-20T13:02:45Z</time>
      </trkpt>
      <trkpt lat="45.69616" lon="4.61398">
        <ele>639</ele>
        <time>2012-10-20T13:02:53Z</time>
      </trkpt>
      <trkpt lat="45.69622" lon="4.61428">
        <ele>640</ele>
        <time>2012-10-20T13:03:02Z</time>
      </trkpt>
      <trkpt lat="45.69626" lon="4.61441">
        <ele>641</ele>
        <time>2012-10-20T13:03:09Z</time>
      </trkpt>
      <trkpt lat="45.69627" lon="4.61449">
        <ele>642</ele>
        <time>2012-10-20T13:03:13Z</time>
      </trkpt>
      <trkpt lat="45.69628" lon="4.61452">
        <ele>641</ele>
        <time>2012-10-20T13:03:14Z</time>
      </trkpt>
      <trkpt lat="45.69628" lon="4.61454">
        <ele>641</ele>
        <time>2012-10-20T13:03:15Z</time>
      </trkpt>
      <trkpt lat="45.69628" lon="4.61457">
        <ele>642</ele>
        <time>2012-10-20T13:03:16Z</time>
      </trkpt>
      <trkpt lat="45.69628" lon="4.61459">
        <ele>641</ele>
        <time>2012-10-20T13:03:17Z</time>
      </trkpt>
      <trkpt lat="45.69628" lon="4.61462">
        <ele>642</ele>
        <time>2012-10-20T13:03:18Z</time>
      </trkpt>
      <trkpt lat="45.69628" lon="4.61464">
        <ele>642</ele>
        <time>2012-10-20T13:03:19Z</time>
      </trkpt>
      <trkpt lat="45.69628" lon="4.61466">
        <ele>642</ele>
        <time>2012-10-20T13:03:20Z</time>
      </trkpt>
      <trkpt lat="45.69628" lon="4.61469">
        <ele>641</ele>
        <time>2012-10-20T13:03:21Z</time>
      </trkpt>
      <trkpt lat="45.69628" lon="4.6147">
        <ele>641</ele>
        <time>2012-10-20T13:03:22Z</time>
      </trkpt>
      <trkpt lat="45.69628" lon="4.61474">
        <ele>640</ele>
        <time>2012-10-20T13:03:28Z</time>
      </trkpt>
      <trkpt lat="45.69627" lon="4.61479">
        <ele>641</ele>
        <time>2012-10-20T13:03:46Z</time>
      </trkpt>
      <trkpt lat="45.69628" lon="4.61481">
        <ele>641</ele>
        <time>2012-10-20T13:03:54Z</time>
      </trkpt>
      <trkpt lat="45.69628" lon="4.61486">
        <ele>642</ele>
        <time>2012-10-20T13:04:04Z</time>
      </trkpt>
      <trkpt lat="45.69629" lon="4.61488">
        <ele>641</ele>
        <time>2012-10-20T13:04:26Z</time>
      </trkpt>
      <trkpt lat="45.69627" lon="4.61487">
        <ele>641</ele>
        <time>2012-10-20T13:04:45Z</time>
      </trkpt>
      <trkpt lat="45.6963" lon="4.61486">
        <ele>641</ele>
        <time>2012-10-20T13:05:10Z</time>
      </trkpt>
      <trkpt lat="45.69631" lon="4.61486">
        <ele>641</ele>
        <time>2012-10-20T13:05:30Z</time>
      </trkpt>
      <trkpt lat="45.6963" lon="4.61484">
        <ele>641</ele>
        <time>2012-10-20T13:05:47Z</time>
      </trkpt>
      <trkpt lat="45.69632" lon="4.61484">
        <ele>641</ele>
        <time>2012-10-20T13:06:10Z</time>
      </trkpt>
      <trkpt lat="45.69631" lon="4.61486">
        <ele>641</ele>
        <time>2012-10-20T13:06:25Z</time>
      </trkpt>
      <trkpt lat="45.69632" lon="4.61485">
        <ele>641</ele>
        <time>2012-10-20T13:06:42Z</time>
      </trkpt>
      <trkpt lat="45.69628" lon="4.61485">
        <ele>642</ele>
        <time>2012-10-20T13:07:07Z</time>
      </trkpt>
      <trkpt lat="45.69628" lon="4.61482">
        <ele>642</ele>
        <time>2012-10-20T13:07:18Z</time>
      </trkpt>
      <trkpt lat="45.69628" lon="4.61482">
        <ele>642</ele>
        <time>2012-10-20T13:07:23Z</time>
      </trkpt>
      <trkpt lat="45.6963" lon="4.61485">
        <ele>642</ele>
        <time>2012-10-20T13:07:27Z</time>
      </trkpt>
      <trkpt lat="45.6963" lon="4.61487">
        <ele>641</ele>
        <time>2012-10-20T13:07:28Z</time>
      </trkpt>
      <trkpt lat="45.69634" lon="4.61508">
        <ele>645</ele>
        <time>2012-10-20T13:07:37Z</time>
      </trkpt>
      <trkpt lat="45.69636" lon="4.61527">
        <ele>647</ele>
        <time>2012-10-20T13:07:46Z</time>
      </trkpt>
      <trkpt lat="45.69637" lon="4.61545">
        <ele>647</ele>
        <time>2012-10-20T13:07:54Z</time>
      </trkpt>
      <trkpt lat="45.6964" lon="4.6156">
        <ele>648</ele>
        <time>2012-10-20T13:08:01Z</time>
      </trkpt>
      <trkpt lat="45.69643" lon="4.61579">
        <ele>649</ele>
        <time>2012-10-20T13:08:10Z</time>
      </trkpt>
      <trkpt lat="45.69644" lon="4.61584">
        <ele>649</ele>
        <time>2012-10-20T13:08:12Z</time>
      </trkpt>
      <trkpt lat="45.69645" lon="4.61596">
        <ele>651</ele>
        <time>2012-10-20T13:08:18Z</time>
      </trkpt>
      <trkpt lat="45.69645" lon="4.61599">
        <ele>651</ele>
        <time>2012-10-20T13:08:19Z</time>
      </trkpt>
      <trkpt lat="45.69645" lon="4.61608">
        <ele>652</ele>
        <time>2012-10-20T13:08:24Z</time>
      </trkpt>
      <trkpt lat="45.69645" lon="4.61621">
        <ele>653</ele>
        <time>2012-10-20T13:08:30Z</time>
      </trkpt>
      <trkpt lat="45.69648" lon="4.61648">
        <ele>654</ele>
        <time>2012-10-20T13:08:41Z</time>
      </trkpt>
      <trkpt lat="45.69649" lon="4.61663">
        <ele>656</ele>
        <time>2012-10-20T13:08:48Z</time>
      </trkpt>
      <trkpt lat="45.69651" lon="4.61669">
        <ele>656</ele>
        <time>2012-10-20T13:08:51Z</time>
      </trkpt>
      <trkpt lat="45.69651" lon="4.61671">
        <ele>656</ele>
        <time>2012-10-20T13:08:52Z</time>
      </trkpt>
      <trkpt lat="45.69652" lon="4.61674">
        <ele>656</ele>
        <time>2012-10-20T13:08:53Z</time>
      </trkpt>
      <trkpt lat="45.69658" lon="4.61692">
        <ele>657</ele>
        <time>2012-10-20T13:09:01Z</time>
      </trkpt>
      <trkpt lat="45.69661" lon="4.61706">
        <ele>657</ele>
        <time>2012-10-20T13:09:08Z</time>
      </trkpt>
      <trkpt lat="45.69663" lon="4.61725">
        <ele>657</ele>
        <time>2012-10-20T13:09:12Z</time>
      </trkpt>
      <trkpt lat="45.69663" lon="4.61732">
        <ele>657</ele>
        <time>2012-10-20T13:09:13Z</time>
      </trkpt>
      <trkpt lat="45.69665" lon="4.61738">
        <ele>657</ele>
        <time>2012-10-20T13:09:14Z</time>
      </trkpt>
      <trkpt lat="45.69667" lon="4.61743">
        <ele>657</ele>
        <time>2012-10-20T13:09:15Z</time>
      </trkpt>
      <trkpt lat="45.69669" lon="4.61748">
        <ele>656</ele>
        <time>2012-10-20T13:09:16Z</time>
      </trkpt>
      <trkpt lat="45.69672" lon="4.61752">
        <ele>656</ele>
        <time>2012-10-20T13:09:17Z</time>
      </trkpt>
      <trkpt lat="45.69674" lon="4.61756">
        <ele>656</ele>
        <time>2012-10-20T13:09:18Z</time>
      </trkpt>
      <trkpt lat="45.69676" lon="4.61759">
        <ele>657</ele>
        <time>2012-10-20T13:09:19Z</time>
      </trkpt>
      <trkpt lat="45.69678" lon="4.61763">
        <ele>656</ele>
        <time>2012-10-20T13:09:20Z</time>
      </trkpt>
      <trkpt lat="45.69679" lon="4.61766">
        <ele>656</ele>
        <time>2012-10-20T13:09:21Z</time>
      </trkpt>
      <trkpt lat="45.69696" lon="4.61787">
        <ele>657</ele>
        <time>2012-10-20T13:09:29Z</time>
      </trkpt>
      <trkpt lat="45.69711" lon="4.61798">
        <ele>659</ele>
        <time>2012-10-20T13:09:36Z</time>
      </trkpt>
      <trkpt lat="45.69725" lon="4.61808">
        <ele>660</ele>
        <time>2012-10-20T13:09:43Z</time>
      </trkpt>
      <trkpt lat="45.69743" lon="4.61825">
        <ele>662</ele>
        <time>2012-10-20T13:09:51Z</time>
      </trkpt>
      <trkpt lat="45.69761" lon="4.61841">
        <ele>663</ele>
        <time>2012-10-20T13:10:00Z</time>
      </trkpt>
      <trkpt lat="45.69769" lon="4.61849">
        <ele>664</ele>
        <time>2012-10-20T13:10:08Z</time>
      </trkpt>
      <trkpt lat="45.69777" lon="4.6186">
        <ele>665</ele>
        <time>2012-10-20T13:10:15Z</time>
      </trkpt>
      <trkpt lat="45.69788" lon="4.61876">
        <ele>667</ele>
        <time>2012-10-20T13:10:24Z</time>
      </trkpt>
      <trkpt lat="45.69798" lon="4.61892">
        <ele>668</ele>
        <time>2012-10-20T13:10:33Z</time>
      </trkpt>
      <trkpt lat="45.698" lon="4.61894">
        <ele>669</ele>
        <time>2012-10-20T13:10:35Z</time>
      </trkpt>
      <trkpt lat="45.69802" lon="4.61897">
        <ele>669</ele>
        <time>2012-10-20T13:10:41Z</time>
      </trkpt>
      <trkpt lat="45.69804" lon="4.61901">
        <ele>670</ele>
        <time>2012-10-20T13:10:48Z</time>
      </trkpt>
      <trkpt lat="45.69804" lon="4.61901">
        <ele>670</ele>
        <time>2012-10-20T13:10:59Z</time>
      </trkpt>
      <trkpt lat="45.69808" lon="4.6191">
        <ele>670</ele>
        <time>2012-10-20T13:11:06Z</time>
      </trkpt>
      <trkpt lat="45.69815" lon="4.61922">
        <ele>671</ele>
        <time>2012-10-20T13:11:14Z</time>
      </trkpt>
      <trkpt lat="45.69821" lon="4.61935">
        <ele>673</ele>
        <time>2012-10-20T13:11:23Z</time>
      </trkpt>
      <trkpt lat="45.69827" lon="4.61949">
        <ele>674</ele>
        <time>2012-10-20T13:11:32Z</time>
      </trkpt>
      <trkpt lat="45.69835" lon="4.61958">
        <ele>677</ele>
        <time>2012-10-20T13:11:39Z</time>
      </trkpt>
      <trkpt lat="45.69842" lon="4.61967">
        <ele>680</ele>
        <time>2012-10-20T13:11:47Z</time>
      </trkpt>
      <trkpt lat="45.69844" lon="4.61971">
        <ele>680</ele>
        <time>2012-10-20T13:11:54Z</time>
      </trkpt>
      <trkpt lat="45.69847" lon="4.61975">
        <ele>681</ele>
        <time>2012-10-20T13:12:03Z</time>
      </trkpt>
      <trkpt lat="45.69851" lon="4.61979">
        <ele>682</ele>
        <time>2012-10-20T13:12:13Z</time>
      </trkpt>
      <trkpt lat="45.69854" lon="4.61984">
        <ele>684</ele>
        <time>2012-10-20T13:12:20Z</time>
      </trkpt>
      <trkpt lat="45.69855" lon="4.61987">
        <ele>684</ele>
        <time>2012-10-20T13:12:29Z</time>
      </trkpt>
      <trkpt lat="45.69856" lon="4.61987">
        <ele>685</ele>
        <time>2012-10-20T13:12:41Z</time>
      </trkpt>
      <trkpt lat="45.69859" lon="4.61993">
        <ele>686</ele>
        <time>2012-10-20T13:12:48Z</time>
      </trkpt>
      <trkpt lat="45.69862" lon="4.62001">
        <ele>687</ele>
        <time>2012-10-20T13:12:52Z</time>
      </trkpt>
      <trkpt lat="45.69864" lon="4.62007">
        <ele>687</ele>
        <time>2012-10-20T13:12:56Z</time>
      </trkpt>
      <trkpt lat="45.69865" lon="4.62009">
        <ele>689</ele>
        <time>2012-10-20T13:12:57Z</time>
      </trkpt>
      <trkpt lat="45.69871" lon="4.6202">
        <ele>690</ele>
        <time>2012-10-20T13:13:03Z</time>
      </trkpt>
      <trkpt lat="45.69878" lon="4.6203">
        <ele>692</ele>
        <time>2012-10-20T13:13:11Z</time>
      </trkpt>
      <trkpt lat="45.69883" lon="4.62038">
        <ele>693</ele>
        <time>2012-10-20T13:13:18Z</time>
      </trkpt>
      <trkpt lat="45.69889" lon="4.62048">
        <ele>695</ele>
        <time>2012-10-20T13:13:26Z</time>
      </trkpt>
      <trkpt lat="45.69891" lon="4.62051">
        <ele>696</ele>
        <time>2012-10-20T13:13:28Z</time>
      </trkpt>
      <trkpt lat="45.69895" lon="4.62062">
        <ele>698</ele>
        <time>2012-10-20T13:13:36Z</time>
      </trkpt>
      <trkpt lat="45.69898" lon="4.62075">
        <ele>699</ele>
        <time>2012-10-20T13:13:45Z</time>
      </trkpt>
      <trkpt lat="45.69902" lon="4.62087">
        <ele>701</ele>
        <time>2012-10-20T13:13:54Z</time>
      </trkpt>
      <trkpt lat="45.69909" lon="4.621">
        <ele>703</ele>
        <time>2012-10-20T13:14:04Z</time>
      </trkpt>
      <trkpt lat="45.69913" lon="4.62103">
        <ele>704</ele>
        <time>2012-10-20T13:14:07Z</time>
      </trkpt>
      <trkpt lat="45.69924" lon="4.62115">
        <ele>707</ele>
        <time>2012-10-20T13:14:16Z</time>
      </trkpt>
      <trkpt lat="45.69925" lon="4.62116">
        <ele>707</ele>
        <time>2012-10-20T13:14:17Z</time>
      </trkpt>
      <trkpt lat="45.69936" lon="4.62121">
        <ele>707</ele>
        <time>2012-10-20T13:14:25Z</time>
      </trkpt>
      <trkpt lat="45.69949" lon="4.62124">
        <ele>707</ele>
        <time>2012-10-20T13:14:35Z</time>
      </trkpt>
      <trkpt lat="45.69962" lon="4.62133">
        <ele>707</ele>
        <time>2012-10-20T13:14:44Z</time>
      </trkpt>
      <trkpt lat="45.69977" lon="4.62139">
        <ele>709</ele>
        <time>2012-10-20T13:14:55Z</time>
      </trkpt>
      <trkpt lat="45.69987" lon="4.62141">
        <ele>711</ele>
        <time>2012-10-20T13:15:03Z</time>
      </trkpt>
      <trkpt lat="45.69988" lon="4.62141">
        <ele>711</ele>
        <time>2012-10-20T13:15:04Z</time>
      </trkpt>
      <trkpt lat="45.69999" lon="4.62139">
        <ele>711</ele>
        <time>2012-10-20T13:15:12Z</time>
      </trkpt>
      <trkpt lat="45.7" lon="4.62138">
        <ele>711</ele>
        <time>2012-10-20T13:15:13Z</time>
      </trkpt>
      <trkpt lat="45.7" lon="4.62137">
        <ele>712</ele>
        <time>2012-10-20T13:15:14Z</time>
      </trkpt>
      <trkpt lat="45.70001" lon="4.62135">
        <ele>712</ele>
        <time>2012-10-20T13:15:15Z</time>
      </trkpt>
      <trkpt lat="45.70002" lon="4.62134">
        <ele>712</ele>
        <time>2012-10-20T13:15:16Z</time>
      </trkpt>
      <trkpt lat="45.70003" lon="4.62133">
        <ele>712</ele>
        <time>2012-10-20T13:15:17Z</time>
      </trkpt>
      <trkpt lat="45.70004" lon="4.62132">
        <ele>712</ele>
        <time>2012-10-20T13:15:18Z</time>
      </trkpt>
      <trkpt lat="45.70005" lon="4.62131">
        <ele>713</ele>
        <time>2012-10-20T13:15:19Z</time>
      </trkpt>
      <trkpt lat="45.70006" lon="4.62129">
        <ele>713</ele>
        <time>2012-10-20T13:15:20Z</time>
      </trkpt>
      <trkpt lat="45.70007" lon="4.62128">
        <ele>712</ele>
        <time>2012-10-20T13:15:21Z</time>
      </trkpt>
      <trkpt lat="45.70008" lon="4.62126">
        <ele>712</ele>
        <time>2012-10-20T13:15:22Z</time>
      </trkpt>
      <trkpt lat="45.70009" lon="4.62125">
        <ele>713</ele>
        <time>2012-10-20T13:15:23Z</time>
      </trkpt>
      <trkpt lat="45.70018" lon="4.62115">
        <ele>712</ele>
        <time>2012-10-20T13:15:30Z</time>
      </trkpt>
      <trkpt lat="45.70025" lon="4.62104">
        <ele>713</ele>
        <time>2012-10-20T13:15:37Z</time>
      </trkpt>
      <trkpt lat="45.70035" lon="4.62087">
        <ele>714</ele>
        <time>2012-10-20T13:15:47Z</time>
      </trkpt>
      <trkpt lat="45.70038" lon="4.62085">
        <ele>714</ele>
        <time>2012-10-20T13:15:49Z</time>
      </trkpt>
      <trkpt lat="45.7004" lon="4.62084">
        <ele>714</ele>
        <time>2012-10-20T13:15:50Z</time>
      </trkpt>
      <trkpt lat="45.70042" lon="4.62084">
        <ele>714</ele>
        <time>2012-10-20T13:15:51Z</time>
      </trkpt>
      <trkpt lat="45.70055" lon="4.62082">
        <ele>716</ele>
        <time>2012-10-20T13:16:00Z</time>
      </trkpt>
      <trkpt lat="45.70065" lon="4.62081">
        <ele>718</ele>
        <time>2012-10-20T13:16:09Z</time>
      </trkpt>
      <trkpt lat="45.70066" lon="4.62082">
        <ele>718</ele>
        <time>2012-10-20T13:16:15Z</time>
      </trkpt>
      <trkpt lat="45.70066" lon="4.62081">
        <ele>718</ele>
        <time>2012-10-20T13:16:32Z</time>
      </trkpt>
      <trkpt lat="45.70066" lon="4.62082">
        <ele>717</ele>
        <time>2012-10-20T13:16:48Z</time>
      </trkpt>
      <trkpt lat="45.70066" lon="4.62082">
        <ele>717</ele>
        <time>2012-10-20T13:17:03Z</time>
      </trkpt>
      <trkpt lat="45.70066" lon="4.62082">
        <ele>718</ele>
        <time>2012-10-20T13:17:15Z</time>
      </trkpt>
      <trkpt lat="45.70069" lon="4.62081">
        <ele>718</ele>
        <time>2012-10-20T13:17:20Z</time>
      </trkpt>
      <trkpt lat="45.70076" lon="4.62072">
        <ele>720</ele>
        <time>2012-10-20T13:17:27Z</time>
      </trkpt>
      <trkpt lat="45.70075" lon="4.62069">
        <ele>721</ele>
        <time>2012-10-20T13:17:29Z</time>
      </trkpt>
      <trkpt lat="45.70073" lon="4.62069">
        <ele>720</ele>
        <time>2012-10-20T13:17:30Z</time>
      </trkpt>
      <trkpt lat="45.70072" lon="4.62069">
        <ele>721</ele>
        <time>2012-10-20T13:17:31Z</time>
      </trkpt>
      <trkpt lat="45.70071" lon="4.62073">
        <ele>720</ele>
        <time>2012-10-20T13:17:34Z</time>
      </trkpt>
      <trkpt lat="45.70071" lon="4.62075">
        <ele>719</ele>
        <time>2012-10-20T13:17:35Z</time>
      </trkpt>
      <trkpt lat="45.70069" lon="4.62077">
        <ele>719</ele>
        <time>2012-10-20T13:17:36Z</time>
      </trkpt>
      <trkpt lat="45.70067" lon="4.62079">
        <ele>719</ele>
        <time>2012-10-20T13:17:37Z</time>
      </trkpt>
      <trkpt lat="45.70065" lon="4.62081">
        <ele>718</ele>
        <time>2012-10-20T13:17:38Z</time>
      </trkpt>
      <trkpt lat="45.70065" lon="4.62083">
        <ele>719</ele>
        <time>2012-10-20T13:17:39Z</time>
      </trkpt>
      <trkpt lat="45.70065" lon="4.62086">
        <ele>718</ele>
        <time>2012-10-20T13:17:40Z</time>
      </trkpt>
      <trkpt lat="45.70066" lon="4.62089">
        <ele>717</ele>
        <time>2012-10-20T13:17:41Z</time>
      </trkpt>
      <trkpt lat="45.70067" lon="4.62094">
        <ele>717</ele>
        <time>2012-10-20T13:17:43Z</time>
      </trkpt>
      <trkpt lat="45.70069" lon="4.62098">
        <ele>715</ele>
        <time>2012-10-20T13:17:44Z</time>
      </trkpt>
      <trkpt lat="45.70071" lon="4.62101">
        <ele>715</ele>
        <time>2012-10-20T13:17:45Z</time>
      </trkpt>
      <trkpt lat="45.70072" lon="4.62105">
        <ele>714</ele>
        <time>2012-10-20T13:17:46Z</time>
      </trkpt>
      <trkpt lat="45.70074" lon="4.62109">
        <ele>713</ele>
        <time>2012-10-20T13:17:47Z</time>
      </trkpt>
      <trkpt lat="45.70075" lon="4.62111">
        <ele>713</ele>
        <time>2012-10-20T13:17:48Z</time>
      </trkpt>
      <trkpt lat="45.70077" lon="4.62114">
        <ele>712</ele>
        <time>2012-10-20T13:17:49Z</time>
      </trkpt>
      <trkpt lat="45.70078" lon="4.62117">
        <ele>712</ele>
        <time>2012-10-20T13:17:50Z</time>
      </trkpt>
      <trkpt lat="45.70079" lon="4.62121">
        <ele>711</ele>
        <time>2012-10-20T13:17:51Z</time>
      </trkpt>
      <trkpt lat="45.70081" lon="4.62124">
        <ele>711</ele>
        <time>2012-10-20T13:17:52Z</time>
      </trkpt>
      <trkpt lat="45.70082" lon="4.62127">
        <ele>710</ele>
        <time>2012-10-20T13:17:53Z</time>
      </trkpt>
      <trkpt lat="45.70088" lon="4.62141">
        <ele>706</ele>
        <time>2012-10-20T13:17:57Z</time>
      </trkpt>
      <trkpt lat="45.70102" lon="4.62155">
        <ele>703</ele>
        <time>2012-10-20T13:18:02Z</time>
      </trkpt>
      <trkpt lat="45.70111" lon="4.62164">
        <ele>702</ele>
        <time>2012-10-20T13:18:05Z</time>
      </trkpt>
      <trkpt lat="45.70129" lon="4.6218">
        <ele>699</ele>
        <time>2012-10-20T13:18:10Z</time>
      </trkpt>
      <trkpt lat="45.70134" lon="4.62183">
        <ele>699</ele>
        <time>2012-10-20T13:18:11Z</time>
      </trkpt>
      <trkpt lat="45.70139" lon="4.62188">
        <ele>698</ele>
        <time>2012-10-20T13:18:12Z</time>
      </trkpt>
      <trkpt lat="45.70143" lon="4.62192">
        <ele>699</ele>
        <time>2012-10-20T13:18:13Z</time>
      </trkpt>
      <trkpt lat="45.70156" lon="4.62208">
        <ele>697</ele>
        <time>2012-10-20T13:18:16Z</time>
      </trkpt>
      <trkpt lat="45.7016" lon="4.62213">
        <ele>697</ele>
        <time>2012-10-20T13:18:17Z</time>
      </trkpt>
      <trkpt lat="45.70163" lon="4.62219">
        <ele>696</ele>
        <time>2012-10-20T13:18:18Z</time>
      </trkpt>
      <trkpt lat="45.70167" lon="4.62225">
        <ele>694</ele>
        <time>2012-10-20T13:18:19Z</time>
      </trkpt>
      <trkpt lat="45.70172" lon="4.62231">
        <ele>693</ele>
        <time>2012-10-20T13:18:20Z</time>
      </trkpt>
      <trkpt lat="45.70178" lon="4.62238">
        <ele>694</ele>
        <time>2012-10-20T13:18:21Z</time>
      </trkpt>
      <trkpt lat="45.70183" lon="4.62245">
        <ele>693</ele>
        <time>2012-10-20T13:18:22Z</time>
      </trkpt>
      <trkpt lat="45.70194" lon="4.62261">
        <ele>691</ele>
        <time>2012-10-20T13:18:24Z</time>
      </trkpt>
      <trkpt lat="45.70215" lon="4.62293">
        <ele>688</ele>
        <time>2012-10-20T13:18:28Z</time>
      </trkpt>
      <trkpt lat="45.70241" lon="4.62334">
        <ele>685</ele>
        <time>2012-10-20T13:18:34Z</time>
      </trkpt>
      <trkpt lat="45.70245" lon="4.6234">
        <ele>684</ele>
        <time>2012-10-20T13:18:35Z</time>
      </trkpt>
      <trkpt lat="45.7025" lon="4.62347">
        <ele>684</ele>
        <time>2012-10-20T13:18:36Z</time>
      </trkpt>
      <trkpt lat="45.70254" lon="4.62354">
        <ele>684</ele>
        <time>2012-10-20T13:18:37Z</time>
      </trkpt>
      <trkpt lat="45.70282" lon="4.62405">
        <ele>682</ele>
        <time>2012-10-20T13:18:44Z</time>
      </trkpt>
      <trkpt lat="45.70291" lon="4.62423">
        <ele>682</ele>
        <time>2012-10-20T13:18:47Z</time>
      </trkpt>
      <trkpt lat="45.70294" lon="4.62429">
        <ele>682</ele>
        <time>2012-10-20T13:18:48Z</time>
      </trkpt>
      <trkpt lat="45.70305" lon="4.62456">
        <ele>682</ele>
        <time>2012-10-20T13:18:54Z</time>
      </trkpt>
      <trkpt lat="45.70318" lon="4.62481">
        <ele>680</ele>
        <time>2012-10-20T13:18:59Z</time>
      </trkpt>
      <trkpt lat="45.70321" lon="4.62488">
        <ele>680</ele>
        <time>2012-10-20T13:19:00Z</time>
      </trkpt>
      <trkpt lat="45.70322" lon="4.62496">
        <ele>679</ele>
        <time>2012-10-20T13:19:01Z</time>
      </trkpt>
      <trkpt lat="45.70322" lon="4.62502">
        <ele>678</ele>
        <time>2012-10-20T13:19:02Z</time>
      </trkpt>
      <trkpt lat="45.70322" lon="4.62507">
        <ele>678</ele>
        <time>2012-10-20T13:19:03Z</time>
      </trkpt>
      <trkpt lat="45.70322" lon="4.62512">
        <ele>678</ele>
        <time>2012-10-20T13:19:04Z</time>
      </trkpt>
      <trkpt lat="45.70322" lon="4.62517">
        <ele>677</ele>
        <time>2012-10-20T13:19:05Z</time>
      </trkpt>
      <trkpt lat="45.70326" lon="4.62549">
        <ele>675</ele>
        <time>2012-10-20T13:19:10Z</time>
      </trkpt>
      <trkpt lat="45.70327" lon="4.62556">
        <ele>674</ele>
        <time>2012-10-20T13:19:11Z</time>
      </trkpt>
      <trkpt lat="45.70335" lon="4.62577">
        <ele>670</ele>
        <time>2012-10-20T13:19:15Z</time>
      </trkpt>
      <trkpt lat="45.70337" lon="4.62581">
        <ele>670</ele>
        <time>2012-10-20T13:19:16Z</time>
      </trkpt>
      <trkpt lat="45.70341" lon="4.6259">
        <ele>668</ele>
        <time>2012-10-20T13:19:21Z</time>
      </trkpt>
      <trkpt lat="45.70341" lon="4.62587">
        <ele>669</ele>
        <time>2012-10-20T13:19:31Z</time>
      </trkpt>
      <trkpt lat="45.70339" lon="4.62586">
        <ele>668</ele>
        <time>2012-10-20T13:19:50Z</time>
      </trkpt>
      <trkpt lat="45.7034" lon="4.62588">
        <ele>668</ele>
        <time>2012-10-20T13:20:01Z</time>
      </trkpt>
      <trkpt lat="45.70344" lon="4.62591">
        <ele>669</ele>
        <time>2012-10-20T13:20:07Z</time>
      </trkpt>
      <trkpt lat="45.70344" lon="4.6259">
        <ele>669</ele>
        <time>2012-10-20T13:20:08Z</time>
      </trkpt>
      <trkpt lat="45.70344" lon="4.62588">
        <ele>669</ele>
        <time>2012-10-20T13:20:09Z</time>
      </trkpt>
      <trkpt lat="45.70343" lon="4.62588">
        <ele>669</ele>
        <time>2012-10-20T13:20:10Z</time>
      </trkpt>
      <trkpt lat="45.70341" lon="4.62588">
        <ele>669</ele>
        <time>2012-10-20T13:20:11Z</time>
      </trkpt>
      <trkpt lat="45.7034" lon="4.62588">
        <ele>669</ele>
        <time>2012-10-20T13:20:12Z</time>
      </trkpt>
      <trkpt lat="45.70339" lon="4.62588">
        <ele>669</ele>
        <time>2012-10-20T13:20:13Z</time>
      </trkpt>
      <trkpt lat="45.70337" lon="4.62588">
        <ele>669</ele>
        <time>2012-10-20T13:20:14Z</time>
      </trkpt>
      <trkpt lat="45.70326" lon="4.62595">
        <ele>667</ele>
        <time>2012-10-20T13:20:19Z</time>
      </trkpt>
      <trkpt lat="45.70312" lon="4.62604">
        <ele>665</ele>
        <time>2012-10-20T13:20:24Z</time>
      </trkpt>
      <trkpt lat="45.70308" lon="4.62613">
        <ele>663</ele>
        <time>2012-10-20T13:20:26Z</time>
      </trkpt>
      <trkpt lat="45.70306" lon="4.62619">
        <ele>663</ele>
        <time>2012-10-20T13:20:27Z</time>
      </trkpt>
      <trkpt lat="45.70304" lon="4.62624">
        <ele>662</ele>
        <time>2012-10-20T13:20:28Z</time>
      </trkpt>
      <trkpt lat="45.70301" lon="4.62629">
        <ele>662</ele>
        <time>2012-10-20T13:20:29Z</time>
      </trkpt>
      <trkpt lat="45.70299" lon="4.62634">
        <ele>662</ele>
        <time>2012-10-20T13:20:30Z</time>
      </trkpt>
      <trkpt lat="45.70297" lon="4.62641">
        <ele>662</ele>
        <time>2012-10-20T13:20:31Z</time>
      </trkpt>
      <trkpt lat="45.70283" lon="4.62683">
        <ele>657</ele>
        <time>2012-10-20T13:20:36Z</time>
      </trkpt>
      <trkpt lat="45.70271" lon="4.62715">
        <ele>655</ele>
        <time>2012-10-20T13:20:39Z</time>
      </trkpt>
      <trkpt lat="45.70262" lon="4.62737">
        <ele>654</ele>
        <time>2012-10-20T13:20:41Z</time>
      </trkpt>
      <trkpt lat="45.70253" lon="4.62757">
        <ele>653</ele>
        <time>2012-10-20T13:20:43Z</time>
      </trkpt>
      <trkpt lat="45.70248" lon="4.62766">
        <ele>652</ele>
        <time>2012-10-20T13:20:44Z</time>
      </trkpt>
      <trkpt lat="45.70244" lon="4.62773">
        <ele>652</ele>
        <time>2012-10-20T13:20:45Z</time>
      </trkpt>
      <trkpt lat="45.7023" lon="4.62792">
        <ele>648</ele>
        <time>2012-10-20T13:20:48Z</time>
      </trkpt>
      <trkpt lat="45.70209" lon="4.62816">
        <ele>644</ele>
        <time>2012-10-20T13:20:52Z</time>
      </trkpt>
      <trkpt lat="45.702" lon="4.62827">
        <ele>642</ele>
        <time>2012-10-20T13:20:54Z</time>
      </trkpt>
      <trkpt lat="45.70196" lon="4.62834">
        <ele>641</ele>
        <time>2012-10-20T13:20:55Z</time>
      </trkpt>
      <trkpt lat="45.70177" lon="4.62865">
        <ele>638</ele>
        <time>2012-10-20T13:20:59Z</time>
      </trkpt>
      <trkpt lat="45.70172" lon="4.62872">
        <ele>638</ele>
        <time>2012-10-20T13:21:00Z</time>
      </trkpt>
      <trkpt lat="45.70157" lon="4.62894">
        <ele>637</ele>
        <time>2012-10-20T13:21:03Z</time>
      </trkpt>
      <trkpt lat="45.70148" lon="4.62908">
        <ele>637</ele>
        <time>2012-10-20T13:21:05Z</time>
      </trkpt>
      <trkpt lat="45.70144" lon="4.62913">
        <ele>637</ele>
        <time>2012-10-20T13:21:06Z</time>
      </trkpt>
      <trkpt lat="45.70132" lon="4.62928">
        <ele>636</ele>
        <time>2012-10-20T13:21:09Z</time>
      </trkpt>
      <trkpt lat="45.70119" lon="4.62941">
        <ele>636</ele>
        <time>2012-10-20T13:21:12Z</time>
      </trkpt>
      <trkpt lat="45.70111" lon="4.62948">
        <ele>636</ele>
        <time>2012-10-20T13:21:14Z</time>
      </trkpt>
      <trkpt lat="45.70101" lon="4.62953">
        <ele>635</ele>
        <time>2012-10-20T13:21:16Z</time>
      </trkpt>
      <trkpt lat="45.70096" lon="4.62956">
        <ele>635</ele>
        <time>2012-10-20T13:21:17Z</time>
      </trkpt>
      <trkpt lat="45.70085" lon="4.62963">
        <ele>634</ele>
        <time>2012-10-20T13:21:19Z</time>
      </trkpt>
      <trkpt lat="45.70053" lon="4.62981">
        <ele>630</ele>
        <time>2012-10-20T13:21:24Z</time>
      </trkpt>
      <trkpt lat="45.70025" lon="4.62989">
        <ele>627</ele>
        <time>2012-10-20T13:21:28Z</time>
      </trkpt>
      <trkpt lat="45.70002" lon="4.62999">
        <ele>625</ele>
        <time>2012-10-20T13:21:32Z</time>
      </trkpt>
      <trkpt lat="45.69993" lon="4.63001">
        <ele>624</ele>
        <time>2012-10-20T13:21:34Z</time>
      </trkpt>
      <trkpt lat="45.69977" lon="4.63002">
        <ele>620</ele>
        <time>2012-10-20T13:21:38Z</time>
      </trkpt>
      <trkpt lat="45.69972" lon="4.63002">
        <ele>620</ele>
        <time>2012-10-20T13:21:39Z</time>
      </trkpt>
      <trkpt lat="45.69962" lon="4.63004">
        <ele>617</ele>
        <time>2012-10-20T13:21:41Z</time>
      </trkpt>
      <trkpt lat="45.69946" lon="4.63007">
        <ele>614</ele>
        <time>2012-10-20T13:21:45Z</time>
      </trkpt>
      <trkpt lat="45.69928" lon="4.63011">
        <ele>610</ele>
        <time>2012-10-20T13:21:49Z</time>
      </trkpt>
      <trkpt lat="45.69924" lon="4.63013">
        <ele>610</ele>
        <time>2012-10-20T13:21:50Z</time>
      </trkpt>
      <trkpt lat="45.69921" lon="4.63017">
        <ele>609</ele>
        <time>2012-10-20T13:21:51Z</time>
      </trkpt>
      <trkpt lat="45.69919" lon="4.6302">
        <ele>608</ele>
        <time>2012-10-20T13:21:52Z</time>
      </trkpt>
      <trkpt lat="45.69916" lon="4.63022">
        <ele>608</ele>
        <time>2012-10-20T13:21:53Z</time>
      </trkpt>
      <trkpt lat="45.69913" lon="4.63023">
        <ele>607</ele>
        <time>2012-10-20T13:21:54Z</time>
      </trkpt>
      <trkpt lat="45.69912" lon="4.63025">
        <ele>607</ele>
        <time>2012-10-20T13:21:55Z</time>
      </trkpt>
      <trkpt lat="45.6991" lon="4.63028">
        <ele>606</ele>
        <time>2012-10-20T13:21:56Z</time>
      </trkpt>
      <trkpt lat="45.69909" lon="4.6303">
        <ele>606</ele>
        <time>2012-10-20T13:21:57Z</time>
      </trkpt>
      <trkpt lat="45.69908" lon="4.63033">
        <ele>606</ele>
        <time>2012-10-20T13:21:58Z</time>
      </trkpt>
      <trkpt lat="45.69908" lon="4.63035">
        <ele>606</ele>
        <time>2012-10-20T13:22:03Z</time>
      </trkpt>
      <trkpt lat="45.69908" lon="4.63034">
        <ele>606</ele>
        <time>2012-10-20T13:22:11Z</time>
      </trkpt>
      <trkpt lat="45.69907" lon="4.63035">
        <ele>605</ele>
        <time>2012-10-20T13:22:19Z</time>
      </trkpt>
      <trkpt lat="45.69906" lon="4.63035">
        <ele>606</ele>
        <time>2012-10-20T13:22:21Z</time>
      </trkpt>
      <trkpt lat="45.69905" lon="4.63036">
        <ele>605</ele>
        <time>2012-10-20T13:22:22Z</time>
      </trkpt>
      <trkpt lat="45.69903" lon="4.63037">
        <ele>605</ele>
        <time>2012-10-20T13:22:24Z</time>
      </trkpt>
      <trkpt lat="45.69901" lon="4.63038">
        <ele>604</ele>
        <time>2012-10-20T13:22:25Z</time>
      </trkpt>
      <trkpt lat="45.69887" lon="4.63058">
        <ele>601</ele>
        <time>2012-10-20T13:22:30Z</time>
      </trkpt>
      <trkpt lat="45.69874" lon="4.63081">
        <ele>599</ele>
        <time>2012-10-20T13:22:35Z</time>
      </trkpt>
      <trkpt lat="45.69867" lon="4.63095">
        <ele>597</ele>
        <time>2012-10-20T13:22:38Z</time>
      </trkpt>
      <trkpt lat="45.69855" lon="4.63113">
        <ele>593</ele>
        <time>2012-10-20T13:22:42Z</time>
      </trkpt>
      <trkpt lat="45.69852" lon="4.63117">
        <ele>592</ele>
        <time>2012-10-20T13:22:43Z</time>
      </trkpt>
      <trkpt lat="45.69845" lon="4.63126">
        <ele>590</ele>
        <time>2012-10-20T13:22:45Z</time>
      </trkpt>
      <trkpt lat="45.69834" lon="4.63138">
        <ele>588</ele>
        <time>2012-10-20T13:22:48Z</time>
      </trkpt>
      <trkpt lat="45.69812" lon="4.63177">
        <ele>584</ele>
        <time>2012-10-20T13:22:54Z</time>
      </trkpt>
      <trkpt lat="45.69806" lon="4.6319">
        <ele>583</ele>
        <time>2012-10-20T13:22:56Z</time>
      </trkpt>
      <trkpt lat="45.69805" lon="4.63198">
        <ele>582</ele>
        <time>2012-10-20T13:22:57Z</time>
      </trkpt>
      <trkpt lat="45.69803" lon="4.63206">
        <ele>581</ele>
        <time>2012-10-20T13:22:58Z</time>
      </trkpt>
      <trkpt lat="45.69801" lon="4.63216">
        <ele>580</ele>
        <time>2012-10-20T13:22:59Z</time>
      </trkpt>
      <trkpt lat="45.69796" lon="4.63255">
        <ele>577</ele>
        <time>2012-10-20T13:23:03Z</time>
      </trkpt>
      <trkpt lat="45.69791" lon="4.63295">
        <ele>573</ele>
        <time>2012-10-20T13:23:07Z</time>
      </trkpt>
      <trkpt lat="45.69791" lon="4.63305">
        <ele>571</ele>
        <time>2012-10-20T13:23:08Z</time>
      </trkpt>
      <trkpt lat="45.69793" lon="4.63313">
        <ele>570</ele>
        <time>2012-10-20T13:23:09Z</time>
      </trkpt>
      <trkpt lat="45.69794" lon="4.63321">
        <ele>569</ele>
        <time>2012-10-20T13:23:10Z</time>
      </trkpt>
      <trkpt lat="45.69795" lon="4.63329">
        <ele>568</ele>
        <time>2012-10-20T13:23:11Z</time>
      </trkpt>
      <trkpt lat="45.69796" lon="4.63338">
        <ele>567</ele>
        <time>2012-10-20T13:23:12Z</time>
      </trkpt>
      <trkpt lat="45.69799" lon="4.63345">
        <ele>567</ele>
        <time>2012-10-20T13:23:13Z</time>
      </trkpt>
      <trkpt lat="45.69803" lon="4.63353">
        <ele>566</ele>
        <time>2012-10-20T13:23:14Z</time>
      </trkpt>
      <trkpt lat="45.69808" lon="4.63359">
        <ele>565</ele>
        <time>2012-10-20T13:23:15Z</time>
      </trkpt>
      <trkpt lat="45.69813" lon="4.63365">
        <ele>565</ele>
        <time>2012-10-20T13:23:16Z</time>
      </trkpt>
      <trkpt lat="45.69818" lon="4.63371">
        <ele>565</ele>
        <time>2012-10-20T13:23:17Z</time>
      </trkpt>
      <trkpt lat="45.69823" lon="4.63377">
        <ele>564</ele>
        <time>2012-10-20T13:23:18Z</time>
      </trkpt>
      <trkpt lat="45.69833" lon="4.6339">
        <ele>563</ele>
        <time>2012-10-20T13:23:20Z</time>
      </trkpt>
      <trkpt lat="45.69839" lon="4.63396">
        <ele>563</ele>
        <time>2012-10-20T13:23:21Z</time>
      </trkpt>
      <trkpt lat="45.6985" lon="4.63405">
        <ele>562</ele>
        <time>2012-10-20T13:23:23Z</time>
      </trkpt>
      <trkpt lat="45.69855" lon="4.63412">
        <ele>562</ele>
        <time>2012-10-20T13:23:24Z</time>
      </trkpt>
      <trkpt lat="45.69863" lon="4.63427">
        <ele>559</ele>
        <time>2012-10-20T13:23:26Z</time>
      </trkpt>
      <trkpt lat="45.69866" lon="4.63436">
        <ele>559</ele>
        <time>2012-10-20T13:23:27Z</time>
      </trkpt>
      <trkpt lat="45.69867" lon="4.63446">
        <ele>558</ele>
        <time>2012-10-20T13:23:28Z</time>
      </trkpt>
      <trkpt lat="45.69868" lon="4.63456">
        <ele>558</ele>
        <time>2012-10-20T13:23:29Z</time>
      </trkpt>
      <trkpt lat="45.69867" lon="4.63463">
        <ele>556</ele>
        <time>2012-10-20T13:23:30Z</time>
      </trkpt>
      <trkpt lat="45.69867" lon="4.6347">
        <ele>555</ele>
        <time>2012-10-20T13:23:31Z</time>
      </trkpt>
      <trkpt lat="45.69867" lon="4.63477">
        <ele>555</ele>
        <time>2012-10-20T13:23:32Z</time>
      </trkpt>
      <trkpt lat="45.69866" lon="4.63482">
        <ele>554</ele>
        <time>2012-10-20T13:23:33Z</time>
      </trkpt>
      <trkpt lat="45.69865" lon="4.63488">
        <ele>553</ele>
        <time>2012-10-20T13:23:34Z</time>
      </trkpt>
      <trkpt lat="45.69865" lon="4.63494">
        <ele>553</ele>
        <time>2012-10-20T13:23:35Z</time>
      </trkpt>
      <trkpt lat="45.69865" lon="4.63501">
        <ele>552</ele>
        <time>2012-10-20T13:23:36Z</time>
      </trkpt>
      <trkpt lat="45.69867" lon="4.63508">
        <ele>552</ele>
        <time>2012-10-20T13:23:37Z</time>
      </trkpt>
      <trkpt lat="45.6987" lon="4.63539">
        <ele>549</ele>
        <time>2012-10-20T13:23:41Z</time>
      </trkpt>
      <trkpt lat="45.6987" lon="4.63547">
        <ele>548</ele>
        <time>2012-10-20T13:23:42Z</time>
      </trkpt>
      <trkpt lat="45.69868" lon="4.63555">
        <ele>548</ele>
        <time>2012-10-20T13:23:43Z</time>
      </trkpt>
      <trkpt lat="45.69861" lon="4.63567">
        <ele>546</ele>
        <time>2012-10-20T13:23:45Z</time>
      </trkpt>
      <trkpt lat="45.69859" lon="4.63574">
        <ele>545</ele>
        <time>2012-10-20T13:23:46Z</time>
      </trkpt>
      <trkpt lat="45.69856" lon="4.63581">
        <ele>545</ele>
        <time>2012-10-20T13:23:47Z</time>
      </trkpt>
      <trkpt lat="45.69851" lon="4.63596">
        <ele>544</ele>
        <time>2012-10-20T13:23:49Z</time>
      </trkpt>
      <trkpt lat="45.69842" lon="4.63635">
        <ele>541</ele>
        <time>2012-10-20T13:23:54Z</time>
      </trkpt>
      <trkpt lat="45.6984" lon="4.63651">
        <ele>540</ele>
        <time>2012-10-20T13:23:56Z</time>
      </trkpt>
      <trkpt lat="45.69838" lon="4.63659">
        <ele>538</ele>
        <time>2012-10-20T13:23:57Z</time>
      </trkpt>
      <trkpt lat="45.69836" lon="4.63667">
        <ele>538</ele>
        <time>2012-10-20T13:23:58Z</time>
      </trkpt>
      <trkpt lat="45.69831" lon="4.63693">
        <ele>537</ele>
        <time>2012-10-20T13:24:01Z</time>
      </trkpt>
      <trkpt lat="45.69828" lon="4.63702">
        <ele>536</ele>
        <time>2012-10-20T13:24:02Z</time>
      </trkpt>
      <trkpt lat="45.69823" lon="4.63709">
        <ele>535</ele>
        <time>2012-10-20T13:24:03Z</time>
      </trkpt>
      <trkpt lat="45.69812" lon="4.63721">
        <ele>535</ele>
        <time>2012-10-20T13:24:05Z</time>
      </trkpt>
      <trkpt lat="45.69808" lon="4.63728">
        <ele>534</ele>
        <time>2012-10-20T13:24:06Z</time>
      </trkpt>
      <trkpt lat="45.69797" lon="4.63748">
        <ele>532</ele>
        <time>2012-10-20T13:24:09Z</time>
      </trkpt>
      <trkpt lat="45.69794" lon="4.63755">
        <ele>531</ele>
        <time>2012-10-20T13:24:10Z</time>
      </trkpt>
      <trkpt lat="45.6979" lon="4.63761">
        <ele>532</ele>
        <time>2012-10-20T13:24:11Z</time>
      </trkpt>
      <trkpt lat="45.69788" lon="4.63766">
        <ele>530</ele>
        <time>2012-10-20T13:24:12Z</time>
      </trkpt>
      <trkpt lat="45.69786" lon="4.63772">
        <ele>530</ele>
        <time>2012-10-20T13:24:13Z</time>
      </trkpt>
      <trkpt lat="45.69783" lon="4.63777">
        <ele>530</ele>
        <time>2012-10-20T13:24:14Z</time>
      </trkpt>
      <trkpt lat="45.69779" lon="4.63782">
        <ele>529</ele>
        <time>2012-10-20T13:24:15Z</time>
      </trkpt>
      <trkpt lat="45.69776" lon="4.63787">
        <ele>529</ele>
        <time>2012-10-20T13:24:16Z</time>
      </trkpt>
      <trkpt lat="45.69772" lon="4.63791">
        <ele>528</ele>
        <time>2012-10-20T13:24:17Z</time>
      </trkpt>
      <trkpt lat="45.69767" lon="4.63795">
        <ele>527</ele>
        <time>2012-10-20T13:24:18Z</time>
      </trkpt>
      <trkpt lat="45.69763" lon="4.63801">
        <ele>526</ele>
        <time>2012-10-20T13:24:19Z</time>
      </trkpt>
      <trkpt lat="45.69761" lon="4.63809">
        <ele>526</ele>
        <time>2012-10-20T13:24:20Z</time>
      </trkpt>
      <trkpt lat="45.69761" lon="4.63817">
        <ele>525</ele>
        <time>2012-10-20T13:24:21Z</time>
      </trkpt>
      <trkpt lat="45.69761" lon="4.63826">
        <ele>525</ele>
        <time>2012-10-20T13:24:22Z</time>
      </trkpt>
      <trkpt lat="45.69762" lon="4.63834">
        <ele>525</ele>
        <time>2012-10-20T13:24:23Z</time>
      </trkpt>
      <trkpt lat="45.69763" lon="4.63842">
        <ele>524</ele>
        <time>2012-10-20T13:24:24Z</time>
      </trkpt>
      <trkpt lat="45.69771" lon="4.63863">
        <ele>523</ele>
        <time>2012-10-20T13:24:27Z</time>
      </trkpt>
      <trkpt lat="45.69772" lon="4.63871">
        <ele>523</ele>
        <time>2012-10-20T13:24:28Z</time>
      </trkpt>
      <trkpt lat="45.69772" lon="4.63878">
        <ele>521</ele>
        <time>2012-10-20T13:24:29Z</time>
      </trkpt>
      <trkpt lat="45.6977" lon="4.63884">
        <ele>520</ele>
        <time>2012-10-20T13:24:30Z</time>
      </trkpt>
      <trkpt lat="45.69767" lon="4.63889">
        <ele>519</ele>
        <time>2012-10-20T13:24:31Z</time>
      </trkpt>
      <trkpt lat="45.69763" lon="4.63894">
        <ele>518</ele>
        <time>2012-10-20T13:24:32Z</time>
      </trkpt>
      <trkpt lat="45.69757" lon="4.63897">
        <ele>517</ele>
        <time>2012-10-20T13:24:33Z</time>
      </trkpt>
      <trkpt lat="45.69752" lon="4.63897">
        <ele>515</ele>
        <time>2012-10-20T13:24:34Z</time>
      </trkpt>
      <trkpt lat="45.69747" lon="4.63897">
        <ele>515</ele>
        <time>2012-10-20T13:24:35Z</time>
      </trkpt>
      <trkpt lat="45.69743" lon="4.63897">
        <ele>514</ele>
        <time>2012-10-20T13:24:36Z</time>
      </trkpt>
      <trkpt lat="45.69741" lon="4.63901">
        <ele>513</ele>
        <time>2012-10-20T13:24:37Z</time>
      </trkpt>
      <trkpt lat="45.69743" lon="4.63903">
        <ele>513</ele>
        <time>2012-10-20T13:24:38Z</time>
      </trkpt>
      <trkpt lat="45.69745" lon="4.63904">
        <ele>513</ele>
        <time>2012-10-20T13:24:39Z</time>
      </trkpt>
      <trkpt lat="45.69748" lon="4.63905">
        <ele>512</ele>
        <time>2012-10-20T13:24:40Z</time>
      </trkpt>
      <trkpt lat="45.6975" lon="4.63906">
        <ele>513</ele>
        <time>2012-10-20T13:24:41Z</time>
      </trkpt>
      <trkpt lat="45.69757" lon="4.6391">
        <ele>511</ele>
        <time>2012-10-20T13:24:47Z</time>
      </trkpt>
      <trkpt lat="45.69758" lon="4.6391">
        <ele>512</ele>
        <time>2012-10-20T13:24:58Z</time>
      </trkpt>
      <trkpt lat="45.69758" lon="4.63911">
        <ele>511</ele>
        <time>2012-10-20T13:25:10Z</time>
      </trkpt>
      <trkpt lat="45.69756" lon="4.63911">
        <ele>512</ele>
        <time>2012-10-20T13:25:21Z</time>
      </trkpt>
      <trkpt lat="45.69752" lon="4.6391">
        <ele>512</ele>
        <time>2012-10-20T13:25:27Z</time>
      </trkpt>
      <trkpt lat="45.69751" lon="4.6391">
        <ele>512</ele>
        <time>2012-10-20T13:25:28Z</time>
      </trkpt>
      <trkpt lat="45.6975" lon="4.6391">
        <ele>511</ele>
        <time>2012-10-20T13:25:29Z</time>
      </trkpt>
      <trkpt lat="45.69749" lon="4.6391">
        <ele>512</ele>
        <time>2012-10-20T13:25:30Z</time>
      </trkpt>
      <trkpt lat="45.69747" lon="4.63909">
        <ele>512</ele>
        <time>2012-10-20T13:25:31Z</time>
      </trkpt>
      <trkpt lat="45.69746" lon="4.63909">
        <ele>512</ele>
        <time>2012-10-20T13:25:32Z</time>
      </trkpt>
      <trkpt lat="45.69744" lon="4.63909">
        <ele>512</ele>
        <time>2012-10-20T13:25:33Z</time>
      </trkpt>
      <trkpt lat="45.69742" lon="4.63909">
        <ele>512</ele>
        <time>2012-10-20T13:25:34Z</time>
      </trkpt>
      <trkpt lat="45.69726" lon="4.63906">
        <ele>511</ele>
        <time>2012-10-20T13:25:43Z</time>
      </trkpt>
      <trkpt lat="45.69726" lon="4.63907">
        <ele>511</ele>
        <time>2012-10-20T13:25:54Z</time>
      </trkpt>
      <trkpt lat="45.69727" lon="4.63907">
        <ele>511</ele>
        <time>2012-10-20T13:26:11Z</time>
      </trkpt>
      <trkpt lat="45.69727" lon="4.63907">
        <ele>511</ele>
        <time>2012-10-20T13:26:21Z</time>
      </trkpt>
      <trkpt lat="45.69727" lon="4.63907">
        <ele>511</ele>
        <time>2012-10-20T13:26:29Z</time>
      </trkpt>
      <trkpt lat="45.69727" lon="4.63907">
        <ele>510</ele>
        <time>2012-10-20T13:26:35Z</time>
      </trkpt>
      <trkpt lat="45.69728" lon="4.63907">
        <ele>511</ele>
        <time>2012-10-20T13:26:45Z</time>
      </trkpt>
      <trkpt lat="45.69729" lon="4.63906">
        <ele>511</ele>
        <time>2012-10-20T13:26:59Z</time>
      </trkpt>
      <trkpt lat="45.69727" lon="4.63907">
        <ele>511</ele>
        <time>2012-10-20T13:27:12Z</time>
      </trkpt>
      <trkpt lat="45.69712" lon="4.63906">
        <ele>511</ele>
        <time>2012-10-20T13:27:19Z</time>
      </trkpt>
      <trkpt lat="45.69691" lon="4.63905">
        <ele>510</ele>
        <time>2012-10-20T13:27:25Z</time>
      </trkpt>
      <trkpt lat="45.69663" lon="4.63894">
        <ele>509</ele>
        <time>2012-10-20T13:27:33Z</time>
      </trkpt>
      <trkpt lat="45.69638" lon="4.63871">
        <ele>508</ele>
        <time>2012-10-20T13:27:42Z</time>
      </trkpt>
      <trkpt lat="45.69631" lon="4.63864">
        <ele>508</ele>
        <time>2012-10-20T13:27:44Z</time>
      </trkpt>
      <trkpt lat="45.69626" lon="4.63861">
        <ele>507</ele>
        <time>2012-10-20T13:27:45Z</time>
      </trkpt>
      <trkpt lat="45.69598" lon="4.6384">
        <ele>504</ele>
        <time>2012-10-20T13:27:51Z</time>
      </trkpt>
      <trkpt lat="45.69582" lon="4.63831">
        <ele>502</ele>
        <time>2012-10-20T13:27:55Z</time>
      </trkpt>
      <trkpt lat="45.69577" lon="4.63829">
        <ele>502</ele>
        <time>2012-10-20T13:27:56Z</time>
      </trkpt>
      <trkpt lat="45.69549" lon="4.63817">
        <ele>499</ele>
        <time>2012-10-20T13:28:00Z</time>
      </trkpt>
      <trkpt lat="45.69535" lon="4.63811">
        <ele>497</ele>
        <time>2012-10-20T13:28:02Z</time>
      </trkpt>
      <trkpt lat="45.69529" lon="4.6381">
        <ele>495</ele>
        <time>2012-10-20T13:28:03Z</time>
      </trkpt>
      <trkpt lat="45.69524" lon="4.63811">
        <ele>495</ele>
        <time>2012-10-20T13:28:04Z</time>
      </trkpt>
      <trkpt lat="45.6952" lon="4.63813">
        <ele>494</ele>
        <time>2012-10-20T13:28:05Z</time>
      </trkpt>
      <trkpt lat="45.69518" lon="4.63818">
        <ele>494</ele>
        <time>2012-10-20T13:28:06Z</time>
      </trkpt>
      <trkpt lat="45.69517" lon="4.63824">
        <ele>494</ele>
        <time>2012-10-20T13:28:07Z</time>
      </trkpt>
      <trkpt lat="45.69516" lon="4.6383">
        <ele>494</ele>
        <time>2012-10-20T13:28:08Z</time>
      </trkpt>
      <trkpt lat="45.69516" lon="4.63836">
        <ele>494</ele>
        <time>2012-10-20T13:28:09Z</time>
      </trkpt>
      <trkpt lat="45.69514" lon="4.63886">
        <ele>494</ele>
        <time>2012-10-20T13:28:18Z</time>
      </trkpt>
      <trkpt lat="45.69514" lon="4.63922">
        <ele>492</ele>
        <time>2012-10-20T13:28:23Z</time>
      </trkpt>
      <trkpt lat="45.69519" lon="4.63952">
        <ele>492</ele>
        <time>2012-10-20T13:28:27Z</time>
      </trkpt>
      <trkpt lat="45.69519" lon="4.63959">
        <ele>490</ele>
        <time>2012-10-20T13:28:28Z</time>
      </trkpt>
      <trkpt lat="45.6952" lon="4.63972">
        <ele>489</ele>
        <time>2012-10-20T13:28:30Z</time>
      </trkpt>
      <trkpt lat="45.69518" lon="4.63987">
        <ele>486</ele>
        <time>2012-10-20T13:28:33Z</time>
      </trkpt>
      <trkpt lat="45.69517" lon="4.63989">
        <ele>486</ele>
        <time>2012-10-20T13:28:34Z</time>
      </trkpt>
      <trkpt lat="45.69516" lon="4.63991">
        <ele>486</ele>
        <time>2012-10-20T13:28:36Z</time>
      </trkpt>
      <trkpt lat="45.69514" lon="4.63991">
        <ele>486</ele>
        <time>2012-10-20T13:28:37Z</time>
      </trkpt>
      <trkpt lat="45.69512" lon="4.63991">
        <ele>486</ele>
        <time>2012-10-20T13:28:38Z</time>
      </trkpt>
      <trkpt lat="45.69493" lon="4.6399">
        <ele>485</ele>
        <time>2012-10-20T13:28:45Z</time>
      </trkpt>
      <trkpt lat="45.69471" lon="4.63988">
        <ele>484</ele>
        <time>2012-10-20T13:28:50Z</time>
      </trkpt>
      <trkpt lat="45.69466" lon="4.63988">
        <ele>483</ele>
        <time>2012-10-20T13:28:51Z</time>
      </trkpt>
      <trkpt lat="45.6946" lon="4.63989">
        <ele>483</ele>
        <time>2012-10-20T13:28:52Z</time>
      </trkpt>
      <trkpt lat="45.69431" lon="4.63998">
        <ele>479</ele>
        <time>2012-10-20T13:28:56Z</time>
      </trkpt>
      <trkpt lat="45.69409" lon="4.64006">
        <ele>476</ele>
        <time>2012-10-20T13:28:59Z</time>
      </trkpt>
      <trkpt lat="45.69387" lon="4.64011">
        <ele>472</ele>
        <time>2012-10-20T13:29:02Z</time>
      </trkpt>
      <trkpt lat="45.69367" lon="4.64017">
        <ele>469</ele>
        <time>2012-10-20T13:29:05Z</time>
      </trkpt>
      <trkpt lat="45.6936" lon="4.64019">
        <ele>468</ele>
        <time>2012-10-20T13:29:06Z</time>
      </trkpt>
      <trkpt lat="45.69331" lon="4.64029">
        <ele>465</ele>
        <time>2012-10-20T13:29:10Z</time>
      </trkpt>
      <trkpt lat="45.69303" lon="4.64039">
        <ele>461</ele>
        <time>2012-10-20T13:29:14Z</time>
      </trkpt>
      <trkpt lat="45.69289" lon="4.64044">
        <ele>460</ele>
        <time>2012-10-20T13:29:16Z</time>
      </trkpt>
      <trkpt lat="45.69273" lon="4.64049">
        <ele>458</ele>
        <time>2012-10-20T13:29:18Z</time>
      </trkpt>
      <trkpt lat="45.69243" lon="4.64058">
        <ele>455</ele>
        <time>2012-10-20T13:29:22Z</time>
      </trkpt>
      <trkpt lat="45.69214" lon="4.64064">
        <ele>451</ele>
        <time>2012-10-20T13:29:26Z</time>
      </trkpt>
      <trkpt lat="45.69202" lon="4.64066">
        <ele>451</ele>
        <time>2012-10-20T13:29:28Z</time>
      </trkpt>
      <trkpt lat="45.69196" lon="4.64066">
        <ele>449</ele>
        <time>2012-10-20T13:29:29Z</time>
      </trkpt>
      <trkpt lat="45.6919" lon="4.64067">
        <ele>449</ele>
        <time>2012-10-20T13:29:30Z</time>
      </trkpt>
      <trkpt lat="45.69184" lon="4.64067">
        <ele>448</ele>
        <time>2012-10-20T13:29:31Z</time>
      </trkpt>
      <trkpt lat="45.69178" lon="4.64068">
        <ele>447</ele>
        <time>2012-10-20T13:29:32Z</time>
      </trkpt>
      <trkpt lat="45.69154" lon="4.64069">
        <ele>444</ele>
        <time>2012-10-20T13:29:36Z</time>
      </trkpt>
      <trkpt lat="45.69149" lon="4.64069">
        <ele>443</ele>
        <time>2012-10-20T13:29:37Z</time>
      </trkpt>
      <trkpt lat="45.69144" lon="4.64069">
        <ele>441</ele>
        <time>2012-10-20T13:29:38Z</time>
      </trkpt>
      <trkpt lat="45.69139" lon="4.64069">
        <ele>440</ele>
        <time>2012-10-20T13:29:39Z</time>
      </trkpt>
      <trkpt lat="45.69112" lon="4.64073">
        <ele>436</ele>
        <time>2012-10-20T13:29:44Z</time>
      </trkpt>
      <trkpt lat="45.69107" lon="4.64074">
        <ele>436</ele>
        <time>2012-10-20T13:29:45Z</time>
      </trkpt>
      <trkpt lat="45.69103" lon="4.64074">
        <ele>435</ele>
        <time>2012-10-20T13:29:46Z</time>
      </trkpt>
      <trkpt lat="45.691" lon="4.64074">
        <ele>434</ele>
        <time>2012-10-20T13:29:47Z</time>
      </trkpt>
      <trkpt lat="45.69095" lon="4.64075">
        <ele>433</ele>
        <time>2012-10-20T13:29:48Z</time>
      </trkpt>
      <trkpt lat="45.6909" lon="4.64076">
        <ele>432</ele>
        <time>2012-10-20T13:29:49Z</time>
      </trkpt>
      <trkpt lat="45.69086" lon="4.64079">
        <ele>431</ele>
        <time>2012-10-20T13:29:50Z</time>
      </trkpt>
      <trkpt lat="45.69082" lon="4.64082">
        <ele>430</ele>
        <time>2012-10-20T13:29:51Z</time>
      </trkpt>
      <trkpt lat="45.69078" lon="4.64085">
        <ele>430</ele>
        <time>2012-10-20T13:29:52Z</time>
      </trkpt>
      <trkpt lat="45.69074" lon="4.64086">
        <ele>429</ele>
        <time>2012-10-20T13:29:53Z</time>
      </trkpt>
      <trkpt lat="45.69069" lon="4.64088">
        <ele>428</ele>
        <time>2012-10-20T13:29:54Z</time>
      </trkpt>
      <trkpt lat="45.69065" lon="4.64089">
        <ele>427</ele>
        <time>2012-10-20T13:29:55Z</time>
      </trkpt>
      <trkpt lat="45.69062" lon="4.6409">
        <ele>426</ele>
        <time>2012-10-20T13:29:56Z</time>
      </trkpt>
      <trkpt lat="45.69058" lon="4.6409">
        <ele>426</ele>
        <time>2012-10-20T13:29:57Z</time>
      </trkpt>
      <trkpt lat="45.69055" lon="4.6409">
        <ele>425</ele>
        <time>2012-10-20T13:29:58Z</time>
      </trkpt>
      <trkpt lat="45.69052" lon="4.64091">
        <ele>424</ele>
        <time>2012-10-20T13:29:59Z</time>
      </trkpt>
      <trkpt lat="45.69041" lon="4.64092">
        <ele>422</ele>
        <time>2012-10-20T13:30:02Z</time>
      </trkpt>
      <trkpt lat="45.69028" lon="4.64091">
        <ele>419</ele>
        <time>2012-10-20T13:30:05Z</time>
      </trkpt>
      <trkpt lat="45.69018" lon="4.64093">
        <ele>415</ele>
        <time>2012-10-20T13:30:08Z</time>
      </trkpt>
      <trkpt lat="45.69015" lon="4.64094">
        <ele>416</ele>
        <time>2012-10-20T13:30:09Z</time>
      </trkpt>
      <trkpt lat="45.69007" lon="4.64097">
        <ele>413</ele>
        <time>2012-10-20T13:30:12Z</time>
      </trkpt>
      <trkpt lat="45.69001" lon="4.64108">
        <ele>410</ele>
        <time>2012-10-20T13:30:15Z</time>
      </trkpt>
      <trkpt lat="45.68996" lon="4.6412">
        <ele>408</ele>
        <time>2012-10-20T13:30:18Z</time>
      </trkpt>
      <trkpt lat="45.68994" lon="4.64121">
        <ele>408</ele>
        <time>2012-10-20T13:30:19Z</time>
      </trkpt>
      <trkpt lat="45.68992" lon="4.64121">
        <ele>407</ele>
        <time>2012-10-20T13:30:20Z</time>
      </trkpt>
      <trkpt lat="45.6899" lon="4.64119">
        <ele>408</ele>
        <time>2012-10-20T13:30:21Z</time>
      </trkpt>
      <trkpt lat="45.68986" lon="4.64117">
        <ele>407</ele>
        <time>2012-10-20T13:30:22Z</time>
      </trkpt>
      <trkpt lat="45.68982" lon="4.64115">
        <ele>406</ele>
        <time>2012-10-20T13:30:23Z</time>
      </trkpt>
      <trkpt lat="45.68978" lon="4.64115">
        <ele>406</ele>
        <time>2012-10-20T13:30:24Z</time>
      </trkpt>
      <trkpt lat="45.68973" lon="4.64115">
        <ele>406</ele>
        <time>2012-10-20T13:30:25Z</time>
      </trkpt>
      <trkpt lat="45.6897" lon="4.64116">
        <ele>406</ele>
        <time>2012-10-20T13:30:26Z</time>
      </trkpt>
      <trkpt lat="45.68966" lon="4.64118">
        <ele>406</ele>
        <time>2012-10-20T13:30:27Z</time>
      </trkpt>
      <trkpt lat="45.68963" lon="4.64121">
        <ele>406</ele>
        <time>2012-10-20T13:30:28Z</time>
      </trkpt>
      <trkpt lat="45.68955" lon="4.64125">
        <ele>407</ele>
        <time>2012-10-20T13:30:33Z</time>
      </trkpt>
      <trkpt lat="45.68946" lon="4.6413">
        <ele>408</ele>
        <time>2012-10-20T13:30:40Z</time>
      </trkpt>
      <trkpt lat="45.68936" lon="4.64132">
        <ele>410</ele>
        <time>2012-10-20T13:30:48Z</time>
      </trkpt>
      <trkpt lat="45.68923" lon="4.64134">
        <ele>411</ele>
        <time>2012-10-20T13:30:56Z</time>
      </trkpt>
      <trkpt lat="45.68916" lon="4.64136">
        <ele>413</ele>
        <time>2012-10-20T13:31:01Z</time>
      </trkpt>
      <trkpt lat="45.68915" lon="4.64136">
        <ele>413</ele>
        <time>2012-10-20T13:31:02Z</time>
      </trkpt>
      <trkpt lat="45.68905" lon="4.64141">
        <ele>414</ele>
        <time>2012-10-20T13:31:11Z</time>
      </trkpt>
      <trkpt lat="45.68894" lon="4.64148">
        <ele>415</ele>
        <time>2012-10-20T13:31:20Z</time>
      </trkpt>
      <trkpt lat="45.68893" lon="4.64149">
        <ele>416</ele>
        <time>2012-10-20T13:31:21Z</time>
      </trkpt>
      <trkpt lat="45.68892" lon="4.64151">
        <ele>415</ele>
        <time>2012-10-20T13:31:22Z</time>
      </trkpt>
      <trkpt lat="45.68881" lon="4.6416">
        <ele>416</ele>
        <time>2012-10-20T13:31:30Z</time>
      </trkpt>
      <trkpt lat="45.68869" lon="4.6417">
        <ele>416</ele>
        <time>2012-10-20T13:31:38Z</time>
      </trkpt>
      <trkpt lat="45.68857" lon="4.6418">
        <ele>418</ele>
        <time>2012-10-20T13:31:46Z</time>
      </trkpt>
      <trkpt lat="45.68848" lon="4.64192">
        <ele>419</ele>
        <time>2012-10-20T13:31:54Z</time>
      </trkpt>
      <trkpt lat="45.68836" lon="4.64208">
        <ele>419</ele>
        <time>2012-10-20T13:32:03Z</time>
      </trkpt>
      <trkpt lat="45.68824" lon="4.64223">
        <ele>419</ele>
        <time>2012-10-20T13:32:10Z</time>
      </trkpt>
      <trkpt lat="45.68812" lon="4.64237">
        <ele>419</ele>
        <time>2012-10-20T13:32:17Z</time>
      </trkpt>
      <trkpt lat="45.68799" lon="4.64251">
        <ele>419</ele>
        <time>2012-10-20T13:32:24Z</time>
      </trkpt>
      <trkpt lat="45.68782" lon="4.64265">
        <ele>419</ele>
        <time>2012-10-20T13:32:32Z</time>
      </trkpt>
      <trkpt lat="45.68764" lon="4.64275">
        <ele>418</ele>
        <time>2012-10-20T13:32:40Z</time>
      </trkpt>
      <trkpt lat="45.68741" lon="4.64275">
        <ele>419</ele>
        <time>2012-10-20T13:32:49Z</time>
      </trkpt>
      <trkpt lat="45.68721" lon="4.64272">
        <ele>421</ele>
        <time>2012-10-20T13:32:58Z</time>
      </trkpt>
      <trkpt lat="45.68717" lon="4.64269">
        <ele>422</ele>
        <time>2012-10-20T13:33:01Z</time>
      </trkpt>
      <trkpt lat="45.68715" lon="4.64269">
        <ele>422</ele>
        <time>2012-10-20T13:33:02Z</time>
      </trkpt>
      <trkpt lat="45.68713" lon="4.64268">
        <ele>422</ele>
        <time>2012-10-20T13:33:03Z</time>
      </trkpt>
      <trkpt lat="45.68688" lon="4.64262">
        <ele>422</ele>
        <time>2012-10-20T13:33:13Z</time>
      </trkpt>
      <trkpt lat="45.68669" lon="4.64257">
        <ele>422</ele>
        <time>2012-10-20T13:33:20Z</time>
      </trkpt>
      <trkpt lat="45.68654" lon="4.64253">
        <ele>422</ele>
        <time>2012-10-20T13:33:27Z</time>
      </trkpt>
      <trkpt lat="45.68631" lon="4.64242">
        <ele>422</ele>
        <time>2012-10-20T13:33:36Z</time>
      </trkpt>
      <trkpt lat="45.68612" lon="4.64235">
        <ele>421</ele>
        <time>2012-10-20T13:33:43Z</time>
      </trkpt>
      <trkpt lat="45.68585" lon="4.64223">
        <ele>420</ele>
        <time>2012-10-20T13:33:50Z</time>
      </trkpt>
      <trkpt lat="45.68559" lon="4.64208">
        <ele>417</ele>
        <time>2012-10-20T13:33:57Z</time>
      </trkpt>
      <trkpt lat="45.68547" lon="4.642">
        <ele>415</ele>
        <time>2012-10-20T13:34:02Z</time>
      </trkpt>
      <trkpt lat="45.6854" lon="4.64198">
        <ele>414</ele>
        <time>2012-10-20T13:34:04Z</time>
      </trkpt>
      <trkpt lat="45.68535" lon="4.64195">
        <ele>413</ele>
        <time>2012-10-20T13:34:05Z</time>
      </trkpt>
      <trkpt lat="45.68511" lon="4.6418">
        <ele>411</ele>
        <time>2012-10-20T13:34:09Z</time>
      </trkpt>
      <trkpt lat="45.68489" lon="4.64167">
        <ele>407</ele>
        <time>2012-10-20T13:34:12Z</time>
      </trkpt>
      <trkpt lat="45.68458" lon="4.64152">
        <ele>402</ele>
        <time>2012-10-20T13:34:16Z</time>
      </trkpt>
      <trkpt lat="45.68442" lon="4.64144">
        <ele>399</ele>
        <time>2012-10-20T13:34:18Z</time>
      </trkpt>
      <trkpt lat="45.68434" lon="4.6414">
        <ele>398</ele>
        <time>2012-10-20T13:34:19Z</time>
      </trkpt>
      <trkpt lat="45.68426" lon="4.64138">
        <ele>397</ele>
        <time>2012-10-20T13:34:20Z</time>
      </trkpt>
      <trkpt lat="45.68419" lon="4.64138">
        <ele>395</ele>
        <time>2012-10-20T13:34:21Z</time>
      </trkpt>
      <trkpt lat="45.68412" lon="4.64139">
        <ele>395</ele>
        <time>2012-10-20T13:34:22Z</time>
      </trkpt>
      <trkpt lat="45.68405" lon="4.64141">
        <ele>393</ele>
        <time>2012-10-20T13:34:23Z</time>
      </trkpt>
      <trkpt lat="45.684" lon="4.64143">
        <ele>391</ele>
        <time>2012-10-20T13:34:24Z</time>
      </trkpt>
      <trkpt lat="45.68395" lon="4.64143">
        <ele>391</ele>
        <time>2012-10-20T13:34:25Z</time>
      </trkpt>
      <trkpt lat="45.68391" lon="4.64138">
        <ele>390</ele>
        <time>2012-10-20T13:34:26Z</time>
      </trkpt>
      <trkpt lat="45.68389" lon="4.64132">
        <ele>389</ele>
        <time>2012-10-20T13:34:27Z</time>
      </trkpt>
      <trkpt lat="45.68388" lon="4.64126">
        <ele>389</ele>
        <time>2012-10-20T13:34:28Z</time>
      </trkpt>
      <trkpt lat="45.68388" lon="4.6412">
        <ele>389</ele>
        <time>2012-10-20T13:34:29Z</time>
      </trkpt>
      <trkpt lat="45.68387" lon="4.64115">
        <ele>390</ele>
        <time>2012-10-20T13:34:30Z</time>
      </trkpt>
      <trkpt lat="45.68386" lon="4.64111">
        <ele>390</ele>
        <time>2012-10-20T13:34:31Z</time>
      </trkpt>
      <trkpt lat="45.68384" lon="4.64107">
        <ele>390</ele>
        <time>2012-10-20T13:34:32Z</time>
      </trkpt>
      <trkpt lat="45.68382" lon="4.64104">
        <ele>389</ele>
        <time>2012-10-20T13:34:33Z</time>
      </trkpt>
      <trkpt lat="45.68366" lon="4.64078">
        <ele>390</ele>
        <time>2012-10-20T13:34:42Z</time>
      </trkpt>
      <trkpt lat="45.68344" lon="4.64062">
        <ele>392</ele>
        <time>2012-10-20T13:34:51Z</time>
      </trkpt>
      <trkpt lat="45.68316" lon="4.64061">
        <ele>394</ele>
        <time>2012-10-20T13:35:01Z</time>
      </trkpt>
      <trkpt lat="45.68294" lon="4.64076">
        <ele>394</ele>
        <time>2012-10-20T13:35:10Z</time>
      </trkpt>
      <trkpt lat="45.68279" lon="4.64085">
        <ele>394</ele>
        <time>2012-10-20T13:35:16Z</time>
      </trkpt>
      <trkpt lat="45.68263" lon="4.64087">
        <ele>394</ele>
        <time>2012-10-20T13:35:23Z</time>
      </trkpt>
      <trkpt lat="45.6826" lon="4.64085">
        <ele>393</ele>
        <time>2012-10-20T13:35:24Z</time>
      </trkpt>
      <trkpt lat="45.68258" lon="4.64082">
        <ele>394</ele>
        <time>2012-10-20T13:35:25Z</time>
      </trkpt>
      <trkpt lat="45.68257" lon="4.64079">
        <ele>394</ele>
        <time>2012-10-20T13:35:26Z</time>
      </trkpt>
      <trkpt lat="45.68244" lon="4.6406">
        <ele>394</ele>
        <time>2012-10-20T13:35:33Z</time>
      </trkpt>
      <trkpt lat="45.68229" lon="4.64036">
        <ele>394</ele>
        <time>2012-10-20T13:35:41Z</time>
      </trkpt>
      <trkpt lat="45.68219" lon="4.64008">
        <ele>395</ele>
        <time>2012-10-20T13:35:49Z</time>
      </trkpt>
      <trkpt lat="45.68216" lon="4.64004">
        <ele>395</ele>
        <time>2012-10-20T13:35:51Z</time>
      </trkpt>
      <trkpt lat="45.68214" lon="4.64004">
        <ele>395</ele>
        <time>2012-10-20T13:35:52Z</time>
      </trkpt>
      <trkpt lat="45.68212" lon="4.64005">
        <ele>396</ele>
        <time>2012-10-20T13:35:53Z</time>
      </trkpt>
      <trkpt lat="45.6821" lon="4.64006">
        <ele>395</ele>
        <time>2012-10-20T13:35:54Z</time>
      </trkpt>
      <trkpt lat="45.68208" lon="4.64008">
        <ele>395</ele>
        <time>2012-10-20T13:35:55Z</time>
      </trkpt>
      <trkpt lat="45.68205" lon="4.64011">
        <ele>396</ele>
        <time>2012-10-20T13:35:56Z</time>
      </trkpt>
      <trkpt lat="45.68203" lon="4.64015">
        <ele>396</ele>
        <time>2012-10-20T13:35:57Z</time>
      </trkpt>
      <trkpt lat="45.682" lon="4.6402">
        <ele>395</ele>
        <time>2012-10-20T13:35:58Z</time>
      </trkpt>
      <trkpt lat="45.68197" lon="4.64024">
        <ele>395</ele>
        <time>2012-10-20T13:35:59Z</time>
      </trkpt>
      <trkpt lat="45.68176" lon="4.6405">
        <ele>394</ele>
        <time>2012-10-20T13:36:06Z</time>
      </trkpt>
      <trkpt lat="45.68173" lon="4.64056">
        <ele>392</ele>
        <time>2012-10-20T13:36:08Z</time>
      </trkpt>
      <trkpt lat="45.68172" lon="4.64058">
        <ele>392</ele>
        <time>2012-10-20T13:36:09Z</time>
      </trkpt>
      <trkpt lat="45.68169" lon="4.64059">
        <ele>392</ele>
        <time>2012-10-20T13:36:10Z</time>
      </trkpt>
      <trkpt lat="45.68165" lon="4.64059">
        <ele>391</ele>
        <time>2012-10-20T13:36:11Z</time>
      </trkpt>
      <trkpt lat="45.68163" lon="4.64058">
        <ele>392</ele>
        <time>2012-10-20T13:36:12Z</time>
      </trkpt>
      <trkpt lat="45.68161" lon="4.64057">
        <ele>391</ele>
        <time>2012-10-20T13:36:13Z</time>
      </trkpt>
      <trkpt lat="45.68161" lon="4.64055">
        <ele>390</ele>
        <time>2012-10-20T13:36:14Z</time>
      </trkpt>
      <trkpt lat="45.6816" lon="4.64052">
        <ele>391</ele>
        <time>2012-10-20T13:36:15Z</time>
      </trkpt>
      <trkpt lat="45.6816" lon="4.64048">
        <ele>391</ele>
        <time>2012-10-20T13:36:16Z</time>
      </trkpt>
      <trkpt lat="45.6816" lon="4.64045">
        <ele>391</ele>
        <time>2012-10-20T13:36:17Z</time>
      </trkpt>
      <trkpt lat="45.68161" lon="4.64042">
        <ele>391</ele>
        <time>2012-10-20T13:36:18Z</time>
      </trkpt>
      <trkpt lat="45.68161" lon="4.6404">
        <ele>391</ele>
        <time>2012-10-20T13:36:19Z</time>
      </trkpt>
      <trkpt lat="45.68161" lon="4.64038">
        <ele>391</ele>
        <time>2012-10-20T13:36:20Z</time>
      </trkpt>
      <trkpt lat="45.68159" lon="4.64036">
        <ele>391</ele>
        <time>2012-10-20T13:36:21Z</time>
      </trkpt>
      <trkpt lat="45.68158" lon="4.64034">
        <ele>391</ele>
        <time>2012-10-20T13:36:22Z</time>
      </trkpt>
      <trkpt lat="45.68155" lon="4.64032">
        <ele>390</ele>
        <time>2012-10-20T13:36:23Z</time>
      </trkpt>
      <trkpt lat="45.68141" lon="4.64027">
        <ele>390</ele>
        <time>2012-10-20T13:36:27Z</time>
      </trkpt>
      <trkpt lat="45.68136" lon="4.64027">
        <ele>389</ele>
        <time>2012-10-20T13:36:28Z</time>
      </trkpt>
      <trkpt lat="45.68131" lon="4.64028">
        <ele>389</ele>
        <time>2012-10-20T13:36:29Z</time>
      </trkpt>
      <trkpt lat="45.68125" lon="4.6403">
        <ele>389</ele>
        <time>2012-10-20T13:36:30Z</time>
      </trkpt>
      <trkpt lat="45.68118" lon="4.64032">
        <ele>389</ele>
        <time>2012-10-20T13:36:31Z</time>
      </trkpt>
      <trkpt lat="45.68074" lon="4.64052">
        <ele>385</ele>
        <time>2012-10-20T13:36:37Z</time>
      </trkpt>
      <trkpt lat="45.68037" lon="4.64075">
        <ele>382</ele>
        <time>2012-10-20T13:36:42Z</time>
      </trkpt>
      <trkpt lat="45.68022" lon="4.64086">
        <ele>380</ele>
        <time>2012-10-20T13:36:44Z</time>
      </trkpt>
      <trkpt lat="45.67983" lon="4.64106">
        <ele>376</ele>
        <time>2012-10-20T13:36:48Z</time>
      </trkpt>
      <trkpt lat="45.67951" lon="4.64121">
        <ele>372</ele>
        <time>2012-10-20T13:36:51Z</time>
      </trkpt>
      <trkpt lat="45.67924" lon="4.64135">
        <ele>369</ele>
        <time>2012-10-20T13:36:54Z</time>
      </trkpt>
      <trkpt lat="45.67917" lon="4.64139">
        <ele>367</ele>
        <time>2012-10-20T13:36:55Z</time>
      </trkpt>
      <trkpt lat="45.67906" lon="4.64143">
        <ele>365</ele>
        <time>2012-10-20T13:36:57Z</time>
      </trkpt>
      <trkpt lat="45.67903" lon="4.64144">
        <ele>364</ele>
        <time>2012-10-20T13:36:58Z</time>
      </trkpt>
      <trkpt lat="45.67901" lon="4.64146">
        <ele>363</ele>
        <time>2012-10-20T13:36:59Z</time>
      </trkpt>
      <trkpt lat="45.679" lon="4.64149">
        <ele>363</ele>
        <time>2012-10-20T13:37:00Z</time>
      </trkpt>
      <trkpt lat="45.679" lon="4.64151">
        <ele>363</ele>
        <time>2012-10-20T13:37:01Z</time>
      </trkpt>
      <trkpt lat="45.67899" lon="4.64153">
        <ele>363</ele>
        <time>2012-10-20T13:37:02Z</time>
      </trkpt>
      <trkpt lat="45.67898" lon="4.64154">
        <ele>363</ele>
        <time>2012-10-20T13:37:03Z</time>
      </trkpt>
      <trkpt lat="45.67897" lon="4.64155">
        <ele>362</ele>
        <time>2012-10-20T13:37:04Z</time>
      </trkpt>
      <trkpt lat="45.67895" lon="4.64154">
        <ele>363</ele>
        <time>2012-10-20T13:37:05Z</time>
      </trkpt>
      <trkpt lat="45.67893" lon="4.64154">
        <ele>362</ele>
        <time>2012-10-20T13:37:06Z</time>
      </trkpt>
      <trkpt lat="45.67891" lon="4.64155">
        <ele>362</ele>
        <time>2012-10-20T13:37:07Z</time>
      </trkpt>
      <trkpt lat="45.67888" lon="4.64155">
        <ele>361</ele>
        <time>2012-10-20T13:37:08Z</time>
      </trkpt>
      <trkpt lat="45.67885" lon="4.64155">
        <ele>360</ele>
        <time>2012-10-20T13:37:09Z</time>
      </trkpt>
      <trkpt lat="45.6788" lon="4.64155">
        <ele>359</ele>
        <time>2012-10-20T13:37:11Z</time>
      </trkpt>
      <trkpt lat="45.67876" lon="4.64155">
        <ele>359</ele>
        <time>2012-10-20T13:37:13Z</time>
      </trkpt>
      <trkpt lat="45.67869" lon="4.64166">
        <ele>359</ele>
        <time>2012-10-20T13:37:19Z</time>
      </trkpt>
      <trkpt lat="45.67866" lon="4.64167">
        <ele>357</ele>
        <time>2012-10-20T13:37:20Z</time>
      </trkpt>
      <trkpt lat="45.67861" lon="4.64169">
        <ele>357</ele>
        <time>2012-10-20T13:37:21Z</time>
      </trkpt>
      <trkpt lat="45.67855" lon="4.6417">
        <ele>356</ele>
        <time>2012-10-20T13:37:22Z</time>
      </trkpt>
      <trkpt lat="45.67849" lon="4.64173">
        <ele>356</ele>
        <time>2012-10-20T13:37:23Z</time>
      </trkpt>
      <trkpt lat="45.67833" lon="4.6418">
        <ele>354</ele>
        <time>2012-10-20T13:37:25Z</time>
      </trkpt>
      <trkpt lat="45.67825" lon="4.64184">
        <ele>353</ele>
        <time>2012-10-20T13:37:26Z</time>
      </trkpt>
      <trkpt lat="45.67817" lon="4.64187">
        <ele>353</ele>
        <time>2012-10-20T13:37:27Z</time>
      </trkpt>
      <trkpt lat="45.6781" lon="4.64191">
        <ele>352</ele>
        <time>2012-10-20T13:37:28Z</time>
      </trkpt>
      <trkpt lat="45.67802" lon="4.64196">
        <ele>352</ele>
        <time>2012-10-20T13:37:29Z</time>
      </trkpt>
      <trkpt lat="45.67795" lon="4.642">
        <ele>352</ele>
        <time>2012-10-20T13:37:30Z</time>
      </trkpt>
      <trkpt lat="45.67776" lon="4.6421">
        <ele>352</ele>
        <time>2012-10-20T13:37:33Z</time>
      </trkpt>
      <trkpt lat="45.67773" lon="4.64216">
        <ele>352</ele>
        <time>2012-10-20T13:37:34Z</time>
      </trkpt>
      <trkpt lat="45.67773" lon="4.64224">
        <ele>352</ele>
        <time>2012-10-20T13:37:35Z</time>
      </trkpt>
      <trkpt lat="45.67774" lon="4.64232">
        <ele>352</ele>
        <time>2012-10-20T13:37:36Z</time>
      </trkpt>
      <trkpt lat="45.67775" lon="4.64239">
        <ele>352</ele>
        <time>2012-10-20T13:37:37Z</time>
      </trkpt>
      <trkpt lat="45.67784" lon="4.64278">
        <ele>351</ele>
        <time>2012-10-20T13:37:44Z</time>
      </trkpt>
      <trkpt lat="45.6779" lon="4.643">
        <ele>351</ele>
        <time>2012-10-20T13:37:49Z</time>
      </trkpt>
      <trkpt lat="45.67801" lon="4.64323">
        <ele>350</ele>
        <time>2012-10-20T13:37:54Z</time>
      </trkpt>
      <trkpt lat="45.67819" lon="4.64349">
        <ele>350</ele>
        <time>2012-10-20T13:38:01Z</time>
      </trkpt>
      <trkpt lat="45.67842" lon="4.64374">
        <ele>349</ele>
        <time>2012-10-20T13:38:08Z</time>
      </trkpt>
      <trkpt lat="45.67863" lon="4.64404">
        <ele>349</ele>
        <time>2012-10-20T13:38:15Z</time>
      </trkpt>
      <trkpt lat="45.67872" lon="4.64431">
        <ele>348</ele>
        <time>2012-10-20T13:38:20Z</time>
      </trkpt>
      <trkpt lat="45.67873" lon="4.64437">
        <ele>348</ele>
        <time>2012-10-20T13:38:21Z</time>
      </trkpt>
      <trkpt lat="45.67874" lon="4.64443">
        <ele>348</ele>
        <time>2012-10-20T13:38:22Z</time>
      </trkpt>
      <trkpt lat="45.67875" lon="4.64455">
        <ele>348</ele>
        <time>2012-10-20T13:38:24Z</time>
      </trkpt>
      <trkpt lat="45.67876" lon="4.64461">
        <ele>348</ele>
        <time>2012-10-20T13:38:25Z</time>
      </trkpt>
      <trkpt lat="45.67882" lon="4.64503">
        <ele>346</ele>
        <time>2012-10-20T13:38:32Z</time>
      </trkpt>
      <trkpt lat="45.67882" lon="4.64509">
        <ele>347</ele>
        <time>2012-10-20T13:38:33Z</time>
      </trkpt>
      <trkpt lat="45.67883" lon="4.64534">
        <ele>346</ele>
        <time>2012-10-20T13:38:36Z</time>
      </trkpt>
      <trkpt lat="45.67882" lon="4.64583">
        <ele>345</ele>
        <time>2012-10-20T13:38:43Z</time>
      </trkpt>
      <trkpt lat="45.67881" lon="4.6459">
        <ele>345</ele>
        <time>2012-10-20T13:38:44Z</time>
      </trkpt>
      <trkpt lat="45.67881" lon="4.64597">
        <ele>344</ele>
        <time>2012-10-20T13:38:45Z</time>
      </trkpt>
      <trkpt lat="45.67879" lon="4.64642">
        <ele>344</ele>
        <time>2012-10-20T13:38:52Z</time>
      </trkpt>
      <trkpt lat="45.67877" lon="4.64655">
        <ele>344</ele>
        <time>2012-10-20T13:38:54Z</time>
      </trkpt>
      <trkpt lat="45.67876" lon="4.64662">
        <ele>344</ele>
        <time>2012-10-20T13:38:55Z</time>
      </trkpt>
      <trkpt lat="45.67875" lon="4.64669">
        <ele>343</ele>
        <time>2012-10-20T13:38:56Z</time>
      </trkpt>
      <trkpt lat="45.67874" lon="4.64675">
        <ele>343</ele>
        <time>2012-10-20T13:38:57Z</time>
      </trkpt>
      <trkpt lat="45.67873" lon="4.64682">
        <ele>344</ele>
        <time>2012-10-20T13:38:58Z</time>
      </trkpt>
      <trkpt lat="45.67867" lon="4.64746">
        <ele>342</ele>
        <time>2012-10-20T13:39:07Z</time>
      </trkpt>
      <trkpt lat="45.67866" lon="4.64773">
        <ele>342</ele>
        <time>2012-10-20T13:39:11Z</time>
      </trkpt>
      <trkpt lat="45.67866" lon="4.64779">
        <ele>342</ele>
        <time>2012-10-20T13:39:12Z</time>
      </trkpt>
      <trkpt lat="45.67868" lon="4.648">
        <ele>342</ele>
        <time>2012-10-20T13:39:15Z</time>
      </trkpt>
      <trkpt lat="45.67869" lon="4.64806">
        <ele>341</ele>
        <time>2012-10-20T13:39:16Z</time>
      </trkpt>
      <trkpt lat="45.6787" lon="4.64834">
        <ele>341</ele>
        <time>2012-10-20T13:39:21Z</time>
      </trkpt>
      <trkpt lat="45.67871" lon="4.6484">
        <ele>341</ele>
        <time>2012-10-20T13:39:22Z</time>
      </trkpt>
      <trkpt lat="45.67871" lon="4.64846">
        <ele>341</ele>
        <time>2012-10-20T13:39:23Z</time>
      </trkpt>
      <trkpt lat="45.67871" lon="4.64853">
        <ele>341</ele>
        <time>2012-10-20T13:39:24Z</time>
      </trkpt>
      <trkpt lat="45.6787" lon="4.64859">
        <ele>341</ele>
        <time>2012-10-20T13:39:25Z</time>
      </trkpt>
      <trkpt lat="45.67869" lon="4.64892">
        <ele>341</ele>
        <time>2012-10-20T13:39:30Z</time>
      </trkpt>
      <trkpt lat="45.67869" lon="4.64898">
        <ele>340</ele>
        <time>2012-10-20T13:39:31Z</time>
      </trkpt>
      <trkpt lat="45.67868" lon="4.64903">
        <ele>340</ele>
        <time>2012-10-20T13:39:32Z</time>
      </trkpt>
      <trkpt lat="45.67867" lon="4.64909">
        <ele>341</ele>
        <time>2012-10-20T13:39:33Z</time>
      </trkpt>
      <trkpt lat="45.67866" lon="4.64915">
        <ele>340</ele>
        <time>2012-10-20T13:39:34Z</time>
      </trkpt>
      <trkpt lat="45.67865" lon="4.6492">
        <ele>340</ele>
        <time>2012-10-20T13:39:35Z</time>
      </trkpt>
      <trkpt lat="45.67865" lon="4.64925">
        <ele>340</ele>
        <time>2012-10-20T13:39:36Z</time>
      </trkpt>
      <trkpt lat="45.67865" lon="4.64929">
        <ele>340</ele>
        <time>2012-10-20T13:39:37Z</time>
      </trkpt>
      <trkpt lat="45.67866" lon="4.64933">
        <ele>341</ele>
        <time>2012-10-20T13:39:38Z</time>
      </trkpt>
      <trkpt lat="45.67868" lon="4.64962">
        <ele>341</ele>
        <time>2012-10-20T13:39:46Z</time>
      </trkpt>
      <trkpt lat="45.67872" lon="4.64976">
        <ele>340</ele>
        <time>2012-10-20T13:39:53Z</time>
      </trkpt>
      <trkpt lat="45.67873" lon="4.64977">
        <ele>340</ele>
        <time>2012-10-20T13:40:04Z</time>
      </trkpt>
      <trkpt lat="45.67874" lon="4.64979">
        <ele>336</ele>
        <time>2012-10-20T13:40:13Z</time>
      </trkpt>
    </trkseg>
  </trk>
</gpx>